<?xml version='1.0' encoding='UTF-8'?><gpx version="1.1" creator="JPX - https://github.com/jenetics/jpx" xmlns="http://www.topografix.com/GPX/1/1"><trk><trkseg><trkpt lat="43.08446039159628" lon="11.676224346698428"><ele>450.0</ele><time>2026-04-03T14:16:30Z</time></trkpt><trkpt lat="43.084363191048006" lon="11.676222110095434"><ele>450.0</ele><time>2026-04-03T14:16:32Z</time></trkpt><trkpt lat="43.084243311798204" lon="11.67628438256938"><ele>450.0</ele><time>2026-04-03T14:16:34Z</time></trkpt><trkpt lat="43.08419220393162" lon="11.676358466806212"><ele>450.0</ele><time>2026-04-03T14:16:35Z</time></trkpt><trkpt lat="43.084155586594036" lon="11.676447910702164"><ele>450.0</ele><time>2026-04-03T14:16:36Z</time></trkpt><trkpt lat="43.08410383715997" lon="11.676533946112576"><ele>451.2</ele><time>2026-04-03T14:16:37Z</time></trkpt><trkpt lat="43.08402871373035" lon="11.67659773501453"><ele>452.4</ele><time>2026-04-03T14:16:38Z</time></trkpt><trkpt lat="43.083933031504465" lon="11.67663202348232"><ele>453.6</ele><time>2026-04-03T14:16:39Z</time></trkpt><trkpt lat="43.0838310126745" lon="11.676637556540634"><ele>454.8</ele><time>2026-04-03T14:16:40Z</time></trkpt><trkpt lat="43.08372501932253" lon="11.676628571159908"><ele>456.0</ele><time>2026-04-03T14:16:41Z</time></trkpt><trkpt lat="43.083610984014015" lon="11.676606350343805"><ele>456.0</ele><time>2026-04-03T14:16:42Z</time></trkpt><trkpt lat="43.08350059465524" lon="11.676586834095565"><ele>456.0</ele><time>2026-04-03T14:16:43Z</time></trkpt><trkpt lat="43.083388698610776" lon="11.67657087275832"><ele>456.0</ele><time>2026-04-03T14:16:44Z</time></trkpt><trkpt lat="43.08327138274118" lon="11.676551147940975"><ele>456.0</ele><time>2026-04-03T14:16:45Z</time></trkpt><trkpt lat="43.0831571255663" lon="11.676532916987648"><ele>457.25</ele><time>2026-04-03T14:16:46Z</time></trkpt><trkpt lat="43.08304013996809" lon="11.676518748914974"><ele>458.5</ele><time>2026-04-03T14:16:47Z</time></trkpt><trkpt lat="43.082922002646015" lon="11.6764958309855"><ele>459.75</ele><time>2026-04-03T14:16:48Z</time></trkpt><trkpt lat="43.08280349682485" lon="11.676473169618738"><ele>461.0</ele><time>2026-04-03T14:16:49Z</time></trkpt><trkpt lat="43.0826785216936" lon="11.676455351042026"><ele>461.0</ele><time>2026-04-03T14:16:50Z</time></trkpt><trkpt lat="43.08255179114137" lon="11.676437718837395"><ele>461.0</ele><time>2026-04-03T14:16:51Z</time></trkpt><trkpt lat="43.0824202646022" lon="11.676418753640942"><ele>461.0</ele><time>2026-04-03T14:16:52Z</time></trkpt><trkpt lat="43.08229235298724" lon="11.676399686525087"><ele>461.0</ele><time>2026-04-03T14:16:53Z</time></trkpt><trkpt lat="43.0821582558413" lon="11.676375058376374"><ele>463.25</ele><time>2026-04-03T14:16:54Z</time></trkpt><trkpt lat="43.08202041771273" lon="11.676352361996056"><ele>465.5</ele><time>2026-04-03T14:16:55.001Z</time></trkpt><trkpt lat="43.081880174717945" lon="11.676341099707285"><ele>467.75</ele><time>2026-04-03T14:16:56.001Z</time></trkpt><trkpt lat="43.08173736360421" lon="11.676334486467908"><ele>470.0</ele><time>2026-04-03T14:16:57.001Z</time></trkpt><trkpt lat="43.08159158963621" lon="11.676330345415977"><ele>472.0</ele><time>2026-04-03T14:16:58.001Z</time></trkpt><trkpt lat="43.0814435332309" lon="11.676340446019415"><ele>474.0</ele><time>2026-04-03T14:16:59.001Z</time></trkpt><trkpt lat="43.08129520386484" lon="11.676351009741659"><ele>476.0</ele><time>2026-04-03T14:17:00.001Z</time></trkpt><trkpt lat="43.081149738025395" lon="11.67636014547474"><ele>478.0</ele><time>2026-04-03T14:17:01.001Z</time></trkpt><trkpt lat="43.08100578953994" lon="11.676370611058719"><ele>478.0</ele><time>2026-04-03T14:17:02.001Z</time></trkpt><trkpt lat="43.08086666308311" lon="11.67638863702111"><ele>478.0</ele><time>2026-04-03T14:17:03.001Z</time></trkpt><trkpt lat="43.08073250518135" lon="11.676416042436525"><ele>478.0</ele><time>2026-04-03T14:17:04.001Z</time></trkpt><trkpt lat="43.080602289955074" lon="11.67645207614584"><ele>478.0</ele><time>2026-04-03T14:17:05.001Z</time></trkpt><trkpt lat="43.080471160929775" lon="11.676494182441786"><ele>479.75</ele><time>2026-04-03T14:17:06.001Z</time></trkpt><trkpt lat="43.0803459198692" lon="11.676547457385439"><ele>481.5</ele><time>2026-04-03T14:17:07.001Z</time></trkpt><trkpt lat="43.08023287330637" lon="11.676619658332429"><ele>483.25</ele><time>2026-04-03T14:17:08.001Z</time></trkpt><trkpt lat="43.080129555069306" lon="11.676694184148865"><ele>485.0</ele><time>2026-04-03T14:17:09.001Z</time></trkpt><trkpt lat="43.08003190070085" lon="11.676759830818696"><ele>485.0</ele><time>2026-04-03T14:17:10.001Z</time></trkpt><trkpt lat="43.07993802521648" lon="11.67682742907446"><ele>485.0</ele><time>2026-04-03T14:17:11.001Z</time></trkpt><trkpt lat="43.07983914772522" lon="11.676890582815634"><ele>485.0</ele><time>2026-04-03T14:17:12.001Z</time></trkpt><trkpt lat="43.07974668665026" lon="11.676951373315687"><ele>485.0</ele><time>2026-04-03T14:17:13.001Z</time></trkpt><trkpt lat="43.07965839007092" lon="11.677007234763368"><ele>485.0</ele><time>2026-04-03T14:17:14.001Z</time></trkpt><trkpt lat="43.079576816808945" lon="11.677060174956784"><ele>485.0</ele><time>2026-04-03T14:17:15.001Z</time></trkpt><trkpt lat="43.07949331407011" lon="11.677114921679818"><ele>485.0</ele><time>2026-04-03T14:17:16.001Z</time></trkpt><trkpt lat="43.07940295420147" lon="11.677170260184315"><ele>485.0</ele><time>2026-04-03T14:17:17.001Z</time></trkpt><trkpt lat="43.07931257212825" lon="11.67722353365647"><ele>485.0</ele><time>2026-04-03T14:17:18.001Z</time></trkpt><trkpt lat="43.07923350092798" lon="11.677274074202028"><ele>485.0</ele><time>2026-04-03T14:17:19.001Z</time></trkpt><trkpt lat="43.07916104526667" lon="11.677319601698448"><ele>485.4</ele><time>2026-04-03T14:17:20.001Z</time></trkpt><trkpt lat="43.07909543340019" lon="11.677362482073402"><ele>485.8</ele><time>2026-04-03T14:17:21.001Z</time></trkpt><trkpt lat="43.07899665927641" lon="11.677435244825048"><ele>486.20000000000005</ele><time>2026-04-03T14:17:23.001Z</time></trkpt><trkpt lat="43.07890934282778" lon="11.67750103093242"><ele>486.6</ele><time>2026-04-03T14:17:25.001Z</time></trkpt><trkpt lat="43.0787985733009" lon="11.677579587556975"><ele>487.0</ele><time>2026-04-03T14:17:27.001Z</time></trkpt><trkpt lat="43.0787399765883" lon="11.677617765743143"><ele>487.0</ele><time>2026-04-03T14:17:28.001Z</time></trkpt><trkpt lat="43.07863106991623" lon="11.677674683141754"><ele>487.00000000000006</ele><time>2026-04-03T14:17:30.001Z</time></trkpt><trkpt lat="43.07852538748481" lon="11.677740292128663"><ele>487.00000000000006</ele><time>2026-04-03T14:17:32.001Z</time></trkpt><trkpt lat="43.07846560311625" lon="11.677780830351496"><ele>487.0</ele><time>2026-04-03T14:17:33.001Z</time></trkpt><trkpt lat="43.078402157345074" lon="11.677818406311061"><ele>487.0</ele><time>2026-04-03T14:17:34.001Z</time></trkpt><trkpt lat="43.0783097552437" lon="11.677875660949795"><ele>487.50000000000006</ele><time>2026-04-03T14:17:36.001Z</time></trkpt><trkpt lat="43.07824600438995" lon="11.677900940737784"><ele>488.0</ele><time>2026-04-03T14:17:38.002Z</time></trkpt><trkpt lat="43.07813711710689" lon="11.677877644540644"><ele>488.5</ele><time>2026-04-03T14:17:40.002Z</time></trkpt><trkpt lat="43.07806836775426" lon="11.677844958479001"><ele>489.0</ele><time>2026-04-03T14:17:41.002Z</time></trkpt><trkpt lat="43.07799095685726" lon="11.677797155098345"><ele>489.50000000000006</ele><time>2026-04-03T14:17:42.002Z</time></trkpt><trkpt lat="43.07791185947808" lon="11.677732452795368"><ele>490.0</ele><time>2026-04-03T14:17:43.002Z</time></trkpt><trkpt lat="43.077835714317885" lon="11.677655857932455"><ele>490.00000000000006</ele><time>2026-04-03T14:17:44.002Z</time></trkpt><trkpt lat="43.07776633381361" lon="11.677586743796477"><ele>490.0</ele><time>2026-04-03T14:17:45.002Z</time></trkpt><trkpt lat="43.07770734076277" lon="11.677533629234276"><ele>490.0</ele><time>2026-04-03T14:17:45.998Z</time></trkpt><trkpt lat="43.07760373031777" lon="11.677502838293039"><ele>490.0</ele><time>2026-04-03T14:17:47.998Z</time></trkpt><trkpt lat="43.07755160249268" lon="11.677623014390647"><ele>490.00000000000006</ele><time>2026-04-03T14:17:49.998Z</time></trkpt><trkpt lat="43.07757235536729" lon="11.677728174172644"><ele>490.0</ele><time>2026-04-03T14:17:50.998Z</time></trkpt><trkpt lat="43.077580368734864" lon="11.677838601564977"><ele>490.2</ele><time>2026-04-03T14:17:51.998Z</time></trkpt><trkpt lat="43.07757825091265" lon="11.677958080458312"><ele>490.4</ele><time>2026-04-03T14:17:52.998Z</time></trkpt><trkpt lat="43.077569846615006" lon="11.678092949389363"><ele>490.6</ele><time>2026-04-03T14:17:53.998Z</time></trkpt><trkpt lat="43.07756462640441" lon="11.678231578484326"><ele>490.8</ele><time>2026-04-03T14:17:54.998Z</time></trkpt><trkpt lat="43.07755496421632" lon="11.678365068557676"><ele>491.0</ele><time>2026-04-03T14:17:55.998Z</time></trkpt><trkpt lat="43.077541902541064" lon="11.67847664740477"><ele>491.0</ele><time>2026-04-03T14:17:56.998Z</time></trkpt><trkpt lat="43.07753208133358" lon="11.678576077175473"><ele>491.0</ele><time>2026-04-03T14:17:57.998Z</time></trkpt><trkpt lat="43.07752180999598" lon="11.678669828744411"><ele>491.0</ele><time>2026-04-03T14:17:58.998Z</time></trkpt><trkpt lat="43.07750887815925" lon="11.678821782564027"><ele>491.0</ele><time>2026-04-03T14:18:00.998Z</time></trkpt><trkpt lat="43.07749858201126" lon="11.678999276581747"><ele>491.0</ele><time>2026-04-03T14:18:02.998Z</time></trkpt><trkpt lat="43.07749207380274" lon="11.679108947909448"><ele>490.99999999999994</ele><time>2026-04-03T14:18:03.999Z</time></trkpt><trkpt lat="43.077487862191155" lon="11.679225127183381"><ele>491.0</ele><time>2026-04-03T14:18:04.999Z</time></trkpt><trkpt lat="43.077478983029415" lon="11.67934684193737"><ele>491.0</ele><time>2026-04-03T14:18:05.999Z</time></trkpt><trkpt lat="43.07746585284191" lon="11.679460456949062"><ele>491.0</ele><time>2026-04-03T14:18:06.999Z</time></trkpt><trkpt lat="43.077446354807584" lon="11.679552355788745"><ele>490.99999999999994</ele><time>2026-04-03T14:18:07.999Z</time></trkpt><trkpt lat="43.077427278298764" lon="11.679638578675396"><ele>491.0</ele><time>2026-04-03T14:18:08.999Z</time></trkpt><trkpt lat="43.077385123644106" lon="11.679802808379218"><ele>491.3333333333333</ele><time>2026-04-03T14:18:10.999Z</time></trkpt><trkpt lat="43.07736122416376" lon="11.679890690362928"><ele>491.66666666666663</ele><time>2026-04-03T14:18:11.999Z</time></trkpt><trkpt lat="43.07733787097547" lon="11.679980778924415"><ele>492.0</ele><time>2026-04-03T14:18:12.999Z</time></trkpt><trkpt lat="43.077317593891436" lon="11.680063070788709"><ele>492.33333333333337</ele><time>2026-04-03T14:18:13.999Z</time></trkpt><trkpt lat="43.07728721676894" lon="11.68021964204075"><ele>492.6666666666667</ele><time>2026-04-03T14:18:15.999Z</time></trkpt><trkpt lat="43.077248871147965" lon="11.680385353686964"><ele>493.0</ele><time>2026-04-03T14:18:17.999Z</time></trkpt><trkpt lat="43.07722772473695" lon="11.680475746993046"><ele>493.00000000000006</ele><time>2026-04-03T14:18:18.999Z</time></trkpt><trkpt lat="43.07720763937078" lon="11.680572014952006"><ele>493.0</ele><time>2026-04-03T14:18:19.999Z</time></trkpt><trkpt lat="43.077186905432434" lon="11.680674790140671"><ele>493.0</ele><time>2026-04-03T14:18:20.999Z</time></trkpt><trkpt lat="43.077161129993975" lon="11.68077406491904"><ele>493.0</ele><time>2026-04-03T14:18:22Z</time></trkpt><trkpt lat="43.07713501632219" lon="11.680877505959902"><ele>493.00000000000006</ele><time>2026-04-03T14:18:23Z</time></trkpt><trkpt lat="43.077108502422696" lon="11.68098152538818"><ele>493.0</ele><time>2026-04-03T14:18:24Z</time></trkpt><trkpt lat="43.07708586146985" lon="11.681086425540736"><ele>491.57142857142856</ele><time>2026-04-03T14:18:25Z</time></trkpt><trkpt lat="43.07706470718682" lon="11.681196375483179"><ele>490.14285714285717</ele><time>2026-04-03T14:18:26Z</time></trkpt><trkpt lat="43.07705039866902" lon="11.681301065385655"><ele>488.7142857142857</ele><time>2026-04-03T14:18:27Z</time></trkpt><trkpt lat="43.077038722223264" lon="11.681407115933773"><ele>487.2857142857143</ele><time>2026-04-03T14:18:28Z</time></trkpt><trkpt lat="43.07702796706696" lon="11.681513152824666"><ele>485.8571428571429</ele><time>2026-04-03T14:18:29Z</time></trkpt><trkpt lat="43.077014780437835" lon="11.68160137846036"><ele>484.42857142857144</ele><time>2026-04-03T14:18:30Z</time></trkpt><trkpt lat="43.076988046582414" lon="11.681679802716523"><ele>483.0</ele><time>2026-04-03T14:18:31Z</time></trkpt><trkpt lat="43.07693733290211" lon="11.681742021219051"><ele>483.0</ele><time>2026-04-03T14:18:32Z</time></trkpt><trkpt lat="43.076855587050964" lon="11.681774458681598"><ele>482.99999999999994</ele><time>2026-04-03T14:18:33Z</time></trkpt><trkpt lat="43.076758280519904" lon="11.681784131658231"><ele>482.99999999999994</ele><time>2026-04-03T14:18:34Z</time></trkpt><trkpt lat="43.07666287488843" lon="11.681797444150263"><ele>483.0</ele><time>2026-04-03T14:18:35Z</time></trkpt><trkpt lat="43.07656785482882" lon="11.68180547158701"><ele>483.0</ele><time>2026-04-03T14:18:36Z</time></trkpt><trkpt lat="43.076480058514164" lon="11.681814668336974"><ele>481.3333333333333</ele><time>2026-04-03T14:18:37Z</time></trkpt><trkpt lat="43.07639615114815" lon="11.681818743238361"><ele>479.66666666666663</ele><time>2026-04-03T14:18:38Z</time></trkpt><trkpt lat="43.07631013221161" lon="11.6817969489143"><ele>478.0</ele><time>2026-04-03T14:18:39Z</time></trkpt><trkpt lat="43.07623151161694" lon="11.68174601825021"><ele>476.3333333333333</ele><time>2026-04-03T14:18:40Z</time></trkpt><trkpt lat="43.07617988493321" lon="11.681667594675408"><ele>474.66666666666663</ele><time>2026-04-03T14:18:41Z</time></trkpt><trkpt lat="43.07615440727527" lon="11.681574833806508"><ele>473.0</ele><time>2026-04-03T14:18:42Z</time></trkpt><trkpt lat="43.07613038635741" lon="11.681492158783184"><ele>473.0</ele><time>2026-04-03T14:18:43Z</time></trkpt><trkpt lat="43.07611206759331" lon="11.681406435882787"><ele>473.0</ele><time>2026-04-03T14:18:44Z</time></trkpt><trkpt lat="43.07609597851476" lon="11.681316795011316"><ele>473.0</ele><time>2026-04-03T14:18:45Z</time></trkpt><trkpt lat="43.07607210219248" lon="11.681235934164025"><ele>473.0</ele><time>2026-04-03T14:18:46Z</time></trkpt><trkpt lat="43.076054309654474" lon="11.681151139522417"><ele>473.0</ele><time>2026-04-03T14:18:47Z</time></trkpt><trkpt lat="43.07603047126516" lon="11.681050417898637"><ele>473.0</ele><time>2026-04-03T14:18:48Z</time></trkpt><trkpt lat="43.07600594136365" lon="11.680938238279884"><ele>473.0</ele><time>2026-04-03T14:18:49.001Z</time></trkpt><trkpt lat="43.07598076385114" lon="11.680815305751455"><ele>473.8333333333333</ele><time>2026-04-03T14:18:50.001Z</time></trkpt><trkpt lat="43.07596331492502" lon="11.680683570078342"><ele>474.66666666666663</ele><time>2026-04-03T14:18:51.001Z</time></trkpt><trkpt lat="43.075963738210355" lon="11.680551159196169"><ele>475.5</ele><time>2026-04-03T14:18:52.001Z</time></trkpt><trkpt lat="43.07598312266439" lon="11.680430450103897"><ele>476.33333333333337</ele><time>2026-04-03T14:18:53.001Z</time></trkpt><trkpt lat="43.07600447150924" lon="11.680323698288907"><ele>477.1666666666667</ele><time>2026-04-03T14:18:54.001Z</time></trkpt><trkpt lat="43.07602099800082" lon="11.680221609977966"><ele>478.0</ele><time>2026-04-03T14:18:55.001Z</time></trkpt><trkpt lat="43.076034788861044" lon="11.680122852233001"><ele>478.00000000000006</ele><time>2026-04-03T14:18:56.001Z</time></trkpt><trkpt lat="43.076052085354185" lon="11.680022586430768"><ele>478.0</ele><time>2026-04-03T14:18:57.001Z</time></trkpt><trkpt lat="43.07606794002174" lon="11.679919451125663"><ele>478.0</ele><time>2026-04-03T14:18:58.001Z</time></trkpt><trkpt lat="43.07607785807238" lon="11.679817956581081"><ele>478.0</ele><time>2026-04-03T14:18:59.001Z</time></trkpt><trkpt lat="43.07608156895384" lon="11.679714000673819"><ele>478.00000000000006</ele><time>2026-04-03T14:19:00.001Z</time></trkpt><trkpt lat="43.07607711244203" lon="11.679607730188778"><ele>478.0</ele><time>2026-04-03T14:19:01.001Z</time></trkpt><trkpt lat="43.076063005523366" lon="11.67949819478228"><ele>478.1666666666667</ele><time>2026-04-03T14:19:02.001Z</time></trkpt><trkpt lat="43.07604643225805" lon="11.679397077246916"><ele>478.33333333333337</ele><time>2026-04-03T14:19:03.001Z</time></trkpt><trkpt lat="43.07603128083181" lon="11.679296296658686"><ele>478.5</ele><time>2026-04-03T14:19:04.001Z</time></trkpt><trkpt lat="43.07601256759452" lon="11.679194741215266"><ele>478.66666666666663</ele><time>2026-04-03T14:19:05.001Z</time></trkpt><trkpt lat="43.07599060483462" lon="11.679093903157513"><ele>478.8333333333333</ele><time>2026-04-03T14:19:06.001Z</time></trkpt><trkpt lat="43.07597714053172" lon="11.678993394390377"><ele>479.0</ele><time>2026-04-03T14:19:07.001Z</time></trkpt><trkpt lat="43.075962136513354" lon="11.678891262568168"><ele>479.0</ele><time>2026-04-03T14:19:08.001Z</time></trkpt><trkpt lat="43.075955981320284" lon="11.678779932874845"><ele>479.0</ele><time>2026-04-03T14:19:09.001Z</time></trkpt><trkpt lat="43.0759527439423" lon="11.678660348096432"><ele>479.0</ele><time>2026-04-03T14:19:10.001Z</time></trkpt><trkpt lat="43.07595010051108" lon="11.67853241352322"><ele>479.0</ele><time>2026-04-03T14:19:11.001Z</time></trkpt><trkpt lat="43.07595152793864" lon="11.678397973702408"><ele>479.0</ele><time>2026-04-03T14:19:12.001Z</time></trkpt><trkpt lat="43.07596485778657" lon="11.678258525768767"><ele>478.6</ele><time>2026-04-03T14:19:13.001Z</time></trkpt><trkpt lat="43.07598636955812" lon="11.67811522743479"><ele>478.2</ele><time>2026-04-03T14:19:14.001Z</time></trkpt><trkpt lat="43.076007421271996" lon="11.677967407671238"><ele>477.80000000000007</ele><time>2026-04-03T14:19:15.001Z</time></trkpt><trkpt lat="43.076029743922284" lon="11.677824638214888"><ele>477.40000000000003</ele><time>2026-04-03T14:19:16.001Z</time></trkpt><trkpt lat="43.076052277678315" lon="11.67768404104634"><ele>477.0</ele><time>2026-04-03T14:19:17.001Z</time></trkpt><trkpt lat="43.076075979571144" lon="11.677543515119515"><ele>475.6</ele><time>2026-04-03T14:19:18.001Z</time></trkpt><trkpt lat="43.07610027900833" lon="11.67740400321507"><ele>474.20000000000005</ele><time>2026-04-03T14:19:19.001Z</time></trkpt><trkpt lat="43.07611963210693" lon="11.677269764216241"><ele>472.8</ele><time>2026-04-03T14:19:20.001Z</time></trkpt><trkpt lat="43.076143591822564" lon="11.677148431298233"><ele>471.4</ele><time>2026-04-03T14:19:21.001Z</time></trkpt><trkpt lat="43.07616862385022" lon="11.677032755004698"><ele>470.0</ele><time>2026-04-03T14:19:22.002Z</time></trkpt><trkpt lat="43.07619765638025" lon="11.676922444528513"><ele>468.4</ele><time>2026-04-03T14:19:23.002Z</time></trkpt><trkpt lat="43.07623985278565" lon="11.67681202967642"><ele>466.8</ele><time>2026-04-03T14:19:24.002Z</time></trkpt><trkpt lat="43.07628289161696" lon="11.676701189174697"><ele>465.20000000000005</ele><time>2026-04-03T14:19:25.002Z</time></trkpt><trkpt lat="43.076327662541615" lon="11.67658215573429"><ele>463.6</ele><time>2026-04-03T14:19:26.002Z</time></trkpt><trkpt lat="43.07637036820534" lon="11.676458499245173"><ele>462.0</ele><time>2026-04-03T14:19:27.002Z</time></trkpt><trkpt lat="43.07640490068321" lon="11.676339032330963"><ele>462.0</ele><time>2026-04-03T14:19:28.002Z</time></trkpt><trkpt lat="43.07643465699449" lon="11.676222426135709"><ele>462.00000000000006</ele><time>2026-04-03T14:19:29.002Z</time></trkpt><trkpt lat="43.07646475335278" lon="11.676104867715361"><ele>462.00000000000006</ele><time>2026-04-03T14:19:30.002Z</time></trkpt><trkpt lat="43.0764970808259" lon="11.675989506650284"><ele>462.0</ele><time>2026-04-03T14:19:31.002Z</time></trkpt><trkpt lat="43.07652850489923" lon="11.675869622652042"><ele>462.0</ele><time>2026-04-03T14:19:32.002Z</time></trkpt><trkpt lat="43.07655716994865" lon="11.675738901968836"><ele>461.8</ele><time>2026-04-03T14:19:33.002Z</time></trkpt><trkpt lat="43.0765869336595" lon="11.675605613308985"><ele>461.6</ele><time>2026-04-03T14:19:34.002Z</time></trkpt><trkpt lat="43.07662058982967" lon="11.675472838690606"><ele>461.40000000000003</ele><time>2026-04-03T14:19:35.002Z</time></trkpt><trkpt lat="43.07665497928282" lon="11.67534305529073"><ele>461.20000000000005</ele><time>2026-04-03T14:19:36.002Z</time></trkpt><trkpt lat="43.07668611046883" lon="11.675207631165005"><ele>461.0</ele><time>2026-04-03T14:19:37.002Z</time></trkpt><trkpt lat="43.07672133175189" lon="11.675070190189953"><ele>461.0</ele><time>2026-04-03T14:19:38.002Z</time></trkpt><trkpt lat="43.076755921752834" lon="11.674929842418205"><ele>461.0</ele><time>2026-04-03T14:19:39.002Z</time></trkpt><trkpt lat="43.07679442022028" lon="11.674791294068122"><ele>461.0</ele><time>2026-04-03T14:19:40.002Z</time></trkpt><trkpt lat="43.076840580297095" lon="11.674658896819203"><ele>461.0</ele><time>2026-04-03T14:19:41.002Z</time></trkpt><trkpt lat="43.07688527835321" lon="11.674533893137765"><ele>461.0</ele><time>2026-04-03T14:19:42.002Z</time></trkpt><trkpt lat="43.07692740226303" lon="11.674419516363509"><ele>459.20000000000005</ele><time>2026-04-03T14:19:43.002Z</time></trkpt><trkpt lat="43.07696033787237" lon="11.674294999323871"><ele>457.40000000000003</ele><time>2026-04-03T14:19:44.002Z</time></trkpt><trkpt lat="43.07697583371558" lon="11.674163456896595"><ele>455.6</ele><time>2026-04-03T14:19:45.002Z</time></trkpt><trkpt lat="43.076967866290616" lon="11.674025105127647"><ele>453.8</ele><time>2026-04-03T14:19:46.002Z</time></trkpt><trkpt lat="43.07694696065935" lon="11.673876655587069"><ele>452.0</ele><time>2026-04-03T14:19:47.002Z</time></trkpt><trkpt lat="43.076934885058535" lon="11.673746574132515"><ele>451.99999999999994</ele><time>2026-04-03T14:19:48.002Z</time></trkpt><trkpt lat="43.0769366428499" lon="11.673627449662284"><ele>452.0</ele><time>2026-04-03T14:19:49.002Z</time></trkpt><trkpt lat="43.07694029986827" lon="11.673518520323764"><ele>452.0</ele><time>2026-04-03T14:19:50.002Z</time></trkpt><trkpt lat="43.076945487407755" lon="11.673424493927527"><ele>452.0</ele><time>2026-04-03T14:19:51.002Z</time></trkpt><trkpt lat="43.076944128757084" lon="11.673302844245631"><ele>451.99999999999994</ele><time>2026-04-03T14:19:52.999Z</time></trkpt><trkpt lat="43.076881217940326" lon="11.673218667886925"><ele>452.0</ele><time>2026-04-03T14:19:54.999Z</time></trkpt><trkpt lat="43.07677163284235" lon="11.67322900818591"><ele>450.8</ele><time>2026-04-03T14:19:56.999Z</time></trkpt><trkpt lat="43.07672142474825" lon="11.673294910790156"><ele>449.6</ele><time>2026-04-03T14:19:57.999Z</time></trkpt><trkpt lat="43.07668169891933" lon="11.673404677806099"><ele>448.40000000000003</ele><time>2026-04-03T14:19:58.999Z</time></trkpt><trkpt lat="43.07662491714722" lon="11.673514260332517"><ele>447.20000000000005</ele><time>2026-04-03T14:19:59.999Z</time></trkpt><trkpt lat="43.07655687762472" lon="11.673631916970646"><ele>446.0</ele><time>2026-04-03T14:20:00.999Z</time></trkpt><trkpt lat="43.07647757094231" lon="11.673765678586513"><ele>443.75</ele><time>2026-04-03T14:20:01.999Z</time></trkpt><trkpt lat="43.0764117106142" lon="11.673884619616485"><ele>441.5</ele><time>2026-04-03T14:20:02.999Z</time></trkpt><trkpt lat="43.07632481465299" lon="11.674033126875363"><ele>439.25</ele><time>2026-04-03T14:20:03.999Z</time></trkpt><trkpt lat="43.076212531777884" lon="11.674189561503702"><ele>437.0</ele><time>2026-04-03T14:20:04.999Z</time></trkpt><trkpt lat="43.0760872204684" lon="11.67433592705175"><ele>435.66666666666663</ele><time>2026-04-03T14:20:05.999Z</time></trkpt><trkpt lat="43.075938879524614" lon="11.674452225359852"><ele>434.33333333333337</ele><time>2026-04-03T14:20:06.999Z</time></trkpt><trkpt lat="43.07579266594615" lon="11.674554759528574"><ele>433.0</ele><time>2026-04-03T14:20:07.999Z</time></trkpt><trkpt lat="43.07565732165686" lon="11.674659252769684"><ele>433.0</ele><time>2026-04-03T14:20:08.999Z</time></trkpt><trkpt lat="43.075528683595536" lon="11.674766143778255"><ele>433.0</ele><time>2026-04-03T14:20:09.999Z</time></trkpt><trkpt lat="43.07540780555924" lon="11.674874676718249"><ele>433.0</ele><time>2026-04-03T14:20:10.999Z</time></trkpt><trkpt lat="43.07529439685745" lon="11.674970057412065"><ele>433.0</ele><time>2026-04-03T14:20:12Z</time></trkpt><trkpt lat="43.07516931741835" lon="11.675050238300356"><ele>433.0</ele><time>2026-04-03T14:20:13Z</time></trkpt><trkpt lat="43.07503203047012" lon="11.675122734833508"><ele>433.0</ele><time>2026-04-03T14:20:14Z</time></trkpt><trkpt lat="43.07489350388198" lon="11.675186944919739"><ele>433.0</ele><time>2026-04-03T14:20:15Z</time></trkpt><trkpt lat="43.0747670197569" lon="11.675251840226235"><ele>433.0</ele><time>2026-04-03T14:20:16Z</time></trkpt><trkpt lat="43.07465037896502" lon="11.675337299151616"><ele>431.75</ele><time>2026-04-03T14:20:17Z</time></trkpt><trkpt lat="43.07456112893987" lon="11.675461735416897"><ele>430.5</ele><time>2026-04-03T14:20:18Z</time></trkpt><trkpt lat="43.07447853849692" lon="11.675625937089336"><ele>429.25</ele><time>2026-04-03T14:20:19Z</time></trkpt><trkpt lat="43.07439619003225" lon="11.6758006684042"><ele>428.0</ele><time>2026-04-03T14:20:20Z</time></trkpt><trkpt lat="43.074309142042495" lon="11.67597021685706"><ele>428.0</ele><time>2026-04-03T14:20:21Z</time></trkpt><trkpt lat="43.07422689059934" lon="11.676134964609526"><ele>428.0</ele><time>2026-04-03T14:20:22Z</time></trkpt><trkpt lat="43.074150094687155" lon="11.676311624508571"><ele>428.0</ele><time>2026-04-03T14:20:23Z</time></trkpt><trkpt lat="43.074085345982674" lon="11.676500503240959"><ele>428.0</ele><time>2026-04-03T14:20:24Z</time></trkpt><trkpt lat="43.07403475632424" lon="11.676706189402408"><ele>421.3333333333333</ele><time>2026-04-03T14:20:25Z</time></trkpt><trkpt lat="43.074009936032674" lon="11.676926079946169"><ele>414.66666666666663</ele><time>2026-04-03T14:20:26Z</time></trkpt><trkpt lat="43.07394763654473" lon="11.677138618804337"><ele>408.0</ele><time>2026-04-03T14:20:27Z</time></trkpt><trkpt lat="43.073881845160116" lon="11.677333954033145"><ele>408.0</ele><time>2026-04-03T14:20:28Z</time></trkpt><trkpt lat="43.073812392223026" lon="11.677510893857248"><ele>408.0</ele><time>2026-04-03T14:20:29Z</time></trkpt><trkpt lat="43.07374149780677" lon="11.677684279780127"><ele>408.0</ele><time>2026-04-03T14:20:30Z</time></trkpt><trkpt lat="43.073668898488776" lon="11.677854520227681"><ele>408.0</ele><time>2026-04-03T14:20:31Z</time></trkpt><trkpt lat="43.073598157125666" lon="11.678022124452777"><ele>409.25</ele><time>2026-04-03T14:20:32Z</time></trkpt><trkpt lat="43.07351867808231" lon="11.678185361672707"><ele>410.5</ele><time>2026-04-03T14:20:33Z</time></trkpt><trkpt lat="43.07343073145304" lon="11.678330942501303"><ele>411.75</ele><time>2026-04-03T14:20:34Z</time></trkpt><trkpt lat="43.073335343482285" lon="11.678459634310668"><ele>413.0</ele><time>2026-04-03T14:20:35Z</time></trkpt><trkpt lat="43.0732296582163" lon="11.678577737060722"><ele>411.0</ele><time>2026-04-03T14:20:36.001Z</time></trkpt><trkpt lat="43.073121728437" lon="11.67869868419053"><ele>409.0</ele><time>2026-04-03T14:20:37.001Z</time></trkpt><trkpt lat="43.073018900581495" lon="11.678819792405207"><ele>407.0</ele><time>2026-04-03T14:20:38.001Z</time></trkpt><trkpt lat="43.07292857532968" lon="11.678943194098256"><ele>405.0</ele><time>2026-04-03T14:20:39.001Z</time></trkpt><trkpt lat="43.07285510350886" lon="11.679061335976462"><ele>405.0</ele><time>2026-04-03T14:20:40.001Z</time></trkpt><trkpt lat="43.072791321674266" lon="11.67917412564035"><ele>405.0</ele><time>2026-04-03T14:20:41.001Z</time></trkpt><trkpt lat="43.07273111649842" lon="11.679295087202124"><ele>405.0</ele><time>2026-04-03T14:20:42.001Z</time></trkpt><trkpt lat="43.07267790680139" lon="11.679413833930536"><ele>405.0</ele><time>2026-04-03T14:20:43.001Z</time></trkpt><trkpt lat="43.07262230633083" lon="11.679540903077411"><ele>405.0</ele><time>2026-04-03T14:20:44.001Z</time></trkpt><trkpt lat="43.07256350281122" lon="11.679673850201725"><ele>405.6</ele><time>2026-04-03T14:20:45.001Z</time></trkpt><trkpt lat="43.07250635000635" lon="11.67980827448679"><ele>406.2</ele><time>2026-04-03T14:20:46.001Z</time></trkpt><trkpt lat="43.072455576281584" lon="11.679928751550213"><ele>406.79999999999995</ele><time>2026-04-03T14:20:47.001Z</time></trkpt><trkpt lat="43.07240913567463" lon="11.680039000499567"><ele>407.4</ele><time>2026-04-03T14:20:48.001Z</time></trkpt><trkpt lat="43.072361953184675" lon="11.680128113230033"><ele>408.0</ele><time>2026-04-03T14:20:49.001Z</time></trkpt><trkpt lat="43.07230265595505" lon="11.68020579999752"><ele>406.5</ele><time>2026-04-03T14:20:50.001Z</time></trkpt><trkpt lat="43.07222652363739" lon="11.68026011764433"><ele>405.0</ele><time>2026-04-03T14:20:51.001Z</time></trkpt><trkpt lat="43.07213892547738" lon="11.680272083395895"><ele>403.5</ele><time>2026-04-03T14:20:52.001Z</time></trkpt><trkpt lat="43.07205641461174" lon="11.680234522603946"><ele>402.0</ele><time>2026-04-03T14:20:53.001Z</time></trkpt><trkpt lat="43.07199108274534" lon="11.68014907292653"><ele>400.5</ele><time>2026-04-03T14:20:54.001Z</time></trkpt><trkpt lat="43.071959522481926" lon="11.680028694343358"><ele>399.0</ele><time>2026-04-03T14:20:55.001Z</time></trkpt><trkpt lat="43.07196152011354" lon="11.679896182697037"><ele>399.0</ele><time>2026-04-03T14:20:56.001Z</time></trkpt><trkpt lat="43.0720013219383" lon="11.679736591561856"><ele>399.0</ele><time>2026-04-03T14:20:57.001Z</time></trkpt><trkpt lat="43.072046532098526" lon="11.679563396991508"><ele>399.0</ele><time>2026-04-03T14:20:58.001Z</time></trkpt><trkpt lat="43.07210251430458" lon="11.679381295385781"><ele>399.0</ele><time>2026-04-03T14:20:59.001Z</time></trkpt><trkpt lat="43.072159274810076" lon="11.679199662929832"><ele>398.0</ele><time>2026-04-03T14:21:00.001Z</time></trkpt><trkpt lat="43.07221580054515" lon="11.679030792366925"><ele>397.0</ele><time>2026-04-03T14:21:01.001Z</time></trkpt><trkpt lat="43.07225155720344" lon="11.67887215250359"><ele>396.0</ele><time>2026-04-03T14:21:02.001Z</time></trkpt><trkpt lat="43.0722412235256" lon="11.678725225055267"><ele>395.0</ele><time>2026-04-03T14:21:03.001Z</time></trkpt><trkpt lat="43.07217857928764" lon="11.678613384514193"><ele>395.0</ele><time>2026-04-03T14:21:04.001Z</time></trkpt><trkpt lat="43.0720645240599" lon="11.678548363390597"><ele>395.0</ele><time>2026-04-03T14:21:05.001Z</time></trkpt><trkpt lat="43.071934641512534" lon="11.678544151422365"><ele>395.0</ele><time>2026-04-03T14:21:06.001Z</time></trkpt><trkpt lat="43.071800037466744" lon="11.67858497202889"><ele>395.0</ele><time>2026-04-03T14:21:07.002Z</time></trkpt><trkpt lat="43.071659160606764" lon="11.678615813108351"><ele>392.3333333333333</ele><time>2026-04-03T14:21:08.002Z</time></trkpt><trkpt lat="43.07150414694961" lon="11.678637991504855"><ele>389.66666666666663</ele><time>2026-04-03T14:21:09.002Z</time></trkpt><trkpt lat="43.07132585714661" lon="11.678656872342307"><ele>387.0</ele><time>2026-04-03T14:21:10.002Z</time></trkpt><trkpt lat="43.07115144794091" lon="11.678682753540873"><ele>387.0</ele><time>2026-04-03T14:21:11.002Z</time></trkpt><trkpt lat="43.07096522830111" lon="11.67870176060515"><ele>387.0</ele><time>2026-04-03T14:21:12.002Z</time></trkpt><trkpt lat="43.07078194563761" lon="11.67871952498114"><ele>387.0</ele><time>2026-04-03T14:21:13.002Z</time></trkpt><trkpt lat="43.070606980473194" lon="11.678739426045889"><ele>384.6666666666667</ele><time>2026-04-03T14:21:14.002Z</time></trkpt><trkpt lat="43.070434856740484" lon="11.678761014143085"><ele>382.33333333333337</ele><time>2026-04-03T14:21:15.002Z</time></trkpt><trkpt lat="43.07026199063222" lon="11.678782578468383"><ele>380.0</ele><time>2026-04-03T14:21:16.002Z</time></trkpt><trkpt lat="43.070100193277604" lon="11.678798135285405"><ele>380.0</ele><time>2026-04-03T14:21:17.002Z</time></trkpt><trkpt lat="43.069957773534135" lon="11.678804511723502"><ele>380.0</ele><time>2026-04-03T14:21:18.002Z</time></trkpt><trkpt lat="43.06982555093502" lon="11.678816101571012"><ele>380.0</ele><time>2026-04-03T14:21:19.002Z</time></trkpt><trkpt lat="43.06970012478668" lon="11.678822354744282"><ele>380.0</ele><time>2026-04-03T14:21:20.002Z</time></trkpt><trkpt lat="43.069576706865874" lon="11.678832212180769"><ele>377.75</ele><time>2026-04-03T14:21:21.002Z</time></trkpt><trkpt lat="43.06945410474905" lon="11.678852112369642"><ele>375.5</ele><time>2026-04-03T14:21:22.002Z</time></trkpt><trkpt lat="43.06933856444506" lon="11.678895059013598"><ele>373.25</ele><time>2026-04-03T14:21:23.002Z</time></trkpt><trkpt lat="43.06923420490837" lon="11.67896370406573"><ele>371.0</ele><time>2026-04-03T14:21:24.002Z</time></trkpt><trkpt lat="43.069151425591095" lon="11.679074594893098"><ele>369.20000000000005</ele><time>2026-04-03T14:21:25.002Z</time></trkpt><trkpt lat="43.06909020731416" lon="11.679201629383995"><ele>367.40000000000003</ele><time>2026-04-03T14:21:26.002Z</time></trkpt><trkpt lat="43.06905673749121" lon="11.679337733782978"><ele>365.6</ele><time>2026-04-03T14:21:27.002Z</time></trkpt><trkpt lat="43.06903245934031" lon="11.679477620878995"><ele>363.8</ele><time>2026-04-03T14:21:28.002Z</time></trkpt><trkpt lat="43.06900762388267" lon="11.679615005111316"><ele>362.0</ele><time>2026-04-03T14:21:29.002Z</time></trkpt><trkpt lat="43.06897693208368" lon="11.679733890044078"><ele>362.0</ele><time>2026-04-03T14:21:30.002Z</time></trkpt><trkpt lat="43.06893753795112" lon="11.679837169491467"><ele>362.0</ele><time>2026-04-03T14:21:31.002Z</time></trkpt><trkpt lat="43.06888137828943" lon="11.679919963921122"><ele>362.0</ele><time>2026-04-03T14:21:32.002Z</time></trkpt><trkpt lat="43.068799396804614" lon="11.679973876128248"><ele>362.0</ele><time>2026-04-03T14:21:33.002Z</time></trkpt><trkpt lat="43.06869328493438" lon="11.679986069157692"><ele>362.0</ele><time>2026-04-03T14:21:34.002Z</time></trkpt><trkpt lat="43.06859397871426" lon="11.679955673831738"><ele>362.0</ele><time>2026-04-03T14:21:35.002Z</time></trkpt><trkpt lat="43.06851478946529" lon="11.679871181363815"><ele>362.0</ele><time>2026-04-03T14:21:36.002Z</time></trkpt><trkpt lat="43.06845778914715" lon="11.67975783103617"><ele>362.0</ele><time>2026-04-03T14:21:37.002Z</time></trkpt><trkpt lat="43.06842975809755" lon="11.679620410221098"><ele>362.0</ele><time>2026-04-03T14:21:38.002Z</time></trkpt><trkpt lat="43.06843232656383" lon="11.679456654489893"><ele>362.0</ele><time>2026-04-03T14:21:39.002Z</time></trkpt><trkpt lat="43.068459292202284" lon="11.679270814352861"><ele>361.8</ele><time>2026-04-03T14:21:40.003Z</time></trkpt><trkpt lat="43.06849729545376" lon="11.67908928189913"><ele>361.6</ele><time>2026-04-03T14:21:41.003Z</time></trkpt><trkpt lat="43.06853000455069" lon="11.678932836250876"><ele>361.40000000000003</ele><time>2026-04-03T14:21:42.003Z</time></trkpt><trkpt lat="43.06855064241405" lon="11.67880126890116"><ele>361.20000000000005</ele><time>2026-04-03T14:21:43.003Z</time></trkpt><trkpt lat="43.06856068243553" lon="11.67868623257549"><ele>361.0</ele><time>2026-04-03T14:21:44.003Z</time></trkpt><trkpt lat="43.06854696258132" lon="11.678585405787903"><ele>359.6</ele><time>2026-04-03T14:21:45.003Z</time></trkpt><trkpt lat="43.06850088404475" lon="11.678497738950892"><ele>358.20000000000005</ele><time>2026-04-03T14:21:46.003Z</time></trkpt><trkpt lat="43.06842575513084" lon="11.678442071850581"><ele>356.79999999999995</ele><time>2026-04-03T14:21:47.003Z</time></trkpt><trkpt lat="43.0683349084373" lon="11.67842427209533"><ele>355.4</ele><time>2026-04-03T14:21:48.003Z</time></trkpt><trkpt lat="43.06823013906135" lon="11.678461528402588"><ele>354.0</ele><time>2026-04-03T14:21:49.003Z</time></trkpt><trkpt lat="43.06811101144585" lon="11.678527529002983"><ele>354.25</ele><time>2026-04-03T14:21:50.003Z</time></trkpt><trkpt lat="43.06797518176522" lon="11.678598194791777"><ele>354.5</ele><time>2026-04-03T14:21:51.003Z</time></trkpt><trkpt lat="43.067835757818415" lon="11.678645561209642"><ele>354.75</ele><time>2026-04-03T14:21:52.003Z</time></trkpt><trkpt lat="43.067688219736624" lon="11.678657363991956"><ele>355.0</ele><time>2026-04-03T14:21:53.003Z</time></trkpt><trkpt lat="43.06753310093771" lon="11.67862562987748"><ele>351.0</ele><time>2026-04-03T14:21:54.003Z</time></trkpt><trkpt lat="43.067365531531664" lon="11.678557314898281"><ele>347.0</ele><time>2026-04-03T14:21:55.003Z</time></trkpt><trkpt lat="43.06718908427098" lon="11.678474910526237"><ele>343.0</ele><time>2026-04-03T14:21:56.003Z</time></trkpt><trkpt lat="43.06701599186159" lon="11.678386659995905"><ele>343.0</ele><time>2026-04-03T14:21:57.003Z</time></trkpt><trkpt lat="43.06686303131714" lon="11.678259970082063"><ele>343.0</ele><time>2026-04-03T14:21:57.999Z</time></trkpt><trkpt lat="43.06672720555216" lon="11.678119576713359"><ele>343.0</ele><time>2026-04-03T14:21:59Z</time></trkpt><trkpt lat="43.06659468349168" lon="11.678007413423796"><ele>340.0</ele><time>2026-04-03T14:22:00Z</time></trkpt><trkpt lat="43.06645216399431" lon="11.67793705344709"><ele>337.0</ele><time>2026-04-03T14:22:01Z</time></trkpt><trkpt lat="43.0663038287096" lon="11.67790154079662"><ele>334.0</ele><time>2026-04-03T14:22:02Z</time></trkpt><trkpt lat="43.06615259871946" lon="11.677925132210644"><ele>334.0</ele><time>2026-04-03T14:22:03Z</time></trkpt><trkpt lat="43.066007347813894" lon="11.678020208691667"><ele>334.0</ele><time>2026-04-03T14:22:04Z</time></trkpt><trkpt lat="43.06588497845807" lon="11.678180199146652"><ele>334.0</ele><time>2026-04-03T14:22:05Z</time></trkpt><trkpt lat="43.06580241734552" lon="11.678385758324392"><ele>328.66666666666663</ele><time>2026-04-03T14:22:06Z</time></trkpt><trkpt lat="43.065741238528446" lon="11.678604948137423"><ele>323.3333333333333</ele><time>2026-04-03T14:22:07Z</time></trkpt><trkpt lat="43.06570204916043" lon="11.678814159843837"><ele>318.0</ele><time>2026-04-03T14:22:08Z</time></trkpt><trkpt lat="43.06569312289187" lon="11.679014487126397"><ele>318.0</ele><time>2026-04-03T14:22:09Z</time></trkpt><trkpt lat="43.06574184622597" lon="11.679209339463622"><ele>318.0</ele><time>2026-04-03T14:22:10Z</time></trkpt><trkpt lat="43.06582673229125" lon="11.679399526794754"><ele>318.0</ele><time>2026-04-03T14:22:11Z</time></trkpt><trkpt lat="43.06592636546026" lon="11.67958693475945"><ele>320.6666666666667</ele><time>2026-04-03T14:22:12Z</time></trkpt><trkpt lat="43.06599852332982" lon="11.67978776580623"><ele>323.33333333333337</ele><time>2026-04-03T14:22:13Z</time></trkpt><trkpt lat="43.06605864302306" lon="11.679987513975588"><ele>326.0</ele><time>2026-04-03T14:22:14Z</time></trkpt><trkpt lat="43.06609512897888" lon="11.680190644015848"><ele>325.25</ele><time>2026-04-03T14:22:15Z</time></trkpt><trkpt lat="43.06612200763979" lon="11.680383197509787"><ele>324.5</ele><time>2026-04-03T14:22:16Z</time></trkpt><trkpt lat="43.066147734951954" lon="11.680566019189275"><ele>323.75</ele><time>2026-04-03T14:22:17Z</time></trkpt><trkpt lat="43.06616022820262" lon="11.680739435759381"><ele>323.0</ele><time>2026-04-03T14:22:18Z</time></trkpt><trkpt lat="43.06613055624959" lon="11.680908942554208"><ele>323.0</ele><time>2026-04-03T14:22:19Z</time></trkpt><trkpt lat="43.06605275557876" lon="11.681050006199492"><ele>323.0</ele><time>2026-04-03T14:22:20Z</time></trkpt><trkpt lat="43.06592761926023" lon="11.68113317642216"><ele>323.0</ele><time>2026-04-03T14:22:21Z</time></trkpt><trkpt lat="43.06577168074111" lon="11.681157452699546"><ele>323.0</ele><time>2026-04-03T14:22:22Z</time></trkpt><trkpt lat="43.06561211649574" lon="11.681158864883972"><ele>322.0</ele><time>2026-04-03T14:22:23Z</time></trkpt><trkpt lat="43.065437474421024" lon="11.68115871363227"><ele>321.0</ele><time>2026-04-03T14:22:24Z</time></trkpt><trkpt lat="43.06526614597787" lon="11.681178640565868"><ele>320.0</ele><time>2026-04-03T14:22:25Z</time></trkpt><trkpt lat="43.06508905140587" lon="11.681196145969945"><ele>319.0</ele><time>2026-04-03T14:22:26Z</time></trkpt><trkpt lat="43.06491093974947" lon="11.681216998010685"><ele>318.0</ele><time>2026-04-03T14:22:27Z</time></trkpt><trkpt lat="43.064726442200154" lon="11.68123708357404"><ele>317.0</ele><time>2026-04-03T14:22:28Z</time></trkpt><trkpt lat="43.06454035247197" lon="11.68126503242125"><ele>317.0</ele><time>2026-04-03T14:22:29Z</time></trkpt><trkpt lat="43.06434676898634" lon="11.681292410619303"><ele>317.0</ele><time>2026-04-03T14:22:30Z</time></trkpt><trkpt lat="43.06415015289133" lon="11.68130801152542"><ele>317.0</ele><time>2026-04-03T14:22:31.001Z</time></trkpt><trkpt lat="43.063954754444794" lon="11.681307209379277"><ele>317.0</ele><time>2026-04-03T14:22:32.001Z</time></trkpt><trkpt lat="43.06376553981252" lon="11.681281928598883"><ele>317.0</ele><time>2026-04-03T14:22:33.001Z</time></trkpt><trkpt lat="43.06357228242167" lon="11.681227769195774"><ele>317.0</ele><time>2026-04-03T14:22:34.001Z</time></trkpt><trkpt lat="43.06338202332965" lon="11.68116869326842"><ele>317.6666666666667</ele><time>2026-04-03T14:22:35.001Z</time></trkpt><trkpt lat="43.06318936673514" lon="11.681115977056516"><ele>318.3333333333333</ele><time>2026-04-03T14:22:36.001Z</time></trkpt><trkpt lat="43.06299409844444" lon="11.681070567284962"><ele>319.0</ele><time>2026-04-03T14:22:37.001Z</time></trkpt><trkpt lat="43.062789823010434" lon="11.68104893178456"><ele>317.66666666666663</ele><time>2026-04-03T14:22:38.001Z</time></trkpt><trkpt lat="43.06257666943582" lon="11.681080621688784"><ele>316.3333333333333</ele><time>2026-04-03T14:22:39.001Z</time></trkpt><trkpt lat="43.06237017266387" lon="11.68119366673868"><ele>315.0</ele><time>2026-04-03T14:22:40.001Z</time></trkpt><trkpt lat="43.062181367888535" lon="11.68132983364964"><ele>314.6666666666667</ele><time>2026-04-03T14:22:41.001Z</time></trkpt><trkpt lat="43.06199894181849" lon="11.681488499199245"><ele>314.33333333333337</ele><time>2026-04-03T14:22:42.001Z</time></trkpt><trkpt lat="43.0618148455434" lon="11.681643378323336"><ele>314.0</ele><time>2026-04-03T14:22:43.001Z</time></trkpt><trkpt lat="43.061629437181644" lon="11.681793407603521"><ele>313.6666666666667</ele><time>2026-04-03T14:22:44.001Z</time></trkpt><trkpt lat="43.06144098041305" lon="11.681944867835503"><ele>313.3333333333333</ele><time>2026-04-03T14:22:45.001Z</time></trkpt><trkpt lat="43.06125232123792" lon="11.682093117281063"><ele>313.0</ele><time>2026-04-03T14:22:46.001Z</time></trkpt><trkpt lat="43.06106071926" lon="11.682237919153215"><ele>313.0</ele><time>2026-04-03T14:22:47.001Z</time></trkpt><trkpt lat="43.06086100976412" lon="11.682364893673796"><ele>313.0</ele><time>2026-04-03T14:22:48.001Z</time></trkpt><trkpt lat="43.060656221909746" lon="11.682461521290536"><ele>313.0</ele><time>2026-04-03T14:22:49.001Z</time></trkpt><trkpt lat="43.06044742948706" lon="11.682531085060926"><ele>314.66666666666663</ele><time>2026-04-03T14:22:50.001Z</time></trkpt><trkpt lat="43.0602372124179" lon="11.682570343590086"><ele>316.3333333333333</ele><time>2026-04-03T14:22:51.001Z</time></trkpt><trkpt lat="43.060028294846305" lon="11.682598403480045"><ele>318.0</ele><time>2026-04-03T14:22:52.001Z</time></trkpt><trkpt lat="43.059823018827494" lon="11.682626418738574"><ele>321.3333333333333</ele><time>2026-04-03T14:22:53.001Z</time></trkpt><trkpt lat="43.05961898367031" lon="11.682657348235821"><ele>324.66666666666663</ele><time>2026-04-03T14:22:54.001Z</time></trkpt><trkpt lat="43.059414102558875" lon="11.682692630727283"><ele>328.0</ele><time>2026-04-03T14:22:55.001Z</time></trkpt><trkpt lat="43.05921470435412" lon="11.682721814186891"><ele>330.66666666666663</ele><time>2026-04-03T14:22:56.001Z</time></trkpt><trkpt lat="43.05901593145502" lon="11.682748964211905"><ele>333.3333333333333</ele><time>2026-04-03T14:22:57.001Z</time></trkpt><trkpt lat="43.0588175931859" lon="11.682773515784183"><ele>336.0</ele><time>2026-04-03T14:22:58.001Z</time></trkpt><trkpt lat="43.0586208866641" lon="11.682801891753442"><ele>336.0</ele><time>2026-04-03T14:22:59.001Z</time></trkpt><trkpt lat="43.0584290694355" lon="11.682832722377913"><ele>336.0</ele><time>2026-04-03T14:23:00.001Z</time></trkpt><trkpt lat="43.0582392868551" lon="11.682859807662286"><ele>336.0</ele><time>2026-04-03T14:23:01.001Z</time></trkpt><trkpt lat="43.05805596502871" lon="11.682885032719955"><ele>336.0</ele><time>2026-04-03T14:23:02.002Z</time></trkpt><trkpt lat="43.057892043769115" lon="11.682935351844494"><ele>336.0</ele><time>2026-04-03T14:23:03.002Z</time></trkpt><trkpt lat="43.057735558239685" lon="11.6830251891548"><ele>336.0</ele><time>2026-04-03T14:23:04.002Z</time></trkpt><trkpt lat="43.05758984441515" lon="11.683165423687536"><ele>336.0</ele><time>2026-04-03T14:23:05.002Z</time></trkpt><trkpt lat="43.057463239719" lon="11.68335462070933"><ele>336.0</ele><time>2026-04-03T14:23:06.002Z</time></trkpt><trkpt lat="43.05734975078679" lon="11.683573359913515"><ele>336.0</ele><time>2026-04-03T14:23:07.002Z</time></trkpt><trkpt lat="43.057243564291205" lon="11.68380865253924"><ele>335.3333333333333</ele><time>2026-04-03T14:23:08.002Z</time></trkpt><trkpt lat="43.05714629869109" lon="11.684047580950317"><ele>334.66666666666663</ele><time>2026-04-03T14:23:09.002Z</time></trkpt><trkpt lat="43.05706103137575" lon="11.684299508882525"><ele>334.0</ele><time>2026-04-03T14:23:10.002Z</time></trkpt><trkpt lat="43.05699600277463" lon="11.684561744049187"><ele>334.0</ele><time>2026-04-03T14:23:11.002Z</time></trkpt><trkpt lat="43.056938874712536" lon="11.68482721264176"><ele>334.0</ele><time>2026-04-03T14:23:12.002Z</time></trkpt><trkpt lat="43.05688619661432" lon="11.6850698925934"><ele>334.0</ele><time>2026-04-03T14:23:13.002Z</time></trkpt><trkpt lat="43.05681876286441" lon="11.68530384244558"><ele>333.66666666666663</ele><time>2026-04-03T14:23:14.002Z</time></trkpt><trkpt lat="43.05673162449153" lon="11.685534367661432"><ele>333.3333333333333</ele><time>2026-04-03T14:23:15.002Z</time></trkpt><trkpt lat="43.05661775211381" lon="11.685753276091976"><ele>333.0</ele><time>2026-04-03T14:23:16.002Z</time></trkpt><trkpt lat="43.05647892656687" lon="11.6859608068249"><ele>330.3333333333333</ele><time>2026-04-03T14:23:17.002Z</time></trkpt><trkpt lat="43.05633399796672" lon="11.686162056117288"><ele>327.66666666666663</ele><time>2026-04-03T14:23:18.002Z</time></trkpt><trkpt lat="43.05618675759763" lon="11.686342004842496"><ele>325.0</ele><time>2026-04-03T14:23:19.002Z</time></trkpt><trkpt lat="43.05604847927519" lon="11.686511120191227"><ele>325.0</ele><time>2026-04-03T14:23:20.002Z</time></trkpt><trkpt lat="43.055906193079984" lon="11.686675616251186"><ele>325.0</ele><time>2026-04-03T14:23:21.002Z</time></trkpt><trkpt lat="43.05575346317598" lon="11.686827379266287"><ele>325.0</ele><time>2026-04-03T14:23:22.002Z</time></trkpt><trkpt lat="43.055573656551466" lon="11.686955553786747"><ele>322.3333333333333</ele><time>2026-04-03T14:23:23.002Z</time></trkpt><trkpt lat="43.05538221897451" lon="11.68706951773938"><ele>319.6666666666667</ele><time>2026-04-03T14:23:24.002Z</time></trkpt><trkpt lat="43.05518161548108" lon="11.687165003922232"><ele>317.0</ele><time>2026-04-03T14:23:25.002Z</time></trkpt><trkpt lat="43.05498231874802" lon="11.687273616363482"><ele>315.6666666666667</ele><time>2026-04-03T14:23:26.002Z</time></trkpt><trkpt lat="43.05478763184515" lon="11.68738946509435"><ele>314.3333333333333</ele><time>2026-04-03T14:23:27.002Z</time></trkpt><trkpt lat="43.0545972593683" lon="11.687507177924113"><ele>313.0</ele><time>2026-04-03T14:23:28.002Z</time></trkpt><trkpt lat="43.05440667616814" lon="11.687626203578814"><ele>313.0</ele><time>2026-04-03T14:23:29.002Z</time></trkpt><trkpt lat="43.05420836396915" lon="11.68774863097076"><ele>313.0</ele><time>2026-04-03T14:23:30.002Z</time></trkpt><trkpt lat="43.0540211574649" lon="11.68786424238183"><ele>313.0</ele><time>2026-04-03T14:23:31.002Z</time></trkpt><trkpt lat="43.05383668693563" lon="11.687964722977172"><ele>311.66666666666663</ele><time>2026-04-03T14:23:32.002Z</time></trkpt><trkpt lat="43.053665350915395" lon="11.688051705385327"><ele>310.3333333333333</ele><time>2026-04-03T14:23:33.002Z</time></trkpt><trkpt lat="43.05348000055693" lon="11.688102690901061"><ele>309.0</ele><time>2026-04-03T14:23:34.002Z</time></trkpt><trkpt lat="43.05327940472559" lon="11.688105244222017"><ele>307.6666666666667</ele><time>2026-04-03T14:23:35.003Z</time></trkpt><trkpt lat="43.053080201081606" lon="11.688071036093879"><ele>306.33333333333337</ele><time>2026-04-03T14:23:36.003Z</time></trkpt><trkpt lat="43.052877289749624" lon="11.68799603394997"><ele>305.0</ele><time>2026-04-03T14:23:37.003Z</time></trkpt><trkpt lat="43.05267713061582" lon="11.687921467537366"><ele>305.0</ele><time>2026-04-03T14:23:38.003Z</time></trkpt><trkpt lat="43.05247066731575" lon="11.687858568985808"><ele>305.0</ele><time>2026-04-03T14:23:39.003Z</time></trkpt><trkpt lat="43.052259783748276" lon="11.687801295503714"><ele>305.0</ele><time>2026-04-03T14:23:40.003Z</time></trkpt><trkpt lat="43.05204453400438" lon="11.687740998582479"><ele>305.5</ele><time>2026-04-03T14:23:41.003Z</time></trkpt><trkpt lat="43.05182559773124" lon="11.687677877520647"><ele>306.0</ele><time>2026-04-03T14:23:42.003Z</time></trkpt><trkpt lat="43.051603871114004" lon="11.687618567564739"><ele>305.0</ele><time>2026-04-03T14:23:43.003Z</time></trkpt><trkpt lat="43.05138316955563" lon="11.687560192482048"><ele>304.0</ele><time>2026-04-03T14:23:44.003Z</time></trkpt><trkpt lat="43.05116634498582" lon="11.687501549454018"><ele>303.0</ele><time>2026-04-03T14:23:45.003Z</time></trkpt><trkpt lat="43.05095770970813" lon="11.68744307838443"><ele>302.3333333333333</ele><time>2026-04-03T14:23:46.003Z</time></trkpt><trkpt lat="43.05075819456221" lon="11.687387825079826"><ele>301.66666666666663</ele><time>2026-04-03T14:23:47.003Z</time></trkpt><trkpt lat="43.05056647529022" lon="11.687337684864898"><ele>301.0</ele><time>2026-04-03T14:23:48.003Z</time></trkpt><trkpt lat="43.05037895650413" lon="11.687285562281113"><ele>301.0</ele><time>2026-04-03T14:23:49.003Z</time></trkpt><trkpt lat="43.05019244438854" lon="11.68723825281709"><ele>301.0</ele><time>2026-04-03T14:23:50.003Z</time></trkpt><trkpt lat="43.050003703363195" lon="11.687187523089198"><ele>301.0</ele><time>2026-04-03T14:23:51.003Z</time></trkpt><trkpt lat="43.04981282251195" lon="11.687135206567397"><ele>300.0</ele><time>2026-04-03T14:23:52.003Z</time></trkpt><trkpt lat="43.04962346829904" lon="11.687076452651842"><ele>299.0</ele><time>2026-04-03T14:23:53.003Z</time></trkpt><trkpt lat="43.0494289081434" lon="11.687021138267244"><ele>298.0</ele><time>2026-04-03T14:23:54.003Z</time></trkpt><trkpt lat="43.049234632580536" lon="11.686970518632053"><ele>297.3333333333333</ele><time>2026-04-03T14:23:55.003Z</time></trkpt><trkpt lat="43.04904458866844" lon="11.68692067973807"><ele>296.6666666666667</ele><time>2026-04-03T14:23:56.003Z</time></trkpt><trkpt lat="43.04885280685245" lon="11.686868350061829"><ele>296.0</ele><time>2026-04-03T14:23:57.003Z</time></trkpt><trkpt lat="43.048664998437225" lon="11.686817031728165"><ele>296.0</ele><time>2026-04-03T14:23:58.003Z</time></trkpt><trkpt lat="43.04847957911792" lon="11.686763119933518"><ele>296.0</ele><time>2026-04-03T14:23:59.003Z</time></trkpt><trkpt lat="43.048296832650365" lon="11.68670220682331"><ele>296.0</ele><time>2026-04-03T14:24:00.003Z</time></trkpt><trkpt lat="43.048117131397255" lon="11.686632120279729"><ele>295.33333333333337</ele><time>2026-04-03T14:24:01.003Z</time></trkpt><trkpt lat="43.04794758913584" lon="11.686545391793445"><ele>294.6666666666667</ele><time>2026-04-03T14:24:02.003Z</time></trkpt><trkpt lat="43.04778618320632" lon="11.686441171258599"><ele>294.0</ele><time>2026-04-03T14:24:03.003Z</time></trkpt><trkpt lat="43.047631991240166" lon="11.686332085028196"><ele>294.0</ele><time>2026-04-03T14:24:04Z</time></trkpt><trkpt lat="43.04748840587871" lon="11.686212793002467"><ele>294.0</ele><time>2026-04-03T14:24:05Z</time></trkpt><trkpt lat="43.04735712346133" lon="11.686095801271607"><ele>294.0</ele><time>2026-04-03T14:24:06Z</time></trkpt><trkpt lat="43.04723755906297" lon="11.685981439327467"><ele>293.75</ele><time>2026-04-03T14:24:07Z</time></trkpt><trkpt lat="43.047121716894964" lon="11.685871217872567"><ele>293.5</ele><time>2026-04-03T14:24:08Z</time></trkpt><trkpt lat="43.04701050503445" lon="11.685767787466022"><ele>293.25</ele><time>2026-04-03T14:24:09Z</time></trkpt><trkpt lat="43.0469076642559" lon="11.685673089378275"><ele>293.0</ele><time>2026-04-03T14:24:10Z</time></trkpt><trkpt lat="43.046811746650235" lon="11.6855808397032"><ele>293.0</ele><time>2026-04-03T14:24:11Z</time></trkpt><trkpt lat="43.046717137242155" lon="11.685489934855656"><ele>293.0</ele><time>2026-04-03T14:24:12Z</time></trkpt><trkpt lat="43.04663107904256" lon="11.68541099699914"><ele>293.0</ele><time>2026-04-03T14:24:13Z</time></trkpt><trkpt lat="43.04655171261849" lon="11.685343757109473"><ele>293.0</ele><time>2026-04-03T14:24:14Z</time></trkpt><trkpt lat="43.04647468482996" lon="11.685276842560043"><ele>293.0</ele><time>2026-04-03T14:24:15Z</time></trkpt><trkpt lat="43.046402616362926" lon="11.685215111750193"><ele>293.1666666666667</ele><time>2026-04-03T14:24:16Z</time></trkpt><trkpt lat="43.04633408798459" lon="11.685157340404375"><ele>293.33333333333337</ele><time>2026-04-03T14:24:17Z</time></trkpt><trkpt lat="43.046281460574825" lon="11.685086266383896"><ele>293.5</ele><time>2026-04-03T14:24:18Z</time></trkpt><trkpt lat="43.04622418319657" lon="11.685033740992463"><ele>293.6666666666667</ele><time>2026-04-03T14:24:19Z</time></trkpt><trkpt lat="43.04615615531844" lon="11.684971356299739"><ele>293.8333333333333</ele><time>2026-04-03T14:24:20Z</time></trkpt><trkpt lat="43.046076008338275" lon="11.684898738427703"><ele>294.0</ele><time>2026-04-03T14:24:21Z</time></trkpt><trkpt lat="43.04599365977667" lon="11.684830927303603"><ele>294.0</ele><time>2026-04-03T14:24:22Z</time></trkpt><trkpt lat="43.04590799934544" lon="11.684768379831917"><ele>294.0</ele><time>2026-04-03T14:24:23Z</time></trkpt><trkpt lat="43.04580441094685" lon="11.684709491293642"><ele>294.0</ele><time>2026-04-03T14:24:24Z</time></trkpt><trkpt lat="43.045680561670316" lon="11.684681372422808"><ele>294.0</ele><time>2026-04-03T14:24:25Z</time></trkpt><trkpt lat="43.04554320079527" lon="11.684682740333173"><ele>293.75</ele><time>2026-04-03T14:24:26Z</time></trkpt><trkpt lat="43.04540461189791" lon="11.68471446356902"><ele>293.5</ele><time>2026-04-03T14:24:27Z</time></trkpt><trkpt lat="43.04527305875419" lon="11.684803402595518"><ele>293.25</ele><time>2026-04-03T14:24:28Z</time></trkpt><trkpt lat="43.04514477267798" lon="11.684910156603094"><ele>293.0</ele><time>2026-04-03T14:24:29Z</time></trkpt><trkpt lat="43.04502834055891" lon="11.685046432857286"><ele>293.0</ele><time>2026-04-03T14:24:30Z</time></trkpt><trkpt lat="43.04491062688986" lon="11.685200355089837"><ele>293.0</ele><time>2026-04-03T14:24:31Z</time></trkpt><trkpt lat="43.04477651133703" lon="11.685338501260851"><ele>293.0</ele><time>2026-04-03T14:24:32.001Z</time></trkpt><trkpt lat="43.044643548248054" lon="11.685497904533545"><ele>293.0</ele><time>2026-04-03T14:24:33.001Z</time></trkpt><trkpt lat="43.04451330649612" lon="11.685654232046167"><ele>293.0</ele><time>2026-04-03T14:24:34.001Z</time></trkpt><trkpt lat="43.04439638410792" lon="11.685794609655911"><ele>293.0</ele><time>2026-04-03T14:24:35.001Z</time></trkpt><trkpt lat="43.044282836171774" lon="11.68592472788972"><ele>293.0</ele><time>2026-04-03T14:24:36.001Z</time></trkpt><trkpt lat="43.044164279955076" lon="11.68603569995911"><ele>293.0</ele><time>2026-04-03T14:24:37.001Z</time></trkpt><trkpt lat="43.044021723415334" lon="11.686105311507793"><ele>293.0</ele><time>2026-04-03T14:24:38.001Z</time></trkpt><trkpt lat="43.04386370341833" lon="11.686124846012603"><ele>292.6666666666667</ele><time>2026-04-03T14:24:39.001Z</time></trkpt><trkpt lat="43.043696891243194" lon="11.686089677607919"><ele>292.3333333333333</ele><time>2026-04-03T14:24:40.001Z</time></trkpt><trkpt lat="43.04352858821614" lon="11.686020895318322"><ele>292.0</ele><time>2026-04-03T14:24:41.001Z</time></trkpt><trkpt lat="43.04335920356562" lon="11.685944092080545"><ele>291.66666666666663</ele><time>2026-04-03T14:24:42.001Z</time></trkpt><trkpt lat="43.04317815237954" lon="11.685873507157796"><ele>291.3333333333333</ele><time>2026-04-03T14:24:43.001Z</time></trkpt><trkpt lat="43.0429935928354" lon="11.68578507139792"><ele>291.0</ele><time>2026-04-03T14:24:44.001Z</time></trkpt><trkpt lat="43.04280392503712" lon="11.685701700529131"><ele>291.0</ele><time>2026-04-03T14:24:45.001Z</time></trkpt><trkpt lat="43.042611407080265" lon="11.68561610263035"><ele>291.0</ele><time>2026-04-03T14:24:46.001Z</time></trkpt><trkpt lat="43.04241951901731" lon="11.685532734513497"><ele>291.0</ele><time>2026-04-03T14:24:47.001Z</time></trkpt><trkpt lat="43.042232085749646" lon="11.685450318949307"><ele>291.0</ele><time>2026-04-03T14:24:48.001Z</time></trkpt><trkpt lat="43.04204803181133" lon="11.685369320069805"><ele>291.0</ele><time>2026-04-03T14:24:49.001Z</time></trkpt><trkpt lat="43.04186151458185" lon="11.685287172902989"><ele>291.0</ele><time>2026-04-03T14:24:50.001Z</time></trkpt><trkpt lat="43.04167792844114" lon="11.685204106393924"><ele>291.3333333333333</ele><time>2026-04-03T14:24:51.001Z</time></trkpt><trkpt lat="43.04149862092931" lon="11.685121105802764"><ele>291.66666666666663</ele><time>2026-04-03T14:24:52.001Z</time></trkpt><trkpt lat="43.041319822733236" lon="11.685036908771744"><ele>292.0</ele><time>2026-04-03T14:24:53.001Z</time></trkpt><trkpt lat="43.0411411938227" lon="11.684961383769764"><ele>292.0</ele><time>2026-04-03T14:24:54.001Z</time></trkpt><trkpt lat="43.04095680629074" lon="11.684899376894835"><ele>292.0</ele><time>2026-04-03T14:24:55.001Z</time></trkpt><trkpt lat="43.04076497585573" lon="11.684854346969306"><ele>292.0</ele><time>2026-04-03T14:24:56.001Z</time></trkpt><trkpt lat="43.040570692885005" lon="11.68483249032864"><ele>293.3333333333333</ele><time>2026-04-03T14:24:57.001Z</time></trkpt><trkpt lat="43.04037474118482" lon="11.68481759199302"><ele>294.6666666666667</ele><time>2026-04-03T14:24:58.001Z</time></trkpt><trkpt lat="43.040183661265104" lon="11.684794760722063"><ele>296.0</ele><time>2026-04-03T14:24:59.001Z</time></trkpt><trkpt lat="43.03999552474578" lon="11.684772155243149"><ele>296.0</ele><time>2026-04-03T14:25:00.001Z</time></trkpt><trkpt lat="43.039807516686636" lon="11.684762982569652"><ele>296.0</ele><time>2026-04-03T14:25:01.001Z</time></trkpt><trkpt lat="43.03962465837522" lon="11.68477451742873"><ele>296.0</ele><time>2026-04-03T14:25:02.001Z</time></trkpt><trkpt lat="43.0394383700628" lon="11.684802812847288"><ele>296.0</ele><time>2026-04-03T14:25:03.001Z</time></trkpt><trkpt lat="43.039260824537045" lon="11.684853375616623"><ele>296.0</ele><time>2026-04-03T14:25:04.001Z</time></trkpt><trkpt lat="43.03908909381858" lon="11.684923915669444"><ele>296.0</ele><time>2026-04-03T14:25:05.001Z</time></trkpt><trkpt lat="43.03892341632169" lon="11.685016072395825"><ele>296.0</ele><time>2026-04-03T14:25:06.001Z</time></trkpt><trkpt lat="43.03875683948722" lon="11.685119398929306"><ele>296.0</ele><time>2026-04-03T14:25:07.002Z</time></trkpt><trkpt lat="43.03858606416067" lon="11.685229821812376"><ele>296.0</ele><time>2026-04-03T14:25:08.002Z</time></trkpt><trkpt lat="43.03840742166017" lon="11.685338621751114"><ele>294.33333333333337</ele><time>2026-04-03T14:25:09.002Z</time></trkpt><trkpt lat="43.03822733157824" lon="11.685450141166061"><ele>292.6666666666667</ele><time>2026-04-03T14:25:10.002Z</time></trkpt><trkpt lat="43.03804469000708" lon="11.685565545279943"><ele>291.0</ele><time>2026-04-03T14:25:11.002Z</time></trkpt><trkpt lat="43.03785873609704" lon="11.685684465957252"><ele>291.0</ele><time>2026-04-03T14:25:12.002Z</time></trkpt><trkpt lat="43.03767315918309" lon="11.68580224371784"><ele>291.0</ele><time>2026-04-03T14:25:13.002Z</time></trkpt><trkpt lat="43.037482089510746" lon="11.685898923710933"><ele>291.0</ele><time>2026-04-03T14:25:14.002Z</time></trkpt><trkpt lat="43.03729047888788" lon="11.686018984493868"><ele>291.0</ele><time>2026-04-03T14:25:15.002Z</time></trkpt><trkpt lat="43.037099263463546" lon="11.686160994558549"><ele>291.0</ele><time>2026-04-03T14:25:16.002Z</time></trkpt><trkpt lat="43.03690245435251" lon="11.68628482388874"><ele>291.0</ele><time>2026-04-03T14:25:17.002Z</time></trkpt><trkpt lat="43.03670507131041" lon="11.68640896467729"><ele>291.6666666666667</ele><time>2026-04-03T14:25:18.002Z</time></trkpt><trkpt lat="43.036501901408926" lon="11.686530495201428"><ele>292.33333333333337</ele><time>2026-04-03T14:25:19.002Z</time></trkpt><trkpt lat="43.03629910450239" lon="11.68665416877606"><ele>293.0</ele><time>2026-04-03T14:25:20.002Z</time></trkpt><trkpt lat="43.036101400097614" lon="11.686780470453444"><ele>293.0</ele><time>2026-04-03T14:25:21.002Z</time></trkpt><trkpt lat="43.03590390532833" lon="11.686904098944753"><ele>293.0</ele><time>2026-04-03T14:25:22.002Z</time></trkpt><trkpt lat="43.03570727731913" lon="11.687025397542698"><ele>293.0</ele><time>2026-04-03T14:25:23.002Z</time></trkpt><trkpt lat="43.03551366829203" lon="11.687143628346453"><ele>294.0</ele><time>2026-04-03T14:25:24.002Z</time></trkpt><trkpt lat="43.035320448171134" lon="11.687262807315529"><ele>295.0</ele><time>2026-04-03T14:25:25.002Z</time></trkpt><trkpt lat="43.03512655762014" lon="11.687384112435213"><ele>296.0</ele><time>2026-04-03T14:25:26.002Z</time></trkpt><trkpt lat="43.03493483113754" lon="11.687505320011404"><ele>296.6666666666667</ele><time>2026-04-03T14:25:27.002Z</time></trkpt><trkpt lat="43.03474247631275" lon="11.68762807915407"><ele>297.3333333333333</ele><time>2026-04-03T14:25:28.002Z</time></trkpt><trkpt lat="43.034548806566384" lon="11.687749224318031"><ele>298.0</ele><time>2026-04-03T14:25:29.002Z</time></trkpt><trkpt lat="43.034359023806495" lon="11.687870144390663"><ele>298.0</ele><time>2026-04-03T14:25:30.002Z</time></trkpt><trkpt lat="43.034183336903396" lon="11.687980309958999"><ele>298.0</ele><time>2026-04-03T14:25:31.002Z</time></trkpt><trkpt lat="43.03400709674532" lon="11.68807173790733"><ele>298.0</ele><time>2026-04-03T14:25:32.002Z</time></trkpt><trkpt lat="43.03381983532145" lon="11.68814302387647"><ele>297.3333333333333</ele><time>2026-04-03T14:25:33.002Z</time></trkpt><trkpt lat="43.03362197885563" lon="11.688164608072203"><ele>296.6666666666667</ele><time>2026-04-03T14:25:34.002Z</time></trkpt><trkpt lat="43.03343632075962" lon="11.688209637804656"><ele>296.0</ele><time>2026-04-03T14:25:35.002Z</time></trkpt><trkpt lat="43.03325929723013" lon="11.688226731008415"><ele>295.0</ele><time>2026-04-03T14:25:36.002Z</time></trkpt><trkpt lat="43.03309005694855" lon="11.688239326505402"><ele>294.0</ele><time>2026-04-03T14:25:37.002Z</time></trkpt><trkpt lat="43.032916136487756" lon="11.688239540783117"><ele>293.0</ele><time>2026-04-03T14:25:38.002Z</time></trkpt><trkpt lat="43.03273342836324" lon="11.688185267177264"><ele>293.0</ele><time>2026-04-03T14:25:39.002Z</time></trkpt><trkpt lat="43.0325402338816" lon="11.688123345877065"><ele>293.0</ele><time>2026-04-03T14:25:40.002Z</time></trkpt><trkpt lat="43.03234474707964" lon="11.68804370458867"><ele>293.0</ele><time>2026-04-03T14:25:41.002Z</time></trkpt><trkpt lat="43.03214108380344" lon="11.6879774177861"><ele>292.6666666666667</ele><time>2026-04-03T14:25:42.002Z</time></trkpt><trkpt lat="43.03193822211769" lon="11.687892431776614"><ele>292.3333333333333</ele><time>2026-04-03T14:25:43.003Z</time></trkpt><trkpt lat="43.03174011283464" lon="11.68781667417888"><ele>292.0</ele><time>2026-04-03T14:25:44.003Z</time></trkpt><trkpt lat="43.03155465351522" lon="11.687742139211446"><ele>290.3333333333333</ele><time>2026-04-03T14:25:45.003Z</time></trkpt><trkpt lat="43.03137272480412" lon="11.687681767582918"><ele>288.6666666666667</ele><time>2026-04-03T14:25:46.003Z</time></trkpt><trkpt lat="43.03118995844165" lon="11.687649718533969"><ele>287.0</ele><time>2026-04-03T14:25:47.003Z</time></trkpt><trkpt lat="43.03100264528382" lon="11.687657547896626"><ele>287.0</ele><time>2026-04-03T14:25:48.003Z</time></trkpt><trkpt lat="43.03082158555828" lon="11.687729724014712"><ele>287.0</ele><time>2026-04-03T14:25:49.003Z</time></trkpt><trkpt lat="43.030656354249984" lon="11.68785697258323"><ele>287.0</ele><time>2026-04-03T14:25:50.003Z</time></trkpt><trkpt lat="43.030499317545285" lon="11.688022938594631"><ele>287.33333333333337</ele><time>2026-04-03T14:25:51.003Z</time></trkpt><trkpt lat="43.030317076164955" lon="11.688194382547891"><ele>287.6666666666667</ele><time>2026-04-03T14:25:52.003Z</time></trkpt><trkpt lat="43.030182713562866" lon="11.688280327371569"><ele>288.0</ele><time>2026-04-03T14:25:53.003Z</time></trkpt><trkpt lat="43.030021123225445" lon="11.68844902376403"><ele>287.0</ele><time>2026-04-03T14:25:54.003Z</time></trkpt><trkpt lat="43.029858298862784" lon="11.688638692869006"><ele>286.0</ele><time>2026-04-03T14:25:55.003Z</time></trkpt><trkpt lat="43.02968745177978" lon="11.68881297356457"><ele>285.0</ele><time>2026-04-03T14:25:56.003Z</time></trkpt><trkpt lat="43.02952158811575" lon="11.68898735700135"><ele>285.0</ele><time>2026-04-03T14:25:57.003Z</time></trkpt><trkpt lat="43.02935572784057" lon="11.689163377655703"><ele>285.0</ele><time>2026-04-03T14:25:58.003Z</time></trkpt><trkpt lat="43.02918951340274" lon="11.689334758668586"><ele>285.0</ele><time>2026-04-03T14:25:59.003Z</time></trkpt><trkpt lat="43.02901938068148" lon="11.689511281431374"><ele>283.6666666666667</ele><time>2026-04-03T14:26:00.003Z</time></trkpt><trkpt lat="43.0288468539582" lon="11.689689694006633"><ele>282.33333333333337</ele><time>2026-04-03T14:26:01.003Z</time></trkpt><trkpt lat="43.02867833477093" lon="11.689862301076175"><ele>281.0</ele><time>2026-04-03T14:26:02.003Z</time></trkpt><trkpt lat="43.028520782626146" lon="11.690021936130432"><ele>281.0</ele><time>2026-04-03T14:26:03.003Z</time></trkpt><trkpt lat="43.028369006734614" lon="11.690171731797024"><ele>281.0</ele><time>2026-04-03T14:26:04.003Z</time></trkpt><trkpt lat="43.02822609607306" lon="11.690313500813007"><ele>281.0</ele><time>2026-04-03T14:26:05.003Z</time></trkpt><trkpt lat="43.0281015152109" lon="11.690460173326333"><ele>282.0</ele><time>2026-04-03T14:26:06.003Z</time></trkpt><trkpt lat="43.027987249755334" lon="11.690628178234071"><ele>283.0</ele><time>2026-04-03T14:26:07.003Z</time></trkpt><trkpt lat="43.027888967851986" lon="11.690811868366175"><ele>284.0</ele><time>2026-04-03T14:26:08.003Z</time></trkpt><trkpt lat="43.027795867527715" lon="11.691003015136967"><ele>284.0</ele><time>2026-04-03T14:26:09.003Z</time></trkpt><trkpt lat="43.02769895105621" lon="11.691173982703724"><ele>284.0</ele><time>2026-04-03T14:26:10Z</time></trkpt><trkpt lat="43.027595505042974" lon="11.69133050249678"><ele>284.0</ele><time>2026-04-03T14:26:11Z</time></trkpt><trkpt lat="43.02747373879961" lon="11.69145058684914"><ele>283.6666666666667</ele><time>2026-04-03T14:26:12Z</time></trkpt><trkpt lat="43.02732895041" lon="11.691529264639202"><ele>283.3333333333333</ele><time>2026-04-03T14:26:13Z</time></trkpt><trkpt lat="43.027169517501065" lon="11.691564717232433"><ele>283.0</ele><time>2026-04-03T14:26:14Z</time></trkpt><trkpt lat="43.027015319872305" lon="11.691575925127832"><ele>283.0</ele><time>2026-04-03T14:26:15Z</time></trkpt><trkpt lat="43.02687950380011" lon="11.691553381555016"><ele>283.0</ele><time>2026-04-03T14:26:16Z</time></trkpt><trkpt lat="43.02675519729289" lon="11.69157579885586"><ele>283.0</ele><time>2026-04-03T14:26:17Z</time></trkpt><trkpt lat="43.026651802627704" lon="11.691599066782187"><ele>283.0</ele><time>2026-04-03T14:26:18Z</time></trkpt><trkpt lat="43.02657151539072" lon="11.691633487518303"><ele>282.6</ele><time>2026-04-03T14:26:19Z</time></trkpt><trkpt lat="43.02651613135882" lon="11.691710410636967"><ele>282.20000000000005</ele><time>2026-04-03T14:26:20Z</time></trkpt><trkpt lat="43.02648233431014" lon="11.691818781598501"><ele>281.8</ele><time>2026-04-03T14:26:21Z</time></trkpt><trkpt lat="43.02645534488811" lon="11.691944660220553"><ele>281.40000000000003</ele><time>2026-04-03T14:26:22Z</time></trkpt><trkpt lat="43.02641604616206" lon="11.692072347537074"><ele>281.0</ele><time>2026-04-03T14:26:23Z</time></trkpt><trkpt lat="43.02637015521766" lon="11.692210968660017"><ele>281.0</ele><time>2026-04-03T14:26:24Z</time></trkpt><trkpt lat="43.02631496738107" lon="11.692361986474294"><ele>281.0</ele><time>2026-04-03T14:26:25Z</time></trkpt><trkpt lat="43.02624928423418" lon="11.69253406608269"><ele>281.0</ele><time>2026-04-03T14:26:26Z</time></trkpt><trkpt lat="43.02617841523298" lon="11.692715879866054"><ele>281.0</ele><time>2026-04-03T14:26:27Z</time></trkpt><trkpt lat="43.026108940263306" lon="11.692906485233035"><ele>282.0</ele><time>2026-04-03T14:26:28Z</time></trkpt><trkpt lat="43.026029606077714" lon="11.693113826146883"><ele>283.0</ele><time>2026-04-03T14:26:29Z</time></trkpt><trkpt lat="43.025947424025695" lon="11.69333074228043"><ele>284.0</ele><time>2026-04-03T14:26:30Z</time></trkpt><trkpt lat="43.025861089321346" lon="11.693558965324549"><ele>284.0</ele><time>2026-04-03T14:26:31Z</time></trkpt><trkpt lat="43.025774794547125" lon="11.693796285183126"><ele>284.0</ele><time>2026-04-03T14:26:32Z</time></trkpt><trkpt lat="43.025685129610025" lon="11.694033222250043"><ele>284.0</ele><time>2026-04-03T14:26:33Z</time></trkpt><trkpt lat="43.02559101192138" lon="11.694280615480777"><ele>285.33333333333337</ele><time>2026-04-03T14:26:34Z</time></trkpt><trkpt lat="43.02549838573694" lon="11.694535321479952"><ele>286.6666666666667</ele><time>2026-04-03T14:26:35Z</time></trkpt><trkpt lat="43.025401294124336" lon="11.694794239094328"><ele>288.0</ele><time>2026-04-03T14:26:36.001Z</time></trkpt><trkpt lat="43.02530530111827" lon="11.69505428142216"><ele>287.6666666666667</ele><time>2026-04-03T14:26:37.001Z</time></trkpt><trkpt lat="43.02520404385685" lon="11.695321039980389"><ele>287.33333333333337</ele><time>2026-04-03T14:26:38.001Z</time></trkpt><trkpt lat="43.025109030815116" lon="11.695585129826602"><ele>287.0</ele><time>2026-04-03T14:26:39.001Z</time></trkpt><trkpt lat="43.02501621250958" lon="11.695841494736253"><ele>287.0</ele><time>2026-04-03T14:26:40.001Z</time></trkpt><trkpt lat="43.02491853230098" lon="11.696100305983851"><ele>287.0</ele><time>2026-04-03T14:26:41.001Z</time></trkpt><trkpt lat="43.02481489350334" lon="11.696367071982953"><ele>287.0</ele><time>2026-04-03T14:26:42.001Z</time></trkpt><trkpt lat="43.024712246344535" lon="11.696635602748088"><ele>287.0</ele><time>2026-04-03T14:26:43.001Z</time></trkpt><trkpt lat="43.024615180987574" lon="11.696906061125391"><ele>287.0</ele><time>2026-04-03T14:26:44.001Z</time></trkpt><trkpt lat="43.02452998652546" lon="11.697183671627215"><ele>287.0</ele><time>2026-04-03T14:26:45.001Z</time></trkpt><trkpt lat="43.024456245855745" lon="11.697472555858873"><ele>286.6666666666667</ele><time>2026-04-03T14:26:46.001Z</time></trkpt><trkpt lat="43.024391834705696" lon="11.697762649067908"><ele>286.3333333333333</ele><time>2026-04-03T14:26:47.001Z</time></trkpt><trkpt lat="43.0243349662156" lon="11.698058772591677"><ele>286.0</ele><time>2026-04-03T14:26:48.001Z</time></trkpt><trkpt lat="43.02428562133894" lon="11.698354319266546"><ele>286.66666666666663</ele><time>2026-04-03T14:26:49.001Z</time></trkpt><trkpt lat="43.02424509514854" lon="11.698650119091546"><ele>287.3333333333333</ele><time>2026-04-03T14:26:50.001Z</time></trkpt><trkpt lat="43.02421545186319" lon="11.698944784286425"><ele>288.0</ele><time>2026-04-03T14:26:51.001Z</time></trkpt><trkpt lat="43.02419657747624" lon="11.699241908418427"><ele>287.6666666666667</ele><time>2026-04-03T14:26:52.001Z</time></trkpt><trkpt lat="43.02418585237458" lon="11.699535378993907"><ele>287.33333333333337</ele><time>2026-04-03T14:26:53.001Z</time></trkpt><trkpt lat="43.02418242642935" lon="11.699829327182822"><ele>287.0</ele><time>2026-04-03T14:26:54.001Z</time></trkpt><trkpt lat="43.02418298529572" lon="11.700118130582739"><ele>287.0</ele><time>2026-04-03T14:26:55.001Z</time></trkpt><trkpt lat="43.02418375238486" lon="11.700397657796048"><ele>287.0</ele><time>2026-04-03T14:26:56.001Z</time></trkpt><trkpt lat="43.02418166616896" lon="11.700675920940729"><ele>287.0</ele><time>2026-04-03T14:26:57.001Z</time></trkpt><trkpt lat="43.02417764543724" lon="11.700946406639622"><ele>287.33333333333337</ele><time>2026-04-03T14:26:58.001Z</time></trkpt><trkpt lat="43.02417615322662" lon="11.701207131096364"><ele>287.6666666666667</ele><time>2026-04-03T14:26:59.001Z</time></trkpt><trkpt lat="43.02417411680629" lon="11.70147398558157"><ele>288.0</ele><time>2026-04-03T14:27:00.001Z</time></trkpt><trkpt lat="43.024168848616014" lon="11.701743175848033"><ele>288.0</ele><time>2026-04-03T14:27:01.001Z</time></trkpt><trkpt lat="43.024162948859484" lon="11.70201345135428"><ele>288.0</ele><time>2026-04-03T14:27:02.001Z</time></trkpt><trkpt lat="43.024138608230956" lon="11.702280808109762"><ele>288.0</ele><time>2026-04-03T14:27:03.001Z</time></trkpt><trkpt lat="43.02411783384859" lon="11.70254657481966"><ele>286.3333333333333</ele><time>2026-04-03T14:27:04.001Z</time></trkpt><trkpt lat="43.02409230555586" lon="11.7027878809957"><ele>284.66666666666663</ele><time>2026-04-03T14:27:05.001Z</time></trkpt><trkpt lat="43.024078506247015" lon="11.703009081074146"><ele>283.0</ele><time>2026-04-03T14:27:06.001Z</time></trkpt><trkpt lat="43.02405059748382" lon="11.703222061216541"><ele>283.0</ele><time>2026-04-03T14:27:07.001Z</time></trkpt><trkpt lat="43.0240243023463" lon="11.70343873900816"><ele>283.0</ele><time>2026-04-03T14:27:08.001Z</time></trkpt><trkpt lat="43.02399657987764" lon="11.703664409699337"><ele>283.0</ele><time>2026-04-03T14:27:09.001Z</time></trkpt><trkpt lat="43.023968186148466" lon="11.703901785167643"><ele>282.66666666666663</ele><time>2026-04-03T14:27:10.001Z</time></trkpt><trkpt lat="43.02391994101302" lon="11.704145876949834"><ele>282.3333333333333</ele><time>2026-04-03T14:27:11.001Z</time></trkpt><trkpt lat="43.02388828208546" lon="11.704398383458116"><ele>282.0</ele><time>2026-04-03T14:27:12.001Z</time></trkpt><trkpt lat="43.02385557872338" lon="11.704658072335015"><ele>282.6666666666667</ele><time>2026-04-03T14:27:13.001Z</time></trkpt><trkpt lat="43.023821788181515" lon="11.70492322757404"><ele>283.33333333333337</ele><time>2026-04-03T14:27:14.001Z</time></trkpt><trkpt lat="43.023800705632866" lon="11.705200017436603"><ele>284.0</ele><time>2026-04-03T14:27:15.001Z</time></trkpt><trkpt lat="43.02375960234806" lon="11.705479259508714"><ele>285.0</ele><time>2026-04-03T14:27:16.001Z</time></trkpt><trkpt lat="43.02372389886712" lon="11.705759185221332"><ele>286.0</ele><time>2026-04-03T14:27:17.001Z</time></trkpt><trkpt lat="43.02368699350389" lon="11.706042082243515"><ele>287.0</ele><time>2026-04-03T14:27:18.002Z</time></trkpt><trkpt lat="43.02365923168403" lon="11.706316759198003"><ele>287.33333333333337</ele><time>2026-04-03T14:27:19.002Z</time></trkpt><trkpt lat="43.02361617581366" lon="11.706600067029608"><ele>287.6666666666667</ele><time>2026-04-03T14:27:20.002Z</time></trkpt><trkpt lat="43.023584961987986" lon="11.706881558128126"><ele>288.0</ele><time>2026-04-03T14:27:21.002Z</time></trkpt><trkpt lat="43.02357185430787" lon="11.707155246765451"><ele>288.0</ele><time>2026-04-03T14:27:22.002Z</time></trkpt><trkpt lat="43.02356419759565" lon="11.70742750920568"><ele>288.0</ele><time>2026-04-03T14:27:23.002Z</time></trkpt><trkpt lat="43.023570449799145" lon="11.707707005296044"><ele>288.0</ele><time>2026-04-03T14:27:24.002Z</time></trkpt><trkpt lat="43.023585501833615" lon="11.707982580260543"><ele>288.0</ele><time>2026-04-03T14:27:25.002Z</time></trkpt><trkpt lat="43.02360500162203" lon="11.7082578119761"><ele>288.0</ele><time>2026-04-03T14:27:26.002Z</time></trkpt><trkpt lat="43.023626044243855" lon="11.70852908473578"><ele>288.0</ele><time>2026-04-03T14:27:27.002Z</time></trkpt><trkpt lat="43.02369073443944" lon="11.70880268408123"><ele>288.0</ele><time>2026-04-03T14:27:28.002Z</time></trkpt><trkpt lat="43.02375146567766" lon="11.70905673526681"><ele>288.0</ele><time>2026-04-03T14:27:29.002Z</time></trkpt><trkpt lat="43.02380963613729" lon="11.709315428893976"><ele>288.0</ele><time>2026-04-03T14:27:30.002Z</time></trkpt><trkpt lat="43.02386089854276" lon="11.709578740170773"><ele>288.0</ele><time>2026-04-03T14:27:31.002Z</time></trkpt><trkpt lat="43.02387949611015" lon="11.709841720627571"><ele>288.0</ele><time>2026-04-03T14:27:32.002Z</time></trkpt><trkpt lat="43.02390158165498" lon="11.710109393427262"><ele>288.0</ele><time>2026-04-03T14:27:33.002Z</time></trkpt><trkpt lat="43.023935274559115" lon="11.710373924572394"><ele>288.0</ele><time>2026-04-03T14:27:34.002Z</time></trkpt><trkpt lat="43.02394822304149" lon="11.710640209416404"><ele>288.0</ele><time>2026-04-03T14:27:35.002Z</time></trkpt><trkpt lat="43.02395919768538" lon="11.710904979360672"><ele>288.0</ele><time>2026-04-03T14:27:36.002Z</time></trkpt><trkpt lat="43.023971149690546" lon="11.711175340075325"><ele>288.0</ele><time>2026-04-03T14:27:37.002Z</time></trkpt><trkpt lat="43.023990681730666" lon="11.711449522498446"><ele>288.0</ele><time>2026-04-03T14:27:38.002Z</time></trkpt><trkpt lat="43.02401278962335" lon="11.711724218069975"><ele>288.0</ele><time>2026-04-03T14:27:39.002Z</time></trkpt><trkpt lat="43.02402930101883" lon="11.712000653538894"><ele>288.6666666666667</ele><time>2026-04-03T14:27:40.002Z</time></trkpt><trkpt lat="43.024042663374665" lon="11.712281147070298"><ele>289.33333333333337</ele><time>2026-04-03T14:27:41.002Z</time></trkpt><trkpt lat="43.024045549663846" lon="11.712561042804964"><ele>290.0</ele><time>2026-04-03T14:27:42.002Z</time></trkpt><trkpt lat="43.02402274950654" lon="11.712841160793575"><ele>290.33333333333337</ele><time>2026-04-03T14:27:43.002Z</time></trkpt><trkpt lat="43.02402240494686" lon="11.713123893815695"><ele>290.6666666666667</ele><time>2026-04-03T14:27:44.002Z</time></trkpt><trkpt lat="43.02400013876292" lon="11.713400870254892"><ele>291.0</ele><time>2026-04-03T14:27:45.002Z</time></trkpt><trkpt lat="43.023984422547265" lon="11.713674847098153"><ele>291.3333333333333</ele><time>2026-04-03T14:27:46.002Z</time></trkpt><trkpt lat="43.02397131637374" lon="11.713954820033283"><ele>291.66666666666663</ele><time>2026-04-03T14:27:47.002Z</time></trkpt><trkpt lat="43.0239573199513" lon="11.71423350203114"><ele>292.0</ele><time>2026-04-03T14:27:48.002Z</time></trkpt><trkpt lat="43.02394230894879" lon="11.71451901156932"><ele>292.0</ele><time>2026-04-03T14:27:49.002Z</time></trkpt><trkpt lat="43.02392653995563" lon="11.71480633449304"><ele>292.0</ele><time>2026-04-03T14:27:50.002Z</time></trkpt><trkpt lat="43.02391104323251" lon="11.71509458664552"><ele>292.0</ele><time>2026-04-03T14:27:51.002Z</time></trkpt><trkpt lat="43.023895185072526" lon="11.715381375996179"><ele>292.3333333333333</ele><time>2026-04-03T14:27:52.002Z</time></trkpt><trkpt lat="43.02387433358677" lon="11.71566670111319"><ele>292.6666666666667</ele><time>2026-04-03T14:27:53.002Z</time></trkpt><trkpt lat="43.02385832186786" lon="11.71595671759727"><ele>293.0</ele><time>2026-04-03T14:27:54.002Z</time></trkpt><trkpt lat="43.02384388015027" lon="11.716246403774816"><ele>293.0</ele><time>2026-04-03T14:27:55.002Z</time></trkpt><trkpt lat="43.02382760051511" lon="11.71653723322091"><ele>293.0</ele><time>2026-04-03T14:27:56.003Z</time></trkpt><trkpt lat="43.02381540931911" lon="11.716830440733226"><ele>293.0</ele><time>2026-04-03T14:27:57.003Z</time></trkpt><trkpt lat="43.02380088254402" lon="11.717121239403532"><ele>293.0</ele><time>2026-04-03T14:27:58.003Z</time></trkpt><trkpt lat="43.023785802164284" lon="11.717409824624172"><ele>293.0</ele><time>2026-04-03T14:27:59.003Z</time></trkpt><trkpt lat="43.023774757349834" lon="11.71770092216774"><ele>293.0</ele><time>2026-04-03T14:28:00.003Z</time></trkpt><trkpt lat="43.02376673808594" lon="11.71799435512838"><ele>293.0</ele><time>2026-04-03T14:28:01.003Z</time></trkpt><trkpt lat="43.02375537034845" lon="11.718281432380401"><ele>293.0</ele><time>2026-04-03T14:28:02.003Z</time></trkpt><trkpt lat="43.023747454246774" lon="11.718571060003184"><ele>293.0</ele><time>2026-04-03T14:28:03.003Z</time></trkpt><trkpt lat="43.02374043865435" lon="11.718852413799373"><ele>293.33333333333337</ele><time>2026-04-03T14:28:04.003Z</time></trkpt><trkpt lat="43.02373871186386" lon="11.7191388566836"><ele>293.6666666666667</ele><time>2026-04-03T14:28:05.003Z</time></trkpt><trkpt lat="43.0237349075338" lon="11.71942516126306"><ele>294.0</ele><time>2026-04-03T14:28:06.003Z</time></trkpt><trkpt lat="43.023729543842705" lon="11.719704870004495"><ele>294.3333333333333</ele><time>2026-04-03T14:28:07.003Z</time></trkpt><trkpt lat="43.02372289671252" lon="11.719986714918107"><ele>294.66666666666663</ele><time>2026-04-03T14:28:08.003Z</time></trkpt><trkpt lat="43.0237169582187" lon="11.720270076664248"><ele>295.0</ele><time>2026-04-03T14:28:09.003Z</time></trkpt><trkpt lat="43.023712872752206" lon="11.720555132144284"><ele>295.0</ele><time>2026-04-03T14:28:10.003Z</time></trkpt><trkpt lat="43.0237054181627" lon="11.72084435056872"><ele>295.0</ele><time>2026-04-03T14:28:11.003Z</time></trkpt><trkpt lat="43.02369713891018" lon="11.721129924863655"><ele>295.0</ele><time>2026-04-03T14:28:12.003Z</time></trkpt><trkpt lat="43.02368873766757" lon="11.721416831454965"><ele>295.3333333333333</ele><time>2026-04-03T14:28:13.003Z</time></trkpt><trkpt lat="43.023686527567826" lon="11.721705098297477"><ele>295.6666666666667</ele><time>2026-04-03T14:28:14.003Z</time></trkpt><trkpt lat="43.02367783388211" lon="11.721993504423082"><ele>296.0</ele><time>2026-04-03T14:28:15.003Z</time></trkpt><trkpt lat="43.02367279593524" lon="11.72228138749238"><ele>296.0</ele><time>2026-04-03T14:28:16Z</time></trkpt><trkpt lat="43.0236693245394" lon="11.722571104076387"><ele>296.0</ele><time>2026-04-03T14:28:17Z</time></trkpt><trkpt lat="43.023661466758846" lon="11.722860493375231"><ele>296.0</ele><time>2026-04-03T14:28:18.001Z</time></trkpt><trkpt lat="43.02365551971793" lon="11.723150737608451"><ele>296.0</ele><time>2026-04-03T14:28:19.001Z</time></trkpt><trkpt lat="43.023649076387045" lon="11.723438138921814"><ele>296.0</ele><time>2026-04-03T14:28:20Z</time></trkpt><trkpt lat="43.02363781606304" lon="11.723720233391886"><ele>296.0</ele><time>2026-04-03T14:28:21Z</time></trkpt><trkpt lat="43.023641600783584" lon="11.72397418092532"><ele>296.0</ele><time>2026-04-03T14:28:22Z</time></trkpt><trkpt lat="43.02363178588965" lon="11.724217175159158"><ele>296.0</ele><time>2026-04-03T14:28:23Z</time></trkpt><trkpt lat="43.023616693609775" lon="11.724458680278838"><ele>296.0</ele><time>2026-04-03T14:28:24Z</time></trkpt><trkpt lat="43.02358620572808" lon="11.724715186474516"><ele>296.0</ele><time>2026-04-03T14:28:25Z</time></trkpt><trkpt lat="43.02353027524001" lon="11.724970870584224"><ele>296.0</ele><time>2026-04-03T14:28:26Z</time></trkpt><trkpt lat="43.02345741196412" lon="11.725223931625619"><ele>296.0</ele><time>2026-04-03T14:28:27Z</time></trkpt><trkpt lat="43.02338256981001" lon="11.725481407812225"><ele>294.33333333333337</ele><time>2026-04-03T14:28:28Z</time></trkpt><trkpt lat="43.02331000937748" lon="11.725749401186434"><ele>292.6666666666667</ele><time>2026-04-03T14:28:29Z</time></trkpt><trkpt lat="43.023240927742535" lon="11.726018977012203"><ele>291.0</ele><time>2026-04-03T14:28:30Z</time></trkpt><trkpt lat="43.023173609452485" lon="11.726296332653476"><ele>291.0</ele><time>2026-04-03T14:28:31Z</time></trkpt><trkpt lat="43.023102653834044" lon="11.726576208394546"><ele>291.0</ele><time>2026-04-03T14:28:32Z</time></trkpt><trkpt lat="43.02302606308594" lon="11.726859696080503"><ele>291.0</ele><time>2026-04-03T14:28:33Z</time></trkpt><trkpt lat="43.022952462993494" lon="11.727144689006945"><ele>291.6666666666667</ele><time>2026-04-03T14:28:34Z</time></trkpt><trkpt lat="43.02288036117266" lon="11.727431775585819"><ele>292.33333333333337</ele><time>2026-04-03T14:28:35Z</time></trkpt><trkpt lat="43.022807491973055" lon="11.72771353817642"><ele>293.0</ele><time>2026-04-03T14:28:36Z</time></trkpt><trkpt lat="43.02273483872553" lon="11.727995222181029"><ele>294.0</ele><time>2026-04-03T14:28:37Z</time></trkpt><trkpt lat="43.02266428783384" lon="11.728279903555864"><ele>295.0</ele><time>2026-04-03T14:28:38Z</time></trkpt><trkpt lat="43.022593437702604" lon="11.728559575673582"><ele>296.0</ele><time>2026-04-03T14:28:39Z</time></trkpt><trkpt lat="43.02252166930783" lon="11.728832027462179"><ele>296.0</ele><time>2026-04-03T14:28:40Z</time></trkpt><trkpt lat="43.02245270157212" lon="11.729100073941183"><ele>296.0</ele><time>2026-04-03T14:28:41Z</time></trkpt><trkpt lat="43.02238330781628" lon="11.72936054674435"><ele>296.0</ele><time>2026-04-03T14:28:42Z</time></trkpt><trkpt lat="43.02231284839705" lon="11.729620489209037"><ele>296.0</ele><time>2026-04-03T14:28:43Z</time></trkpt><trkpt lat="43.02224025950166" lon="11.729868992244596"><ele>296.0</ele><time>2026-04-03T14:28:44Z</time></trkpt><trkpt lat="43.0221704464585" lon="11.730102357992758"><ele>296.0</ele><time>2026-04-03T14:28:45Z</time></trkpt><trkpt lat="43.02210701891502" lon="11.730332140281078"><ele>297.0</ele><time>2026-04-03T14:28:46.001Z</time></trkpt><trkpt lat="43.02204377173984" lon="11.730564933231122"><ele>298.0</ele><time>2026-04-03T14:28:47.001Z</time></trkpt><trkpt lat="43.0219852564289" lon="11.730797797678694"><ele>299.0</ele><time>2026-04-03T14:28:48.001Z</time></trkpt><trkpt lat="43.021935103975736" lon="11.731033413145486"><ele>300.0</ele><time>2026-04-03T14:28:49.001Z</time></trkpt><trkpt lat="43.02189731585515" lon="11.731268548916583"><ele>301.0</ele><time>2026-04-03T14:28:50.001Z</time></trkpt><trkpt lat="43.02186141979114" lon="11.731488828613829"><ele>302.0</ele><time>2026-04-03T14:28:51.001Z</time></trkpt><trkpt lat="43.021825783922324" lon="11.731690160047446"><ele>302.0</ele><time>2026-04-03T14:28:52.001Z</time></trkpt><trkpt lat="43.0217893203448" lon="11.73187682864974"><ele>302.0</ele><time>2026-04-03T14:28:53.001Z</time></trkpt><trkpt lat="43.021733842958" lon="11.732044128319263"><ele>302.0</ele><time>2026-04-03T14:28:54.001Z</time></trkpt><trkpt lat="43.021644268256544" lon="11.732186926644285"><ele>302.0</ele><time>2026-04-03T14:28:55.001Z</time></trkpt><trkpt lat="43.021515958484336" lon="11.732293073150768"><ele>303.6666666666667</ele><time>2026-04-03T14:28:56.001Z</time></trkpt><trkpt lat="43.02137444245831" lon="11.732336109217108"><ele>305.3333333333333</ele><time>2026-04-03T14:28:57.001Z</time></trkpt><trkpt lat="43.021218833112236" lon="11.73231852712405"><ele>307.0</ele><time>2026-04-03T14:28:58.001Z</time></trkpt><trkpt lat="43.021055811296655" lon="11.732294775108155"><ele>307.0</ele><time>2026-04-03T14:28:59.001Z</time></trkpt><trkpt lat="43.02089315443864" lon="11.732345013545965"><ele>307.0</ele><time>2026-04-03T14:29:00.001Z</time></trkpt><trkpt lat="43.0207367840878" lon="11.732427176757517"><ele>307.0</ele><time>2026-04-03T14:29:01.001Z</time></trkpt><trkpt lat="43.02059091827876" lon="11.732563352212894"><ele>305.66666666666663</ele><time>2026-04-03T14:29:02.001Z</time></trkpt><trkpt lat="43.02045304355351" lon="11.732705298608701"><ele>304.3333333333333</ele><time>2026-04-03T14:29:03.001Z</time></trkpt><trkpt lat="43.02032538148258" lon="11.732882270512523"><ele>303.0</ele><time>2026-04-03T14:29:04.001Z</time></trkpt><trkpt lat="43.02018936010963" lon="11.733036737822049"><ele>303.6666666666667</ele><time>2026-04-03T14:29:05.001Z</time></trkpt><trkpt lat="43.02005120709014" lon="11.733197225531702"><ele>304.33333333333337</ele><time>2026-04-03T14:29:06.001Z</time></trkpt><trkpt lat="43.01992425510629" lon="11.733365078744884"><ele>305.0</ele><time>2026-04-03T14:29:07.001Z</time></trkpt><trkpt lat="43.01981193595381" lon="11.73355887000764"><ele>305.0</ele><time>2026-04-03T14:29:08.001Z</time></trkpt><trkpt lat="43.019720355075684" lon="11.733776400115046"><ele>305.0</ele><time>2026-04-03T14:29:09.001Z</time></trkpt><trkpt lat="43.01964686482806" lon="11.734009066128358"><ele>305.0</ele><time>2026-04-03T14:29:10.001Z</time></trkpt><trkpt lat="43.019576677521954" lon="11.734247267237084"><ele>307.0</ele><time>2026-04-03T14:29:11.001Z</time></trkpt><trkpt lat="43.019500384299654" lon="11.734476753962714"><ele>309.0</ele><time>2026-04-03T14:29:12.001Z</time></trkpt><trkpt lat="43.01942809406484" lon="11.73471761718523"><ele>311.0</ele><time>2026-04-03T14:29:13.001Z</time></trkpt><trkpt lat="43.019359743464996" lon="11.734954854599716"><ele>311.0</ele><time>2026-04-03T14:29:14.001Z</time></trkpt><trkpt lat="43.01928181331346" lon="11.7351736949851"><ele>311.0</ele><time>2026-04-03T14:29:15.001Z</time></trkpt><trkpt lat="43.01917996373613" lon="11.735348571906195"><ele>311.0</ele><time>2026-04-03T14:29:16.001Z</time></trkpt><trkpt lat="43.01904834244565" lon="11.735480168008761"><ele>309.33333333333337</ele><time>2026-04-03T14:29:17.001Z</time></trkpt><trkpt lat="43.018883544489" lon="11.73556510231714"><ele>307.6666666666667</ele><time>2026-04-03T14:29:18.001Z</time></trkpt><trkpt lat="43.018714611076746" lon="11.735625957782798"><ele>306.0</ele><time>2026-04-03T14:29:19.001Z</time></trkpt><trkpt lat="43.01855314204735" lon="11.735722138188741"><ele>306.0</ele><time>2026-04-03T14:29:20.001Z</time></trkpt><trkpt lat="43.01840795607394" lon="11.73585212292404"><ele>306.0</ele><time>2026-04-03T14:29:21.001Z</time></trkpt><trkpt lat="43.018268808140945" lon="11.736009488217405"><ele>306.0</ele><time>2026-04-03T14:29:22.001Z</time></trkpt><trkpt lat="43.01813166467606" lon="11.736185457287785"><ele>304.6666666666667</ele><time>2026-04-03T14:29:23.001Z</time></trkpt><trkpt lat="43.0179922117103" lon="11.736361892450477"><ele>303.33333333333337</ele><time>2026-04-03T14:29:24.001Z</time></trkpt><trkpt lat="43.01787059848732" lon="11.736569894302722"><ele>302.0</ele><time>2026-04-03T14:29:25.001Z</time></trkpt><trkpt lat="43.01776452396761" lon="11.736798235051111"><ele>302.33333333333337</ele><time>2026-04-03T14:29:26.001Z</time></trkpt><trkpt lat="43.01767013659505" lon="11.737038456260327"><ele>302.6666666666667</ele><time>2026-04-03T14:29:27.001Z</time></trkpt><trkpt lat="43.017581000584656" lon="11.737287891152762"><ele>303.0</ele><time>2026-04-03T14:29:28.001Z</time></trkpt><trkpt lat="43.01748608963836" lon="11.737560258311925"><ele>302.0</ele><time>2026-04-03T14:29:29.001Z</time></trkpt><trkpt lat="43.01744927842047" lon="11.73768402927551"><ele>301.0</ele><time>2026-04-03T14:29:30.001Z</time></trkpt><trkpt lat="43.01736799088458" lon="11.737918246725767"><ele>300.0</ele><time>2026-04-03T14:29:31.001Z</time></trkpt><trkpt lat="43.01728833732401" lon="11.738150621924689"><ele>300.0</ele><time>2026-04-03T14:29:32.001Z</time></trkpt><trkpt lat="43.01720594970244" lon="11.738375691517202"><ele>300.0</ele><time>2026-04-03T14:29:33.002Z</time></trkpt><trkpt lat="43.01711571368159" lon="11.738602673036485"><ele>300.0</ele><time>2026-04-03T14:29:34.002Z</time></trkpt><trkpt lat="43.01703597091858" lon="11.738825464881725"><ele>300.3333333333333</ele><time>2026-04-03T14:29:35.002Z</time></trkpt><trkpt lat="43.0169536907772" lon="11.739047478407096"><ele>300.66666666666663</ele><time>2026-04-03T14:29:36.002Z</time></trkpt><trkpt lat="43.016858592314854" lon="11.739262232088512"><ele>301.0</ele><time>2026-04-03T14:29:37.002Z</time></trkpt><trkpt lat="43.01674446514102" lon="11.739467808873384"><ele>300.66666666666663</ele><time>2026-04-03T14:29:38.002Z</time></trkpt><trkpt lat="43.016618827128816" lon="11.73965784358706"><ele>300.3333333333333</ele><time>2026-04-03T14:29:39.002Z</time></trkpt><trkpt lat="43.016477481917704" lon="11.739834698611057"><ele>300.0</ele><time>2026-04-03T14:29:40.002Z</time></trkpt><trkpt lat="43.01635153389906" lon="11.740037988638091"><ele>300.0</ele><time>2026-04-03T14:29:41.002Z</time></trkpt><trkpt lat="43.01618549702719" lon="11.740179802292122"><ele>300.0</ele><time>2026-04-03T14:29:42.002Z</time></trkpt><trkpt lat="43.01601236318633" lon="11.74030300139687"><ele>300.0</ele><time>2026-04-03T14:29:43.002Z</time></trkpt><trkpt lat="43.01583005371494" lon="11.740420696064353"><ele>299.6666666666667</ele><time>2026-04-03T14:29:44.002Z</time></trkpt><trkpt lat="43.01564266935205" lon="11.740519724250914"><ele>299.33333333333337</ele><time>2026-04-03T14:29:45.002Z</time></trkpt><trkpt lat="43.01546462691405" lon="11.740645271238057"><ele>299.0</ele><time>2026-04-03T14:29:46.002Z</time></trkpt><trkpt lat="43.01528948154974" lon="11.740792402377798"><ele>299.0</ele><time>2026-04-03T14:29:47.002Z</time></trkpt><trkpt lat="43.01510990511917" lon="11.74091962539764"><ele>299.0</ele><time>2026-04-03T14:29:48.002Z</time></trkpt><trkpt lat="43.014925959045534" lon="11.74104879272613"><ele>299.0</ele><time>2026-04-03T14:29:49.002Z</time></trkpt><trkpt lat="43.01474701927923" lon="11.741171545729458"><ele>299.33333333333337</ele><time>2026-04-03T14:29:50.002Z</time></trkpt><trkpt lat="43.01456432665197" lon="11.741300989495493"><ele>299.6666666666667</ele><time>2026-04-03T14:29:51.002Z</time></trkpt><trkpt lat="43.01437023383846" lon="11.741439104189544"><ele>300.0</ele><time>2026-04-03T14:29:52.002Z</time></trkpt><trkpt lat="43.01417665882007" lon="11.741574663222798"><ele>300.0</ele><time>2026-04-03T14:29:53.002Z</time></trkpt><trkpt lat="43.013982507930635" lon="11.741716871461346"><ele>300.0</ele><time>2026-04-03T14:29:54.002Z</time></trkpt><trkpt lat="43.01378498754852" lon="11.741856792523608"><ele>300.0</ele><time>2026-04-03T14:29:55.002Z</time></trkpt><trkpt lat="43.013586284831085" lon="11.741999838286102"><ele>300.0</ele><time>2026-04-03T14:29:56.002Z</time></trkpt><trkpt lat="43.01339036911121" lon="11.742144696043173"><ele>300.0</ele><time>2026-04-03T14:29:57.002Z</time></trkpt><trkpt lat="43.01319133267347" lon="11.742291045554971"><ele>300.0</ele><time>2026-04-03T14:29:58.002Z</time></trkpt><trkpt lat="43.01298841140397" lon="11.742432776023742"><ele>300.5</ele><time>2026-04-03T14:29:59.002Z</time></trkpt><trkpt lat="43.01278852340393" lon="11.742575252390749"><ele>301.0</ele><time>2026-04-03T14:30:00.002Z</time></trkpt><trkpt lat="43.01258709562569" lon="11.742716708917014"><ele>301.0</ele><time>2026-04-03T14:30:01.002Z</time></trkpt><trkpt lat="43.012389804316925" lon="11.742855090516887"><ele>301.0</ele><time>2026-04-03T14:30:02.002Z</time></trkpt><trkpt lat="43.01220175078455" lon="11.742993225106725"><ele>301.0</ele><time>2026-04-03T14:30:03.002Z</time></trkpt><trkpt lat="43.01201361029972" lon="11.743134128201525"><ele>301.0</ele><time>2026-04-03T14:30:04.002Z</time></trkpt><trkpt lat="43.0118317238643" lon="11.743266063958139"><ele>301.0</ele><time>2026-04-03T14:30:05.002Z</time></trkpt><trkpt lat="43.01164791575735" lon="11.743390285132666"><ele>301.0</ele><time>2026-04-03T14:30:06.002Z</time></trkpt><trkpt lat="43.01145792674206" lon="11.743499514549782"><ele>301.3333333333333</ele><time>2026-04-03T14:30:07.002Z</time></trkpt><trkpt lat="43.01126359866522" lon="11.743591516754755"><ele>301.6666666666667</ele><time>2026-04-03T14:30:08.002Z</time></trkpt><trkpt lat="43.01106119887075" lon="11.74365951235309"><ele>302.0</ele><time>2026-04-03T14:30:09.002Z</time></trkpt><trkpt lat="43.01085757355332" lon="11.743709176305504"><ele>303.6666666666667</ele><time>2026-04-03T14:30:10.002Z</time></trkpt><trkpt lat="43.01064779984886" lon="11.743734913288606"><ele>305.3333333333333</ele><time>2026-04-03T14:30:11.002Z</time></trkpt><trkpt lat="43.01043667050178" lon="11.743739103208698"><ele>307.0</ele><time>2026-04-03T14:30:12.002Z</time></trkpt><trkpt lat="43.01022328118375" lon="11.743732165923776"><ele>307.0</ele><time>2026-04-03T14:30:13.003Z</time></trkpt><trkpt lat="43.010007550475315" lon="11.7437238718798"><ele>307.0</ele><time>2026-04-03T14:30:14.003Z</time></trkpt><trkpt lat="43.00979084082029" lon="11.743718899297242"><ele>307.0</ele><time>2026-04-03T14:30:15.003Z</time></trkpt><trkpt lat="43.00957745946754" lon="11.743718436721807"><ele>307.3333333333333</ele><time>2026-04-03T14:30:16.003Z</time></trkpt><trkpt lat="43.00936025675418" lon="11.743717386804247"><ele>307.6666666666667</ele><time>2026-04-03T14:30:17.003Z</time></trkpt><trkpt lat="43.009140243219385" lon="11.74371165855755"><ele>308.0</ele><time>2026-04-03T14:30:18.003Z</time></trkpt><trkpt lat="43.008926636008795" lon="11.743704337903361"><ele>307.33333333333337</ele><time>2026-04-03T14:30:19.003Z</time></trkpt><trkpt lat="43.00871904274474" lon="11.743700063486939"><ele>306.6666666666667</ele><time>2026-04-03T14:30:20.003Z</time></trkpt><trkpt lat="43.00852159355978" lon="11.74369406452282"><ele>306.0</ele><time>2026-04-03T14:30:21.003Z</time></trkpt><trkpt lat="43.00832684277836" lon="11.743691013169126"><ele>306.3333333333333</ele><time>2026-04-03T14:30:22Z</time></trkpt><trkpt lat="43.00813093655478" lon="11.743690434972844"><ele>306.66666666666663</ele><time>2026-04-03T14:30:23Z</time></trkpt><trkpt lat="43.00793928079456" lon="11.743684964394212"><ele>307.0</ele><time>2026-04-03T14:30:24Z</time></trkpt><trkpt lat="43.00774858190639" lon="11.743677903701233"><ele>307.0</ele><time>2026-04-03T14:30:25Z</time></trkpt><trkpt lat="43.007562066073554" lon="11.743676205475357"><ele>307.0</ele><time>2026-04-03T14:30:26Z</time></trkpt><trkpt lat="43.00737651493314" lon="11.743685092656174"><ele>307.0</ele><time>2026-04-03T14:30:27Z</time></trkpt><trkpt lat="43.007190748243005" lon="11.743717256098767"><ele>306.66666666666663</ele><time>2026-04-03T14:30:28Z</time></trkpt><trkpt lat="43.00699492367245" lon="11.743788011828387"><ele>306.3333333333333</ele><time>2026-04-03T14:30:29Z</time></trkpt><trkpt lat="43.00680778705628" lon="11.743879827391607"><ele>306.0</ele><time>2026-04-03T14:30:30Z</time></trkpt><trkpt lat="43.00662625596509" lon="11.744003545119345"><ele>305.6666666666667</ele><time>2026-04-03T14:30:31Z</time></trkpt><trkpt lat="43.00644426492617" lon="11.74413885335997"><ele>305.33333333333337</ele><time>2026-04-03T14:30:32Z</time></trkpt><trkpt lat="43.0062495737819" lon="11.744245196604735"><ele>305.0</ele><time>2026-04-03T14:30:33Z</time></trkpt><trkpt lat="43.00606122887145" lon="11.744386602474757"><ele>305.0</ele><time>2026-04-03T14:30:34Z</time></trkpt><trkpt lat="43.00586595653358" lon="11.744503723629665"><ele>305.0</ele><time>2026-04-03T14:30:35Z</time></trkpt><trkpt lat="43.005670354109824" lon="11.744626909198239"><ele>305.0</ele><time>2026-04-03T14:30:36Z</time></trkpt><trkpt lat="43.00547304569723" lon="11.744753254272482"><ele>304.6666666666667</ele><time>2026-04-03T14:30:37Z</time></trkpt><trkpt lat="43.00527428263347" lon="11.744876570565195"><ele>304.3333333333333</ele><time>2026-04-03T14:30:38Z</time></trkpt><trkpt lat="43.00507518203922" lon="11.745000711635116"><ele>304.0</ele><time>2026-04-03T14:30:39Z</time></trkpt><trkpt lat="43.004876749540365" lon="11.745125227018661"><ele>305.3333333333333</ele><time>2026-04-03T14:30:40Z</time></trkpt><trkpt lat="43.00468011555335" lon="11.745250243936024"><ele>306.6666666666667</ele><time>2026-04-03T14:30:41Z</time></trkpt><trkpt lat="43.00447960325354" lon="11.745374762113146"><ele>308.0</ele><time>2026-04-03T14:30:42.001Z</time></trkpt><trkpt lat="43.004283358967655" lon="11.745498703902078"><ele>308.6666666666667</ele><time>2026-04-03T14:30:43.001Z</time></trkpt><trkpt lat="43.00408866651792" lon="11.745623172553827"><ele>309.3333333333333</ele><time>2026-04-03T14:30:44.001Z</time></trkpt><trkpt lat="43.003895863522466" lon="11.745746704007345"><ele>310.0</ele><time>2026-04-03T14:30:45.001Z</time></trkpt><trkpt lat="43.00369870751921" lon="11.745875260339252"><ele>310.0</ele><time>2026-04-03T14:30:46.001Z</time></trkpt><trkpt lat="43.00350538138196" lon="11.74600071716195"><ele>310.0</ele><time>2026-04-03T14:30:47.001Z</time></trkpt><trkpt lat="43.00331681908074" lon="11.746121349126515"><ele>310.0</ele><time>2026-04-03T14:30:48.001Z</time></trkpt><trkpt lat="43.003120575058894" lon="11.746243705408126"><ele>309.66666666666663</ele><time>2026-04-03T14:30:49.001Z</time></trkpt><trkpt lat="43.0029250732449" lon="11.746363969414459"><ele>309.3333333333333</ele><time>2026-04-03T14:30:50.001Z</time></trkpt><trkpt lat="43.00273044695289" lon="11.746487778684878"><ele>309.0</ele><time>2026-04-03T14:30:51.001Z</time></trkpt><trkpt lat="43.00253671104241" lon="11.746610560840494"><ele>308.6666666666667</ele><time>2026-04-03T14:30:52.001Z</time></trkpt><trkpt lat="43.002345358697916" lon="11.74673297991972"><ele>308.33333333333337</ele><time>2026-04-03T14:30:53.001Z</time></trkpt><trkpt lat="43.00215047610974" lon="11.746857217636812"><ele>308.0</ele><time>2026-04-03T14:30:54.001Z</time></trkpt><trkpt lat="43.00195761960036" lon="11.746984745225276"><ele>309.6666666666667</ele><time>2026-04-03T14:30:55.001Z</time></trkpt><trkpt lat="43.00176525956873" lon="11.747105267506738"><ele>311.3333333333333</ele><time>2026-04-03T14:30:56.001Z</time></trkpt><trkpt lat="43.00157197555087" lon="11.747226152914116"><ele>313.0</ele><time>2026-04-03T14:30:57.001Z</time></trkpt><trkpt lat="43.00138096032911" lon="11.747347103198152"><ele>313.0</ele><time>2026-04-03T14:30:58.001Z</time></trkpt><trkpt lat="43.00119230631215" lon="11.747471507391259"><ele>313.0</ele><time>2026-04-03T14:30:59.001Z</time></trkpt><trkpt lat="43.001007878853756" lon="11.747596645675621"><ele>313.0</ele><time>2026-04-03T14:31:00.001Z</time></trkpt><trkpt lat="43.000823074117484" lon="11.747731115627506"><ele>313.66666666666663</ele><time>2026-04-03T14:31:01.001Z</time></trkpt><trkpt lat="43.00064241493079" lon="11.74786969909924"><ele>314.3333333333333</ele><time>2026-04-03T14:31:02.001Z</time></trkpt><trkpt lat="43.000465056889084" lon="11.748010520137434"><ele>315.0</ele><time>2026-04-03T14:31:03.001Z</time></trkpt><trkpt lat="43.00028353273417" lon="11.74814885145931"><ele>315.0</ele><time>2026-04-03T14:31:04.001Z</time></trkpt><trkpt lat="43.000101734628856" lon="11.748287689280874"><ele>315.0</ele><time>2026-04-03T14:31:05.001Z</time></trkpt><trkpt lat="42.999918292036455" lon="11.74842901927324"><ele>315.0</ele><time>2026-04-03T14:31:06.001Z</time></trkpt><trkpt lat="42.999738322177556" lon="11.748568238258951"><ele>315.0</ele><time>2026-04-03T14:31:07.001Z</time></trkpt><trkpt lat="42.99955556861962" lon="11.748708794094975"><ele>315.0</ele><time>2026-04-03T14:31:08.001Z</time></trkpt><trkpt lat="42.9993741492922" lon="11.748853541293116"><ele>315.0</ele><time>2026-04-03T14:31:09.001Z</time></trkpt><trkpt lat="42.99919726923186" lon="11.74899098042616"><ele>315.0</ele><time>2026-04-03T14:31:10.001Z</time></trkpt><trkpt lat="42.999014283566524" lon="11.749134615422808"><ele>315.0</ele><time>2026-04-03T14:31:11.001Z</time></trkpt><trkpt lat="42.9988328503111" lon="11.749273704617009"><ele>315.0</ele><time>2026-04-03T14:31:12.001Z</time></trkpt><trkpt lat="42.99864883694254" lon="11.74941587937052"><ele>315.0</ele><time>2026-04-03T14:31:13.001Z</time></trkpt><trkpt lat="42.99846949321962" lon="11.749552968071493"><ele>315.0</ele><time>2026-04-03T14:31:14.001Z</time></trkpt><trkpt lat="42.998291794571614" lon="11.74970217987318"><ele>315.0</ele><time>2026-04-03T14:31:15.001Z</time></trkpt><trkpt lat="42.99812448256174" lon="11.7498452475792"><ele>315.3333333333333</ele><time>2026-04-03T14:31:16.001Z</time></trkpt><trkpt lat="42.99795456084624" lon="11.750002221457583"><ele>315.66666666666663</ele><time>2026-04-03T14:31:17.001Z</time></trkpt><trkpt lat="42.99778307587144" lon="11.7501616748306"><ele>316.0</ele><time>2026-04-03T14:31:18.001Z</time></trkpt><trkpt lat="42.99761963834497" lon="11.75032194045002"><ele>317.0</ele><time>2026-04-03T14:31:19.001Z</time></trkpt><trkpt lat="42.99745233347003" lon="11.750488288061984"><ele>318.0</ele><time>2026-04-03T14:31:20.001Z</time></trkpt><trkpt lat="42.99728355470837" lon="11.750646008242233"><ele>319.0</ele><time>2026-04-03T14:31:21.001Z</time></trkpt><trkpt lat="42.99711141029423" lon="11.750797395271297"><ele>319.0</ele><time>2026-04-03T14:31:22.001Z</time></trkpt><trkpt lat="42.996932908289516" lon="11.75095836167648"><ele>319.0</ele><time>2026-04-03T14:31:23.001Z</time></trkpt><trkpt lat="42.996758357440434" lon="11.751118040981652"><ele>319.0</ele><time>2026-04-03T14:31:24.001Z</time></trkpt><trkpt lat="42.99658393862608" lon="11.75128093619276"><ele>319.66666666666663</ele><time>2026-04-03T14:31:25.001Z</time></trkpt><trkpt lat="42.996406952664536" lon="11.751442520870516"><ele>320.3333333333333</ele><time>2026-04-03T14:31:26.001Z</time></trkpt><trkpt lat="42.99623408929301" lon="11.751602512925682"><ele>321.0</ele><time>2026-04-03T14:31:27.001Z</time></trkpt><trkpt lat="42.99606226271803" lon="11.751763407357496"><ele>321.0</ele><time>2026-04-03T14:31:28.002Z</time></trkpt><trkpt lat="42.99589591295696" lon="11.751923171694445"><ele>321.0</ele><time>2026-04-03T14:31:29.002Z</time></trkpt><trkpt lat="42.995730746097415" lon="11.752078673011352"><ele>321.0</ele><time>2026-04-03T14:31:30.002Z</time></trkpt><trkpt lat="42.99556916737588" lon="11.752228421391798"><ele>321.0</ele><time>2026-04-03T14:31:31.002Z</time></trkpt><trkpt lat="42.99540996920978" lon="11.752372292083319"><ele>321.0</ele><time>2026-04-03T14:31:32.002Z</time></trkpt><trkpt lat="42.9952595775542" lon="11.752499892193205"><ele>321.0</ele><time>2026-04-03T14:31:33.002Z</time></trkpt><trkpt lat="42.99511414567408" lon="11.752619163256574"><ele>319.6666666666667</ele><time>2026-04-03T14:31:34.002Z</time></trkpt><trkpt lat="42.994973436047374" lon="11.75272600698912"><ele>318.33333333333337</ele><time>2026-04-03T14:31:35.002Z</time></trkpt><trkpt lat="42.99484128329557" lon="11.752816928986263"><ele>317.0</ele><time>2026-04-03T14:31:36.002Z</time></trkpt><trkpt lat="42.99471192145371" lon="11.752904737095143"><ele>317.0</ele><time>2026-04-03T14:31:37.002Z</time></trkpt><trkpt lat="42.994584299441975" lon="11.752992094205153"><ele>317.0</ele><time>2026-04-03T14:31:38.002Z</time></trkpt><trkpt lat="42.99446049390655" lon="11.753076999141017"><ele>317.0</ele><time>2026-04-03T14:31:39.002Z</time></trkpt><trkpt lat="42.994341275050154" lon="11.753158919727696"><ele>317.0</ele><time>2026-04-03T14:31:40.002Z</time></trkpt><trkpt lat="42.9942270772508" lon="11.753241747355851"><ele>317.25</ele><time>2026-04-03T14:31:41.002Z</time></trkpt><trkpt lat="42.99410437239773" lon="11.753328041771042"><ele>317.5</ele><time>2026-04-03T14:31:42.002Z</time></trkpt><trkpt lat="42.993976384518305" lon="11.753416118306935"><ele>317.75</ele><time>2026-04-03T14:31:43.002Z</time></trkpt><trkpt lat="42.993845016717366" lon="11.753511863411743"><ele>318.0</ele><time>2026-04-03T14:31:44.002Z</time></trkpt><trkpt lat="42.993718344011675" lon="11.753621934911214"><ele>319.0</ele><time>2026-04-03T14:31:45.002Z</time></trkpt><trkpt lat="42.99359413933792" lon="11.753745651955219"><ele>320.0</ele><time>2026-04-03T14:31:46.002Z</time></trkpt><trkpt lat="42.99347260565468" lon="11.753891172039875"><ele>321.0</ele><time>2026-04-03T14:31:47.002Z</time></trkpt><trkpt lat="42.99334962392192" lon="11.754047522128165"><ele>321.0</ele><time>2026-04-03T14:31:48.002Z</time></trkpt><trkpt lat="42.99322989197888" lon="11.754213119642575"><ele>321.0</ele><time>2026-04-03T14:31:49.002Z</time></trkpt><trkpt lat="42.99310637983102" lon="11.754392371930276"><ele>321.0</ele><time>2026-04-03T14:31:50.002Z</time></trkpt><trkpt lat="42.99298283839008" lon="11.75456616914405"><ele>323.0</ele><time>2026-04-03T14:31:51.002Z</time></trkpt><trkpt lat="42.9928581442898" lon="11.754747479191956"><ele>325.0</ele><time>2026-04-03T14:31:52.002Z</time></trkpt><trkpt lat="42.99273050993669" lon="11.754929130077736"><ele>327.0</ele><time>2026-04-03T14:31:53.002Z</time></trkpt><trkpt lat="42.99261405198967" lon="11.755124660549209"><ele>325.6666666666667</ele><time>2026-04-03T14:31:54.002Z</time></trkpt><trkpt lat="42.99252210867522" lon="11.755338985451873"><ele>324.33333333333337</ele><time>2026-04-03T14:31:55.002Z</time></trkpt><trkpt lat="42.99244518754759" lon="11.755563846528062"><ele>323.0</ele><time>2026-04-03T14:31:56.002Z</time></trkpt><trkpt lat="42.99240226206276" lon="11.755795649089245"><ele>323.0</ele><time>2026-04-03T14:31:57.002Z</time></trkpt><trkpt lat="42.99237745208037" lon="11.756024181392236"><ele>323.0</ele><time>2026-04-03T14:31:58.002Z</time></trkpt><trkpt lat="42.992380007688055" lon="11.756259730451937"><ele>323.0</ele><time>2026-04-03T14:31:59.002Z</time></trkpt><trkpt lat="42.99240215365204" lon="11.756507095510917"><ele>324.33333333333337</ele><time>2026-04-03T14:32:00.002Z</time></trkpt><trkpt lat="42.99243120790745" lon="11.75675463968112"><ele>325.6666666666667</ele><time>2026-04-03T14:32:01.002Z</time></trkpt><trkpt lat="42.99246145078233" lon="11.757006831799947"><ele>327.0</ele><time>2026-04-03T14:32:02.002Z</time></trkpt><trkpt lat="42.99249890865776" lon="11.75725174943145"><ele>329.3333333333333</ele><time>2026-04-03T14:32:03.002Z</time></trkpt><trkpt lat="42.99254909207862" lon="11.757475554987355"><ele>331.66666666666663</ele><time>2026-04-03T14:32:04.002Z</time></trkpt><trkpt lat="42.99262988202078" lon="11.757677083637216"><ele>334.0</ele><time>2026-04-03T14:32:05.002Z</time></trkpt><trkpt lat="42.992730444821866" lon="11.757854027956116"><ele>334.0</ele><time>2026-04-03T14:32:06.002Z</time></trkpt><trkpt lat="42.992817985911174" lon="11.758036402942443"><ele>334.0</ele><time>2026-04-03T14:32:07.002Z</time></trkpt><trkpt lat="42.992879705885116" lon="11.758240095481758"><ele>334.0</ele><time>2026-04-03T14:32:08.002Z</time></trkpt><trkpt lat="42.99291443439656" lon="11.758463978785525"><ele>334.66666666666663</ele><time>2026-04-03T14:32:09.002Z</time></trkpt><trkpt lat="42.99290673667655" lon="11.758694041826752"><ele>335.3333333333333</ele><time>2026-04-03T14:32:10.003Z</time></trkpt><trkpt lat="42.992913296878235" lon="11.758934521334396"><ele>336.0</ele><time>2026-04-03T14:32:11.003Z</time></trkpt><trkpt lat="42.99289778788" lon="11.759172192908643"><ele>338.0</ele><time>2026-04-03T14:32:12.003Z</time></trkpt><trkpt lat="42.992869137368295" lon="11.759409491754973"><ele>340.0</ele><time>2026-04-03T14:32:13.003Z</time></trkpt><trkpt lat="42.99283132418238" lon="11.759651875521989"><ele>342.0</ele><time>2026-04-03T14:32:14.003Z</time></trkpt><trkpt lat="42.992791600071044" lon="11.759893178058693"><ele>342.0</ele><time>2026-04-03T14:32:15.003Z</time></trkpt><trkpt lat="42.99274669117919" lon="11.760133392204564"><ele>342.0</ele><time>2026-04-03T14:32:16.003Z</time></trkpt><trkpt lat="42.992700055901565" lon="11.7603713018234"><ele>342.0</ele><time>2026-04-03T14:32:17.003Z</time></trkpt><trkpt lat="42.992645665023254" lon="11.760607009786062"><ele>344.3333333333333</ele><time>2026-04-03T14:32:18.003Z</time></trkpt><trkpt lat="42.99258519330322" lon="11.760837599071987"><ele>346.66666666666663</ele><time>2026-04-03T14:32:19.003Z</time></trkpt><trkpt lat="42.99251804279641" lon="11.761066898611329"><ele>349.0</ele><time>2026-04-03T14:32:20.003Z</time></trkpt><trkpt lat="42.99244097964948" lon="11.761294258502316"><ele>349.0</ele><time>2026-04-03T14:32:21.003Z</time></trkpt><trkpt lat="42.9923602553087" lon="11.761516440963968"><ele>349.0</ele><time>2026-04-03T14:32:22.003Z</time></trkpt><trkpt lat="42.99227802542744" lon="11.761726368766999"><ele>349.0</ele><time>2026-04-03T14:32:23.003Z</time></trkpt><trkpt lat="42.99218919802748" lon="11.76191609201403"><ele>349.0</ele><time>2026-04-03T14:32:24.003Z</time></trkpt><trkpt lat="42.99209251965188" lon="11.762084142319667"><ele>349.0</ele><time>2026-04-03T14:32:25.003Z</time></trkpt><trkpt lat="42.991970175085534" lon="11.762223215488337"><ele>349.0</ele><time>2026-04-03T14:32:26.003Z</time></trkpt><trkpt lat="42.991811599643455" lon="11.762334415912349"><ele>347.66666666666663</ele><time>2026-04-03T14:32:27.003Z</time></trkpt><trkpt lat="42.991639477292374" lon="11.762412062550597"><ele>346.3333333333333</ele><time>2026-04-03T14:32:28Z</time></trkpt><trkpt lat="42.99144959447313" lon="11.762443724865566"><ele>345.0</ele><time>2026-04-03T14:32:29Z</time></trkpt><trkpt lat="42.9912593763448" lon="11.76244678734753"><ele>345.0</ele><time>2026-04-03T14:32:30Z</time></trkpt><trkpt lat="42.991060366810146" lon="11.762437618189162"><ele>345.0</ele><time>2026-04-03T14:32:31Z</time></trkpt><trkpt lat="42.99085548750842" lon="11.762431752595779"><ele>345.0</ele><time>2026-04-03T14:32:32Z</time></trkpt><trkpt lat="42.99064511191053" lon="11.762427944852888"><ele>344.3333333333333</ele><time>2026-04-03T14:32:33Z</time></trkpt><trkpt lat="42.990430127570406" lon="11.762433742465717"><ele>343.66666666666663</ele><time>2026-04-03T14:32:34Z</time></trkpt><trkpt lat="42.99020648278273" lon="11.762432419821511"><ele>343.0</ele><time>2026-04-03T14:32:35Z</time></trkpt><trkpt lat="42.98997828586977" lon="11.762432801800419"><ele>342.5</ele><time>2026-04-03T14:32:36Z</time></trkpt><trkpt lat="42.98974787608288" lon="11.762434084717468"><ele>342.0</ele><time>2026-04-03T14:32:37Z</time></trkpt><trkpt lat="42.989516742023476" lon="11.762435141100374"><ele>342.0</ele><time>2026-04-03T14:32:38Z</time></trkpt><trkpt lat="42.98928892464704" lon="11.762438689600105"><ele>342.0</ele><time>2026-04-03T14:32:39Z</time></trkpt><trkpt lat="42.98906827994146" lon="11.762444892467062"><ele>342.0</ele><time>2026-04-03T14:32:40Z</time></trkpt><trkpt lat="42.98885652261561" lon="11.76245000990053"><ele>341.0</ele><time>2026-04-03T14:32:41Z</time></trkpt><trkpt lat="42.98865688956851" lon="11.762449930072266"><ele>340.0</ele><time>2026-04-03T14:32:42Z</time></trkpt><trkpt lat="42.98846717531474" lon="11.76243534686962"><ele>339.0</ele><time>2026-04-03T14:32:43Z</time></trkpt><trkpt lat="42.98828659426866" lon="11.762390542287461"><ele>338.0</ele><time>2026-04-03T14:32:44Z</time></trkpt><trkpt lat="42.98810225201544" lon="11.76228909257997"><ele>337.0</ele><time>2026-04-03T14:32:45Z</time></trkpt><trkpt lat="42.98791830189277" lon="11.76214843036867"><ele>336.0</ele><time>2026-04-03T14:32:46Z</time></trkpt><trkpt lat="42.9877228038912" lon="11.762033555435274"><ele>336.0</ele><time>2026-04-03T14:32:47Z</time></trkpt><trkpt lat="42.98753348272846" lon="11.761913513641709"><ele>336.0</ele><time>2026-04-03T14:32:48Z</time></trkpt><trkpt lat="42.98735027487761" lon="11.761829445356199"><ele>336.0</ele><time>2026-04-03T14:32:49Z</time></trkpt><trkpt lat="42.987167460260956" lon="11.76178339944187"><ele>336.3333333333333</ele><time>2026-04-03T14:32:50Z</time></trkpt><trkpt lat="42.98694870864685" lon="11.76179485775616"><ele>336.66666666666663</ele><time>2026-04-03T14:32:51Z</time></trkpt><trkpt lat="42.98674410701819" lon="11.76182343229414"><ele>337.0</ele><time>2026-04-03T14:32:52Z</time></trkpt><trkpt lat="42.9865369479992" lon="11.761894522414844"><ele>335.0</ele><time>2026-04-03T14:32:53Z</time></trkpt><trkpt lat="42.98633519924212" lon="11.761992338408136"><ele>333.0</ele><time>2026-04-03T14:32:54Z</time></trkpt><trkpt lat="42.986141304570324" lon="11.762097614679577"><ele>331.0</ele><time>2026-04-03T14:32:55Z</time></trkpt><trkpt lat="42.98596040356928" lon="11.762196128953518"><ele>331.66666666666663</ele><time>2026-04-03T14:32:56Z</time></trkpt><trkpt lat="42.98579100010059" lon="11.762286553026946"><ele>332.3333333333333</ele><time>2026-04-03T14:32:57Z</time></trkpt><trkpt lat="42.98562620910323" lon="11.762347890778962"><ele>333.0</ele><time>2026-04-03T14:32:58Z</time></trkpt><trkpt lat="42.98546817239226" lon="11.762312057113839"><ele>333.0</ele><time>2026-04-03T14:32:59Z</time></trkpt><trkpt lat="42.98532072837404" lon="11.76223837089563"><ele>333.0</ele><time>2026-04-03T14:33:00Z</time></trkpt><trkpt lat="42.985168000904395" lon="11.76212299301999"><ele>333.0</ele><time>2026-04-03T14:33:01Z</time></trkpt><trkpt lat="42.98500189858559" lon="11.761990101960073"><ele>332.3333333333333</ele><time>2026-04-03T14:33:02Z</time></trkpt><trkpt lat="42.984827522365904" lon="11.761850868559462"><ele>331.66666666666663</ele><time>2026-04-03T14:33:03Z</time></trkpt><trkpt lat="42.98465118794356" lon="11.761711085427551"><ele>331.0</ele><time>2026-04-03T14:33:04Z</time></trkpt><trkpt lat="42.98447351947382" lon="11.761570244700794"><ele>331.0</ele><time>2026-04-03T14:33:05Z</time></trkpt><trkpt lat="42.98431216855893" lon="11.761435796627229"><ele>331.0</ele><time>2026-04-03T14:33:06Z</time></trkpt><trkpt lat="42.98416305131853" lon="11.761315497305633"><ele>331.0</ele><time>2026-04-03T14:33:07.001Z</time></trkpt><trkpt lat="42.98400177209596" lon="11.761229054328496"><ele>331.66666666666663</ele><time>2026-04-03T14:33:08.001Z</time></trkpt><trkpt lat="42.98383483174478" lon="11.761147274997926"><ele>332.3333333333333</ele><time>2026-04-03T14:33:09.001Z</time></trkpt><trkpt lat="42.983647904022675" lon="11.761114500795822"><ele>333.0</ele><time>2026-04-03T14:33:10.001Z</time></trkpt><trkpt lat="42.98345562707095" lon="11.761133901165119"><ele>332.0</ele><time>2026-04-03T14:33:11.001Z</time></trkpt><trkpt lat="42.98326895023962" lon="11.761218388096712"><ele>331.0</ele><time>2026-04-03T14:33:12.001Z</time></trkpt><trkpt lat="42.983081148674096" lon="11.761387067037369"><ele>330.0</ele><time>2026-04-03T14:33:13.001Z</time></trkpt><trkpt lat="42.98290636507424" lon="11.761525826276866"><ele>330.0</ele><time>2026-04-03T14:33:14.001Z</time></trkpt><trkpt lat="42.98272602935786" lon="11.761666496653262"><ele>330.0</ele><time>2026-04-03T14:33:15.001Z</time></trkpt><trkpt lat="42.98253624844491" lon="11.7618026951287"><ele>330.0</ele><time>2026-04-03T14:33:16.001Z</time></trkpt><trkpt lat="42.98234346740165" lon="11.761939774633381"><ele>329.3333333333333</ele><time>2026-04-03T14:33:17.001Z</time></trkpt><trkpt lat="42.98214859162863" lon="11.762082167296201"><ele>328.66666666666663</ele><time>2026-04-03T14:33:18.001Z</time></trkpt><trkpt lat="42.981953609881664" lon="11.76221959857266"><ele>328.0</ele><time>2026-04-03T14:33:19.001Z</time></trkpt><trkpt lat="42.981758699070205" lon="11.762364873366352"><ele>327.3333333333333</ele><time>2026-04-03T14:33:20.001Z</time></trkpt><trkpt lat="42.98155550592207" lon="11.76248536931722"><ele>326.6666666666667</ele><time>2026-04-03T14:33:21.001Z</time></trkpt><trkpt lat="42.98136268152676" lon="11.762641023591126"><ele>326.0</ele><time>2026-04-03T14:33:22.001Z</time></trkpt><trkpt lat="42.98116739519051" lon="11.762778130622555"><ele>326.33333333333337</ele><time>2026-04-03T14:33:23.001Z</time></trkpt><trkpt lat="42.980972297365376" lon="11.762922375808353"><ele>326.6666666666667</ele><time>2026-04-03T14:33:24.001Z</time></trkpt><trkpt lat="42.98077982336388" lon="11.763064882863398"><ele>327.0</ele><time>2026-04-03T14:33:25.001Z</time></trkpt><trkpt lat="42.98058580940063" lon="11.76319946486901"><ele>327.0</ele><time>2026-04-03T14:33:26.001Z</time></trkpt><trkpt lat="42.980395187873825" lon="11.763333782433888"><ele>327.0</ele><time>2026-04-03T14:33:27.001Z</time></trkpt><trkpt lat="42.980208435387404" lon="11.763470232624831"><ele>327.0</ele><time>2026-04-03T14:33:28.001Z</time></trkpt><trkpt lat="42.98002085647157" lon="11.763604842831857"><ele>329.0</ele><time>2026-04-03T14:33:29.001Z</time></trkpt><trkpt lat="42.979835115200686" lon="11.763734890914405"><ele>331.0</ele><time>2026-04-03T14:33:30.001Z</time></trkpt><trkpt lat="42.979650721080944" lon="11.763866833822275"><ele>333.0</ele><time>2026-04-03T14:33:31.001Z</time></trkpt><trkpt lat="42.97946645697363" lon="11.763992437527476"><ele>333.0</ele><time>2026-04-03T14:33:32.001Z</time></trkpt><trkpt lat="42.97928140516421" lon="11.764115673894315"><ele>333.0</ele><time>2026-04-03T14:33:33.001Z</time></trkpt><trkpt lat="42.979097399756924" lon="11.764241930698823"><ele>333.0</ele><time>2026-04-03T14:33:34.001Z</time></trkpt><trkpt lat="42.97892387024287" lon="11.764370163092764"><ele>333.6666666666667</ele><time>2026-04-03T14:33:35.001Z</time></trkpt><trkpt lat="42.97876615782976" lon="11.764508234341601"><ele>334.33333333333337</ele><time>2026-04-03T14:33:36.001Z</time></trkpt><trkpt lat="42.97864407965386" lon="11.76468848293309"><ele>335.0</ele><time>2026-04-03T14:33:37.001Z</time></trkpt><trkpt lat="42.978549006737886" lon="11.764923726143792"><ele>335.0</ele><time>2026-04-03T14:33:38.001Z</time></trkpt><trkpt lat="42.97851225581252" lon="11.765190553507432"><ele>335.0</ele><time>2026-04-03T14:33:39.001Z</time></trkpt><trkpt lat="42.97851838982183" lon="11.7654625447717"><ele>335.0</ele><time>2026-04-03T14:33:40.001Z</time></trkpt><trkpt lat="42.97852439247603" lon="11.765738427485774"><ele>335.0</ele><time>2026-04-03T14:33:41.001Z</time></trkpt><trkpt lat="42.97851252136174" lon="11.766016453176555"><ele>335.0</ele><time>2026-04-03T14:33:42.001Z</time></trkpt><trkpt lat="42.97852178890511" lon="11.76629912480148"><ele>335.0</ele><time>2026-04-03T14:33:43.001Z</time></trkpt><trkpt lat="42.97851002060846" lon="11.76658436805397"><ele>334.6666666666667</ele><time>2026-04-03T14:33:44.001Z</time></trkpt><trkpt lat="42.978507636008274" lon="11.766868357840023"><ele>334.3333333333333</ele><time>2026-04-03T14:33:45.002Z</time></trkpt><trkpt lat="42.97850419233584" lon="11.767156648876417"><ele>334.0</ele><time>2026-04-03T14:33:46.002Z</time></trkpt><trkpt lat="42.97848148140448" lon="11.767445347140205"><ele>334.66666666666663</ele><time>2026-04-03T14:33:47.002Z</time></trkpt><trkpt lat="42.97847525273778" lon="11.767736355003912"><ele>335.3333333333333</ele><time>2026-04-03T14:33:48.002Z</time></trkpt><trkpt lat="42.978484613453126" lon="11.768026770957695"><ele>336.0</ele><time>2026-04-03T14:33:49.002Z</time></trkpt><trkpt lat="42.97847691968206" lon="11.768320619972796"><ele>335.6666666666667</ele><time>2026-04-03T14:33:50.002Z</time></trkpt><trkpt lat="42.978470117285354" lon="11.768614066787224"><ele>335.33333333333337</ele><time>2026-04-03T14:33:51.002Z</time></trkpt><trkpt lat="42.9784639411439" lon="11.768908793714257"><ele>335.0</ele><time>2026-04-03T14:33:52.002Z</time></trkpt><trkpt lat="42.978433950864435" lon="11.769192758139472"><ele>335.0</ele><time>2026-04-03T14:33:53.002Z</time></trkpt><trkpt lat="42.978406235380035" lon="11.769453386041192"><ele>335.0</ele><time>2026-04-03T14:33:54.002Z</time></trkpt><trkpt lat="42.978368851431085" lon="11.76971354459605"><ele>335.0</ele><time>2026-04-03T14:33:55.002Z</time></trkpt><trkpt lat="42.97829106747667" lon="11.76996948585239"><ele>335.6666666666667</ele><time>2026-04-03T14:33:56.002Z</time></trkpt><trkpt lat="42.97818824566898" lon="11.770214448957576"><ele>336.3333333333333</ele><time>2026-04-03T14:33:57.002Z</time></trkpt><trkpt lat="42.97806387780816" lon="11.770445393212645"><ele>337.0</ele><time>2026-04-03T14:33:58.002Z</time></trkpt><trkpt lat="42.97791022208764" lon="11.770635986123295"><ele>337.0</ele><time>2026-04-03T14:33:59.002Z</time></trkpt><trkpt lat="42.977751400854714" lon="11.77082319761328"><ele>337.0</ele><time>2026-04-03T14:34:00.002Z</time></trkpt><trkpt lat="42.97758484322853" lon="11.771003406507003"><ele>337.0</ele><time>2026-04-03T14:34:01.002Z</time></trkpt><trkpt lat="42.977422716664385" lon="11.77119529079187"><ele>337.66666666666663</ele><time>2026-04-03T14:34:02.002Z</time></trkpt><trkpt lat="42.97724789186478" lon="11.77137538132354"><ele>338.3333333333333</ele><time>2026-04-03T14:34:03.002Z</time></trkpt><trkpt lat="42.97707514166507" lon="11.771557993363329"><ele>339.0</ele><time>2026-04-03T14:34:04.002Z</time></trkpt><trkpt lat="42.9769038315114" lon="11.771742354920802"><ele>340.6666666666667</ele><time>2026-04-03T14:34:05.002Z</time></trkpt><trkpt lat="42.97673125268021" lon="11.771926960959675"><ele>342.33333333333337</ele><time>2026-04-03T14:34:06.002Z</time></trkpt><trkpt lat="42.97656186201719" lon="11.772109257398673"><ele>344.0</ele><time>2026-04-03T14:34:07.002Z</time></trkpt><trkpt lat="42.97638930229238" lon="11.772287240963744"><ele>344.6666666666667</ele><time>2026-04-03T14:34:08.002Z</time></trkpt><trkpt lat="42.97621745395447" lon="11.772464861030231"><ele>345.3333333333333</ele><time>2026-04-03T14:34:09.002Z</time></trkpt><trkpt lat="42.97604805148819" lon="11.772645452075803"><ele>346.0</ele><time>2026-04-03T14:34:10.002Z</time></trkpt><trkpt lat="42.97588238910791" lon="11.772825632062347"><ele>348.0</ele><time>2026-04-03T14:34:11.002Z</time></trkpt><trkpt lat="42.975717951390045" lon="11.773002401181957"><ele>350.0</ele><time>2026-04-03T14:34:12.002Z</time></trkpt><trkpt lat="42.97555779440263" lon="11.773178228306309"><ele>352.0</ele><time>2026-04-03T14:34:13.002Z</time></trkpt><trkpt lat="42.97539808616247" lon="11.773352029874156"><ele>353.3333333333333</ele><time>2026-04-03T14:34:14.002Z</time></trkpt><trkpt lat="42.97524291946299" lon="11.77352629375941"><ele>354.6666666666667</ele><time>2026-04-03T14:34:15.002Z</time></trkpt><trkpt lat="42.975095097423164" lon="11.773708765970616"><ele>356.0</ele><time>2026-04-03T14:34:16.002Z</time></trkpt><trkpt lat="42.97495290488041" lon="11.773897358284827"><ele>356.0</ele><time>2026-04-03T14:34:17.002Z</time></trkpt><trkpt lat="42.97480908620329" lon="11.774093202358186"><ele>356.0</ele><time>2026-04-03T14:34:18.002Z</time></trkpt><trkpt lat="42.97466205375731" lon="11.774284391773193"><ele>356.0</ele><time>2026-04-03T14:34:19.002Z</time></trkpt><trkpt lat="42.9745195781824" lon="11.774478882648886"><ele>356.33333333333337</ele><time>2026-04-03T14:34:20.002Z</time></trkpt><trkpt lat="42.97437568542589" lon="11.77467098948599"><ele>356.6666666666667</ele><time>2026-04-03T14:34:21.002Z</time></trkpt><trkpt lat="42.9742348666246" lon="11.774867637822862"><ele>357.0</ele><time>2026-04-03T14:34:22.002Z</time></trkpt><trkpt lat="42.97409274043927" lon="11.775067291819255"><ele>357.6666666666667</ele><time>2026-04-03T14:34:23.002Z</time></trkpt><trkpt lat="42.97394814822023" lon="11.7752614735385"><ele>358.33333333333337</ele><time>2026-04-03T14:34:24.002Z</time></trkpt><trkpt lat="42.97380158621003" lon="11.775452663252157"><ele>359.0</ele><time>2026-04-03T14:34:25.003Z</time></trkpt><trkpt lat="42.97365870342359" lon="11.775645807831536"><ele>359.0</ele><time>2026-04-03T14:34:26.003Z</time></trkpt><trkpt lat="42.97351809122502" lon="11.77584014384313"><ele>359.0</ele><time>2026-04-03T14:34:27.003Z</time></trkpt><trkpt lat="42.97337319867797" lon="11.77603244023702"><ele>359.0</ele><time>2026-04-03T14:34:28.003Z</time></trkpt><trkpt lat="42.97322729019988" lon="11.77622310587082"><ele>359.6666666666667</ele><time>2026-04-03T14:34:29.003Z</time></trkpt><trkpt lat="42.9730853767674" lon="11.776420533200934"><ele>360.3333333333333</ele><time>2026-04-03T14:34:30.003Z</time></trkpt><trkpt lat="42.97295088570011" lon="11.77662707527717"><ele>361.0</ele><time>2026-04-03T14:34:31.003Z</time></trkpt><trkpt lat="42.972823464068675" lon="11.776849033681586"><ele>362.0</ele><time>2026-04-03T14:34:32.003Z</time></trkpt><trkpt lat="42.97270210268858" lon="11.777068587783724"><ele>363.0</ele><time>2026-04-03T14:34:33.003Z</time></trkpt><trkpt lat="42.97258601228408" lon="11.77729830151672"><ele>364.0</ele><time>2026-04-03T14:34:34Z</time></trkpt><trkpt lat="42.972469950262806" lon="11.777532647552837"><ele>362.66666666666663</ele><time>2026-04-03T14:34:35Z</time></trkpt><trkpt lat="42.97236734290008" lon="11.77778639791685"><ele>361.3333333333333</ele><time>2026-04-03T14:34:36Z</time></trkpt><trkpt lat="42.97226305765831" lon="11.778038056292315"><ele>360.0</ele><time>2026-04-03T14:34:37Z</time></trkpt><trkpt lat="42.972153274794735" lon="11.778288697728735"><ele>359.3333333333333</ele><time>2026-04-03T14:34:38Z</time></trkpt><trkpt lat="42.97204146957811" lon="11.778532721784673"><ele>358.66666666666663</ele><time>2026-04-03T14:34:39Z</time></trkpt><trkpt lat="42.97193186849551" lon="11.778779033043039"><ele>358.0</ele><time>2026-04-03T14:34:40Z</time></trkpt><trkpt lat="42.971822217473786" lon="11.779022603972853"><ele>358.0</ele><time>2026-04-03T14:34:41Z</time></trkpt><trkpt lat="42.97171831291037" lon="11.779269612715659"><ele>358.0</ele><time>2026-04-03T14:34:42Z</time></trkpt><trkpt lat="42.971611984979766" lon="11.779510746294902"><ele>358.0</ele><time>2026-04-03T14:34:43Z</time></trkpt><trkpt lat="42.97150411375315" lon="11.779749793220958"><ele>357.66666666666663</ele><time>2026-04-03T14:34:44Z</time></trkpt><trkpt lat="42.97138972597364" lon="11.779983802125566"><ele>357.3333333333333</ele><time>2026-04-03T14:34:45Z</time></trkpt><trkpt lat="42.97125989982039" lon="11.780196406022803"><ele>357.0</ele><time>2026-04-03T14:34:46Z</time></trkpt><trkpt lat="42.97111434948908" lon="11.780388059470235"><ele>357.0</ele><time>2026-04-03T14:34:47Z</time></trkpt><trkpt lat="42.97095614198183" lon="11.780565389774432"><ele>357.0</ele><time>2026-04-03T14:34:48Z</time></trkpt><trkpt lat="42.97079752581312" lon="11.780734393248236"><ele>357.0</ele><time>2026-04-03T14:34:49Z</time></trkpt><trkpt lat="42.97063452244021" lon="11.780888697281839"><ele>357.6666666666667</ele><time>2026-04-03T14:34:50Z</time></trkpt><trkpt lat="42.970468679812896" lon="11.781056405912686"><ele>358.33333333333337</ele><time>2026-04-03T14:34:51Z</time></trkpt><trkpt lat="42.97030069885107" lon="11.781222845343956"><ele>359.0</ele><time>2026-04-03T14:34:52Z</time></trkpt><trkpt lat="42.97013799299199" lon="11.781391831392805"><ele>359.6666666666667</ele><time>2026-04-03T14:34:53Z</time></trkpt><trkpt lat="42.96997621364221" lon="11.78156064357792"><ele>360.3333333333333</ele><time>2026-04-03T14:34:54Z</time></trkpt><trkpt lat="42.96982285443094" lon="11.781731922585887"><ele>361.0</ele><time>2026-04-03T14:34:55Z</time></trkpt><trkpt lat="42.9696872749701" lon="11.781900702201813"><ele>361.0</ele><time>2026-04-03T14:34:56Z</time></trkpt><trkpt lat="42.96956225504773" lon="11.782056486833222"><ele>361.0</ele><time>2026-04-03T14:34:57Z</time></trkpt><trkpt lat="42.9694254664578" lon="11.782181535024169"><ele>361.0</ele><time>2026-04-03T14:34:58Z</time></trkpt><trkpt lat="42.96925969438056" lon="11.782265540923683"><ele>363.0</ele><time>2026-04-03T14:34:59Z</time></trkpt><trkpt lat="42.969079282725914" lon="11.782299169479712"><ele>365.0</ele><time>2026-04-03T14:35:00Z</time></trkpt><trkpt lat="42.968897174558776" lon="11.782316684560564"><ele>367.0</ele><time>2026-04-03T14:35:01.001Z</time></trkpt><trkpt lat="42.96872476409168" lon="11.782350492561836"><ele>367.0</ele><time>2026-04-03T14:35:02.001Z</time></trkpt><trkpt lat="42.96854619952101" lon="11.7824088813164"><ele>367.0</ele><time>2026-04-03T14:35:03.001Z</time></trkpt><trkpt lat="42.968368116314494" lon="11.782490923338907"><ele>367.0</ele><time>2026-04-03T14:35:04.001Z</time></trkpt><trkpt lat="42.968192472958485" lon="11.782598223383628"><ele>367.3333333333333</ele><time>2026-04-03T14:35:05.001Z</time></trkpt><trkpt lat="42.968009669800196" lon="11.782711166452389"><ele>367.6666666666667</ele><time>2026-04-03T14:35:06.001Z</time></trkpt><trkpt lat="42.96782350235046" lon="11.782829329475788"><ele>368.0</ele><time>2026-04-03T14:35:07.001Z</time></trkpt><trkpt lat="42.967636021371206" lon="11.782940912717043"><ele>367.6666666666667</ele><time>2026-04-03T14:35:08.001Z</time></trkpt><trkpt lat="42.96744050981596" lon="11.783055263366839"><ele>367.3333333333333</ele><time>2026-04-03T14:35:09.001Z</time></trkpt><trkpt lat="42.96724931035421" lon="11.783168096569291"><ele>367.0</ele><time>2026-04-03T14:35:10.001Z</time></trkpt><trkpt lat="42.96705220669728" lon="11.783279491183894"><ele>367.0</ele><time>2026-04-03T14:35:11.001Z</time></trkpt><trkpt lat="42.96685634795437" lon="11.78339176164898"><ele>367.0</ele><time>2026-04-03T14:35:12.001Z</time></trkpt><trkpt lat="42.96665636698292" lon="11.783505240171735"><ele>367.0</ele><time>2026-04-03T14:35:13.001Z</time></trkpt><trkpt lat="42.96645863087612" lon="11.783619303384476"><ele>367.66666666666663</ele><time>2026-04-03T14:35:14.001Z</time></trkpt><trkpt lat="42.96625386614141" lon="11.783739945105735"><ele>368.3333333333333</ele><time>2026-04-03T14:35:15.001Z</time></trkpt><trkpt lat="42.9660502560269" lon="11.783854823081407"><ele>369.0</ele><time>2026-04-03T14:35:16.001Z</time></trkpt><trkpt lat="42.96584463452696" lon="11.783974020909573"><ele>369.0</ele><time>2026-04-03T14:35:17.001Z</time></trkpt><trkpt lat="42.965644299333334" lon="11.784093358247954"><ele>369.0</ele><time>2026-04-03T14:35:18.001Z</time></trkpt><trkpt lat="42.96544376677525" lon="11.784206463690058"><ele>369.0</ele><time>2026-04-03T14:35:19.001Z</time></trkpt><trkpt lat="42.96524580647707" lon="11.784319814960181"><ele>370.0</ele><time>2026-04-03T14:35:20.001Z</time></trkpt><trkpt lat="42.96504394945949" lon="11.784433172554943"><ele>371.0</ele><time>2026-04-03T14:35:21.001Z</time></trkpt><trkpt lat="42.964842511149925" lon="11.784549327144266"><ele>372.0</ele><time>2026-04-03T14:35:22.001Z</time></trkpt><trkpt lat="42.964645918451" lon="11.784663845613881"><ele>373.3333333333333</ele><time>2026-04-03T14:35:23.001Z</time></trkpt><trkpt lat="42.96445120347032" lon="11.784778442178018"><ele>374.66666666666663</ele><time>2026-04-03T14:35:24.001Z</time></trkpt><trkpt lat="42.964257638454434" lon="11.784882777709193"><ele>376.0</ele><time>2026-04-03T14:35:25.001Z</time></trkpt><trkpt lat="42.96406881874231" lon="11.784994878032318"><ele>376.3333333333333</ele><time>2026-04-03T14:35:26.001Z</time></trkpt><trkpt lat="42.963881742871244" lon="11.785102296886116"><ele>376.6666666666667</ele><time>2026-04-03T14:35:27.001Z</time></trkpt><trkpt lat="42.963699109952024" lon="11.785206282307454"><ele>377.0</ele><time>2026-04-03T14:35:28.001Z</time></trkpt><trkpt lat="42.96351233873671" lon="11.785311024465521"><ele>378.6666666666667</ele><time>2026-04-03T14:35:29.001Z</time></trkpt><trkpt lat="42.96333045592451" lon="11.785416416878714"><ele>380.3333333333333</ele><time>2026-04-03T14:35:30.001Z</time></trkpt><trkpt lat="42.96315308709798" lon="11.785529217960237"><ele>382.0</ele><time>2026-04-03T14:35:31.001Z</time></trkpt><trkpt lat="42.96297940464086" lon="11.785644482176389"><ele>382.0</ele><time>2026-04-03T14:35:32.001Z</time></trkpt><trkpt lat="42.962805854975805" lon="11.785772492939458"><ele>382.0</ele><time>2026-04-03T14:35:33.001Z</time></trkpt><trkpt lat="42.9626378113069" lon="11.785915853949692"><ele>382.0</ele><time>2026-04-03T14:35:34.001Z</time></trkpt><trkpt lat="42.9624688266957" lon="11.78605717380581"><ele>382.3333333333333</ele><time>2026-04-03T14:35:35.001Z</time></trkpt><trkpt lat="42.96230187779331" lon="11.786189999637273"><ele>382.6666666666667</ele><time>2026-04-03T14:35:36.001Z</time></trkpt><trkpt lat="42.96213523296537" lon="11.786309769576754"><ele>383.0</ele><time>2026-04-03T14:35:37.001Z</time></trkpt><trkpt lat="42.96196479313518" lon="11.786408948185567"><ele>383.0</ele><time>2026-04-03T14:35:38.001Z</time></trkpt><trkpt lat="42.96178876295752" lon="11.786491590386007"><ele>383.0</ele><time>2026-04-03T14:35:39.001Z</time></trkpt><trkpt lat="42.961607387182035" lon="11.78656405829891"><ele>383.0</ele><time>2026-04-03T14:35:40.001Z</time></trkpt><trkpt lat="42.961415281315865" lon="11.786619960426107"><ele>381.33333333333337</ele><time>2026-04-03T14:35:41.001Z</time></trkpt><trkpt lat="42.96121467367783" lon="11.786653380937208"><ele>379.6666666666667</ele><time>2026-04-03T14:35:42.001Z</time></trkpt><trkpt lat="42.961012607407426" lon="11.786666667864182"><ele>378.0</ele><time>2026-04-03T14:35:43.001Z</time></trkpt><trkpt lat="42.9608059190878" lon="11.786661103229802"><ele>377.0</ele><time>2026-04-03T14:35:44.002Z</time></trkpt><trkpt lat="42.96059759842181" lon="11.78664931818853"><ele>376.0</ele><time>2026-04-03T14:35:45.002Z</time></trkpt><trkpt lat="42.960387003531395" lon="11.786602818857366"><ele>375.0</ele><time>2026-04-03T14:35:46.002Z</time></trkpt><trkpt lat="42.960184103505696" lon="11.786512998436317"><ele>374.0</ele><time>2026-04-03T14:35:47.002Z</time></trkpt><trkpt lat="42.95998763415813" lon="11.786424698973043"><ele>373.0</ele><time>2026-04-03T14:35:48.002Z</time></trkpt><trkpt lat="42.959795944790045" lon="11.786316314656423"><ele>372.0</ele><time>2026-04-03T14:35:49.002Z</time></trkpt><trkpt lat="42.95960667912996" lon="11.786221179395177"><ele>372.0</ele><time>2026-04-03T14:35:50.002Z</time></trkpt><trkpt lat="42.959451432483505" lon="11.786095044749679"><ele>372.0</ele><time>2026-04-03T14:35:51.002Z</time></trkpt><trkpt lat="42.95931364804235" lon="11.785961953465273"><ele>372.0</ele><time>2026-04-03T14:35:52.002Z</time></trkpt><trkpt lat="42.959173789957546" lon="11.78586138749662"><ele>372.3333333333333</ele><time>2026-04-03T14:35:53.002Z</time></trkpt><trkpt lat="42.95901803124104" lon="11.785763308118357"><ele>372.66666666666663</ele><time>2026-04-03T14:35:54.002Z</time></trkpt><trkpt lat="42.95883800713133" lon="11.785655913143065"><ele>373.0</ele><time>2026-04-03T14:35:55.002Z</time></trkpt><trkpt lat="42.95862094498177" lon="11.785576634794968"><ele>373.0</ele><time>2026-04-03T14:35:56.002Z</time></trkpt><trkpt lat="42.95841693886682" lon="11.785516052382624"><ele>373.0</ele><time>2026-04-03T14:35:57.002Z</time></trkpt><trkpt lat="42.958222495530954" lon="11.785463342213063"><ele>373.0</ele><time>2026-04-03T14:35:58.002Z</time></trkpt><trkpt lat="42.958023406704655" lon="11.785430095771595"><ele>372.3333333333333</ele><time>2026-04-03T14:35:59.002Z</time></trkpt><trkpt lat="42.95782284363188" lon="11.785417913454861"><ele>371.6666666666667</ele><time>2026-04-03T14:36:00.002Z</time></trkpt><trkpt lat="42.95761877608595" lon="11.785426037150707"><ele>371.0</ele><time>2026-04-03T14:36:01.002Z</time></trkpt><trkpt lat="42.9574100738463" lon="11.785439365831738"><ele>371.0</ele><time>2026-04-03T14:36:02.002Z</time></trkpt><trkpt lat="42.957201346595625" lon="11.785451018696225"><ele>371.0</ele><time>2026-04-03T14:36:03.002Z</time></trkpt><trkpt lat="42.95698729211487" lon="11.78545409191852"><ele>371.0</ele><time>2026-04-03T14:36:04.002Z</time></trkpt><trkpt lat="42.95677688005107" lon="11.785467900798334"><ele>370.33333333333337</ele><time>2026-04-03T14:36:05.002Z</time></trkpt><trkpt lat="42.95656009305473" lon="11.785474077548828"><ele>369.6666666666667</ele><time>2026-04-03T14:36:06.002Z</time></trkpt><trkpt lat="42.9563503907273" lon="11.78548864534031"><ele>369.0</ele><time>2026-04-03T14:36:07.002Z</time></trkpt><trkpt lat="42.956157070208214" lon="11.785502802111054"><ele>369.0</ele><time>2026-04-03T14:36:08.002Z</time></trkpt><trkpt lat="42.95594466040948" lon="11.78550903235202"><ele>369.0</ele><time>2026-04-03T14:36:09.002Z</time></trkpt><trkpt lat="42.95577900044894" lon="11.785480873029702"><ele>369.0</ele><time>2026-04-03T14:36:10.002Z</time></trkpt><trkpt lat="42.955582422464964" lon="11.78544885231056"><ele>367.3333333333333</ele><time>2026-04-03T14:36:11.002Z</time></trkpt><trkpt lat="42.95538332849266" lon="11.785405505648976"><ele>365.66666666666663</ele><time>2026-04-03T14:36:12.002Z</time></trkpt><trkpt lat="42.95518363125972" lon="11.785347695925438"><ele>364.0</ele><time>2026-04-03T14:36:13.002Z</time></trkpt><trkpt lat="42.95497581227212" lon="11.78527438939177"><ele>363.66666666666663</ele><time>2026-04-03T14:36:14.002Z</time></trkpt><trkpt lat="42.954767785334205" lon="11.785194036818398"><ele>363.3333333333333</ele><time>2026-04-03T14:36:15.002Z</time></trkpt><trkpt lat="42.954554499744894" lon="11.785109099511944"><ele>363.0</ele><time>2026-04-03T14:36:16.002Z</time></trkpt><trkpt lat="42.95434410469301" lon="11.785025313134401"><ele>361.5</ele><time>2026-04-03T14:36:17.002Z</time></trkpt><trkpt lat="42.95412796607518" lon="11.78493939409817"><ele>360.0</ele><time>2026-04-03T14:36:18.002Z</time></trkpt><trkpt lat="42.9539105951744" lon="11.784853192961625"><ele>360.0</ele><time>2026-04-03T14:36:19.002Z</time></trkpt><trkpt lat="42.953690818560254" lon="11.784789729796811"><ele>360.0</ele><time>2026-04-03T14:36:20.002Z</time></trkpt><trkpt lat="42.95347871656621" lon="11.784704367190589"><ele>360.0</ele><time>2026-04-03T14:36:21.002Z</time></trkpt><trkpt lat="42.95326665164668" lon="11.78461969097706"><ele>360.3333333333333</ele><time>2026-04-03T14:36:22.002Z</time></trkpt><trkpt lat="42.95305404071329" lon="11.784534236946735"><ele>360.66666666666663</ele><time>2026-04-03T14:36:23.002Z</time></trkpt><trkpt lat="42.952843248488676" lon="11.784440662362018"><ele>361.0</ele><time>2026-04-03T14:36:24.002Z</time></trkpt><trkpt lat="42.952634822663995" lon="11.784360523810149"><ele>359.66666666666663</ele><time>2026-04-03T14:36:25.003Z</time></trkpt><trkpt lat="42.95242405217899" lon="11.784278749720956"><ele>358.3333333333333</ele><time>2026-04-03T14:36:26.003Z</time></trkpt><trkpt lat="42.95221614581265" lon="11.784178118179303"><ele>357.0</ele><time>2026-04-03T14:36:27.003Z</time></trkpt><trkpt lat="42.95201412895611" lon="11.784118884195596"><ele>357.0</ele><time>2026-04-03T14:36:28.003Z</time></trkpt><trkpt lat="42.951827990478485" lon="11.78402217055026"><ele>357.0</ele><time>2026-04-03T14:36:29.003Z</time></trkpt><trkpt lat="42.9516542178806" lon="11.783953897115538"><ele>357.0</ele><time>2026-04-03T14:36:30.003Z</time></trkpt><trkpt lat="42.951486726152744" lon="11.783906824488174"><ele>356.75</ele><time>2026-04-03T14:36:31.003Z</time></trkpt><trkpt lat="42.951369233017" lon="11.78385568353649"><ele>356.5</ele><time>2026-04-03T14:36:32.003Z</time></trkpt><trkpt lat="42.95122622801244" lon="11.78382389945991"><ele>356.25</ele><time>2026-04-03T14:36:33.003Z</time></trkpt><trkpt lat="42.95107329249791" lon="11.783869668328165"><ele>356.0</ele><time>2026-04-03T14:36:34.003Z</time></trkpt><trkpt lat="42.95084494279036" lon="11.784056959126023"><ele>356.0</ele><time>2026-04-03T14:36:35.003Z</time></trkpt><trkpt lat="42.9506421003749" lon="11.784259626801347"><ele>356.0</ele><time>2026-04-03T14:36:36.003Z</time></trkpt><trkpt lat="42.95043703694542" lon="11.784427916209546"><ele>356.0</ele><time>2026-04-03T14:36:37.003Z</time></trkpt><trkpt lat="42.95025890102169" lon="11.784495577230274"><ele>356.0</ele><time>2026-04-03T14:36:39.003Z</time></trkpt><trkpt lat="42.95010582676242" lon="11.784482260839875"><ele>356.0</ele><time>2026-04-03T14:36:40.001Z</time></trkpt><trkpt lat="42.94994287720224" lon="11.784413186445079"><ele>355.33333333333337</ele><time>2026-04-03T14:36:41.001Z</time></trkpt><trkpt lat="42.949766211293394" lon="11.784339052633653"><ele>354.6666666666667</ele><time>2026-04-03T14:36:42.001Z</time></trkpt><trkpt lat="42.94958747982" lon="11.784262899071361"><ele>354.0</ele><time>2026-04-03T14:36:43.001Z</time></trkpt><trkpt lat="42.94940687294628" lon="11.78419088213642"><ele>354.0</ele><time>2026-04-03T14:36:44.001Z</time></trkpt><trkpt lat="42.94922538242867" lon="11.78416793326361"><ele>354.0</ele><time>2026-04-03T14:36:45.001Z</time></trkpt><trkpt lat="42.94905560326503" lon="11.7841459054401"><ele>354.0</ele><time>2026-04-03T14:36:46.001Z</time></trkpt><trkpt lat="42.94888362804566" lon="11.784186705010818"><ele>354.6666666666667</ele><time>2026-04-03T14:36:47.001Z</time></trkpt><trkpt lat="42.94870811655082" lon="11.784267410608681"><ele>355.33333333333337</ele><time>2026-04-03T14:36:48.001Z</time></trkpt><trkpt lat="42.94852929388082" lon="11.784365564476841"><ele>356.0</ele><time>2026-04-03T14:36:49.001Z</time></trkpt><trkpt lat="42.94835460081388" lon="11.784469320065424"><ele>357.33333333333337</ele><time>2026-04-03T14:36:50.001Z</time></trkpt><trkpt lat="42.948179266595744" lon="11.784590798105931"><ele>358.6666666666667</ele><time>2026-04-03T14:36:51.001Z</time></trkpt><trkpt lat="42.948008689351454" lon="11.784728921159664"><ele>360.0</ele><time>2026-04-03T14:36:52.001Z</time></trkpt><trkpt lat="42.9478419069842" lon="11.784871139539673"><ele>360.0</ele><time>2026-04-03T14:36:53.001Z</time></trkpt><trkpt lat="42.94767176607881" lon="11.785011893761249"><ele>360.0</ele><time>2026-04-03T14:36:54.001Z</time></trkpt><trkpt lat="42.947501756329906" lon="11.785149498593066"><ele>360.0</ele><time>2026-04-03T14:36:55.001Z</time></trkpt><trkpt lat="42.947332098645674" lon="11.785283035847979"><ele>362.6666666666667</ele><time>2026-04-03T14:36:56.001Z</time></trkpt><trkpt lat="42.94715683969297" lon="11.785420164003193"><ele>365.33333333333337</ele><time>2026-04-03T14:36:57.001Z</time></trkpt><trkpt lat="42.94697983740077" lon="11.785564181763181"><ele>368.0</ele><time>2026-04-03T14:36:58.001Z</time></trkpt><trkpt lat="42.94679461397192" lon="11.785708635991549"><ele>366.33333333333337</ele><time>2026-04-03T14:36:59.001Z</time></trkpt><trkpt lat="42.94660227220663" lon="11.785842663267527"><ele>364.6666666666667</ele><time>2026-04-03T14:37:00.001Z</time></trkpt><trkpt lat="42.946398683529424" lon="11.78594177219864"><ele>363.0</ele><time>2026-04-03T14:37:01.001Z</time></trkpt><trkpt lat="42.946169901919546" lon="11.785948472867313"><ele>363.0</ele><time>2026-04-03T14:37:02.001Z</time></trkpt><trkpt lat="42.945954111348875" lon="11.785918837132515"><ele>363.0</ele><time>2026-04-03T14:37:03.001Z</time></trkpt><trkpt lat="42.94573788014488" lon="11.785880764627443"><ele>363.0</ele><time>2026-04-03T14:37:04.001Z</time></trkpt><trkpt lat="42.94552174308092" lon="11.785851326694848"><ele>364.0</ele><time>2026-04-03T14:37:05.001Z</time></trkpt><trkpt lat="42.94531267691318" lon="11.785816124360743"><ele>365.0</ele><time>2026-04-03T14:37:06.001Z</time></trkpt><trkpt lat="42.94511598749815" lon="11.785735355438895"><ele>366.0</ele><time>2026-04-03T14:37:07.001Z</time></trkpt><trkpt lat="42.944934140823925" lon="11.78559923030118"><ele>367.0</ele><time>2026-04-03T14:37:08.001Z</time></trkpt><trkpt lat="42.944767812067795" lon="11.785464636445584"><ele>368.0</ele><time>2026-04-03T14:37:09.001Z</time></trkpt><trkpt lat="42.944589969473064" lon="11.785392570201681"><ele>369.0</ele><time>2026-04-03T14:37:10.001Z</time></trkpt><trkpt lat="42.9443899504979" lon="11.785375524476397"><ele>368.6666666666667</ele><time>2026-04-03T14:37:11.001Z</time></trkpt><trkpt lat="42.94418521425125" lon="11.785401672442344"><ele>368.33333333333337</ele><time>2026-04-03T14:37:12.001Z</time></trkpt><trkpt lat="42.943976167094114" lon="11.785436512573844"><ele>368.0</ele><time>2026-04-03T14:37:13.001Z</time></trkpt><trkpt lat="42.943763315054014" lon="11.78545874722815"><ele>368.0</ele><time>2026-04-03T14:37:14.001Z</time></trkpt><trkpt lat="42.94354881061785" lon="11.785475755831314"><ele>368.0</ele><time>2026-04-03T14:37:15.001Z</time></trkpt><trkpt lat="42.94333368916781" lon="11.785494164459612"><ele>368.0</ele><time>2026-04-03T14:37:16.001Z</time></trkpt><trkpt lat="42.943116921270885" lon="11.785514013571653"><ele>368.6666666666667</ele><time>2026-04-03T14:37:17.001Z</time></trkpt><trkpt lat="42.942900898204535" lon="11.785531606538218"><ele>369.3333333333333</ele><time>2026-04-03T14:37:18.001Z</time></trkpt><trkpt lat="42.9426868993296" lon="11.785553124257452"><ele>370.0</ele><time>2026-04-03T14:37:19.001Z</time></trkpt><trkpt lat="42.94247139698417" lon="11.785575253121497"><ele>370.0</ele><time>2026-04-03T14:37:20.001Z</time></trkpt><trkpt lat="42.942259393441084" lon="11.78559072377442"><ele>370.0</ele><time>2026-04-03T14:37:21.001Z</time></trkpt><trkpt lat="42.942051973610404" lon="11.785606194075594"><ele>370.0</ele><time>2026-04-03T14:37:22.001Z</time></trkpt><trkpt lat="42.94184960797036" lon="11.785614504986945"><ele>371.0</ele><time>2026-04-03T14:37:23.001Z</time></trkpt><trkpt lat="42.941650009948546" lon="11.785593701264492"><ele>372.0</ele><time>2026-04-03T14:37:24.001Z</time></trkpt><trkpt lat="42.941456903623184" lon="11.785519643724411"><ele>373.0</ele><time>2026-04-03T14:37:25.001Z</time></trkpt><trkpt lat="42.94127958727191" lon="11.785375619079499"><ele>373.0</ele><time>2026-04-03T14:37:26.001Z</time></trkpt><trkpt lat="42.94112320549072" lon="11.785204183263634"><ele>373.0</ele><time>2026-04-03T14:37:27.001Z</time></trkpt><trkpt lat="42.940979732536825" lon="11.785017053082804"><ele>373.0</ele><time>2026-04-03T14:37:28.001Z</time></trkpt><trkpt lat="42.94083884158615" lon="11.7848419144911"><ele>375.3333333333333</ele><time>2026-04-03T14:37:29.001Z</time></trkpt><trkpt lat="42.94068846130475" lon="11.784694357479871"><ele>377.6666666666667</ele><time>2026-04-03T14:37:30.001Z</time></trkpt><trkpt lat="42.94052455634686" lon="11.784583194949033"><ele>380.0</ele><time>2026-04-03T14:37:31.001Z</time></trkpt><trkpt lat="42.94034473573334" lon="11.784524728376304"><ele>380.0</ele><time>2026-04-03T14:37:32.001Z</time></trkpt><trkpt lat="42.940157396927866" lon="11.784501821134771"><ele>380.0</ele><time>2026-04-03T14:37:33.001Z</time></trkpt><trkpt lat="42.93996461727414" lon="11.784505949642728"><ele>380.0</ele><time>2026-04-03T14:37:34.001Z</time></trkpt><trkpt lat="42.93977160804286" lon="11.784541137226075"><ele>380.0</ele><time>2026-04-03T14:37:35.001Z</time></trkpt><trkpt lat="42.9395763836884" lon="11.784602029528516"><ele>380.0</ele><time>2026-04-03T14:37:36.001Z</time></trkpt><trkpt lat="42.93937682938293" lon="11.784680204039306"><ele>380.0</ele><time>2026-04-03T14:37:37.001Z</time></trkpt><trkpt lat="42.93918128289747" lon="11.784756667743059"><ele>380.0</ele><time>2026-04-03T14:37:38.001Z</time></trkpt><trkpt lat="42.93897939798992" lon="11.784821867518973"><ele>380.0</ele><time>2026-04-03T14:37:39.001Z</time></trkpt><trkpt lat="42.93877310026792" lon="11.784873855964141"><ele>380.0</ele><time>2026-04-03T14:37:40.001Z</time></trkpt><trkpt lat="42.9385704039952" lon="11.784932947650258"><ele>379.6666666666667</ele><time>2026-04-03T14:37:41.001Z</time></trkpt><trkpt lat="42.938370707198295" lon="11.784998858118897"><ele>379.3333333333333</ele><time>2026-04-03T14:37:42.001Z</time></trkpt><trkpt lat="42.93817928315706" lon="11.785055942728524"><ele>379.0</ele><time>2026-04-03T14:37:43.001Z</time></trkpt><trkpt lat="42.938004289784395" lon="11.785104134202346"><ele>379.0</ele><time>2026-04-03T14:37:44.001Z</time></trkpt><trkpt lat="42.9378309046924" lon="11.785157457457414"><ele>379.0</ele><time>2026-04-03T14:37:45.001Z</time></trkpt><trkpt lat="42.93766299607476" lon="11.78523277383089"><ele>379.0</ele><time>2026-04-03T14:37:46.002Z</time></trkpt><trkpt lat="42.937507519957315" lon="11.785354608279357"><ele>381.66666666666663</ele><time>2026-04-03T14:37:47.002Z</time></trkpt><trkpt lat="42.93738496719003" lon="11.785513518960355"><ele>384.3333333333333</ele><time>2026-04-03T14:37:48.002Z</time></trkpt><trkpt lat="42.937272472347026" lon="11.785656922231631"><ele>387.0</ele><time>2026-04-03T14:37:49.002Z</time></trkpt><trkpt lat="42.93713615673485" lon="11.785753688877136"><ele>387.0</ele><time>2026-04-03T14:37:50.002Z</time></trkpt><trkpt lat="42.93698706629124" lon="11.78582773387499"><ele>387.0</ele><time>2026-04-03T14:37:51.002Z</time></trkpt><trkpt lat="42.93681982923355" lon="11.785868121628507"><ele>387.0</ele><time>2026-04-03T14:37:52.002Z</time></trkpt><trkpt lat="42.93664953082825" lon="11.78585786814559"><ele>385.3333333333333</ele><time>2026-04-03T14:37:53.002Z</time></trkpt><trkpt lat="42.93647137317661" lon="11.785838485247671"><ele>383.66666666666663</ele><time>2026-04-03T14:37:54.002Z</time></trkpt><trkpt lat="42.936291173399276" lon="11.785818880152178"><ele>382.0</ele><time>2026-04-03T14:37:55.002Z</time></trkpt><trkpt lat="42.936109910197075" lon="11.785817846065232"><ele>382.0</ele><time>2026-04-03T14:37:56.002Z</time></trkpt><trkpt lat="42.935928478283834" lon="11.785799414650105"><ele>382.0</ele><time>2026-04-03T14:37:57.002Z</time></trkpt><trkpt lat="42.935751160067205" lon="11.78576486205183"><ele>382.0</ele><time>2026-04-03T14:37:58.002Z</time></trkpt><trkpt lat="42.93558491143648" lon="11.785776665155124"><ele>383.0</ele><time>2026-04-03T14:37:59.002Z</time></trkpt><trkpt lat="42.93543743754675" lon="11.785754936154028"><ele>384.0</ele><time>2026-04-03T14:38:00.002Z</time></trkpt><trkpt lat="42.93529746958044" lon="11.785871760773036"><ele>385.0</ele><time>2026-04-03T14:38:01.002Z</time></trkpt><trkpt lat="42.93517956153651" lon="11.7860151443876"><ele>383.6666666666667</ele><time>2026-04-03T14:38:02.002Z</time></trkpt><trkpt lat="42.93509623363315" lon="11.786218128012282"><ele>382.33333333333337</ele><time>2026-04-03T14:38:03.002Z</time></trkpt><trkpt lat="42.935051286344354" lon="11.78644878707829"><ele>381.0</ele><time>2026-04-03T14:38:04.002Z</time></trkpt><trkpt lat="42.93502325728938" lon="11.786692027438354"><ele>382.66666666666663</ele><time>2026-04-03T14:38:05.002Z</time></trkpt><trkpt lat="42.934996188724746" lon="11.786931553637773"><ele>384.3333333333333</ele><time>2026-04-03T14:38:06.002Z</time></trkpt><trkpt lat="42.93496379982184" lon="11.787171388571403"><ele>386.0</ele><time>2026-04-03T14:38:07.002Z</time></trkpt><trkpt lat="42.93493759159677" lon="11.787410016955347"><ele>386.0</ele><time>2026-04-03T14:38:08.002Z</time></trkpt><trkpt lat="42.934935545122485" lon="11.787664763117919"><ele>386.0</ele><time>2026-04-03T14:38:09.002Z</time></trkpt><trkpt lat="42.934951421578155" lon="11.787912453507467"><ele>386.0</ele><time>2026-04-03T14:38:10.002Z</time></trkpt><trkpt lat="42.93495357368551" lon="11.78816420854364"><ele>386.66666666666663</ele><time>2026-04-03T14:38:11.002Z</time></trkpt><trkpt lat="42.93496226064906" lon="11.788417300165147"><ele>387.33333333333337</ele><time>2026-04-03T14:38:12.002Z</time></trkpt><trkpt lat="42.93497023776352" lon="11.788673919902791"><ele>388.0</ele><time>2026-04-03T14:38:13.002Z</time></trkpt><trkpt lat="42.934977577114005" lon="11.788928776508776"><ele>388.0</ele><time>2026-04-03T14:38:14.002Z</time></trkpt><trkpt lat="42.93500040139481" lon="11.789185754535675"><ele>388.0</ele><time>2026-04-03T14:38:15.002Z</time></trkpt><trkpt lat="42.935001436881784" lon="11.789445279300665"><ele>388.0</ele><time>2026-04-03T14:38:16.002Z</time></trkpt><trkpt lat="42.93500777641293" lon="11.789704519138915"><ele>388.0</ele><time>2026-04-03T14:38:17.002Z</time></trkpt><trkpt lat="42.935017705315175" lon="11.789955540731851"><ele>388.0</ele><time>2026-04-03T14:38:18.002Z</time></trkpt><trkpt lat="42.93501884488591" lon="11.790191943963379"><ele>388.0</ele><time>2026-04-03T14:38:19.002Z</time></trkpt><trkpt lat="42.93503114240589" lon="11.7904083159363"><ele>389.33333333333337</ele><time>2026-04-03T14:38:20.002Z</time></trkpt><trkpt lat="42.93503316115471" lon="11.790627126575043"><ele>390.66666666666663</ele><time>2026-04-03T14:38:21.002Z</time></trkpt><trkpt lat="42.93503206364566" lon="11.79086177495958"><ele>392.0</ele><time>2026-04-03T14:38:22.002Z</time></trkpt><trkpt lat="42.93497579192449" lon="11.791091701675189"><ele>395.0</ele><time>2026-04-03T14:38:23.002Z</time></trkpt><trkpt lat="42.93488080819139" lon="11.791275301113345"><ele>398.0</ele><time>2026-04-03T14:38:24.002Z</time></trkpt><trkpt lat="42.93474755684771" lon="11.79144612255896"><ele>401.0</ele><time>2026-04-03T14:38:25.002Z</time></trkpt><trkpt lat="42.93460678367761" lon="11.791626595490255"><ele>401.0</ele><time>2026-04-03T14:38:26.002Z</time></trkpt><trkpt lat="42.934473476341495" lon="11.791819332739035"><ele>401.0</ele><time>2026-04-03T14:38:27.002Z</time></trkpt><trkpt lat="42.93433036399707" lon="11.792002161449483"><ele>401.0</ele><time>2026-04-03T14:38:28.002Z</time></trkpt><trkpt lat="42.9341850598021" lon="11.792191846690228"><ele>400.0</ele><time>2026-04-03T14:38:29.002Z</time></trkpt><trkpt lat="42.934037479664894" lon="11.79237935892767"><ele>399.0</ele><time>2026-04-03T14:38:30.003Z</time></trkpt><trkpt lat="42.933892928434275" lon="11.792571451059487"><ele>398.0</ele><time>2026-04-03T14:38:31.003Z</time></trkpt><trkpt lat="42.9337437455121" lon="11.792763586463865"><ele>397.0</ele><time>2026-04-03T14:38:32.003Z</time></trkpt><trkpt lat="42.933597276913794" lon="11.792950767190185"><ele>396.0</ele><time>2026-04-03T14:38:33.003Z</time></trkpt><trkpt lat="42.93344972783169" lon="11.793144215299309"><ele>395.0</ele><time>2026-04-03T14:38:34.003Z</time></trkpt><trkpt lat="42.933305105993455" lon="11.793335552089529"><ele>396.3333333333333</ele><time>2026-04-03T14:38:35.003Z</time></trkpt><trkpt lat="42.933151949459294" lon="11.793510209486442"><ele>397.66666666666663</ele><time>2026-04-03T14:38:36.003Z</time></trkpt><trkpt lat="42.93300923126266" lon="11.793696377844661"><ele>399.0</ele><time>2026-04-03T14:38:37.003Z</time></trkpt><trkpt lat="42.93288056200172" lon="11.793894865774366"><ele>399.0</ele><time>2026-04-03T14:38:38.003Z</time></trkpt><trkpt lat="42.93273956864953" lon="11.794075174208398"><ele>399.0</ele><time>2026-04-03T14:38:39.003Z</time></trkpt><trkpt lat="42.93260358297044" lon="11.794244528868877"><ele>399.0</ele><time>2026-04-03T14:38:40.003Z</time></trkpt><trkpt lat="42.93247364919684" lon="11.794410820271976"><ele>398.0</ele><time>2026-04-03T14:38:41.003Z</time></trkpt><trkpt lat="42.93235207065959" lon="11.794567702958238"><ele>397.0</ele><time>2026-04-03T14:38:42.003Z</time></trkpt><trkpt lat="42.93223725147135" lon="11.794711684158777"><ele>396.0</ele><time>2026-04-03T14:38:43.003Z</time></trkpt><trkpt lat="42.93212570316662" lon="11.794859841908943"><ele>396.0</ele><time>2026-04-03T14:38:44.003Z</time></trkpt><trkpt lat="42.93200222175545" lon="11.794985396502241"><ele>396.0</ele><time>2026-04-03T14:38:45.003Z</time></trkpt><trkpt lat="42.931884671309085" lon="11.79510308736195"><ele>396.0</ele><time>2026-04-03T14:38:46.001Z</time></trkpt><trkpt lat="42.93175488978648" lon="11.795209060403558"><ele>396.0</ele><time>2026-04-03T14:38:47.001Z</time></trkpt><trkpt lat="42.93160787845132" lon="11.795291710113865"><ele>396.0</ele><time>2026-04-03T14:38:48.001Z</time></trkpt><trkpt lat="42.931451710183104" lon="11.795362621825833"><ele>396.0</ele><time>2026-04-03T14:38:49.001Z</time></trkpt><trkpt lat="42.93128646651371" lon="11.795424845913187"><ele>396.0</ele><time>2026-04-03T14:38:50.001Z</time></trkpt><trkpt lat="42.93111816358993" lon="11.79551077925596"><ele>396.0</ele><time>2026-04-03T14:38:51.001Z</time></trkpt><trkpt lat="42.930940607883386" lon="11.795541793310283"><ele>396.0</ele><time>2026-04-03T14:38:52.001Z</time></trkpt><trkpt lat="42.930755687539126" lon="11.795532249254546"><ele>395.66666666666663</ele><time>2026-04-03T14:38:53.001Z</time></trkpt><trkpt lat="42.93057017921291" lon="11.79547990366226"><ele>395.3333333333333</ele><time>2026-04-03T14:38:54.001Z</time></trkpt><trkpt lat="42.930395680831026" lon="11.795383060159866"><ele>395.0</ele><time>2026-04-03T14:38:55.001Z</time></trkpt><trkpt lat="42.930212079784724" lon="11.795295404205891"><ele>394.3333333333333</ele><time>2026-04-03T14:38:56.001Z</time></trkpt><trkpt lat="42.93002565233717" lon="11.79522297651566"><ele>393.66666666666663</ele><time>2026-04-03T14:38:57.001Z</time></trkpt><trkpt lat="42.92984571884289" lon="11.795117049923265"><ele>393.0</ele><time>2026-04-03T14:38:58.001Z</time></trkpt><trkpt lat="42.929662358068775" lon="11.795029433482494"><ele>392.66666666666663</ele><time>2026-04-03T14:38:59.001Z</time></trkpt><trkpt lat="42.92948803052975" lon="11.79492378989288"><ele>392.3333333333333</ele><time>2026-04-03T14:39:00.001Z</time></trkpt><trkpt lat="42.92932579456955" lon="11.79484545649677"><ele>392.0</ele><time>2026-04-03T14:39:01.001Z</time></trkpt><trkpt lat="42.92916417284293" lon="11.794792051746962"><ele>393.66666666666663</ele><time>2026-04-03T14:39:02.001Z</time></trkpt><trkpt lat="42.92901804226426" lon="11.794726934351127"><ele>395.33333333333337</ele><time>2026-04-03T14:39:03.001Z</time></trkpt><trkpt lat="42.928858921737195" lon="11.794721761087645"><ele>397.0</ele><time>2026-04-03T14:39:04.001Z</time></trkpt><trkpt lat="42.92869219015073" lon="11.794787116589486"><ele>397.0</ele><time>2026-04-03T14:39:05.001Z</time></trkpt><trkpt lat="42.928536993694166" lon="11.794921594416484"><ele>397.0</ele><time>2026-04-03T14:39:06.001Z</time></trkpt><trkpt lat="42.9283956456342" lon="11.79507908238507"><ele>397.0</ele><time>2026-04-03T14:39:07.001Z</time></trkpt><trkpt lat="42.92827072025508" lon="11.795274485025285"><ele>398.0</ele><time>2026-04-03T14:39:08.001Z</time></trkpt><trkpt lat="42.92816840712781" lon="11.795486285100104"><ele>399.0</ele><time>2026-04-03T14:39:09.001Z</time></trkpt><trkpt lat="42.928046937039795" lon="11.795673974038914"><ele>400.0</ele><time>2026-04-03T14:39:10.001Z</time></trkpt><trkpt lat="42.92792159714347" lon="11.795851983219013"><ele>400.0</ele><time>2026-04-03T14:39:11.001Z</time></trkpt><trkpt lat="42.92777821636013" lon="11.795998584063733"><ele>400.0</ele><time>2026-04-03T14:39:12.001Z</time></trkpt><trkpt lat="42.92760995909" lon="11.79610547992831"><ele>400.0</ele><time>2026-04-03T14:39:13.001Z</time></trkpt><trkpt lat="42.927427733141755" lon="11.796187743155869"><ele>402.0</ele><time>2026-04-03T14:39:14.001Z</time></trkpt><trkpt lat="42.92725464130336" lon="11.79628672811684"><ele>404.0</ele><time>2026-04-03T14:39:15.001Z</time></trkpt><trkpt lat="42.92707673883041" lon="11.7963564384812"><ele>406.0</ele><time>2026-04-03T14:39:16.001Z</time></trkpt><trkpt lat="42.92690740646264" lon="11.796457223020477"><ele>406.0</ele><time>2026-04-03T14:39:17.001Z</time></trkpt><trkpt lat="42.92675876827075" lon="11.796597216118418"><ele>406.0</ele><time>2026-04-03T14:39:18.001Z</time></trkpt><trkpt lat="42.926635943181445" lon="11.796746489799386"><ele>406.0</ele><time>2026-04-03T14:39:19.001Z</time></trkpt><trkpt lat="42.92650648994018" lon="11.796852333616648"><ele>405.33333333333337</ele><time>2026-04-03T14:39:20.001Z</time></trkpt><trkpt lat="42.92636286321246" lon="11.796935501620656"><ele>404.66666666666663</ele><time>2026-04-03T14:39:21.001Z</time></trkpt><trkpt lat="42.92619392838568" lon="11.79690934552105"><ele>404.0</ele><time>2026-04-03T14:39:22.001Z</time></trkpt><trkpt lat="42.926017727313685" lon="11.796861657428611"><ele>407.3333333333333</ele><time>2026-04-03T14:39:23.001Z</time></trkpt><trkpt lat="42.925843315722894" lon="11.796794486845805"><ele>410.66666666666663</ele><time>2026-04-03T14:39:24.001Z</time></trkpt><trkpt lat="42.9256608881615" lon="11.796726841130093"><ele>414.0</ele><time>2026-04-03T14:39:25.001Z</time></trkpt><trkpt lat="42.92547584229356" lon="11.796667103851954"><ele>414.0</ele><time>2026-04-03T14:39:26.001Z</time></trkpt><trkpt lat="42.925294794878376" lon="11.796612023981746"><ele>414.0</ele><time>2026-04-03T14:39:27.001Z</time></trkpt><trkpt lat="42.92511175700381" lon="11.796558133894708"><ele>414.0</ele><time>2026-04-03T14:39:28.001Z</time></trkpt><trkpt lat="42.92492613227485" lon="11.796500133882162"><ele>413.66666666666663</ele><time>2026-04-03T14:39:29.001Z</time></trkpt><trkpt lat="42.92474473759736" lon="11.796442238326227"><ele>413.3333333333333</ele><time>2026-04-03T14:39:30.001Z</time></trkpt><trkpt lat="42.92457168884919" lon="11.796385476274718"><ele>413.0</ele><time>2026-04-03T14:39:31.001Z</time></trkpt><trkpt lat="42.92439596515129" lon="11.79633551654429"><ele>413.0</ele><time>2026-04-03T14:39:32.001Z</time></trkpt><trkpt lat="42.92422251818893" lon="11.796284557485295"><ele>413.0</ele><time>2026-04-03T14:39:33.001Z</time></trkpt><trkpt lat="42.924047797666084" lon="11.796233533140166"><ele>413.0</ele><time>2026-04-03T14:39:34.001Z</time></trkpt><trkpt lat="42.92387277137487" lon="11.796183172713985"><ele>413.0</ele><time>2026-04-03T14:39:35.001Z</time></trkpt><trkpt lat="42.92369464093174" lon="11.79613170071058"><ele>413.0</ele><time>2026-04-03T14:39:36.001Z</time></trkpt><trkpt lat="42.92351429019237" lon="11.796076747293617"><ele>413.0</ele><time>2026-04-03T14:39:37.001Z</time></trkpt><trkpt lat="42.92333820077165" lon="11.796025203927414"><ele>413.3333333333333</ele><time>2026-04-03T14:39:38.001Z</time></trkpt><trkpt lat="42.92316779450202" lon="11.796002530346195"><ele>413.66666666666663</ele><time>2026-04-03T14:39:39.001Z</time></trkpt><trkpt lat="42.92299143678989" lon="11.796010740342995"><ele>414.0</ele><time>2026-04-03T14:39:40.001Z</time></trkpt><trkpt lat="42.92281645665604" lon="11.796044714451943"><ele>414.0</ele><time>2026-04-03T14:39:41.001Z</time></trkpt><trkpt lat="42.92264325044157" lon="11.796109253454325"><ele>414.0</ele><time>2026-04-03T14:39:42.001Z</time></trkpt><trkpt lat="42.922476270191275" lon="11.796196329975777"><ele>414.0</ele><time>2026-04-03T14:39:43.001Z</time></trkpt><trkpt lat="42.92231924556502" lon="11.7963120018045"><ele>417.0</ele><time>2026-04-03T14:39:44.001Z</time></trkpt><trkpt lat="42.9221522949283" lon="11.7964086516031"><ele>420.0</ele><time>2026-04-03T14:39:45.001Z</time></trkpt><trkpt lat="42.92198308399653" lon="11.796498687953864"><ele>423.0</ele><time>2026-04-03T14:39:46.001Z</time></trkpt><trkpt lat="42.92181254721478" lon="11.796582396672237"><ele>424.33333333333337</ele><time>2026-04-03T14:39:47.001Z</time></trkpt><trkpt lat="42.92164305784209" lon="11.79666268620142"><ele>425.6666666666667</ele><time>2026-04-03T14:39:48.001Z</time></trkpt><trkpt lat="42.9214783457114" lon="11.796768603059885"><ele>427.0</ele><time>2026-04-03T14:39:49.001Z</time></trkpt><trkpt lat="42.921323588940645" lon="11.7968790079798"><ele>427.0</ele><time>2026-04-03T14:39:50.001Z</time></trkpt><trkpt lat="42.921171409955384" lon="11.796999694412557"><ele>427.0</ele><time>2026-04-03T14:39:51.001Z</time></trkpt><trkpt lat="42.921028549648675" lon="11.797122067535193"><ele>427.0</ele><time>2026-04-03T14:39:52.001Z</time></trkpt><trkpt lat="42.92088147634488" lon="11.797238022485208"><ele>429.6666666666667</ele><time>2026-04-03T14:39:53.001Z</time></trkpt><trkpt lat="42.920724765261646" lon="11.797326479901578"><ele>432.33333333333337</ele><time>2026-04-03T14:39:54.001Z</time></trkpt><trkpt lat="42.92055572443693" lon="11.797390362808708"><ele>435.0</ele><time>2026-04-03T14:39:55.001Z</time></trkpt><trkpt lat="42.92037869203013" lon="11.797447382301591"><ele>435.0</ele><time>2026-04-03T14:39:56.001Z</time></trkpt><trkpt lat="42.92020004633357" lon="11.797502269604303"><ele>435.0</ele><time>2026-04-03T14:39:57.001Z</time></trkpt><trkpt lat="42.92001872718775" lon="11.797559314485904"><ele>435.0</ele><time>2026-04-03T14:39:58.002Z</time></trkpt><trkpt lat="42.91983763942155" lon="11.797615700840684"><ele>434.66666666666663</ele><time>2026-04-03T14:39:59.002Z</time></trkpt><trkpt lat="42.91965233732982" lon="11.79766318563101"><ele>434.3333333333333</ele><time>2026-04-03T14:40:00.002Z</time></trkpt><trkpt lat="42.91946656019527" lon="11.797689186263426"><ele>434.0</ele><time>2026-04-03T14:40:01.002Z</time></trkpt><trkpt lat="42.91928113846575" lon="11.797696823555645"><ele>434.66666666666663</ele><time>2026-04-03T14:40:02.002Z</time></trkpt><trkpt lat="42.919099175244845" lon="11.797685364766158"><ele>435.33333333333337</ele><time>2026-04-03T14:40:03.002Z</time></trkpt><trkpt lat="42.91891769141835" lon="11.797650027198767"><ele>436.0</ele><time>2026-04-03T14:40:04.002Z</time></trkpt><trkpt lat="42.91873158726626" lon="11.797587008902772"><ele>439.0</ele><time>2026-04-03T14:40:05.002Z</time></trkpt><trkpt lat="42.91854770997056" lon="11.797519414396579"><ele>442.0</ele><time>2026-04-03T14:40:06.002Z</time></trkpt><trkpt lat="42.91836260231136" lon="11.797452518479574"><ele>445.0</ele><time>2026-04-03T14:40:07.002Z</time></trkpt><trkpt lat="42.918176835036164" lon="11.797394693943655"><ele>445.0</ele><time>2026-04-03T14:40:08.002Z</time></trkpt><trkpt lat="42.91798383373713" lon="11.797364741166128"><ele>445.0</ele><time>2026-04-03T14:40:09.002Z</time></trkpt><trkpt lat="42.91778745931731" lon="11.797361964743551"><ele>445.0</ele><time>2026-04-03T14:40:10.002Z</time></trkpt><trkpt lat="42.91758689600094" lon="11.797390009858642"><ele>444.6666666666667</ele><time>2026-04-03T14:40:11.002Z</time></trkpt><trkpt lat="42.917389096649245" lon="11.797418499843639"><ele>444.33333333333337</ele><time>2026-04-03T14:40:12.002Z</time></trkpt><trkpt lat="42.917192746540586" lon="11.79743794770495"><ele>444.0</ele><time>2026-04-03T14:40:13.002Z</time></trkpt><trkpt lat="42.916995923350065" lon="11.797454324769612"><ele>444.0</ele><time>2026-04-03T14:40:14.002Z</time></trkpt><trkpt lat="42.91680407176586" lon="11.797469452713074"><ele>444.0</ele><time>2026-04-03T14:40:15.002Z</time></trkpt><trkpt lat="42.91661641880363" lon="11.797487365132433"><ele>444.0</ele><time>2026-04-03T14:40:16.002Z</time></trkpt><trkpt lat="42.91643569271731" lon="11.797500864690274"><ele>447.0</ele><time>2026-04-03T14:40:17.002Z</time></trkpt><trkpt lat="42.916257782814405" lon="11.797518606078665"><ele>450.0</ele><time>2026-04-03T14:40:18.002Z</time></trkpt><trkpt lat="42.916084474509894" lon="11.79755916870922"><ele>453.0</ele><time>2026-04-03T14:40:19.002Z</time></trkpt><trkpt lat="42.91591518363314" lon="11.797632528137093"><ele>453.66666666666663</ele><time>2026-04-03T14:40:20.002Z</time></trkpt><trkpt lat="42.91575298637553" lon="11.79772575308002"><ele>454.3333333333333</ele><time>2026-04-03T14:40:21.002Z</time></trkpt><trkpt lat="42.91559033482176" lon="11.797820639278275"><ele>455.0</ele><time>2026-04-03T14:40:22.002Z</time></trkpt><trkpt lat="42.915422312974236" lon="11.797901764086998"><ele>455.0</ele><time>2026-04-03T14:40:23.002Z</time></trkpt><trkpt lat="42.91524890509372" lon="11.79797897931058"><ele>455.0</ele><time>2026-04-03T14:40:24.002Z</time></trkpt><trkpt lat="42.915076960577245" lon="11.79803350064208"><ele>455.0</ele><time>2026-04-03T14:40:25.002Z</time></trkpt><trkpt lat="42.9148987371883" lon="11.798050877874738"><ele>457.66666666666663</ele><time>2026-04-03T14:40:26.002Z</time></trkpt><trkpt lat="42.91471901872667" lon="11.797995216900986"><ele>460.33333333333337</ele><time>2026-04-03T14:40:27.002Z</time></trkpt><trkpt lat="42.914542397975595" lon="11.797892592510022"><ele>463.0</ele><time>2026-04-03T14:40:28.002Z</time></trkpt><trkpt lat="42.91437833416897" lon="11.797757955178893"><ele>467.33333333333337</ele><time>2026-04-03T14:40:29.002Z</time></trkpt><trkpt lat="42.914226895601594" lon="11.79762531964284"><ele>471.66666666666663</ele><time>2026-04-03T14:40:30.002Z</time></trkpt><trkpt lat="42.91407011777799" lon="11.797492216116588"><ele>476.0</ele><time>2026-04-03T14:40:31.002Z</time></trkpt><trkpt lat="42.91391850772202" lon="11.797369797285251"><ele>476.0</ele><time>2026-04-03T14:40:32.002Z</time></trkpt><trkpt lat="42.91376877903435" lon="11.797275367042506"><ele>476.0</ele><time>2026-04-03T14:40:33.002Z</time></trkpt><trkpt lat="42.91362027842832" lon="11.797220254520102"><ele>476.0</ele><time>2026-04-03T14:40:34.002Z</time></trkpt><trkpt lat="42.91346968335928" lon="11.797209341824113"><ele>476.0</ele><time>2026-04-03T14:40:35.002Z</time></trkpt><trkpt lat="42.91331736763583" lon="11.797241732263801"><ele>476.0</ele><time>2026-04-03T14:40:36.002Z</time></trkpt><trkpt lat="42.91316702601303" lon="11.797305173018982"><ele>476.0</ele><time>2026-04-03T14:40:37.002Z</time></trkpt><trkpt lat="42.91302154900543" lon="11.797388337090585"><ele>476.0</ele><time>2026-04-03T14:40:38.002Z</time></trkpt><trkpt lat="42.912886073079534" lon="11.797460810712709"><ele>476.0</ele><time>2026-04-03T14:40:39.002Z</time></trkpt><trkpt lat="42.912745669968416" lon="11.797475362063361"><ele>476.0</ele><time>2026-04-03T14:40:40.002Z</time></trkpt><trkpt lat="42.912596148606504" lon="11.797450398374533"><ele>476.0</ele><time>2026-04-03T14:40:41.002Z</time></trkpt><trkpt lat="42.91246787498618" lon="11.797358423255398"><ele>476.0</ele><time>2026-04-03T14:40:42.002Z</time></trkpt><trkpt lat="42.91235850680911" lon="11.797250147843783"><ele>476.0</ele><time>2026-04-03T14:40:43.002Z</time></trkpt><trkpt lat="42.912259215152496" lon="11.797143617264195"><ele>476.0</ele><time>2026-04-03T14:40:44.002Z</time></trkpt><trkpt lat="42.9121609363234" lon="11.79704696017438"><ele>476.0</ele><time>2026-04-03T14:40:45.002Z</time></trkpt><trkpt lat="42.912066778534935" lon="11.796963627625365"><ele>476.0</ele><time>2026-04-03T14:40:46.002Z</time></trkpt><trkpt lat="42.9119749158777" lon="11.796906914721582"><ele>476.0</ele><time>2026-04-03T14:40:47.002Z</time></trkpt><trkpt lat="42.911881095375264" lon="11.796870134904003"><ele>476.0</ele><time>2026-04-03T14:40:48.003Z</time></trkpt><trkpt lat="42.91178417999123" lon="11.796871776634767"><ele>476.0</ele><time>2026-04-03T14:40:49.003Z</time></trkpt><trkpt lat="42.911696555138214" lon="11.796910739401813"><ele>476.0</ele><time>2026-04-03T14:40:50.003Z</time></trkpt><trkpt lat="42.911627269526825" lon="11.7969738696121"><ele>477.4</ele><time>2026-04-03T14:40:51.003Z</time></trkpt><trkpt lat="42.911565938170476" lon="11.797057009989206"><ele>478.8</ele><time>2026-04-03T14:40:52Z</time></trkpt><trkpt lat="42.911507364316385" lon="11.797172541925853"><ele>480.19999999999993</ele><time>2026-04-03T14:40:53Z</time></trkpt><trkpt lat="42.911439769054155" lon="11.797295800926797"><ele>481.59999999999997</ele><time>2026-04-03T14:40:54Z</time></trkpt><trkpt lat="42.91135809163457" lon="11.797401092651274"><ele>483.0</ele><time>2026-04-03T14:40:55Z</time></trkpt><trkpt lat="42.91126275168806" lon="11.797465011687722"><ele>483.0</ele><time>2026-04-03T14:40:56Z</time></trkpt><trkpt lat="42.911148883298544" lon="11.797472443887807"><ele>483.0</ele><time>2026-04-03T14:40:57Z</time></trkpt><trkpt lat="42.911039011280366" lon="11.797408698542926"><ele>483.0</ele><time>2026-04-03T14:40:58Z</time></trkpt><trkpt lat="42.91094844845366" lon="11.797283504833468"><ele>483.0</ele><time>2026-04-03T14:40:59Z</time></trkpt><trkpt lat="42.910877463791394" lon="11.797119084890252"><ele>484.5</ele><time>2026-04-03T14:41:00Z</time></trkpt><trkpt lat="42.91080392486243" lon="11.79696338546389"><ele>486.0</ele><time>2026-04-03T14:41:01Z</time></trkpt><trkpt lat="42.91071457170346" lon="11.796806416836114"><ele>487.5</ele><time>2026-04-03T14:41:02Z</time></trkpt><trkpt lat="42.91060428473083" lon="11.796666670308813"><ele>489.0</ele><time>2026-04-03T14:41:03Z</time></trkpt><trkpt lat="42.91048104651963" lon="11.796534671609878"><ele>489.0</ele><time>2026-04-03T14:41:04Z</time></trkpt><trkpt lat="42.91034668854417" lon="11.796416419591989"><ele>489.0</ele><time>2026-04-03T14:41:05Z</time></trkpt><trkpt lat="42.91021004500808" lon="11.796309784842496"><ele>489.0</ele><time>2026-04-03T14:41:06Z</time></trkpt><trkpt lat="42.91007482348079" lon="11.796189732188505"><ele>491.0</ele><time>2026-04-03T14:41:07Z</time></trkpt><trkpt lat="42.90994067826169" lon="11.796039178830528"><ele>493.0</ele><time>2026-04-03T14:41:08Z</time></trkpt><trkpt lat="42.90981957510361" lon="11.79586799251736"><ele>495.0</ele><time>2026-04-03T14:41:09Z</time></trkpt><trkpt lat="42.909712300735045" lon="11.795673831076034"><ele>495.0</ele><time>2026-04-03T14:41:10Z</time></trkpt><trkpt lat="42.90961855050076" lon="11.79547607430944"><ele>495.0</ele><time>2026-04-03T14:41:11Z</time></trkpt><trkpt lat="42.90953119749583" lon="11.795297632479185"><ele>495.0</ele><time>2026-04-03T14:41:12Z</time></trkpt><trkpt lat="42.90944867620359" lon="11.795142572669569"><ele>494.0</ele><time>2026-04-03T14:41:13Z</time></trkpt><trkpt lat="42.90935472560271" lon="11.795033638408997"><ele>493.0</ele><time>2026-04-03T14:41:14Z</time></trkpt><trkpt lat="42.90925509240305" lon="11.794978521211608"><ele>492.0</ele><time>2026-04-03T14:41:15Z</time></trkpt><trkpt lat="42.90915306282507" lon="11.794980369249148"><ele>491.0</ele><time>2026-04-03T14:41:16Z</time></trkpt><trkpt lat="42.90905929327696" lon="11.795038821852666"><ele>490.0</ele><time>2026-04-03T14:41:17Z</time></trkpt><trkpt lat="42.9089917386128" lon="11.79516225634305"><ele>497.75</ele><time>2026-04-03T14:41:18Z</time></trkpt><trkpt lat="42.90895563945382" lon="11.795314082572027"><ele>505.5</ele><time>2026-04-03T14:41:19Z</time></trkpt><trkpt lat="42.908984922519885" lon="11.795480901090599"><ele>513.25</ele><time>2026-04-03T14:41:20Z</time></trkpt><trkpt lat="42.90904743424292" lon="11.795637060003802"><ele>521.0</ele><time>2026-04-03T14:41:21Z</time></trkpt><trkpt lat="42.909148707748194" lon="11.795778882926154"><ele>518.5</ele><time>2026-04-03T14:41:22Z</time></trkpt><trkpt lat="42.9092589118047" lon="11.795922399660656"><ele>516.0</ele><time>2026-04-03T14:41:23.001Z</time></trkpt><trkpt lat="42.90934418096074" lon="11.796092275466322"><ele>513.5</ele><time>2026-04-03T14:41:24.001Z</time></trkpt><trkpt lat="42.90941853061031" lon="11.796264166435632"><ele>511.0</ele><time>2026-04-03T14:41:25.001Z</time></trkpt><trkpt lat="42.90947401434483" lon="11.79645030327602"><ele>511.0</ele><time>2026-04-03T14:41:26.001Z</time></trkpt><trkpt lat="42.90952063592913" lon="11.796646710372901"><ele>511.0</ele><time>2026-04-03T14:41:27.001Z</time></trkpt><trkpt lat="42.90956061704953" lon="11.79684507421"><ele>511.0</ele><time>2026-04-03T14:41:28.001Z</time></trkpt><trkpt lat="42.90960626569904" lon="11.797038053895633"><ele>514.0</ele><time>2026-04-03T14:41:29.001Z</time></trkpt><trkpt lat="42.909666671325745" lon="11.797226437531908"><ele>517.0</ele><time>2026-04-03T14:41:30.001Z</time></trkpt><trkpt lat="42.9097338091774" lon="11.797396555186243"><ele>520.0</ele><time>2026-04-03T14:41:31.001Z</time></trkpt><trkpt lat="42.90982254536855" lon="11.79754754505556"><ele>523.0</ele><time>2026-04-03T14:41:32.001Z</time></trkpt><trkpt lat="42.9099141456081" lon="11.797682885880414"><ele>525.75</ele><time>2026-04-03T14:41:33.001Z</time></trkpt><trkpt lat="42.90999351033581" lon="11.797797681953472"><ele>528.5</ele><time>2026-04-03T14:41:34.001Z</time></trkpt><trkpt lat="42.91004256711043" lon="11.797943519842987"><ele>531.25</ele><time>2026-04-03T14:41:35.001Z</time></trkpt><trkpt lat="42.91004561471537" lon="11.798124582790274"><ele>534.0</ele><time>2026-04-03T14:41:36.001Z</time></trkpt><trkpt lat="42.91005967573445" lon="11.79830878062177"><ele>532.25</ele><time>2026-04-03T14:41:37.001Z</time></trkpt><trkpt lat="42.91008733054565" lon="11.798491850068055"><ele>530.5</ele><time>2026-04-03T14:41:38.001Z</time></trkpt><trkpt lat="42.91013312728672" lon="11.798668638369518"><ele>528.75</ele><time>2026-04-03T14:41:39.001Z</time></trkpt><trkpt lat="42.91022217059505" lon="11.798815351855408"><ele>527.0</ele><time>2026-04-03T14:41:40.001Z</time></trkpt><trkpt lat="42.9103365215131" lon="11.79893672986634"><ele>527.0</ele><time>2026-04-03T14:41:41.001Z</time></trkpt><trkpt lat="42.910448355908855" lon="11.799060261183653"><ele>527.0</ele><time>2026-04-03T14:41:42.001Z</time></trkpt><trkpt lat="42.91051870619929" lon="11.799219467355991"><ele>527.0</ele><time>2026-04-03T14:41:43.001Z</time></trkpt><trkpt lat="42.91057356857529" lon="11.79939376418147"><ele>527.0</ele><time>2026-04-03T14:41:44.001Z</time></trkpt><trkpt lat="42.910650385127695" lon="11.799548909767918"><ele>524.25</ele><time>2026-04-03T14:41:45.001Z</time></trkpt><trkpt lat="42.91074640461429" lon="11.799669859139025"><ele>521.5</ele><time>2026-04-03T14:41:46.001Z</time></trkpt><trkpt lat="42.91085249039425" lon="11.799787503473524"><ele>518.75</ele><time>2026-04-03T14:41:47.001Z</time></trkpt><trkpt lat="42.91093786363019" lon="11.79992158713572"><ele>516.0</ele><time>2026-04-03T14:41:48.001Z</time></trkpt><trkpt lat="42.91101091538683" lon="11.800069742516287"><ele>518.75</ele><time>2026-04-03T14:41:49.001Z</time></trkpt><trkpt lat="42.91104956047487" lon="11.800254636567471"><ele>521.5</ele><time>2026-04-03T14:41:50.001Z</time></trkpt><trkpt lat="42.911078587116975" lon="11.800455624348306"><ele>524.25</ele><time>2026-04-03T14:41:51.001Z</time></trkpt><trkpt lat="42.91110773523475" lon="11.800658354322492"><ele>527.0</ele><time>2026-04-03T14:41:52.001Z</time></trkpt><trkpt lat="42.91117071684365" lon="11.80085478503566"><ele>530.5</ele><time>2026-04-03T14:41:53.001Z</time></trkpt><trkpt lat="42.91127131243074" lon="11.801026812689104"><ele>534.0</ele><time>2026-04-03T14:41:54.001Z</time></trkpt><trkpt lat="42.911377719839244" lon="11.80117706461999"><ele>537.5</ele><time>2026-04-03T14:41:55.001Z</time></trkpt><trkpt lat="42.91143163301186" lon="11.801342940320387"><ele>541.0</ele><time>2026-04-03T14:41:56.001Z</time></trkpt><trkpt lat="42.91143867138284" lon="11.801527222400772"><ele>541.0</ele><time>2026-04-03T14:41:57.001Z</time></trkpt><trkpt lat="42.91140831121847" lon="11.801727081774201"><ele>541.0</ele><time>2026-04-03T14:41:58.001Z</time></trkpt><trkpt lat="42.91134620945086" lon="11.80193219657458"><ele>541.0</ele><time>2026-04-03T14:41:59.001Z</time></trkpt><trkpt lat="42.91127662482025" lon="11.802138940516187"><ele>540.0</ele><time>2026-04-03T14:42:00.001Z</time></trkpt><trkpt lat="42.911211554228466" lon="11.802337873831783"><ele>539.0</ele><time>2026-04-03T14:42:01.001Z</time></trkpt><trkpt lat="42.911149739928895" lon="11.802515651543859"><ele>538.0</ele><time>2026-04-03T14:42:02.001Z</time></trkpt><trkpt lat="42.91106957863189" lon="11.802674221599677"><ele>537.0</ele><time>2026-04-03T14:42:03.001Z</time></trkpt><trkpt lat="42.910965686345754" lon="11.802812014344948"><ele>539.75</ele><time>2026-04-03T14:42:04.001Z</time></trkpt><trkpt lat="42.910841179361626" lon="11.802918967622084"><ele>542.5</ele><time>2026-04-03T14:42:05.001Z</time></trkpt><trkpt lat="42.91069980367487" lon="11.802987925837519"><ele>545.25</ele><time>2026-04-03T14:42:06.001Z</time></trkpt><trkpt lat="42.91055789423005" lon="11.803030833355809"><ele>548.0</ele><time>2026-04-03T14:42:07.001Z</time></trkpt><trkpt lat="42.91040721304623" lon="11.803079174185761"><ele>548.0</ele><time>2026-04-03T14:42:08.001Z</time></trkpt><trkpt lat="42.91025652990259" lon="11.803102544754749"><ele>548.0</ele><time>2026-04-03T14:42:09.001Z</time></trkpt><trkpt lat="42.91011837559466" lon="11.803115457800871"><ele>548.0</ele><time>2026-04-03T14:42:10.001Z</time></trkpt><trkpt lat="42.90996632021787" lon="11.803177902382677"><ele>548.0</ele><time>2026-04-03T14:42:11.001Z</time></trkpt><trkpt lat="42.9097922290413" lon="11.803204619724582"><ele>551.3333333333333</ele><time>2026-04-03T14:42:12.001Z</time></trkpt><trkpt lat="42.90963993208924" lon="11.803257203798019"><ele>554.6666666666666</ele><time>2026-04-03T14:42:13.001Z</time></trkpt><trkpt lat="42.909504561084326" lon="11.803347403558414"><ele>558.0</ele><time>2026-04-03T14:42:14.001Z</time></trkpt><trkpt lat="42.90936471444822" lon="11.80343145452786"><ele>559.0</ele><time>2026-04-03T14:42:15.001Z</time></trkpt><trkpt lat="42.90921444321843" lon="11.803503794256928"><ele>560.0</ele><time>2026-04-03T14:42:16.001Z</time></trkpt><trkpt lat="42.909053314257704" lon="11.80352587428836"><ele>561.0</ele><time>2026-04-03T14:42:17.001Z</time></trkpt><trkpt lat="42.90889239317912" lon="11.803504518194599"><ele>564.0</ele><time>2026-04-03T14:42:18.002Z</time></trkpt><trkpt lat="42.908726810265115" lon="11.803439316288832"><ele>567.0</ele><time>2026-04-03T14:42:19.002Z</time></trkpt><trkpt lat="42.90857215737408" lon="11.803354021844028"><ele>570.0</ele><time>2026-04-03T14:42:20.002Z</time></trkpt><trkpt lat="42.90841786396285" lon="11.803266127581608"><ele>570.6666666666666</ele><time>2026-04-03T14:42:21.002Z</time></trkpt><trkpt lat="42.908258670724905" lon="11.803199063495535"><ele>571.3333333333333</ele><time>2026-04-03T14:42:22.002Z</time></trkpt><trkpt lat="42.908100003602016" lon="11.803122761514478"><ele>572.0</ele><time>2026-04-03T14:42:23.002Z</time></trkpt><trkpt lat="42.90793886100382" lon="11.803041900559679"><ele>572.0</ele><time>2026-04-03T14:42:24.002Z</time></trkpt><trkpt lat="42.90777840009657" lon="11.802961132580249"><ele>572.0</ele><time>2026-04-03T14:42:25.002Z</time></trkpt><trkpt lat="42.90761210326849" lon="11.802889809197707"><ele>572.0</ele><time>2026-04-03T14:42:26.002Z</time></trkpt><trkpt lat="42.907454460995964" lon="11.802815568079971"><ele>570.3333333333333</ele><time>2026-04-03T14:42:27.002Z</time></trkpt><trkpt lat="42.90731381991108" lon="11.802752039789217"><ele>568.6666666666666</ele><time>2026-04-03T14:42:28.002Z</time></trkpt><trkpt lat="42.90716781427063" lon="11.802693521403295"><ele>567.0</ele><time>2026-04-03T14:42:29.002Z</time></trkpt><trkpt lat="42.90701795894541" lon="11.802634751095502"><ele>569.6666666666666</ele><time>2026-04-03T14:42:30.002Z</time></trkpt><trkpt lat="42.90686574556883" lon="11.802566870099831"><ele>572.3333333333333</ele><time>2026-04-03T14:42:31.002Z</time></trkpt><trkpt lat="42.90671342210539" lon="11.802481226785048"><ele>575.0</ele><time>2026-04-03T14:42:32.002Z</time></trkpt><trkpt lat="42.90655672218048" lon="11.802399474328753"><ele>575.0</ele><time>2026-04-03T14:42:33.002Z</time></trkpt><trkpt lat="42.90640600004891" lon="11.802314937781684"><ele>575.0</ele><time>2026-04-03T14:42:34.002Z</time></trkpt><trkpt lat="42.90625588201158" lon="11.802220264067163"><ele>575.0</ele><time>2026-04-03T14:42:35.002Z</time></trkpt><trkpt lat="42.906103585080466" lon="11.802135341895355"><ele>575.0</ele><time>2026-04-03T14:42:36.002Z</time></trkpt><trkpt lat="42.90595137688883" lon="11.802053131817669"><ele>575.0</ele><time>2026-04-03T14:42:37.002Z</time></trkpt><trkpt lat="42.905793402895746" lon="11.8019769185392"><ele>575.0</ele><time>2026-04-03T14:42:38.002Z</time></trkpt><trkpt lat="42.9056338425605" lon="11.801906139239556"><ele>576.0</ele><time>2026-04-03T14:42:39.002Z</time></trkpt><trkpt lat="42.90547335088221" lon="11.801837587555584"><ele>577.0</ele><time>2026-04-03T14:42:40.002Z</time></trkpt><trkpt lat="42.905309264278706" lon="11.801802488952728"><ele>578.0</ele><time>2026-04-03T14:42:41.002Z</time></trkpt><trkpt lat="42.90515691016396" lon="11.801813095976692"><ele>578.5</ele><time>2026-04-03T14:42:42.002Z</time></trkpt><trkpt lat="42.90501540733687" lon="11.801840621711435"><ele>579.0</ele><time>2026-04-03T14:42:43.002Z</time></trkpt><trkpt lat="42.90488400278607" lon="11.801907371757896"><ele>579.5</ele><time>2026-04-03T14:42:44.002Z</time></trkpt><trkpt lat="42.90475331664764" lon="11.801978406270095"><ele>580.0</ele><time>2026-04-03T14:42:45.002Z</time></trkpt><trkpt lat="42.9046073805017" lon="11.802038980985301"><ele>580.0</ele><time>2026-04-03T14:42:46.002Z</time></trkpt><trkpt lat="42.90445844729679" lon="11.80208923607855"><ele>580.0</ele><time>2026-04-03T14:42:47.002Z</time></trkpt><trkpt lat="42.9043007461601" lon="11.80210887967896"><ele>580.0</ele><time>2026-04-03T14:42:48.002Z</time></trkpt><trkpt lat="42.904135205132924" lon="11.802107958952238"><ele>581.0</ele><time>2026-04-03T14:42:49.002Z</time></trkpt><trkpt lat="42.90397074861605" lon="11.802080610978361"><ele>582.0</ele><time>2026-04-03T14:42:50.002Z</time></trkpt><trkpt lat="42.90380379227361" lon="11.802018945253312"><ele>583.0</ele><time>2026-04-03T14:42:51.002Z</time></trkpt><trkpt lat="42.903630491843856" lon="11.801948450876502"><ele>583.0</ele><time>2026-04-03T14:42:52.002Z</time></trkpt><trkpt lat="42.903452840265786" lon="11.80187775243335"><ele>583.0</ele><time>2026-04-03T14:42:53.002Z</time></trkpt><trkpt lat="42.90327608045451" lon="11.801813503071404"><ele>583.0</ele><time>2026-04-03T14:42:54.002Z</time></trkpt><trkpt lat="42.90309531636876" lon="11.80175421913104"><ele>585.6666666666667</ele><time>2026-04-03T14:42:55.002Z</time></trkpt><trkpt lat="42.90292718538442" lon="11.801697421602848"><ele>588.3333333333334</ele><time>2026-04-03T14:42:56.002Z</time></trkpt><trkpt lat="42.90277595669741" lon="11.801624460234372"><ele>591.0</ele><time>2026-04-03T14:42:57.002Z</time></trkpt><trkpt lat="42.90263220230776" lon="11.801530311647223"><ele>591.0</ele><time>2026-04-03T14:42:58Z</time></trkpt><trkpt lat="42.90249200668538" lon="11.80139983029749"><ele>591.0</ele><time>2026-04-03T14:42:59Z</time></trkpt><trkpt lat="42.90236409599552" lon="11.801241108481394"><ele>591.0</ele><time>2026-04-03T14:43:00Z</time></trkpt><trkpt lat="42.9022538481018" lon="11.80104939348676"><ele>592.6666666666666</ele><time>2026-04-03T14:43:01Z</time></trkpt><trkpt lat="42.90214431036587" lon="11.800840632913973"><ele>594.3333333333333</ele><time>2026-04-03T14:43:02Z</time></trkpt><trkpt lat="42.902027483166556" lon="11.800639727748957"><ele>596.0</ele><time>2026-04-03T14:43:03Z</time></trkpt><trkpt lat="42.901902437290325" lon="11.800457474622869"><ele>596.0</ele><time>2026-04-03T14:43:04Z</time></trkpt><trkpt lat="42.90178130838163" lon="11.800296214928832"><ele>596.0</ele><time>2026-04-03T14:43:05.001Z</time></trkpt><trkpt lat="42.90165263431129" lon="11.80016938516219"><ele>596.0</ele><time>2026-04-03T14:43:06.001Z</time></trkpt><trkpt lat="42.90150886668547" lon="11.800065619445729"><ele>597.6666666666666</ele><time>2026-04-03T14:43:07Z</time></trkpt><trkpt lat="42.90135206348349" lon="11.799983381891634"><ele>599.3333333333334</ele><time>2026-04-03T14:43:08Z</time></trkpt><trkpt lat="42.90118742378618" lon="11.799939931360136"><ele>601.0</ele><time>2026-04-03T14:43:09Z</time></trkpt><trkpt lat="42.90102043814769" lon="11.799920245545591"><ele>600.6666666666667</ele><time>2026-04-03T14:43:10Z</time></trkpt><trkpt lat="42.900851535797656" lon="11.799918387044725"><ele>600.3333333333334</ele><time>2026-04-03T14:43:11Z</time></trkpt><trkpt lat="42.90069077502508" lon="11.799917948096692"><ele>600.0</ele><time>2026-04-03T14:43:12Z</time></trkpt><trkpt lat="42.90053710038953" lon="11.799909436998872"><ele>600.0</ele><time>2026-04-03T14:43:13Z</time></trkpt><trkpt lat="42.9003910019602" lon="11.79988482895837"><ele>600.0</ele><time>2026-04-03T14:43:14Z</time></trkpt><trkpt lat="42.90024779589936" lon="11.799829574821967"><ele>600.0</ele><time>2026-04-03T14:43:15Z</time></trkpt><trkpt lat="42.90011770047862" lon="11.79973318091182"><ele>600.0</ele><time>2026-04-03T14:43:16Z</time></trkpt><trkpt lat="42.90002191576022" lon="11.799612872789572"><ele>600.75</ele><time>2026-04-03T14:43:17Z</time></trkpt><trkpt lat="42.89995838596576" lon="11.799484646714783"><ele>601.5</ele><time>2026-04-03T14:43:18Z</time></trkpt><trkpt lat="42.89988444201478" lon="11.799377138221024"><ele>602.25</ele><time>2026-04-03T14:43:19Z</time></trkpt><trkpt lat="42.89980879096188" lon="11.799248958156214"><ele>603.0</ele><time>2026-04-03T14:43:20Z</time></trkpt><trkpt lat="42.89971679002964" lon="11.799121749124609"><ele>603.75</ele><time>2026-04-03T14:43:21Z</time></trkpt><trkpt lat="42.899610976930695" lon="11.7989928583892"><ele>604.5</ele><time>2026-04-03T14:43:22Z</time></trkpt><trkpt lat="42.899494368752165" lon="11.798880930415955"><ele>605.25</ele><time>2026-04-03T14:43:23Z</time></trkpt><trkpt lat="42.89937295672544" lon="11.798776158058692"><ele>606.0</ele><time>2026-04-03T14:43:24Z</time></trkpt><trkpt lat="42.89925047267446" lon="11.798669336971358"><ele>606.0</ele><time>2026-04-03T14:43:25Z</time></trkpt><trkpt lat="42.899129535945356" lon="11.798555770947429"><ele>606.0</ele><time>2026-04-03T14:43:26Z</time></trkpt><trkpt lat="42.89900652160104" lon="11.798440444485154"><ele>606.0</ele><time>2026-04-03T14:43:27Z</time></trkpt><trkpt lat="42.89888221342936" lon="11.798321231973317"><ele>606.0</ele><time>2026-04-03T14:43:28Z</time></trkpt><trkpt lat="42.898755752161286" lon="11.798201179962327"><ele>607.6666666666666</ele><time>2026-04-03T14:43:29Z</time></trkpt><trkpt lat="42.898621481697525" lon="11.798083664031141"><ele>609.3333333333333</ele><time>2026-04-03T14:43:30Z</time></trkpt><trkpt lat="42.898482112822286" lon="11.797961885641387"><ele>611.0</ele><time>2026-04-03T14:43:31.001Z</time></trkpt><trkpt lat="42.898339006738546" lon="11.797831294966292"><ele>611.0</ele><time>2026-04-03T14:43:32.001Z</time></trkpt><trkpt lat="42.89819414309637" lon="11.79770034180473"><ele>611.0</ele><time>2026-04-03T14:43:33.001Z</time></trkpt><trkpt lat="42.89804738311696" lon="11.79756978406208"><ele>611.0</ele><time>2026-04-03T14:43:34.001Z</time></trkpt><trkpt lat="42.89790437875047" lon="11.797437323435862"><ele>612.3333333333333</ele><time>2026-04-03T14:43:35.001Z</time></trkpt><trkpt lat="42.8977752681283" lon="11.797306112827952"><ele>613.6666666666666</ele><time>2026-04-03T14:43:36.001Z</time></trkpt><trkpt lat="42.89767057582253" lon="11.797162036750164"><ele>615.0</ele><time>2026-04-03T14:43:37.001Z</time></trkpt><trkpt lat="42.89758709768916" lon="11.796977111094685"><ele>615.6666666666666</ele><time>2026-04-03T14:43:38.001Z</time></trkpt><trkpt lat="42.89752723329045" lon="11.796770198139972"><ele>616.3333333333333</ele><time>2026-04-03T14:43:39.001Z</time></trkpt><trkpt lat="42.89748327393419" lon="11.796545796622329"><ele>617.0</ele><time>2026-04-03T14:43:40.001Z</time></trkpt><trkpt lat="42.897446405963144" lon="11.79631933869614"><ele>617.0</ele><time>2026-04-03T14:43:41.001Z</time></trkpt><trkpt lat="42.89741000074759" lon="11.796089155692552"><ele>617.0</ele><time>2026-04-03T14:43:42.001Z</time></trkpt><trkpt lat="42.89736715121308" lon="11.79586633615631"><ele>617.0</ele><time>2026-04-03T14:43:43.001Z</time></trkpt><trkpt lat="42.897325380815786" lon="11.79564711857185"><ele>618.25</ele><time>2026-04-03T14:43:44.001Z</time></trkpt><trkpt lat="42.897295077566824" lon="11.79544082195365"><ele>619.5</ele><time>2026-04-03T14:43:45.001Z</time></trkpt><trkpt lat="42.89729436097815" lon="11.79526013634857"><ele>620.75</ele><time>2026-04-03T14:43:46.001Z</time></trkpt><trkpt lat="42.89735663384138" lon="11.795109513469416"><ele>622.0</ele><time>2026-04-03T14:43:47.001Z</time></trkpt><trkpt lat="42.897463466683725" lon="11.794997344293915"><ele>625.0</ele><time>2026-04-03T14:43:48.001Z</time></trkpt><trkpt lat="42.89760853389133" lon="11.794951679559842"><ele>628.0</ele><time>2026-04-03T14:43:49.001Z</time></trkpt><trkpt lat="42.897757203675184" lon="11.794924090826"><ele>631.0</ele><time>2026-04-03T14:43:50.001Z</time></trkpt><trkpt lat="42.897842113053045" lon="11.794812930473574"><ele>634.0</ele><time>2026-04-03T14:43:51.001Z</time></trkpt><trkpt lat="42.89801986312708" lon="11.794778816952785"><ele>634.0</ele><time>2026-04-03T14:43:52.001Z</time></trkpt><trkpt lat="42.89819277262214" lon="11.794734573168421"><ele>634.0</ele><time>2026-04-03T14:43:53.001Z</time></trkpt><trkpt lat="42.89835683410186" lon="11.794681860813942"><ele>634.0</ele><time>2026-04-03T14:43:54.001Z</time></trkpt><trkpt lat="42.89850514030812" lon="11.794630816820215"><ele>635.3333333333334</ele><time>2026-04-03T14:43:55.001Z</time></trkpt><trkpt lat="42.89863446678342" lon="11.794528982892716"><ele>636.6666666666666</ele><time>2026-04-03T14:43:56.001Z</time></trkpt><trkpt lat="42.898727252405656" lon="11.794365530470136"><ele>638.0</ele><time>2026-04-03T14:43:57.001Z</time></trkpt><trkpt lat="42.89877012005445" lon="11.794157526021202"><ele>640.3333333333333</ele><time>2026-04-03T14:43:58.001Z</time></trkpt><trkpt lat="42.898765094743865" lon="11.79393492732445"><ele>642.6666666666666</ele><time>2026-04-03T14:43:59.001Z</time></trkpt><trkpt lat="42.89869260097216" lon="11.79371044770296"><ele>645.0</ele><time>2026-04-03T14:44:00.001Z</time></trkpt><trkpt lat="42.89857945012541" lon="11.793511880315775"><ele>645.0</ele><time>2026-04-03T14:44:01.001Z</time></trkpt><trkpt lat="42.89845919760676" lon="11.793312315877246"><ele>645.0</ele><time>2026-04-03T14:44:02.001Z</time></trkpt><trkpt lat="42.89835123604366" lon="11.793098915040948"><ele>645.0</ele><time>2026-04-03T14:44:03.001Z</time></trkpt><trkpt lat="42.89824958853988" lon="11.792875484090402"><ele>646.6666666666666</ele><time>2026-04-03T14:44:04.001Z</time></trkpt><trkpt lat="42.898142986197946" lon="11.792653503500704"><ele>648.3333333333333</ele><time>2026-04-03T14:44:05.001Z</time></trkpt><trkpt lat="42.89803195744681" lon="11.792435659353938"><ele>650.0</ele><time>2026-04-03T14:44:06.001Z</time></trkpt><trkpt lat="42.89792301106461" lon="11.792216489139808"><ele>650.0</ele><time>2026-04-03T14:44:07.001Z</time></trkpt><trkpt lat="42.8978225767386" lon="11.791999157691265"><ele>650.0</ele><time>2026-04-03T14:44:08.001Z</time></trkpt><trkpt lat="42.89772918665585" lon="11.79178562339626"><ele>650.0</ele><time>2026-04-03T14:44:09.001Z</time></trkpt><trkpt lat="42.89765487288662" lon="11.791568798772023"><ele>651.3333333333333</ele><time>2026-04-03T14:44:10.001Z</time></trkpt><trkpt lat="42.89761922537958" lon="11.791332080084125"><ele>652.6666666666666</ele><time>2026-04-03T14:44:11.001Z</time></trkpt><trkpt lat="42.89761198884062" lon="11.791092096141142"><ele>654.0</ele><time>2026-04-03T14:44:12.001Z</time></trkpt><trkpt lat="42.897618254375324" lon="11.790843788815064"><ele>658.0</ele><time>2026-04-03T14:44:13.001Z</time></trkpt><trkpt lat="42.89756731003435" lon="11.790616240719777"><ele>662.0</ele><time>2026-04-03T14:44:14.001Z</time></trkpt><trkpt lat="42.897515508754" lon="11.790389138459226"><ele>666.0</ele><time>2026-04-03T14:44:15.001Z</time></trkpt><trkpt lat="42.89746041751332" lon="11.790150270923899"><ele>666.6666666666666</ele><time>2026-04-03T14:44:16.001Z</time></trkpt><trkpt lat="42.89740885941725" lon="11.78991186046348"><ele>667.3333333333333</ele><time>2026-04-03T14:44:17.001Z</time></trkpt><trkpt lat="42.89735576087068" lon="11.789672105957834"><ele>668.0</ele><time>2026-04-03T14:44:18.001Z</time></trkpt><trkpt lat="42.89729842666144" lon="11.789439513868023"><ele>668.0</ele><time>2026-04-03T14:44:19.001Z</time></trkpt><trkpt lat="42.89723220067101" lon="11.789218906235414"><ele>668.0</ele><time>2026-04-03T14:44:20.001Z</time></trkpt><trkpt lat="42.89714342472118" lon="11.789010951970216"><ele>668.0</ele><time>2026-04-03T14:44:21.001Z</time></trkpt><trkpt lat="42.89703091535099" lon="11.788820212988377"><ele>668.0</ele><time>2026-04-03T14:44:22.001Z</time></trkpt><trkpt lat="42.89692150685219" lon="11.788628224452768"><ele>668.0</ele><time>2026-04-03T14:44:23.001Z</time></trkpt><trkpt lat="42.89680569514462" lon="11.788432425990981"><ele>668.0</ele><time>2026-04-03T14:44:24.002Z</time></trkpt><trkpt lat="42.896684284061806" lon="11.788226463790476"><ele>669.3333333333333</ele><time>2026-04-03T14:44:25.002Z</time></trkpt><trkpt lat="42.896564108011745" lon="11.788021691291215"><ele>670.6666666666666</ele><time>2026-04-03T14:44:26.002Z</time></trkpt><trkpt lat="42.896445608272444" lon="11.787848133737702"><ele>672.0</ele><time>2026-04-03T14:44:27.002Z</time></trkpt><trkpt lat="42.89633890724222" lon="11.787674060565266"><ele>669.3333333333334</ele><time>2026-04-03T14:44:28.002Z</time></trkpt><trkpt lat="42.89622168783255" lon="11.787506983454563"><ele>666.6666666666667</ele><time>2026-04-03T14:44:29.002Z</time></trkpt><trkpt lat="42.8960791089135" lon="11.78734074501532"><ele>664.0</ele><time>2026-04-03T14:44:30.002Z</time></trkpt><trkpt lat="42.89592034587207" lon="11.78717951574767"><ele>664.3333333333334</ele><time>2026-04-03T14:44:31.002Z</time></trkpt><trkpt lat="42.89575374158023" lon="11.787021588158977"><ele>664.6666666666666</ele><time>2026-04-03T14:44:32.002Z</time></trkpt><trkpt lat="42.8956024126594" lon="11.7868307243447"><ele>665.0</ele><time>2026-04-03T14:44:33.002Z</time></trkpt><trkpt lat="42.89544865719946" lon="11.786664041674706"><ele>665.0</ele><time>2026-04-03T14:44:34.002Z</time></trkpt><trkpt lat="42.895294881757984" lon="11.786523147113638"><ele>665.0</ele><time>2026-04-03T14:44:35.002Z</time></trkpt><trkpt lat="42.89515692105096" lon="11.786371825595767"><ele>665.0</ele><time>2026-04-03T14:44:36.002Z</time></trkpt><trkpt lat="42.89502882864968" lon="11.786228240601456"><ele>664.0</ele><time>2026-04-03T14:44:37.002Z</time></trkpt><trkpt lat="42.89490126503075" lon="11.78610068255146"><ele>663.0</ele><time>2026-04-03T14:44:38.002Z</time></trkpt><trkpt lat="42.89476402017445" lon="11.785998174865101"><ele>662.0</ele><time>2026-04-03T14:44:39.002Z</time></trkpt><trkpt lat="42.89460540622487" lon="11.785924964808492"><ele>662.0</ele><time>2026-04-03T14:44:40.002Z</time></trkpt><trkpt lat="42.894436170355235" lon="11.785854692065762"><ele>662.0</ele><time>2026-04-03T14:44:41.002Z</time></trkpt><trkpt lat="42.89426029417747" lon="11.785794191492554"><ele>662.0</ele><time>2026-04-03T14:44:42.002Z</time></trkpt><trkpt lat="42.89409114945267" lon="11.785722520001011"><ele>663.6666666666666</ele><time>2026-04-03T14:44:43.002Z</time></trkpt><trkpt lat="42.89392547942081" lon="11.785665802386749"><ele>665.3333333333334</ele><time>2026-04-03T14:44:44.002Z</time></trkpt><trkpt lat="42.89377158470944" lon="11.785602704855078"><ele>667.0</ele><time>2026-04-03T14:44:45.002Z</time></trkpt><trkpt lat="42.893617358692794" lon="11.785503761608014"><ele>667.0</ele><time>2026-04-03T14:44:46.002Z</time></trkpt><trkpt lat="42.893466402153614" lon="11.785366698244076"><ele>667.0</ele><time>2026-04-03T14:44:47.002Z</time></trkpt><trkpt lat="42.89333085813692" lon="11.785196945079258"><ele>667.0</ele><time>2026-04-03T14:44:48.002Z</time></trkpt><trkpt lat="42.89321512014272" lon="11.784989449513155"><ele>664.0</ele><time>2026-04-03T14:44:49.002Z</time></trkpt><trkpt lat="42.89312352461523" lon="11.784753393318939"><ele>661.0</ele><time>2026-04-03T14:44:50.002Z</time></trkpt><trkpt lat="42.89305765696726" lon="11.78450055683492"><ele>658.0</ele><time>2026-04-03T14:44:51.002Z</time></trkpt><trkpt lat="42.89304564140076" lon="11.784236151049692"><ele>658.0</ele><time>2026-04-03T14:44:52.002Z</time></trkpt><trkpt lat="42.89304552238499" lon="11.783975622039616"><ele>658.0</ele><time>2026-04-03T14:44:53.002Z</time></trkpt><trkpt lat="42.89304823410336" lon="11.783706207131624"><ele>658.0</ele><time>2026-04-03T14:44:54.002Z</time></trkpt><trkpt lat="42.89304164161966" lon="11.783442698167176"><ele>660.6666666666667</ele><time>2026-04-03T14:44:55.002Z</time></trkpt><trkpt lat="42.89304524361086" lon="11.783180251880882"><ele>663.3333333333334</ele><time>2026-04-03T14:44:56.002Z</time></trkpt><trkpt lat="42.89304652928437" lon="11.78292629338721"><ele>666.0</ele><time>2026-04-03T14:44:57.002Z</time></trkpt><trkpt lat="42.89304952680176" lon="11.782678242055383"><ele>667.0</ele><time>2026-04-03T14:44:58.002Z</time></trkpt><trkpt lat="42.89304619981157" lon="11.782434217304955"><ele>668.0</ele><time>2026-04-03T14:44:59.002Z</time></trkpt><trkpt lat="42.893025604963185" lon="11.78219844574428"><ele>669.0</ele><time>2026-04-03T14:45:00.002Z</time></trkpt><trkpt lat="42.89298561375159" lon="11.781966355451749"><ele>670.6666666666666</ele><time>2026-04-03T14:45:01.002Z</time></trkpt><trkpt lat="42.89292666583805" lon="11.78173970202211"><ele>672.3333333333333</ele><time>2026-04-03T14:45:02.002Z</time></trkpt><trkpt lat="42.892846279802534" lon="11.781524485874616"><ele>674.0</ele><time>2026-04-03T14:45:03.002Z</time></trkpt><trkpt lat="42.89274396578366" lon="11.781323911479731"><ele>674.0</ele><time>2026-04-03T14:45:04Z</time></trkpt><trkpt lat="42.89261005259436" lon="11.781145291644926"><ele>674.0</ele><time>2026-04-03T14:45:05Z</time></trkpt><trkpt lat="42.892470805138615" lon="11.780972544502788"><ele>674.0</ele><time>2026-04-03T14:45:06Z</time></trkpt><trkpt lat="42.89233440182825" lon="11.780795556707124"><ele>676.0</ele><time>2026-04-03T14:45:07Z</time></trkpt><trkpt lat="42.89219862741467" lon="11.780611024958356"><ele>678.0</ele><time>2026-04-03T14:45:08Z</time></trkpt><trkpt lat="42.89206312240655" lon="11.780429088433932"><ele>680.0</ele><time>2026-04-03T14:45:09Z</time></trkpt><trkpt lat="42.89193120562705" lon="11.780250913694918"><ele>681.0</ele><time>2026-04-03T14:45:10Z</time></trkpt><trkpt lat="42.891820393496744" lon="11.780047467188297"><ele>682.0</ele><time>2026-04-03T14:45:11Z</time></trkpt><trkpt lat="42.89171792950705" lon="11.779832005910244"><ele>683.0</ele><time>2026-04-03T14:45:12Z</time></trkpt><trkpt lat="42.8916173928916" lon="11.779607446174538"><ele>683.0</ele><time>2026-04-03T14:45:13Z</time></trkpt><trkpt lat="42.89150730189691" lon="11.779390346081247"><ele>683.0</ele><time>2026-04-03T14:45:14Z</time></trkpt><trkpt lat="42.89140909455508" lon="11.779175428628214"><ele>683.0</ele><time>2026-04-03T14:45:15Z</time></trkpt><trkpt lat="42.89131819069838" lon="11.778976823348465"><ele>685.0</ele><time>2026-04-03T14:45:16Z</time></trkpt><trkpt lat="42.89126236750013" lon="11.778774086907747"><ele>687.0</ele><time>2026-04-03T14:45:17Z</time></trkpt><trkpt lat="42.891220507982155" lon="11.778580225615457"><ele>689.0</ele><time>2026-04-03T14:45:18Z</time></trkpt><trkpt lat="42.89121705124639" lon="11.778372217089709"><ele>691.0</ele><time>2026-04-03T14:45:19Z</time></trkpt><trkpt lat="42.891244796044525" lon="11.778155371521988"><ele>693.0</ele><time>2026-04-03T14:45:20Z</time></trkpt><trkpt lat="42.891290988621165" lon="11.777938263220378"><ele>695.0</ele><time>2026-04-03T14:45:21Z</time></trkpt><trkpt lat="42.89140903312237" lon="11.77777973838588"><ele>694.6666666666666</ele><time>2026-04-03T14:45:22Z</time></trkpt><trkpt lat="42.891529702305796" lon="11.777620683956702"><ele>694.3333333333334</ele><time>2026-04-03T14:45:23Z</time></trkpt><trkpt lat="42.891653383865986" lon="11.777455354614387"><ele>694.0</ele><time>2026-04-03T14:45:24Z</time></trkpt><trkpt lat="42.891789452208684" lon="11.777314854297943"><ele>698.3333333333334</ele><time>2026-04-03T14:45:25Z</time></trkpt><trkpt lat="42.891923549591525" lon="11.777168294949483"><ele>702.6666666666666</ele><time>2026-04-03T14:45:26Z</time></trkpt><trkpt lat="42.892047840016424" lon="11.777020774175268"><ele>707.0</ele><time>2026-04-03T14:45:27Z</time></trkpt><trkpt lat="42.89217401728065" lon="11.77686722748292"><ele>705.6666666666666</ele><time>2026-04-03T14:45:28Z</time></trkpt><trkpt lat="42.892300768060075" lon="11.776715266917785"><ele>704.3333333333334</ele><time>2026-04-03T14:45:29Z</time></trkpt><trkpt lat="42.89243233306483" lon="11.776563112263885"><ele>703.0</ele><time>2026-04-03T14:45:30Z</time></trkpt><trkpt lat="42.89256312648716" lon="11.776416613635451"><ele>706.6666666666667</ele><time>2026-04-03T14:45:31Z</time></trkpt><trkpt lat="42.89268880933568" lon="11.77626588184693"><ele>710.3333333333334</ele><time>2026-04-03T14:45:32Z</time></trkpt><trkpt lat="42.892813905862354" lon="11.776110835848604"><ele>714.0</ele><time>2026-04-03T14:45:33Z</time></trkpt><trkpt lat="42.89293845753822" lon="11.775959008575112"><ele>714.0</ele><time>2026-04-03T14:45:34Z</time></trkpt><trkpt lat="42.893068434330864" lon="11.775815808057402"><ele>714.0</ele><time>2026-04-03T14:45:35Z</time></trkpt><trkpt lat="42.89319326977683" lon="11.775678428630565"><ele>714.0</ele><time>2026-04-03T14:45:36Z</time></trkpt><trkpt lat="42.893312062896754" lon="11.775561096387635"><ele>716.75</ele><time>2026-04-03T14:45:37Z</time></trkpt><trkpt lat="42.89343740022521" lon="11.77546438751812"><ele>719.5</ele><time>2026-04-03T14:45:38Z</time></trkpt><trkpt lat="42.89355758008799" lon="11.775387018444894"><ele>722.25</ele><time>2026-04-03T14:45:39Z</time></trkpt><trkpt lat="42.89367422720871" lon="11.775309703132859"><ele>725.0</ele><time>2026-04-03T14:45:40.001Z</time></trkpt><trkpt lat="42.89379112226115" lon="11.775231738106614"><ele>723.4</ele><time>2026-04-03T14:45:41.001Z</time></trkpt><trkpt lat="42.89389090441672" lon="11.775161143590955"><ele>721.8</ele><time>2026-04-03T14:45:42.001Z</time></trkpt><trkpt lat="42.893960241335265" lon="11.775103501353092"><ele>720.2</ele><time>2026-04-03T14:45:43.001Z</time></trkpt><trkpt lat="42.89402311030287" lon="11.775082091144956"><ele>718.6</ele><time>2026-04-03T14:45:45.001Z</time></trkpt><trkpt lat="42.8939554958967" lon="11.774949561579"><ele>717.0</ele><time>2026-04-03T14:45:46.001Z</time></trkpt><trkpt lat="42.893831371367845" lon="11.774975111958948"><ele>717.0</ele><time>2026-04-03T14:45:48.001Z</time></trkpt><trkpt lat="42.89375312065618" lon="11.77502055844218"><ele>717.0</ele><time>2026-04-03T14:45:49.001Z</time></trkpt><trkpt lat="42.8936682884248" lon="11.775068626199669"><ele>717.0</ele><time>2026-04-03T14:45:50.001Z</time></trkpt><trkpt lat="42.89357461586315" lon="11.77512771341787"><ele>717.0</ele><time>2026-04-03T14:45:51.001Z</time></trkpt><trkpt lat="42.89348001560072" lon="11.775185158982945"><ele>717.0</ele><time>2026-04-03T14:45:52.001Z</time></trkpt><trkpt lat="42.89338421496266" lon="11.775245512289375"><ele>716.4000000000001</ele><time>2026-04-03T14:45:53.001Z</time></trkpt><trkpt lat="42.893279508207776" lon="11.775283689332799"><ele>715.8000000000001</ele><time>2026-04-03T14:45:54.001Z</time></trkpt><trkpt lat="42.893177715163446" lon="11.775338892809401"><ele>715.2</ele><time>2026-04-03T14:45:55.001Z</time></trkpt><trkpt lat="42.893074531040035" lon="11.775388138034012"><ele>714.6</ele><time>2026-04-03T14:45:56.001Z</time></trkpt><trkpt lat="42.89297287142512" lon="11.775419745030437"><ele>714.0</ele><time>2026-04-03T14:45:57.001Z</time></trkpt><trkpt lat="42.89287029300018" lon="11.77542055387762"><ele>714.0</ele><time>2026-04-03T14:45:58.001Z</time></trkpt><trkpt lat="42.89279234623938" lon="11.775364864921109"><ele>714.0</ele><time>2026-04-03T14:45:59.001Z</time></trkpt><trkpt lat="42.892720837877945" lon="11.775296127724761"><ele>714.0</ele><time>2026-04-03T14:46:00.001Z</time></trkpt><trkpt lat="42.89269407900576" lon="11.77513824155711"><ele>714.0</ele><time>2026-04-03T14:46:01.001Z</time></trkpt><trkpt lat="42.8927190560458" lon="11.774990559969273"><ele>714.0</ele><time>2026-04-03T14:46:02.001Z</time></trkpt><trkpt lat="42.892773967855966" lon="11.774858094126996"><ele>712.0</ele><time>2026-04-03T14:46:03.001Z</time></trkpt><trkpt lat="42.892857400149836" lon="11.77474785703741"><ele>710.0</ele><time>2026-04-03T14:46:04.001Z</time></trkpt><trkpt lat="42.892956142287936" lon="11.774659424423927"><ele>708.0</ele><time>2026-04-03T14:46:05.001Z</time></trkpt><trkpt lat="42.89306295664316" lon="11.77459573075001"><ele>706.0</ele><time>2026-04-03T14:46:06.001Z</time></trkpt><trkpt lat="42.89319069386932" lon="11.774575002414343"><ele>706.0</ele><time>2026-04-03T14:46:07.001Z</time></trkpt><trkpt lat="42.89331221208354" lon="11.774533159292373"><ele>706.0</ele><time>2026-04-03T14:46:08.001Z</time></trkpt><trkpt lat="42.89342734035375" lon="11.774443087996197"><ele>706.0</ele><time>2026-04-03T14:46:09.001Z</time></trkpt><trkpt lat="42.893525377567094" lon="11.774309228763643"><ele>706.0</ele><time>2026-04-03T14:46:10.001Z</time></trkpt><trkpt lat="42.89360539928746" lon="11.774140726139155"><ele>707.3333333333334</ele><time>2026-04-03T14:46:11.001Z</time></trkpt><trkpt lat="42.893650531278894" lon="11.773948150798725"><ele>708.6666666666666</ele><time>2026-04-03T14:46:12.001Z</time></trkpt><trkpt lat="42.893656148909365" lon="11.773725582896027"><ele>710.0</ele><time>2026-04-03T14:46:13.001Z</time></trkpt><trkpt lat="42.893618930190726" lon="11.773489381813357"><ele>710.3333333333333</ele><time>2026-04-03T14:46:14.001Z</time></trkpt><trkpt lat="42.893534690931425" lon="11.773264879494453"><ele>710.6666666666666</ele><time>2026-04-03T14:46:15.001Z</time></trkpt><trkpt lat="42.893404498747" lon="11.773066772680776"><ele>711.0</ele><time>2026-04-03T14:46:16.001Z</time></trkpt><trkpt lat="42.8932408930139" lon="11.772909113415778"><ele>706.6666666666666</ele><time>2026-04-03T14:46:17.001Z</time></trkpt><trkpt lat="42.89306282932552" lon="11.772755818595401"><ele>702.3333333333333</ele><time>2026-04-03T14:46:18.001Z</time></trkpt><trkpt lat="42.89290230777047" lon="11.772560566642769"><ele>698.0</ele><time>2026-04-03T14:46:19.001Z</time></trkpt><trkpt lat="42.892731811435425" lon="11.772371040490151"><ele>694.0</ele><time>2026-04-03T14:46:20.001Z</time></trkpt><trkpt lat="42.892553458271614" lon="11.772193820971014"><ele>690.0</ele><time>2026-04-03T14:46:21.001Z</time></trkpt><trkpt lat="42.892379231100605" lon="11.771999874070488"><ele>686.0</ele><time>2026-04-03T14:46:22.001Z</time></trkpt><trkpt lat="42.89220960761149" lon="11.771817161118383"><ele>686.0</ele><time>2026-04-03T14:46:23.001Z</time></trkpt><trkpt lat="42.89204917826969" lon="11.771644580061356"><ele>686.0</ele><time>2026-04-03T14:46:24.001Z</time></trkpt><trkpt lat="42.891900702841625" lon="11.771451503594921"><ele>686.0</ele><time>2026-04-03T14:46:25.001Z</time></trkpt><trkpt lat="42.89174645303938" lon="11.771281357102035"><ele>684.6666666666666</ele><time>2026-04-03T14:46:26.001Z</time></trkpt><trkpt lat="42.891589354053394" lon="11.771135668301637"><ele>683.3333333333334</ele><time>2026-04-03T14:46:27.001Z</time></trkpt><trkpt lat="42.89144534234132" lon="11.770970929352904"><ele>682.0</ele><time>2026-04-03T14:46:28.001Z</time></trkpt><trkpt lat="42.89129796760963" lon="11.770796271345338"><ele>682.0</ele><time>2026-04-03T14:46:29.001Z</time></trkpt><trkpt lat="42.891151563304476" lon="11.770625143377288"><ele>682.0</ele><time>2026-04-03T14:46:30.001Z</time></trkpt><trkpt lat="42.891012196466335" lon="11.770441949115556"><ele>682.0</ele><time>2026-04-03T14:46:31.001Z</time></trkpt><trkpt lat="42.89084280464872" lon="11.770285722068046"><ele>678.3333333333334</ele><time>2026-04-03T14:46:32.001Z</time></trkpt><trkpt lat="42.89068175690741" lon="11.770114249219255"><ele>674.6666666666666</ele><time>2026-04-03T14:46:33.001Z</time></trkpt><trkpt lat="42.89051937631577" lon="11.769966608664372"><ele>671.0</ele><time>2026-04-03T14:46:34.002Z</time></trkpt><trkpt lat="42.89035029508566" lon="11.769842415169487"><ele>671.0</ele><time>2026-04-03T14:46:35.002Z</time></trkpt><trkpt lat="42.890169862087404" lon="11.769742528571935"><ele>671.0</ele><time>2026-04-03T14:46:36.002Z</time></trkpt><trkpt lat="42.88997955088192" lon="11.769642599650663"><ele>671.0</ele><time>2026-04-03T14:46:37.002Z</time></trkpt><trkpt lat="42.889793570993795" lon="11.76954190148424"><ele>670.0</ele><time>2026-04-03T14:46:38.002Z</time></trkpt><trkpt lat="42.88961464835929" lon="11.769439075527558"><ele>669.0</ele><time>2026-04-03T14:46:39.002Z</time></trkpt><trkpt lat="42.889440249290104" lon="11.76933472521997"><ele>668.0</ele><time>2026-04-03T14:46:40.002Z</time></trkpt><trkpt lat="42.88928077280997" lon="11.769201400725985"><ele>664.0</ele><time>2026-04-03T14:46:41.002Z</time></trkpt><trkpt lat="42.88912059981951" lon="11.769075546650487"><ele>660.0</ele><time>2026-04-03T14:46:42.002Z</time></trkpt><trkpt lat="42.888984153266236" lon="11.768927280153294"><ele>656.0</ele><time>2026-04-03T14:46:43.002Z</time></trkpt><trkpt lat="42.88889956260198" lon="11.76875458496608"><ele>656.0</ele><time>2026-04-03T14:46:44.002Z</time></trkpt><trkpt lat="42.88885150823499" lon="11.768566196456572"><ele>656.0</ele><time>2026-04-03T14:46:45.002Z</time></trkpt><trkpt lat="42.888842028379685" lon="11.768359508311711"><ele>656.0</ele><time>2026-04-03T14:46:46.002Z</time></trkpt><trkpt lat="42.888845950327095" lon="11.768114475640743"><ele>655.3333333333333</ele><time>2026-04-03T14:46:47.002Z</time></trkpt><trkpt lat="42.88884900104486" lon="11.767852385670938"><ele>654.6666666666666</ele><time>2026-04-03T14:46:48.002Z</time></trkpt><trkpt lat="42.888852339231725" lon="11.76759152352389"><ele>654.0</ele><time>2026-04-03T14:46:49.002Z</time></trkpt><trkpt lat="42.88885548755681" lon="11.767345498152176"><ele>654.0</ele><time>2026-04-03T14:46:50.002Z</time></trkpt><trkpt lat="42.88885720069552" lon="11.767110278200624"><ele>654.0</ele><time>2026-04-03T14:46:51.002Z</time></trkpt><trkpt lat="42.88883117270064" lon="11.766894462121066"><ele>654.0</ele><time>2026-04-03T14:46:52.002Z</time></trkpt><trkpt lat="42.888791274149206" lon="11.76668190796055"><ele>651.6666666666666</ele><time>2026-04-03T14:46:53.002Z</time></trkpt><trkpt lat="42.88868395781438" lon="11.766510951142996"><ele>649.3333333333333</ele><time>2026-04-03T14:46:54.002Z</time></trkpt><trkpt lat="42.88851369794552" lon="11.76631349720866"><ele>647.0</ele><time>2026-04-03T14:46:55.002Z</time></trkpt><trkpt lat="42.88832662884121" lon="11.766157004740297"><ele>644.3333333333333</ele><time>2026-04-03T14:46:56.002Z</time></trkpt><trkpt lat="42.8881473564409" lon="11.766010554582465"><ele>641.6666666666666</ele><time>2026-04-03T14:46:57.002Z</time></trkpt><trkpt lat="42.887989839492235" lon="11.76581957485588"><ele>639.0</ele><time>2026-04-03T14:46:58.002Z</time></trkpt><trkpt lat="42.88781242757612" lon="11.76565162284015"><ele>639.0</ele><time>2026-04-03T14:46:59.002Z</time></trkpt><trkpt lat="42.88764509849712" lon="11.765472631332363"><ele>639.0</ele><time>2026-04-03T14:47:00.002Z</time></trkpt><trkpt lat="42.8874770898777" lon="11.765311383875169"><ele>639.0</ele><time>2026-04-03T14:47:01.002Z</time></trkpt><trkpt lat="42.88731046366766" lon="11.765166637566912"><ele>636.6666666666666</ele><time>2026-04-03T14:47:02.002Z</time></trkpt><trkpt lat="42.88714521420647" lon="11.765037620867561"><ele>634.3333333333333</ele><time>2026-04-03T14:47:03.002Z</time></trkpt><trkpt lat="42.88699184083386" lon="11.764899418524205"><ele>632.0</ele><time>2026-04-03T14:47:04.002Z</time></trkpt><trkpt lat="42.88682938839807" lon="11.764792855686624"><ele>629.0</ele><time>2026-04-03T14:47:05.002Z</time></trkpt><trkpt lat="42.88668400168207" lon="11.764662830179118"><ele>626.0</ele><time>2026-04-03T14:47:06.002Z</time></trkpt><trkpt lat="42.88654578291417" lon="11.76453271731492"><ele>623.0</ele><time>2026-04-03T14:47:07.002Z</time></trkpt><trkpt lat="42.8864397205879" lon="11.76436056320886"><ele>623.0</ele><time>2026-04-03T14:47:08.002Z</time></trkpt><trkpt lat="42.88635442846031" lon="11.764172339169942"><ele>623.0</ele><time>2026-04-03T14:47:09.002Z</time></trkpt><trkpt lat="42.886303111514515" lon="11.763962008192397"><ele>623.0</ele><time>2026-04-03T14:47:10Z</time></trkpt><trkpt lat="42.886274568647465" lon="11.763724618419943"><ele>621.6666666666666</ele><time>2026-04-03T14:47:11Z</time></trkpt><trkpt lat="42.88625930970578" lon="11.763491682039446"><ele>620.3333333333334</ele><time>2026-04-03T14:47:12Z</time></trkpt><trkpt lat="42.886245613304126" lon="11.763278260565023"><ele>619.0</ele><time>2026-04-03T14:47:13Z</time></trkpt><trkpt lat="42.88617612877924" lon="11.7631013514962"><ele>619.0</ele><time>2026-04-03T14:47:14Z</time></trkpt><trkpt lat="42.88606384081292" lon="11.76296369064026"><ele>619.0</ele><time>2026-04-03T14:47:15Z</time></trkpt><trkpt lat="42.88592212175899" lon="11.76290781540167"><ele>619.0</ele><time>2026-04-03T14:47:16Z</time></trkpt><trkpt lat="42.88578179265833" lon="11.762927990196431"><ele>619.0</ele><time>2026-04-03T14:47:17Z</time></trkpt><trkpt lat="42.88564407585193" lon="11.763022092846953"><ele>616.0</ele><time>2026-04-03T14:47:18Z</time></trkpt><trkpt lat="42.88552935837191" lon="11.763180414091396"><ele>613.0</ele><time>2026-04-03T14:47:19Z</time></trkpt><trkpt lat="42.8854592179374" lon="11.763386116990835"><ele>610.0</ele><time>2026-04-03T14:47:20Z</time></trkpt><trkpt lat="42.88546180812347" lon="11.763585032858952"><ele>609.3333333333334</ele><time>2026-04-03T14:47:21Z</time></trkpt><trkpt lat="42.885503626976345" lon="11.763782514349625"><ele>608.6666666666666</ele><time>2026-04-03T14:47:22Z</time></trkpt><trkpt lat="42.88554512520631" lon="11.763993598961255"><ele>608.0</ele><time>2026-04-03T14:47:23Z</time></trkpt><trkpt lat="42.885572903026265" lon="11.764224256388625"><ele>605.6666666666666</ele><time>2026-04-03T14:47:24Z</time></trkpt><trkpt lat="42.88559920502104" lon="11.764468815657967"><ele>603.3333333333334</ele><time>2026-04-03T14:47:25Z</time></trkpt><trkpt lat="42.885622356739844" lon="11.764724939191302"><ele>601.0</ele><time>2026-04-03T14:47:26Z</time></trkpt><trkpt lat="42.88564657255161" lon="11.764990632432294"><ele>599.3333333333334</ele><time>2026-04-03T14:47:27Z</time></trkpt><trkpt lat="42.88567261727567" lon="11.765254714096788"><ele>597.6666666666666</ele><time>2026-04-03T14:47:28Z</time></trkpt><trkpt lat="42.885674806370034" lon="11.765504249490965"><ele>596.0</ele><time>2026-04-03T14:47:29Z</time></trkpt><trkpt lat="42.88569698057688" lon="11.765739826001711"><ele>596.0</ele><time>2026-04-03T14:47:30Z</time></trkpt><trkpt lat="42.88571784899667" lon="11.765965291024141"><ele>596.0</ele><time>2026-04-03T14:47:31Z</time></trkpt><trkpt lat="42.8857275537307" lon="11.766178961949104"><ele>596.0</ele><time>2026-04-03T14:47:32Z</time></trkpt><trkpt lat="42.88570514926541" lon="11.76638106780416"><ele>595.6666666666666</ele><time>2026-04-03T14:47:33Z</time></trkpt><trkpt lat="42.885649296522104" lon="11.766574150601851"><ele>595.3333333333334</ele><time>2026-04-03T14:47:34Z</time></trkpt><trkpt lat="42.885561895184054" lon="11.766762815402217"><ele>595.0</ele><time>2026-04-03T14:47:35Z</time></trkpt><trkpt lat="42.8854670168561" lon="11.766969182018597"><ele>595.0</ele><time>2026-04-03T14:47:36Z</time></trkpt><trkpt lat="42.88537389869659" lon="11.767183493379076"><ele>595.0</ele><time>2026-04-03T14:47:37Z</time></trkpt><trkpt lat="42.8852841496281" lon="11.767379615743584"><ele>595.0</ele><time>2026-04-03T14:47:38Z</time></trkpt><trkpt lat="42.88519873456826" lon="11.767572382752874"><ele>595.6666666666667</ele><time>2026-04-03T14:47:39Z</time></trkpt><trkpt lat="42.88511504244973" lon="11.767765260114832"><ele>596.3333333333334</ele><time>2026-04-03T14:47:40Z</time></trkpt><trkpt lat="42.8850503941829" lon="11.76798506037144"><ele>597.0</ele><time>2026-04-03T14:47:41Z</time></trkpt><trkpt lat="42.885003201123475" lon="11.768221583594274"><ele>592.0</ele><time>2026-04-03T14:47:42Z</time></trkpt><trkpt lat="42.884981700261406" lon="11.768475827626045"><ele>587.0</ele><time>2026-04-03T14:47:43Z</time></trkpt><trkpt lat="42.884944415537944" lon="11.768718646729955"><ele>582.0</ele><time>2026-04-03T14:47:44Z</time></trkpt><trkpt lat="42.8849151802011" lon="11.768945425403636"><ele>582.0</ele><time>2026-04-03T14:47:45Z</time></trkpt><trkpt lat="42.88488631363706" lon="11.769164173886063"><ele>582.0</ele><time>2026-04-03T14:47:46Z</time></trkpt><trkpt lat="42.88486024698097" lon="11.769378972775561"><ele>582.0</ele><time>2026-04-03T14:47:47.001Z</time></trkpt><trkpt lat="42.8848251039378" lon="11.769564164203778"><ele>581.25</ele><time>2026-04-03T14:47:48.001Z</time></trkpt><trkpt lat="42.88476586666495" lon="11.769720880241415"><ele>580.5</ele><time>2026-04-03T14:47:49.001Z</time></trkpt><trkpt lat="42.884674219136684" lon="11.769823392889117"><ele>579.75</ele><time>2026-04-03T14:47:50.001Z</time></trkpt><trkpt lat="42.88455752224005" lon="11.769880701602373"><ele>579.0</ele><time>2026-04-03T14:47:51.001Z</time></trkpt><trkpt lat="42.88441680303929" lon="11.769857434932405"><ele>579.0</ele><time>2026-04-03T14:47:52.001Z</time></trkpt><trkpt lat="42.88429511130487" lon="11.76975760459736"><ele>579.0</ele><time>2026-04-03T14:47:53.001Z</time></trkpt><trkpt lat="42.88419559409111" lon="11.769616377290133"><ele>579.0</ele><time>2026-04-03T14:47:54.001Z</time></trkpt><trkpt lat="42.88415651696379" lon="11.769432594187846"><ele>579.0</ele><time>2026-04-03T14:47:55.001Z</time></trkpt><trkpt lat="42.88416444315443" lon="11.769237979153784"><ele>574.6666666666666</ele><time>2026-04-03T14:47:56.001Z</time></trkpt><trkpt lat="42.884196637201136" lon="11.769019416103031"><ele>570.3333333333333</ele><time>2026-04-03T14:47:57.001Z</time></trkpt><trkpt lat="42.88421834993246" lon="11.768799613659908"><ele>566.0</ele><time>2026-04-03T14:47:58.001Z</time></trkpt><trkpt lat="42.88424247416601" lon="11.768607334555204"><ele>565.6666666666666</ele><time>2026-04-03T14:47:59.001Z</time></trkpt><trkpt lat="42.88422032201066" lon="11.768408397091246"><ele>565.3333333333334</ele><time>2026-04-03T14:48:00.001Z</time></trkpt><trkpt lat="42.884161598742715" lon="11.7682067900468"><ele>565.0</ele><time>2026-04-03T14:48:01.001Z</time></trkpt><trkpt lat="42.884051498884716" lon="11.768012660517567"><ele>565.0</ele><time>2026-04-03T14:48:02.001Z</time></trkpt><trkpt lat="42.8839250149465" lon="11.767838841812333"><ele>565.0</ele><time>2026-04-03T14:48:03.001Z</time></trkpt><trkpt lat="42.88382542162272" lon="11.76763657501139"><ele>565.0</ele><time>2026-04-03T14:48:04.001Z</time></trkpt><trkpt lat="42.8837089128014" lon="11.7674312199306"><ele>565.3333333333334</ele><time>2026-04-03T14:48:05.001Z</time></trkpt><trkpt lat="42.88357622273729" lon="11.767234210664833"><ele>565.6666666666666</ele><time>2026-04-03T14:48:06.001Z</time></trkpt><trkpt lat="42.88345816303085" lon="11.767027648718052"><ele>566.0</ele><time>2026-04-03T14:48:07.001Z</time></trkpt><trkpt lat="42.883359471049005" lon="11.766819642676504"><ele>562.6666666666666</ele><time>2026-04-03T14:48:08.001Z</time></trkpt><trkpt lat="42.88325895348648" lon="11.766634969654232"><ele>559.3333333333334</ele><time>2026-04-03T14:48:09.001Z</time></trkpt><trkpt lat="42.883196700355974" lon="11.76644375294672"><ele>556.0</ele><time>2026-04-03T14:48:10.001Z</time></trkpt><trkpt lat="42.883195114013304" lon="11.766238294577711"><ele>556.0</ele><time>2026-04-03T14:48:11.001Z</time></trkpt><trkpt lat="42.88322826996298" lon="11.766030690380292"><ele>556.0</ele><time>2026-04-03T14:48:12.001Z</time></trkpt><trkpt lat="42.88327173544539" lon="11.765798660190878"><ele>556.0</ele><time>2026-04-03T14:48:13.001Z</time></trkpt><trkpt lat="42.88334597566114" lon="11.765597680870538"><ele>556.0</ele><time>2026-04-03T14:48:14.001Z</time></trkpt><trkpt lat="42.88338564765243" lon="11.765407979036711"><ele>556.0</ele><time>2026-04-03T14:48:15.001Z</time></trkpt><trkpt lat="42.88338582763473" lon="11.765221043452293"><ele>556.0</ele><time>2026-04-03T14:48:16.001Z</time></trkpt><trkpt lat="42.88332491193516" lon="11.765047674310171"><ele>556.0</ele><time>2026-04-03T14:48:17.001Z</time></trkpt><trkpt lat="42.88320862658238" lon="11.764932614635185"><ele>556.0</ele><time>2026-04-03T14:48:18.001Z</time></trkpt><trkpt lat="42.88307016623306" lon="11.764878024052061"><ele>556.0</ele><time>2026-04-03T14:48:19.001Z</time></trkpt><trkpt lat="42.88292736655514" lon="11.764919245194571"><ele>556.0</ele><time>2026-04-03T14:48:20.001Z</time></trkpt><trkpt lat="42.88280481375998" lon="11.765032654048643"><ele>556.0</ele><time>2026-04-03T14:48:21.001Z</time></trkpt><trkpt lat="42.8827037406695" lon="11.76519833037726"><ele>556.0</ele><time>2026-04-03T14:48:22.001Z</time></trkpt><trkpt lat="42.88266484203105" lon="11.765425525480369"><ele>556.0</ele><time>2026-04-03T14:48:23.001Z</time></trkpt><trkpt lat="42.882666582508115" lon="11.765674255808568"><ele>556.0</ele><time>2026-04-03T14:48:24.001Z</time></trkpt><trkpt lat="42.88266775175174" lon="11.765910085170482"><ele>556.0</ele><time>2026-04-03T14:48:25.001Z</time></trkpt><trkpt lat="42.88263332562079" lon="11.766145220532286"><ele>556.0</ele><time>2026-04-03T14:48:26.001Z</time></trkpt><trkpt lat="42.88261105227424" lon="11.766380014538264"><ele>556.0</ele><time>2026-04-03T14:48:27.001Z</time></trkpt><trkpt lat="42.88259083250418" lon="11.766601144268265"><ele>552.0</ele><time>2026-04-03T14:48:28.001Z</time></trkpt><trkpt lat="42.88258794490272" lon="11.766808054786505"><ele>548.0</ele><time>2026-04-03T14:48:29.001Z</time></trkpt><trkpt lat="42.882577605154474" lon="11.767017463551479"><ele>544.0</ele><time>2026-04-03T14:48:30.001Z</time></trkpt><trkpt lat="42.88258245461319" lon="11.767237139866829"><ele>546.6666666666667</ele><time>2026-04-03T14:48:31.001Z</time></trkpt><trkpt lat="42.882626329326726" lon="11.767456662885099"><ele>549.3333333333334</ele><time>2026-04-03T14:48:32.001Z</time></trkpt><trkpt lat="42.88270458943098" lon="11.767654589764893"><ele>552.0</ele><time>2026-04-03T14:48:33.001Z</time></trkpt><trkpt lat="42.882747386098835" lon="11.76784663945197"><ele>552.0</ele><time>2026-04-03T14:48:34.001Z</time></trkpt><trkpt lat="42.88278523932798" lon="11.7680125556995"><ele>552.0</ele><time>2026-04-03T14:48:35.001Z</time></trkpt><trkpt lat="42.88280123259208" lon="11.768185517162195"><ele>552.0</ele><time>2026-04-03T14:48:36.001Z</time></trkpt><trkpt lat="42.88278059170433" lon="11.76836320919946"><ele>552.0</ele><time>2026-04-03T14:48:37.001Z</time></trkpt><trkpt lat="42.882719247854396" lon="11.76853671098606"><ele>551.75</ele><time>2026-04-03T14:48:38.001Z</time></trkpt><trkpt lat="42.882622122524396" lon="11.768668481880857"><ele>551.5</ele><time>2026-04-03T14:48:39.001Z</time></trkpt><trkpt lat="42.88250162266826" lon="11.768764960459606"><ele>551.25</ele><time>2026-04-03T14:48:40.001Z</time></trkpt><trkpt lat="42.882353894748604" lon="11.768792658835487"><ele>551.0</ele><time>2026-04-03T14:48:41.001Z</time></trkpt><trkpt lat="42.882212864382495" lon="11.768762620395458"><ele>549.0</ele><time>2026-04-03T14:48:42.001Z</time></trkpt><trkpt lat="42.88208850556974" lon="11.768667242174123"><ele>547.0</ele><time>2026-04-03T14:48:43.002Z</time></trkpt><trkpt lat="42.88198391350231" lon="11.768525017470981"><ele>545.0</ele><time>2026-04-03T14:48:44.002Z</time></trkpt><trkpt lat="42.88191513796036" lon="11.76832980060648"><ele>543.0</ele><time>2026-04-03T14:48:45.002Z</time></trkpt><trkpt lat="42.88184663744241" lon="11.768107306590144"><ele>543.0</ele><time>2026-04-03T14:48:46.002Z</time></trkpt><trkpt lat="42.881772234623206" lon="11.767880094496897"><ele>543.0</ele><time>2026-04-03T14:48:47.002Z</time></trkpt><trkpt lat="42.881708924882034" lon="11.767632021691973"><ele>543.0</ele><time>2026-04-03T14:48:48.002Z</time></trkpt><trkpt lat="42.881672576114426" lon="11.767375474782805"><ele>539.3333333333334</ele><time>2026-04-03T14:48:49.002Z</time></trkpt><trkpt lat="42.88160987409954" lon="11.767131516489279"><ele>535.6666666666667</ele><time>2026-04-03T14:48:50.002Z</time></trkpt><trkpt lat="42.88157035871532" lon="11.766899067445113"><ele>532.0</ele><time>2026-04-03T14:48:51.002Z</time></trkpt><trkpt lat="42.88153254504134" lon="11.766680228113568"><ele>532.0</ele><time>2026-04-03T14:48:52.002Z</time></trkpt><trkpt lat="42.881477897051006" lon="11.766480766725074"><ele>532.0</ele><time>2026-04-03T14:48:53.002Z</time></trkpt><trkpt lat="42.88139339397939" lon="11.766301758125795"><ele>532.0</ele><time>2026-04-03T14:48:54.002Z</time></trkpt><trkpt lat="42.88127264714053" lon="11.766160131045005"><ele>532.0</ele><time>2026-04-03T14:48:55.002Z</time></trkpt><trkpt lat="42.881137194069275" lon="11.766047272072885"><ele>532.0</ele><time>2026-04-03T14:48:56.002Z</time></trkpt><trkpt lat="42.8810250616271" lon="11.765920215319724"><ele>532.0</ele><time>2026-04-03T14:48:57.002Z</time></trkpt><trkpt lat="42.880917730630244" lon="11.76580024644667"><ele>532.0</ele><time>2026-04-03T14:48:58.002Z</time></trkpt><trkpt lat="42.88085606156796" lon="11.765614862345046"><ele>528.0</ele><time>2026-04-03T14:48:59.002Z</time></trkpt><trkpt lat="42.880821709853386" lon="11.765414605473312"><ele>524.0</ele><time>2026-04-03T14:49:00.002Z</time></trkpt><trkpt lat="42.880821612142924" lon="11.765214438988433"><ele>520.0</ele><time>2026-04-03T14:49:01.002Z</time></trkpt><trkpt lat="42.88083291216893" lon="11.764997181851486"><ele>519.6666666666667</ele><time>2026-04-03T14:49:02.002Z</time></trkpt><trkpt lat="42.88084177086271" lon="11.76476510430515"><ele>519.3333333333334</ele><time>2026-04-03T14:49:03.002Z</time></trkpt><trkpt lat="42.88085864558646" lon="11.764523247434175"><ele>519.0</ele><time>2026-04-03T14:49:04.002Z</time></trkpt><trkpt lat="42.880843738184645" lon="11.764265298061764"><ele>518.6666666666666</ele><time>2026-04-03T14:49:05.002Z</time></trkpt><trkpt lat="42.880809028029724" lon="11.764006377408124"><ele>518.3333333333333</ele><time>2026-04-03T14:49:06.002Z</time></trkpt><trkpt lat="42.880757001766256" lon="11.763743284741341"><ele>518.0</ele><time>2026-04-03T14:49:07.002Z</time></trkpt><trkpt lat="42.88070615218595" lon="11.763469075957625"><ele>517.3333333333333</ele><time>2026-04-03T14:49:08.002Z</time></trkpt><trkpt lat="42.88065781352653" lon="11.763199352503708"><ele>516.6666666666666</ele><time>2026-04-03T14:49:09.002Z</time></trkpt><trkpt lat="42.88060584469154" lon="11.762938987248615"><ele>516.0</ele><time>2026-04-03T14:49:10.002Z</time></trkpt><trkpt lat="42.880545863365825" lon="11.762683213174833"><ele>515.3333333333334</ele><time>2026-04-03T14:49:11.002Z</time></trkpt><trkpt lat="42.880480987844386" lon="11.762423667190726"><ele>514.6666666666667</ele><time>2026-04-03T14:49:12.002Z</time></trkpt><trkpt lat="42.88042266972451" lon="11.76217337306842"><ele>514.0</ele><time>2026-04-03T14:49:13.002Z</time></trkpt><trkpt lat="42.88036505975129" lon="11.761934218569937"><ele>514.3333333333334</ele><time>2026-04-03T14:49:14.002Z</time></trkpt><trkpt lat="42.880307780545024" lon="11.761700282106963"><ele>514.6666666666666</ele><time>2026-04-03T14:49:15.002Z</time></trkpt><trkpt lat="42.88024900858685" lon="11.761459094476116"><ele>515.0</ele><time>2026-04-03T14:49:16Z</time></trkpt><trkpt lat="42.88019350907326" lon="11.761210518190735"><ele>515.3333333333333</ele><time>2026-04-03T14:49:17Z</time></trkpt><trkpt lat="42.88014459453873" lon="11.76095268212255"><ele>515.6666666666666</ele><time>2026-04-03T14:49:18Z</time></trkpt><trkpt lat="42.88010409539798" lon="11.76068068532224"><ele>516.0</ele><time>2026-04-03T14:49:19Z</time></trkpt><trkpt lat="42.88006793727942" lon="11.760402127284435"><ele>509.66666666666663</ele><time>2026-04-03T14:49:20Z</time></trkpt><trkpt lat="42.88003011591931" lon="11.760119163752675"><ele>503.3333333333333</ele><time>2026-04-03T14:49:21Z</time></trkpt><trkpt lat="42.88000487001817" lon="11.759836150528452"><ele>497.0</ele><time>2026-04-03T14:49:22Z</time></trkpt><trkpt lat="42.879991383512106" lon="11.75954598406246"><ele>495.3333333333333</ele><time>2026-04-03T14:49:23Z</time></trkpt><trkpt lat="42.87994787936376" lon="11.759247905162361"><ele>493.66666666666663</ele><time>2026-04-03T14:49:24Z</time></trkpt><trkpt lat="42.87987070468425" lon="11.759070050968933"><ele>492.0</ele><time>2026-04-03T14:49:25Z</time></trkpt><trkpt lat="42.87983818513301" lon="11.75884165096678"><ele>492.0</ele><time>2026-04-03T14:49:26Z</time></trkpt><trkpt lat="42.87985612444786" lon="11.758626254359024"><ele>492.0</ele><time>2026-04-03T14:49:27Z</time></trkpt><trkpt lat="42.87989455170392" lon="11.758423272630226"><ele>492.0</ele><time>2026-04-03T14:49:28Z</time></trkpt><trkpt lat="42.87995188828349" lon="11.758206795405524"><ele>491.0</ele><time>2026-04-03T14:49:29Z</time></trkpt><trkpt lat="42.880007335474524" lon="11.75799364916461"><ele>490.0</ele><time>2026-04-03T14:49:30Z</time></trkpt><trkpt lat="42.88005721949239" lon="11.757789655995204"><ele>489.0</ele><time>2026-04-03T14:49:31Z</time></trkpt><trkpt lat="42.880084282945624" lon="11.75758993074228"><ele>487.5</ele><time>2026-04-03T14:49:32Z</time></trkpt><trkpt lat="42.88010021771046" lon="11.757394134909582"><ele>486.0</ele><time>2026-04-03T14:49:33Z</time></trkpt><trkpt lat="42.88007330546699" lon="11.757199703229633"><ele>484.5</ele><time>2026-04-03T14:49:34Z</time></trkpt><trkpt lat="42.87999014966765" lon="11.757020837016473"><ele>483.0</ele><time>2026-04-03T14:49:35Z</time></trkpt><trkpt lat="42.87988330974745" lon="11.756853736291704"><ele>483.0</ele><time>2026-04-03T14:49:36Z</time></trkpt><trkpt lat="42.879782924941054" lon="11.75668514717457"><ele>483.0</ele><time>2026-04-03T14:49:37Z</time></trkpt><trkpt lat="42.87969533165528" lon="11.756519646912201"><ele>483.0</ele><time>2026-04-03T14:49:38Z</time></trkpt><trkpt lat="42.87962630075793" lon="11.756343080481365"><ele>483.0</ele><time>2026-04-03T14:49:39Z</time></trkpt><trkpt lat="42.87962850360663" lon="11.756140000329303"><ele>483.0</ele><time>2026-04-03T14:49:40Z</time></trkpt><trkpt lat="42.87965149070126" lon="11.755926755539106"><ele>483.0</ele><time>2026-04-03T14:49:41Z</time></trkpt><trkpt lat="42.87967935823163" lon="11.755695136537284"><ele>481.75</ele><time>2026-04-03T14:49:42Z</time></trkpt><trkpt lat="42.879704693434775" lon="11.755484555210831"><ele>480.5</ele><time>2026-04-03T14:49:43Z</time></trkpt><trkpt lat="42.8797359346881" lon="11.75528704158116"><ele>479.25</ele><time>2026-04-03T14:49:44Z</time></trkpt><trkpt lat="42.87979861235956" lon="11.755110574199968"><ele>478.0</ele><time>2026-04-03T14:49:45Z</time></trkpt><trkpt lat="42.87987099539185" lon="11.754941292578092"><ele>477.25</ele><time>2026-04-03T14:49:46Z</time></trkpt><trkpt lat="42.87993892394019" lon="11.754774745838297"><ele>476.5</ele><time>2026-04-03T14:49:47Z</time></trkpt><trkpt lat="42.879980388330594" lon="11.754609268983327"><ele>475.75</ele><time>2026-04-03T14:49:48.001Z</time></trkpt><trkpt lat="42.879954918325716" lon="11.754436516513982"><ele>475.0</ele><time>2026-04-03T14:49:49.001Z</time></trkpt><trkpt lat="42.87986978169748" lon="11.754292681688378"><ele>473.25</ele><time>2026-04-03T14:49:50.001Z</time></trkpt><trkpt lat="42.879749292054136" lon="11.754203327277926"><ele>471.5</ele><time>2026-04-03T14:49:51.001Z</time></trkpt><trkpt lat="42.87961010219123" lon="11.754182740844964"><ele>469.75</ele><time>2026-04-03T14:49:52.001Z</time></trkpt><trkpt lat="42.87947658618072" lon="11.754243077273259"><ele>468.0</ele><time>2026-04-03T14:49:53.001Z</time></trkpt><trkpt lat="42.87936243397524" lon="11.754345623067454"><ele>466.33333333333337</ele><time>2026-04-03T14:49:54.001Z</time></trkpt><trkpt lat="42.87924732812494" lon="11.754478482001932"><ele>464.6666666666667</ele><time>2026-04-03T14:49:55.001Z</time></trkpt><trkpt lat="42.879111077628416" lon="11.754599988495162"><ele>463.0</ele><time>2026-04-03T14:49:56.001Z</time></trkpt><trkpt lat="42.87897028184792" lon="11.754735412915208"><ele>463.0</ele><time>2026-04-03T14:49:57.001Z</time></trkpt><trkpt lat="42.87882038151204" lon="11.754871350885262"><ele>463.0</ele><time>2026-04-03T14:49:58.001Z</time></trkpt><trkpt lat="42.8786730734066" lon="11.755002241736015"><ele>463.0</ele><time>2026-04-03T14:49:59.001Z</time></trkpt><trkpt lat="42.87853070507102" lon="11.755120369794756"><ele>461.33333333333337</ele><time>2026-04-03T14:50:00.001Z</time></trkpt><trkpt lat="42.878390692314575" lon="11.755245706727884"><ele>459.66666666666663</ele><time>2026-04-03T14:50:01.001Z</time></trkpt><trkpt lat="42.878254799899324" lon="11.755392374138431"><ele>458.0</ele><time>2026-04-03T14:50:02.001Z</time></trkpt><trkpt lat="42.87812557098867" lon="11.75556751584867"><ele>458.0</ele><time>2026-04-03T14:50:03.001Z</time></trkpt><trkpt lat="42.87801264094433" lon="11.755759333294163"><ele>458.0</ele><time>2026-04-03T14:50:04.001Z</time></trkpt><trkpt lat="42.87791240189698" lon="11.755947236354796"><ele>458.0</ele><time>2026-04-03T14:50:05.001Z</time></trkpt><trkpt lat="42.87781521049917" lon="11.756118998478552"><ele>458.25</ele><time>2026-04-03T14:50:06.001Z</time></trkpt><trkpt lat="42.877718795011575" lon="11.756269082466334"><ele>458.5</ele><time>2026-04-03T14:50:07.001Z</time></trkpt><trkpt lat="42.877629073433724" lon="11.756420569834383"><ele>458.75</ele><time>2026-04-03T14:50:08.001Z</time></trkpt><trkpt lat="42.87756406798286" lon="11.75657826033815"><ele>459.0</ele><time>2026-04-03T14:50:09.001Z</time></trkpt><trkpt lat="42.87753863046322" lon="11.756755172765498"><ele>457.0</ele><time>2026-04-03T14:50:10.001Z</time></trkpt><trkpt lat="42.877556620195975" lon="11.75695391135235"><ele>455.0</ele><time>2026-04-03T14:50:11.001Z</time></trkpt><trkpt lat="42.8776090796819" lon="11.757155900613233"><ele>453.0</ele><time>2026-04-03T14:50:12.001Z</time></trkpt><trkpt lat="42.877677866296466" lon="11.757358222014464"><ele>453.0</ele><time>2026-04-03T14:50:13.001Z</time></trkpt><trkpt lat="42.877707838928494" lon="11.757574318945924"><ele>453.0</ele><time>2026-04-03T14:50:14.001Z</time></trkpt><trkpt lat="42.877721643193475" lon="11.75778821215822"><ele>453.0</ele><time>2026-04-03T14:50:15.001Z</time></trkpt><trkpt lat="42.877697911191945" lon="11.75800394417374"><ele>452.66666666666663</ele><time>2026-04-03T14:50:16.001Z</time></trkpt><trkpt lat="42.877655698284954" lon="11.75822161589296"><ele>452.3333333333333</ele><time>2026-04-03T14:50:17.001Z</time></trkpt><trkpt lat="42.87760575980687" lon="11.758449748529076"><ele>452.0</ele><time>2026-04-03T14:50:18.001Z</time></trkpt><trkpt lat="42.87754828387976" lon="11.75866901473386"><ele>448.3333333333333</ele><time>2026-04-03T14:50:19.001Z</time></trkpt><trkpt lat="42.877464648945804" lon="11.758869626567533"><ele>444.66666666666663</ele><time>2026-04-03T14:50:20.001Z</time></trkpt><trkpt lat="42.87736504250008" lon="11.759054754773771"><ele>441.0</ele><time>2026-04-03T14:50:21.001Z</time></trkpt><trkpt lat="42.87725458180852" lon="11.759244179055234"><ele>442.33333333333337</ele><time>2026-04-03T14:50:22.001Z</time></trkpt><trkpt lat="42.87714564350365" lon="11.759429358144931"><ele>443.6666666666667</ele><time>2026-04-03T14:50:23.001Z</time></trkpt><trkpt lat="42.87704393068357" lon="11.759604081297782"><ele>445.0</ele><time>2026-04-03T14:50:24.001Z</time></trkpt><trkpt lat="42.876946109836" lon="11.759779309248213"><ele>445.0</ele><time>2026-04-03T14:50:25.001Z</time></trkpt><trkpt lat="42.87686511282603" lon="11.75997644169733"><ele>445.0</ele><time>2026-04-03T14:50:26.001Z</time></trkpt><trkpt lat="42.87677693619409" lon="11.760165800325208"><ele>445.0</ele><time>2026-04-03T14:50:27.001Z</time></trkpt><trkpt lat="42.876701378816776" lon="11.760373049674557"><ele>441.33333333333337</ele><time>2026-04-03T14:50:28.001Z</time></trkpt><trkpt lat="42.876620928751485" lon="11.760574850280028"><ele>437.66666666666663</ele><time>2026-04-03T14:50:29.001Z</time></trkpt><trkpt lat="42.87655449698909" lon="11.760766011279529"><ele>434.0</ele><time>2026-04-03T14:50:30.001Z</time></trkpt><trkpt lat="42.87647466941462" lon="11.760916555040417"><ele>434.0</ele><time>2026-04-03T14:50:31.001Z</time></trkpt><trkpt lat="42.87636176288997" lon="11.760991535566887"><ele>434.0</ele><time>2026-04-03T14:50:32.001Z</time></trkpt><trkpt lat="42.87624266297238" lon="11.761008725234971"><ele>434.0</ele><time>2026-04-03T14:50:33.001Z</time></trkpt><trkpt lat="42.87614782694382" lon="11.760972267604872"><ele>434.0</ele><time>2026-04-03T14:50:34.001Z</time></trkpt><trkpt lat="42.87607567520837" lon="11.760880372886632"><ele>434.0</ele><time>2026-04-03T14:50:35.001Z</time></trkpt><trkpt lat="42.87600491008738" lon="11.76073670540493"><ele>434.0</ele><time>2026-04-03T14:50:36.001Z</time></trkpt><trkpt lat="42.87598999875913" lon="11.760549473139605"><ele>434.0</ele><time>2026-04-03T14:50:37.001Z</time></trkpt><trkpt lat="42.876030692087156" lon="11.760382899976207"><ele>434.0</ele><time>2026-04-03T14:50:38.001Z</time></trkpt><trkpt lat="42.87608762439281" lon="11.76021007922788"><ele>434.0</ele><time>2026-04-03T14:50:39.001Z</time></trkpt><trkpt lat="42.87615366361159" lon="11.760026860467487"><ele>432.3333333333333</ele><time>2026-04-03T14:50:40.001Z</time></trkpt><trkpt lat="42.876225620037836" lon="11.759843684418453"><ele>430.66666666666663</ele><time>2026-04-03T14:50:41.001Z</time></trkpt><trkpt lat="42.87625643136696" lon="11.759638150173158"><ele>429.0</ele><time>2026-04-03T14:50:42.001Z</time></trkpt><trkpt lat="42.876231166917094" lon="11.759407205709403"><ele>428.0</ele><time>2026-04-03T14:50:43.001Z</time></trkpt><trkpt lat="42.87616985004664" lon="11.75917827709231"><ele>427.0</ele><time>2026-04-03T14:50:44.002Z</time></trkpt><trkpt lat="42.87608539426702" lon="11.758951891446735"><ele>426.0</ele><time>2026-04-03T14:50:45.002Z</time></trkpt><trkpt lat="42.8759996597618" lon="11.75871982948989"><ele>420.66666666666663</ele><time>2026-04-03T14:50:46.002Z</time></trkpt><trkpt lat="42.8759203943128" lon="11.75847062275183"><ele>415.3333333333333</ele><time>2026-04-03T14:50:47.002Z</time></trkpt><trkpt lat="42.87584842093718" lon="11.758205519536318"><ele>410.0</ele><time>2026-04-03T14:50:48.002Z</time></trkpt><trkpt lat="42.87577367307125" lon="11.75794928944304"><ele>410.0</ele><time>2026-04-03T14:50:49.002Z</time></trkpt><trkpt lat="42.87569945081324" lon="11.75770695949173"><ele>410.0</ele><time>2026-04-03T14:50:50.002Z</time></trkpt><trkpt lat="42.87562816631527" lon="11.757466330551857"><ele>410.0</ele><time>2026-04-03T14:50:51.002Z</time></trkpt><trkpt lat="42.875557275391294" lon="11.757231805934675"><ele>410.66666666666663</ele><time>2026-04-03T14:50:52.002Z</time></trkpt><trkpt lat="42.87549572240552" lon="11.757011266678356"><ele>411.33333333333337</ele><time>2026-04-03T14:50:53.002Z</time></trkpt><trkpt lat="42.87543827940723" lon="11.756794669960177"><ele>412.0</ele><time>2026-04-03T14:50:54.002Z</time></trkpt><trkpt lat="42.875390985809034" lon="11.756565604228188"><ele>412.33333333333337</ele><time>2026-04-03T14:50:55.002Z</time></trkpt><trkpt lat="42.87536303307072" lon="11.756321154743311"><ele>412.66666666666663</ele><time>2026-04-03T14:50:56.002Z</time></trkpt><trkpt lat="42.87534361791479" lon="11.756071437259168"><ele>413.0</ele><time>2026-04-03T14:50:57.002Z</time></trkpt><trkpt lat="42.87532600520427" lon="11.755816660546847"><ele>412.3333333333333</ele><time>2026-04-03T14:50:58.002Z</time></trkpt><trkpt lat="42.87531673826674" lon="11.75557360967911"><ele>411.66666666666663</ele><time>2026-04-03T14:50:59.002Z</time></trkpt><trkpt lat="42.875331297983536" lon="11.755340662593616"><ele>411.0</ele><time>2026-04-03T14:51:00.002Z</time></trkpt><trkpt lat="42.87537123695844" lon="11.755104158045553"><ele>410.33333333333337</ele><time>2026-04-03T14:51:01.002Z</time></trkpt><trkpt lat="42.875422499995594" lon="11.754860227511948"><ele>409.6666666666667</ele><time>2026-04-03T14:51:02.002Z</time></trkpt><trkpt lat="42.875473315636846" lon="11.7546095799935"><ele>409.0</ele><time>2026-04-03T14:51:03.002Z</time></trkpt><trkpt lat="42.87551177950713" lon="11.754350057317652"><ele>408.0</ele><time>2026-04-03T14:51:04.002Z</time></trkpt><trkpt lat="42.875554383035784" lon="11.75408448002663"><ele>407.0</ele><time>2026-04-03T14:51:05.002Z</time></trkpt><trkpt lat="42.87560077833845" lon="11.753811630460282"><ele>406.0</ele><time>2026-04-03T14:51:06.002Z</time></trkpt><trkpt lat="42.87564629758975" lon="11.753535545955906"><ele>403.6666666666667</ele><time>2026-04-03T14:51:07.002Z</time></trkpt><trkpt lat="42.87569245472756" lon="11.75325283281905"><ele>401.33333333333337</ele><time>2026-04-03T14:51:08.002Z</time></trkpt><trkpt lat="42.87573998016326" lon="11.752971739552912"><ele>399.0</ele><time>2026-04-03T14:51:09.002Z</time></trkpt><trkpt lat="42.87578866081896" lon="11.752690845070505"><ele>397.33333333333337</ele><time>2026-04-03T14:51:10.002Z</time></trkpt><trkpt lat="42.87583341664724" lon="11.752420448912828"><ele>395.6666666666667</ele><time>2026-04-03T14:51:11.002Z</time></trkpt><trkpt lat="42.87587348448453" lon="11.75217028026345"><ele>394.0</ele><time>2026-04-03T14:51:12.002Z</time></trkpt><trkpt lat="42.87591251519481" lon="11.751932270461811"><ele>396.0</ele><time>2026-04-03T14:51:13.002Z</time></trkpt><trkpt lat="42.87595618289926" lon="11.75170347923442"><ele>398.0</ele><time>2026-04-03T14:51:14.002Z</time></trkpt><trkpt lat="42.8759956016393" lon="11.751485008692965"><ele>400.0</ele><time>2026-04-03T14:51:15.002Z</time></trkpt><trkpt lat="42.87601716316735" lon="11.751261532632329"><ele>397.6666666666667</ele><time>2026-04-03T14:51:16.002Z</time></trkpt><trkpt lat="42.876005397911385" lon="11.751025375741483"><ele>395.33333333333337</ele><time>2026-04-03T14:51:17.002Z</time></trkpt><trkpt lat="42.87595581780214" lon="11.75078691939964"><ele>393.0</ele><time>2026-04-03T14:51:18.002Z</time></trkpt><trkpt lat="42.875889813552426" lon="11.750544044811587"><ele>390.66666666666663</ele><time>2026-04-03T14:51:19.002Z</time></trkpt><trkpt lat="42.87582679590476" lon="11.75029458815688"><ele>388.3333333333333</ele><time>2026-04-03T14:51:20.002Z</time></trkpt><trkpt lat="42.875789796307785" lon="11.750032706733647"><ele>386.0</ele><time>2026-04-03T14:51:21.002Z</time></trkpt><trkpt lat="42.875716941379196" lon="11.749775577765277"><ele>386.0</ele><time>2026-04-03T14:51:22Z</time></trkpt><trkpt lat="42.87565503487533" lon="11.749511334072107"><ele>386.0</ele><time>2026-04-03T14:51:23Z</time></trkpt><trkpt lat="42.875581786826274" lon="11.749241247266431"><ele>386.0</ele><time>2026-04-03T14:51:24Z</time></trkpt><trkpt lat="42.87550270560746" lon="11.748965617716404"><ele>386.0</ele><time>2026-04-03T14:51:25Z</time></trkpt><trkpt lat="42.875426986898425" lon="11.74868137802575"><ele>386.0</ele><time>2026-04-03T14:51:26Z</time></trkpt><trkpt lat="42.875353633527325" lon="11.748393445005282"><ele>386.0</ele><time>2026-04-03T14:51:27Z</time></trkpt><trkpt lat="42.87527656471591" lon="11.748102335443878"><ele>387.0</ele><time>2026-04-03T14:51:28Z</time></trkpt><trkpt lat="42.87519460350761" lon="11.747810192024751"><ele>388.0</ele><time>2026-04-03T14:51:29Z</time></trkpt><trkpt lat="42.87511307708181" lon="11.747510210087865"><ele>384.0</ele><time>2026-04-03T14:51:30Z</time></trkpt><trkpt lat="42.87503045222659" lon="11.747212543540975"><ele>380.0</ele><time>2026-04-03T14:51:31Z</time></trkpt><trkpt lat="42.87494902144143" lon="11.746918757748631"><ele>380.0</ele><time>2026-04-03T14:51:32Z</time></trkpt><trkpt lat="42.87487476463648" lon="11.746643284396972"><ele>380.0</ele><time>2026-04-03T14:51:33Z</time></trkpt><trkpt lat="42.87480468214049" lon="11.746378189847613"><ele>380.0</ele><time>2026-04-03T14:51:34Z</time></trkpt><trkpt lat="42.874736275758956" lon="11.746125702656512"><ele>379.0</ele><time>2026-04-03T14:51:35Z</time></trkpt><trkpt lat="42.87466802485565" lon="11.74587290869024"><ele>378.0</ele><time>2026-04-03T14:51:36Z</time></trkpt><trkpt lat="42.874596805160984" lon="11.745607681650917"><ele>377.0</ele><time>2026-04-03T14:51:37Z</time></trkpt><trkpt lat="42.87452262815595" lon="11.745337039236695"><ele>377.0</ele><time>2026-04-03T14:51:38Z</time></trkpt><trkpt lat="42.87444785269886" lon="11.745063188935655"><ele>377.0</ele><time>2026-04-03T14:51:39Z</time></trkpt><trkpt lat="42.87437246202964" lon="11.744786028298668"><ele>377.0</ele><time>2026-04-03T14:51:40Z</time></trkpt><trkpt lat="42.87429571214703" lon="11.744501635732904"><ele>376.0</ele><time>2026-04-03T14:51:41Z</time></trkpt><trkpt lat="42.87422027879473" lon="11.744223697597938"><ele>375.0</ele><time>2026-04-03T14:51:42Z</time></trkpt><trkpt lat="42.874143569141225" lon="11.743945822973245"><ele>374.0</ele><time>2026-04-03T14:51:43Z</time></trkpt><trkpt lat="42.874069443233196" lon="11.743665252051425"><ele>373.0</ele><time>2026-04-03T14:51:44Z</time></trkpt><trkpt lat="42.873996823294085" lon="11.743393421318114"><ele>372.0</ele><time>2026-04-03T14:51:45Z</time></trkpt><trkpt lat="42.87392383094683" lon="11.743140395818319"><ele>371.0</ele><time>2026-04-03T14:51:46Z</time></trkpt><trkpt lat="42.87384596274091" lon="11.742898972005142"><ele>371.0</ele><time>2026-04-03T14:51:47Z</time></trkpt><trkpt lat="42.87375729789321" lon="11.742660978833642"><ele>371.0</ele><time>2026-04-03T14:51:48Z</time></trkpt><trkpt lat="42.873662252892714" lon="11.742433029141026"><ele>371.0</ele><time>2026-04-03T14:51:49Z</time></trkpt><trkpt lat="42.87357613765067" lon="11.742220865755696"><ele>371.0</ele><time>2026-04-03T14:51:50Z</time></trkpt><trkpt lat="42.87349118884873" lon="11.742017912995761"><ele>371.0</ele><time>2026-04-03T14:51:51Z</time></trkpt><trkpt lat="42.87339458204109" lon="11.741823929203376"><ele>371.0</ele><time>2026-04-03T14:51:52Z</time></trkpt><trkpt lat="42.87326643229125" lon="11.74164721574435"><ele>369.6666666666667</ele><time>2026-04-03T14:51:53Z</time></trkpt><trkpt lat="42.87310122472619" lon="11.741501789994542"><ele>368.3333333333333</ele><time>2026-04-03T14:51:54Z</time></trkpt><trkpt lat="42.87291853955882" lon="11.741386951029538"><ele>367.0</ele><time>2026-04-03T14:51:55.001Z</time></trkpt><trkpt lat="42.87273173219572" lon="11.7412787900686"><ele>366.3333333333333</ele><time>2026-04-03T14:51:56.001Z</time></trkpt><trkpt lat="42.87254265721573" lon="11.741160454964167"><ele>365.6666666666667</ele><time>2026-04-03T14:51:57.001Z</time></trkpt><trkpt lat="42.872368405950375" lon="11.741036060342743"><ele>365.0</ele><time>2026-04-03T14:51:58.001Z</time></trkpt><trkpt lat="42.87219385300928" lon="11.740930016898295"><ele>365.0</ele><time>2026-04-03T14:51:59.001Z</time></trkpt><trkpt lat="42.87201990583979" lon="11.740861367027986"><ele>365.0</ele><time>2026-04-03T14:52:00.001Z</time></trkpt><trkpt lat="42.87183550195328" lon="11.74084508896484"><ele>365.0</ele><time>2026-04-03T14:52:01.001Z</time></trkpt><trkpt lat="42.87165312055679" lon="11.740892727083004"><ele>365.6666666666667</ele><time>2026-04-03T14:52:02.001Z</time></trkpt><trkpt lat="42.87148028710401" lon="11.740963774821104"><ele>366.3333333333333</ele><time>2026-04-03T14:52:03.001Z</time></trkpt><trkpt lat="42.87127635372288" lon="11.740934533445225"><ele>367.0</ele><time>2026-04-03T14:52:04.001Z</time></trkpt><trkpt lat="42.871136744901044" lon="11.741090901003263"><ele>368.66666666666663</ele><time>2026-04-03T14:52:05.001Z</time></trkpt><trkpt lat="42.87098438280637" lon="11.741153086860594"><ele>370.3333333333333</ele><time>2026-04-03T14:52:06.001Z</time></trkpt><trkpt lat="42.87083912693642" lon="11.741211439523033"><ele>372.0</ele><time>2026-04-03T14:52:07.001Z</time></trkpt><trkpt lat="42.87070764602497" lon="11.74127864883702"><ele>372.0</ele><time>2026-04-03T14:52:08.001Z</time></trkpt><trkpt lat="42.87056516565266" lon="11.741298578935218"><ele>372.0</ele><time>2026-04-03T14:52:09.001Z</time></trkpt><trkpt lat="42.870418542547014" lon="11.741350523940826"><ele>372.0</ele><time>2026-04-03T14:52:10.001Z</time></trkpt><trkpt lat="42.87026439810586" lon="11.74142118289019"><ele>368.6666666666667</ele><time>2026-04-03T14:52:11.001Z</time></trkpt><trkpt lat="42.87010151418747" lon="11.741513525086473"><ele>365.33333333333337</ele><time>2026-04-03T14:52:12.001Z</time></trkpt><trkpt lat="42.86993665119971" lon="11.741615450847162"><ele>362.0</ele><time>2026-04-03T14:52:13.001Z</time></trkpt><trkpt lat="42.869768829423165" lon="11.741739346891176"><ele>362.0</ele><time>2026-04-03T14:52:14.001Z</time></trkpt><trkpt lat="42.86958719474659" lon="11.741838753031846"><ele>362.0</ele><time>2026-04-03T14:52:15.001Z</time></trkpt><trkpt lat="42.86939487884355" lon="11.741931292844823"><ele>362.0</ele><time>2026-04-03T14:52:16.001Z</time></trkpt><trkpt lat="42.869202932853604" lon="11.742030097508763"><ele>363.33333333333337</ele><time>2026-04-03T14:52:17.001Z</time></trkpt><trkpt lat="42.869011347127575" lon="11.742135097976155"><ele>364.6666666666667</ele><time>2026-04-03T14:52:18.001Z</time></trkpt><trkpt lat="42.868812550139786" lon="11.742244966159616"><ele>366.0</ele><time>2026-04-03T14:52:19.001Z</time></trkpt><trkpt lat="42.868602038189216" lon="11.7423611879107"><ele>362.5</ele><time>2026-04-03T14:52:20.001Z</time></trkpt><trkpt lat="42.86838852115155" lon="11.742466035785892"><ele>359.0</ele><time>2026-04-03T14:52:21.001Z</time></trkpt><trkpt lat="42.86819175400011" lon="11.742628245464504"><ele>364.5</ele><time>2026-04-03T14:52:22.001Z</time></trkpt><trkpt lat="42.86799118704506" lon="11.742791071745978"><ele>370.0</ele><time>2026-04-03T14:52:23.001Z</time></trkpt><trkpt lat="42.86779041752334" lon="11.74294335643864"><ele>367.0</ele><time>2026-04-03T14:52:24.001Z</time></trkpt><trkpt lat="42.867603018807614" lon="11.743108082565001"><ele>364.0</ele><time>2026-04-03T14:52:25.001Z</time></trkpt><trkpt lat="42.86741719116589" lon="11.743272599671803"><ele>361.0</ele><time>2026-04-03T14:52:26.001Z</time></trkpt><trkpt lat="42.86724105550793" lon="11.743454065948693"><ele>361.3333333333333</ele><time>2026-04-03T14:52:27.001Z</time></trkpt><trkpt lat="42.867057290974756" lon="11.743607324765838"><ele>361.6666666666667</ele><time>2026-04-03T14:52:28.001Z</time></trkpt><trkpt lat="42.86687588992407" lon="11.743752691747256"><ele>362.0</ele><time>2026-04-03T14:52:29.001Z</time></trkpt><trkpt lat="42.86669340245352" lon="11.74388181803907"><ele>360.6666666666667</ele><time>2026-04-03T14:52:30.001Z</time></trkpt><trkpt lat="42.86650564396444" lon="11.74399392602281"><ele>359.3333333333333</ele><time>2026-04-03T14:52:31.001Z</time></trkpt><trkpt lat="42.866307445515886" lon="11.744091066112652"><ele>358.0</ele><time>2026-04-03T14:52:32.001Z</time></trkpt><trkpt lat="42.86610754007519" lon="11.74417300739786"><ele>357.0</ele><time>2026-04-03T14:52:33.001Z</time></trkpt><trkpt lat="42.865905539302425" lon="11.744247077314352"><ele>356.0</ele><time>2026-04-03T14:52:34.001Z</time></trkpt><trkpt lat="42.8657031708279" lon="11.744326056888406"><ele>355.0</ele><time>2026-04-03T14:52:35.001Z</time></trkpt><trkpt lat="42.865501616221806" lon="11.744409474931787"><ele>355.3333333333333</ele><time>2026-04-03T14:52:36.001Z</time></trkpt><trkpt lat="42.86529664962148" lon="11.744472633765957"><ele>355.6666666666667</ele><time>2026-04-03T14:52:37.001Z</time></trkpt><trkpt lat="42.865096350853236" lon="11.744561591636353"><ele>356.0</ele><time>2026-04-03T14:52:38.001Z</time></trkpt><trkpt lat="42.86489555183434" lon="11.744657835237563"><ele>356.0</ele><time>2026-04-03T14:52:39.001Z</time></trkpt><trkpt lat="42.864694002620645" lon="11.744758837456443"><ele>356.0</ele><time>2026-04-03T14:52:40.001Z</time></trkpt><trkpt lat="42.86449110759576" lon="11.744863569489306"><ele>356.0</ele><time>2026-04-03T14:52:41.001Z</time></trkpt><trkpt lat="42.86428612681926" lon="11.744972660352488"><ele>355.33333333333337</ele><time>2026-04-03T14:52:42.001Z</time></trkpt><trkpt lat="42.8640802513123" lon="11.745083007112706"><ele>354.6666666666667</ele><time>2026-04-03T14:52:43.001Z</time></trkpt><trkpt lat="42.86387128485802" lon="11.745199231288375"><ele>354.0</ele><time>2026-04-03T14:52:44.001Z</time></trkpt><trkpt lat="42.863652711622464" lon="11.74526499372046"><ele>355.5</ele><time>2026-04-03T14:52:45.001Z</time></trkpt><trkpt lat="42.863432390315154" lon="11.745341356049583"><ele>357.0</ele><time>2026-04-03T14:52:46.001Z</time></trkpt><trkpt lat="42.86321364570348" lon="11.745435920846768"><ele>357.0</ele><time>2026-04-03T14:52:47.001Z</time></trkpt><trkpt lat="42.86298848197389" lon="11.745502486606537"><ele>357.0</ele><time>2026-04-03T14:52:48.001Z</time></trkpt><trkpt lat="42.86276004144889" lon="11.74557333622726"><ele>354.0</ele><time>2026-04-03T14:52:49.001Z</time></trkpt><trkpt lat="42.86253349721466" lon="11.745644044122894"><ele>351.0</ele><time>2026-04-03T14:52:50.001Z</time></trkpt><trkpt lat="42.86230602928158" lon="11.745716255898163"><ele>351.0</ele><time>2026-04-03T14:52:51.001Z</time></trkpt><trkpt lat="42.862081925950385" lon="11.74579794744992"><ele>351.0</ele><time>2026-04-03T14:52:52.001Z</time></trkpt><trkpt lat="42.86186283469005" lon="11.745889968888479"><ele>350.0</ele><time>2026-04-03T14:52:53.001Z</time></trkpt><trkpt lat="42.86164950985147" lon="11.746003037346476"><ele>349.0</ele><time>2026-04-03T14:52:54.001Z</time></trkpt><trkpt lat="42.8614441612673" lon="11.746137224929353"><ele>350.0</ele><time>2026-04-03T14:52:55.001Z</time></trkpt><trkpt lat="42.86124535067371" lon="11.746284650684277"><ele>351.0</ele><time>2026-04-03T14:52:56.002Z</time></trkpt><trkpt lat="42.861046983576955" lon="11.746423705723702"><ele>352.0</ele><time>2026-04-03T14:52:57.002Z</time></trkpt><trkpt lat="42.86084295520632" lon="11.74655470736043"><ele>352.0</ele><time>2026-04-03T14:52:58.002Z</time></trkpt><trkpt lat="42.860637500418115" lon="11.746683427110456"><ele>352.0</ele><time>2026-04-03T14:52:59.002Z</time></trkpt><trkpt lat="42.86043413366722" lon="11.746810701689869"><ele>350.66666666666663</ele><time>2026-04-03T14:53:00.002Z</time></trkpt><trkpt lat="42.86023465414495" lon="11.746946560568551"><ele>349.3333333333333</ele><time>2026-04-03T14:53:01.002Z</time></trkpt><trkpt lat="42.86003889330739" lon="11.747099183350272"><ele>348.0</ele><time>2026-04-03T14:53:02.002Z</time></trkpt><trkpt lat="42.85985300128934" lon="11.747271160785594"><ele>348.0</ele><time>2026-04-03T14:53:03.002Z</time></trkpt><trkpt lat="42.85967017349766" lon="11.74745864451178"><ele>348.0</ele><time>2026-04-03T14:53:04.002Z</time></trkpt><trkpt lat="42.859473804421384" lon="11.747625450959688"><ele>346.5</ele><time>2026-04-03T14:53:05.002Z</time></trkpt><trkpt lat="42.859294702797854" lon="11.747832329273294"><ele>345.0</ele><time>2026-04-03T14:53:06.002Z</time></trkpt><trkpt lat="42.859103335964605" lon="11.748016944197827"><ele>345.0</ele><time>2026-04-03T14:53:07.002Z</time></trkpt><trkpt lat="42.858913890279055" lon="11.748206904315314"><ele>345.0</ele><time>2026-04-03T14:53:08.002Z</time></trkpt><trkpt lat="42.85872354051026" lon="11.748398099037532"><ele>344.5</ele><time>2026-04-03T14:53:09.002Z</time></trkpt><trkpt lat="42.858532022401995" lon="11.748583650219425"><ele>344.0</ele><time>2026-04-03T14:53:10.002Z</time></trkpt><trkpt lat="42.858343200662254" lon="11.748767715292065"><ele>344.0</ele><time>2026-04-03T14:53:11.002Z</time></trkpt><trkpt lat="42.85815461019901" lon="11.748945946883131"><ele>344.0</ele><time>2026-04-03T14:53:12.002Z</time></trkpt><trkpt lat="42.857964536622184" lon="11.74911945052983"><ele>344.0</ele><time>2026-04-03T14:53:13.002Z</time></trkpt><trkpt lat="42.857769157723446" lon="11.74927607756653"><ele>344.0</ele><time>2026-04-03T14:53:14.002Z</time></trkpt><trkpt lat="42.8575664739842" lon="11.74940749704525"><ele>348.5</ele><time>2026-04-03T14:53:15.002Z</time></trkpt><trkpt lat="42.85735487668674" lon="11.749517453726577"><ele>353.0</ele><time>2026-04-03T14:53:16.002Z</time></trkpt><trkpt lat="42.85713193810925" lon="11.749609631297165"><ele>353.0</ele><time>2026-04-03T14:53:17.002Z</time></trkpt><trkpt lat="42.856906426001785" lon="11.749682484423374"><ele>353.0</ele><time>2026-04-03T14:53:18.002Z</time></trkpt><trkpt lat="42.85667563176163" lon="11.749747421587593"><ele>350.0</ele><time>2026-04-03T14:53:19.002Z</time></trkpt><trkpt lat="42.85644442626511" lon="11.749816849727328"><ele>347.0</ele><time>2026-04-03T14:53:20.002Z</time></trkpt><trkpt lat="42.856215603297926" lon="11.749889446743632"><ele>347.0</ele><time>2026-04-03T14:53:21.002Z</time></trkpt><trkpt lat="42.85598283916679" lon="11.749966498463197"><ele>347.0</ele><time>2026-04-03T14:53:22.002Z</time></trkpt><trkpt lat="42.85575148049572" lon="11.750036987219147"><ele>343.5</ele><time>2026-04-03T14:53:23.002Z</time></trkpt><trkpt lat="42.85551847338224" lon="11.750108897570836"><ele>340.0</ele><time>2026-04-03T14:53:24.002Z</time></trkpt><trkpt lat="42.85528580847796" lon="11.750190854457701"><ele>345.0</ele><time>2026-04-03T14:53:25.002Z</time></trkpt><trkpt lat="42.855057691315054" lon="11.750280313230425"><ele>350.0</ele><time>2026-04-03T14:53:26.002Z</time></trkpt><trkpt lat="42.85483056089664" lon="11.750378887688283"><ele>350.0</ele><time>2026-04-03T14:53:27.002Z</time></trkpt><trkpt lat="42.854606872962194" lon="11.750475929510028"><ele>350.0</ele><time>2026-04-03T14:53:28Z</time></trkpt><trkpt lat="42.8543745602603" lon="11.750578645361145"><ele>346.5</ele><time>2026-04-03T14:53:29Z</time></trkpt><trkpt lat="42.85414814837965" lon="11.75067109805467"><ele>343.0</ele><time>2026-04-03T14:53:30Z</time></trkpt><trkpt lat="42.85391604025291" lon="11.750774472758696"><ele>343.0</ele><time>2026-04-03T14:53:31Z</time></trkpt><trkpt lat="42.85369209490064" lon="11.750872545702306"><ele>343.0</ele><time>2026-04-03T14:53:32Z</time></trkpt><trkpt lat="42.853467812084325" lon="11.750972307083291"><ele>346.0</ele><time>2026-04-03T14:53:33Z</time></trkpt><trkpt lat="42.853245356409964" lon="11.751068065976476"><ele>349.0</ele><time>2026-04-03T14:53:34Z</time></trkpt><trkpt lat="42.85302458719104" lon="11.75116030333071"><ele>349.0</ele><time>2026-04-03T14:53:35Z</time></trkpt><trkpt lat="42.852808171464915" lon="11.751260183036235"><ele>349.0</ele><time>2026-04-03T14:53:36Z</time></trkpt><trkpt lat="42.85259744047458" lon="11.75136854206546"><ele>346.0</ele><time>2026-04-03T14:53:37Z</time></trkpt><trkpt lat="42.852389377268224" lon="11.751485702348807"><ele>343.0</ele><time>2026-04-03T14:53:38Z</time></trkpt><trkpt lat="42.85218648916684" lon="11.75160664529189"><ele>340.0</ele><time>2026-04-03T14:53:39Z</time></trkpt><trkpt lat="42.851984545176876" lon="11.751731122197153"><ele>338.66666666666663</ele><time>2026-04-03T14:53:40Z</time></trkpt><trkpt lat="42.85178106620472" lon="11.751851545556844"><ele>337.3333333333333</ele><time>2026-04-03T14:53:41Z</time></trkpt><trkpt lat="42.851577753880434" lon="11.751965097812702"><ele>336.0</ele><time>2026-04-03T14:53:42Z</time></trkpt><trkpt lat="42.851374192872484" lon="11.752075339425506"><ele>336.0</ele><time>2026-04-03T14:53:43Z</time></trkpt><trkpt lat="42.851171028956564" lon="11.752187745608463"><ele>336.0</ele><time>2026-04-03T14:53:44Z</time></trkpt><trkpt lat="42.85096993435221" lon="11.752294679666326"><ele>336.0</ele><time>2026-04-03T14:53:45Z</time></trkpt><trkpt lat="42.85076350028888" lon="11.752395370889191"><ele>334.0</ele><time>2026-04-03T14:53:46Z</time></trkpt><trkpt lat="42.850549394472196" lon="11.752480380309551"><ele>332.0</ele><time>2026-04-03T14:53:47Z</time></trkpt><trkpt lat="42.850325194658836" lon="11.752549847945383"><ele>331.5</ele><time>2026-04-03T14:53:48Z</time></trkpt><trkpt lat="42.850095154368155" lon="11.752608822787574"><ele>331.0</ele><time>2026-04-03T14:53:49Z</time></trkpt><trkpt lat="42.849861051127846" lon="11.752680116710668"><ele>335.0</ele><time>2026-04-03T14:53:50Z</time></trkpt><trkpt lat="42.849628162961814" lon="11.75276198432316"><ele>339.0</ele><time>2026-04-03T14:53:51Z</time></trkpt><trkpt lat="42.849396668240914" lon="11.752836078601641"><ele>336.5</ele><time>2026-04-03T14:53:52Z</time></trkpt><trkpt lat="42.84916043094151" lon="11.752905420085833"><ele>334.0</ele><time>2026-04-03T14:53:53Z</time></trkpt><trkpt lat="42.84892095407605" lon="11.752980899012629"><ele>334.0</ele><time>2026-04-03T14:53:54Z</time></trkpt><trkpt lat="42.84868127624377" lon="11.753055806214377"><ele>334.0</ele><time>2026-04-03T14:53:55Z</time></trkpt><trkpt lat="42.84844092723708" lon="11.753129917108376"><ele>332.0</ele><time>2026-04-03T14:53:56Z</time></trkpt><trkpt lat="42.84820245632771" lon="11.753203670300795"><ele>330.0</ele><time>2026-04-03T14:53:57Z</time></trkpt><trkpt lat="42.8479638167399" lon="11.753276671259293"><ele>330.0</ele><time>2026-04-03T14:53:58Z</time></trkpt><trkpt lat="42.84772831899388" lon="11.753349305620283"><ele>330.0</ele><time>2026-04-03T14:53:59Z</time></trkpt><trkpt lat="42.847495419248006" lon="11.753421779614472"><ele>329.0</ele><time>2026-04-03T14:54:00Z</time></trkpt><trkpt lat="42.84726391183722" lon="11.75349086087142"><ele>328.0</ele><time>2026-04-03T14:54:01Z</time></trkpt><trkpt lat="42.84703498732921" lon="11.753557996875552"><ele>329.0</ele><time>2026-04-03T14:54:02Z</time></trkpt><trkpt lat="42.84681000058643" lon="11.753619865994569"><ele>330.0</ele><time>2026-04-03T14:54:03Z</time></trkpt><trkpt lat="42.846586062060226" lon="11.753668900362022"><ele>330.0</ele><time>2026-04-03T14:54:04Z</time></trkpt><trkpt lat="42.84635932069395" lon="11.7536926567523"><ele>330.0</ele><time>2026-04-03T14:54:05Z</time></trkpt><trkpt lat="42.84613225761848" lon="11.753706841624082"><ele>329.5</ele><time>2026-04-03T14:54:06Z</time></trkpt><trkpt lat="42.845907345149286" lon="11.753714978229523"><ele>329.0</ele><time>2026-04-03T14:54:07Z</time></trkpt><trkpt lat="42.8456803644103" lon="11.753726260641306"><ele>329.0</ele><time>2026-04-03T14:54:08Z</time></trkpt><trkpt lat="42.84545479543462" lon="11.753740296971872"><ele>329.0</ele><time>2026-04-03T14:54:09.001Z</time></trkpt><trkpt lat="42.845228543932066" lon="11.75375255819458"><ele>328.0</ele><time>2026-04-03T14:54:10.001Z</time></trkpt><trkpt lat="42.84500005465893" lon="11.753765502470245"><ele>327.0</ele><time>2026-04-03T14:54:11.001Z</time></trkpt><trkpt lat="42.844775429201285" lon="11.753781657905686"><ele>327.0</ele><time>2026-04-03T14:54:12.001Z</time></trkpt><trkpt lat="42.84455023877488" lon="11.75379470182651"><ele>327.0</ele><time>2026-04-03T14:54:13.001Z</time></trkpt><trkpt lat="42.844325479828505" lon="11.753805689260918"><ele>326.0</ele><time>2026-04-03T14:54:14.001Z</time></trkpt><trkpt lat="42.84409962328167" lon="11.75381406479836"><ele>325.0</ele><time>2026-04-03T14:54:15.001Z</time></trkpt><trkpt lat="42.84387337383436" lon="11.753820714525332"><ele>325.0</ele><time>2026-04-03T14:54:16.001Z</time></trkpt><trkpt lat="42.8436485604573" lon="11.753830859585042"><ele>325.0</ele><time>2026-04-03T14:54:17.001Z</time></trkpt><trkpt lat="42.843425983203765" lon="11.753841782008907"><ele>325.0</ele><time>2026-04-03T14:54:18.001Z</time></trkpt><trkpt lat="42.843203691390265" lon="11.753852319443965"><ele>324.66666666666663</ele><time>2026-04-03T14:54:19.001Z</time></trkpt><trkpt lat="42.8429823089449" lon="11.7538646749003"><ele>324.3333333333333</ele><time>2026-04-03T14:54:20.001Z</time></trkpt><trkpt lat="42.84275826833352" lon="11.753875871673987"><ele>324.0</ele><time>2026-04-03T14:54:21.001Z</time></trkpt><trkpt lat="42.842535545784884" lon="11.753890885042969"><ele>323.6666666666667</ele><time>2026-04-03T14:54:22.001Z</time></trkpt><trkpt lat="42.842312673215694" lon="11.753903464920059"><ele>323.33333333333337</ele><time>2026-04-03T14:54:23.001Z</time></trkpt><trkpt lat="42.84208923874729" lon="11.753912315771107"><ele>323.0</ele><time>2026-04-03T14:54:24.001Z</time></trkpt><trkpt lat="42.84186327210775" lon="11.753917121468742"><ele>322.0</ele><time>2026-04-03T14:54:25.001Z</time></trkpt><trkpt lat="42.841636400328994" lon="11.753925197752505"><ele>321.0</ele><time>2026-04-03T14:54:26.001Z</time></trkpt><trkpt lat="42.841407544647296" lon="11.753938302896232"><ele>321.0</ele><time>2026-04-03T14:54:27.001Z</time></trkpt><trkpt lat="42.841176969840745" lon="11.753952862980526"><ele>321.0</ele><time>2026-04-03T14:54:28.001Z</time></trkpt><trkpt lat="42.84094698465425" lon="11.753968926944587"><ele>321.0</ele><time>2026-04-03T14:54:29.001Z</time></trkpt><trkpt lat="42.8407158540989" lon="11.754000260006931"><ele>321.0</ele><time>2026-04-03T14:54:30.001Z</time></trkpt><trkpt lat="42.840490218784055" lon="11.754050663183257"><ele>321.0</ele><time>2026-04-03T14:54:31.001Z</time></trkpt><trkpt lat="42.84027350353353" lon="11.75411698270404"><ele>321.0</ele><time>2026-04-03T14:54:32.001Z</time></trkpt><trkpt lat="42.84005711928362" lon="11.75421671782645"><ele>321.0</ele><time>2026-04-03T14:54:33.001Z</time></trkpt><trkpt lat="42.839843337544565" lon="11.754328458915747"><ele>321.0</ele><time>2026-04-03T14:54:34.001Z</time></trkpt><trkpt lat="42.83963026562767" lon="11.754436023635852"><ele>321.5</ele><time>2026-04-03T14:54:35.001Z</time></trkpt><trkpt lat="42.8394172419564" lon="11.75453975003516"><ele>322.0</ele><time>2026-04-03T14:54:36.001Z</time></trkpt><trkpt lat="42.839202557306706" lon="11.754645809230757"><ele>322.0</ele><time>2026-04-03T14:54:37.001Z</time></trkpt><trkpt lat="42.838988805124494" lon="11.754754466321444"><ele>322.0</ele><time>2026-04-03T14:54:38.001Z</time></trkpt><trkpt lat="42.83877557320777" lon="11.754860808029168"><ele>322.0</ele><time>2026-04-03T14:54:39.001Z</time></trkpt><trkpt lat="42.838562323747105" lon="11.754962623500456"><ele>322.0</ele><time>2026-04-03T14:54:40.001Z</time></trkpt><trkpt lat="42.83835203060084" lon="11.755066136437469"><ele>322.0</ele><time>2026-04-03T14:54:41.001Z</time></trkpt><trkpt lat="42.83814543196408" lon="11.755170675540862"><ele>321.66666666666663</ele><time>2026-04-03T14:54:42.001Z</time></trkpt><trkpt lat="42.83794084606385" lon="11.755272182493929"><ele>321.3333333333333</ele><time>2026-04-03T14:54:43.001Z</time></trkpt><trkpt lat="42.83773394227333" lon="11.755371321587328"><ele>321.0</ele><time>2026-04-03T14:54:44.001Z</time></trkpt><trkpt lat="42.83752489622809" lon="11.755472583348551"><ele>321.0</ele><time>2026-04-03T14:54:45.001Z</time></trkpt><trkpt lat="42.83731668045719" lon="11.755573989738544"><ele>321.0</ele><time>2026-04-03T14:54:46.001Z</time></trkpt><trkpt lat="42.83711649327331" lon="11.755675488186757"><ele>321.0</ele><time>2026-04-03T14:54:47.001Z</time></trkpt><trkpt lat="42.836933062852076" lon="11.755764645111654"><ele>321.3333333333333</ele><time>2026-04-03T14:54:48.001Z</time></trkpt><trkpt lat="42.836752469341754" lon="11.755860069201486"><ele>321.66666666666663</ele><time>2026-04-03T14:54:49.001Z</time></trkpt><trkpt lat="42.83657342350518" lon="11.755949608884903"><ele>322.0</ele><time>2026-04-03T14:54:50.001Z</time></trkpt><trkpt lat="42.83638994404932" lon="11.756043216553223"><ele>321.66666666666663</ele><time>2026-04-03T14:54:51.001Z</time></trkpt><trkpt lat="42.836204682223546" lon="11.756138913612645"><ele>321.3333333333333</ele><time>2026-04-03T14:54:52.001Z</time></trkpt><trkpt lat="42.836020814021154" lon="11.756226447738772"><ele>321.0</ele><time>2026-04-03T14:54:53.001Z</time></trkpt><trkpt lat="42.835830718622134" lon="11.756316368023489"><ele>321.0</ele><time>2026-04-03T14:54:54.001Z</time></trkpt><trkpt lat="42.83563872817732" lon="11.756408348276684"><ele>321.0</ele><time>2026-04-03T14:54:55.001Z</time></trkpt><trkpt lat="42.83544524277137" lon="11.756503148646864"><ele>321.0</ele><time>2026-04-03T14:54:56.001Z</time></trkpt><trkpt lat="42.8352503327973" lon="11.756602087627302"><ele>321.0</ele><time>2026-04-03T14:54:57.001Z</time></trkpt><trkpt lat="42.83505297449445" lon="11.756693254403084"><ele>321.0</ele><time>2026-04-03T14:54:58.001Z</time></trkpt><trkpt lat="42.83485068291725" lon="11.756780135223416"><ele>321.0</ele><time>2026-04-03T14:54:59.001Z</time></trkpt><trkpt lat="42.83465862067797" lon="11.756879660366113"><ele>321.0</ele><time>2026-04-03T14:55:00.001Z</time></trkpt><trkpt lat="42.83445904169993" lon="11.756988405984652"><ele>321.0</ele><time>2026-04-03T14:55:01.001Z</time></trkpt><trkpt lat="42.83425987374557" lon="11.757111035633995"><ele>321.0</ele><time>2026-04-03T14:55:02.001Z</time></trkpt><trkpt lat="42.8341160110679" lon="11.757321644119076"><ele>321.0</ele><time>2026-04-03T14:55:03.001Z</time></trkpt><trkpt lat="42.83394586114165" lon="11.757487715712623"><ele>321.0</ele><time>2026-04-03T14:55:04.001Z</time></trkpt><trkpt lat="42.833772930671145" lon="11.757657010255198"><ele>321.0</ele><time>2026-04-03T14:55:05.001Z</time></trkpt><trkpt lat="42.83359272643676" lon="11.757826203868452"><ele>320.3333333333333</ele><time>2026-04-03T14:55:06.001Z</time></trkpt><trkpt lat="42.83340938256478" lon="11.757992120889249"><ele>319.66666666666663</ele><time>2026-04-03T14:55:07.001Z</time></trkpt><trkpt lat="42.83322560552378" lon="11.758157723777277"><ele>319.0</ele><time>2026-04-03T14:55:08.001Z</time></trkpt><trkpt lat="42.83304039206839" lon="11.75832216528341"><ele>319.0</ele><time>2026-04-03T14:55:09.001Z</time></trkpt><trkpt lat="42.83285518547459" lon="11.758489115451331"><ele>319.0</ele><time>2026-04-03T14:55:10.002Z</time></trkpt><trkpt lat="42.83267227114092" lon="11.758661824104292"><ele>319.0</ele><time>2026-04-03T14:55:11.002Z</time></trkpt><trkpt lat="42.83249072482623" lon="11.758835332534156"><ele>318.66666666666663</ele><time>2026-04-03T14:55:12.002Z</time></trkpt><trkpt lat="42.832307712865074" lon="11.759008769053318"><ele>318.3333333333333</ele><time>2026-04-03T14:55:13.002Z</time></trkpt><trkpt lat="42.832121642116746" lon="11.759175970160822"><ele>318.0</ele><time>2026-04-03T14:55:14.002Z</time></trkpt><trkpt lat="42.8319364647398" lon="11.759343933564859"><ele>316.6666666666667</ele><time>2026-04-03T14:55:15.002Z</time></trkpt><trkpt lat="42.831752316561776" lon="11.759515007890856"><ele>315.33333333333337</ele><time>2026-04-03T14:55:16.002Z</time></trkpt><trkpt lat="42.83156566944897" lon="11.759684576916618"><ele>314.0</ele><time>2026-04-03T14:55:17.002Z</time></trkpt><trkpt lat="42.83137899550819" lon="11.75985552932855"><ele>314.0</ele><time>2026-04-03T14:55:18.002Z</time></trkpt><trkpt lat="42.83119288986694" lon="11.760029595783573"><ele>314.0</ele><time>2026-04-03T14:55:19.002Z</time></trkpt><trkpt lat="42.83100581780842" lon="11.760199396938349"><ele>314.0</ele><time>2026-04-03T14:55:20.002Z</time></trkpt><trkpt lat="42.830816810640485" lon="11.760369144991897"><ele>314.0</ele><time>2026-04-03T14:55:21.002Z</time></trkpt><trkpt lat="42.830631453698864" lon="11.760539302671404"><ele>314.0</ele><time>2026-04-03T14:55:22.002Z</time></trkpt><trkpt lat="42.83044449638279" lon="11.76071121205876"><ele>314.0</ele><time>2026-04-03T14:55:23.002Z</time></trkpt><trkpt lat="42.830259935358306" lon="11.760878489606254"><ele>314.0</ele><time>2026-04-03T14:55:24.002Z</time></trkpt><trkpt lat="42.83007401596495" lon="11.761045228491978"><ele>312.33333333333337</ele><time>2026-04-03T14:55:25.002Z</time></trkpt><trkpt lat="42.82989128859381" lon="11.761215217996394"><ele>310.6666666666667</ele><time>2026-04-03T14:55:26.002Z</time></trkpt><trkpt lat="42.829709847820375" lon="11.761387154912697"><ele>309.0</ele><time>2026-04-03T14:55:27.002Z</time></trkpt><trkpt lat="42.82952909033606" lon="11.76155284752842"><ele>309.0</ele><time>2026-04-03T14:55:28.002Z</time></trkpt><trkpt lat="42.82935018285678" lon="11.761715500997527"><ele>309.0</ele><time>2026-04-03T14:55:29.002Z</time></trkpt><trkpt lat="42.82916974744927" lon="11.761878993118058"><ele>309.0</ele><time>2026-04-03T14:55:30.002Z</time></trkpt><trkpt lat="42.828989079612796" lon="11.762045667643841"><ele>308.3333333333333</ele><time>2026-04-03T14:55:31.002Z</time></trkpt><trkpt lat="42.82880702383408" lon="11.76220692523561"><ele>307.66666666666663</ele><time>2026-04-03T14:55:32.002Z</time></trkpt><trkpt lat="42.828623444565245" lon="11.762369116233687"><ele>307.0</ele><time>2026-04-03T14:55:33.002Z</time></trkpt><trkpt lat="42.82844135086341" lon="11.762535007832312"><ele>307.3333333333333</ele><time>2026-04-03T14:55:34Z</time></trkpt><trkpt lat="42.82826154457972" lon="11.762701810638628"><ele>307.6666666666667</ele><time>2026-04-03T14:55:35Z</time></trkpt><trkpt lat="42.828084773133874" lon="11.762878115949793"><ele>308.0</ele><time>2026-04-03T14:55:36Z</time></trkpt><trkpt lat="42.82791370546442" lon="11.763076478715874"><ele>308.0</ele><time>2026-04-03T14:55:37Z</time></trkpt><trkpt lat="42.82774933833547" lon="11.763283002769771"><ele>308.0</ele><time>2026-04-03T14:55:38Z</time></trkpt><trkpt lat="42.827591555074925" lon="11.763496458074625"><ele>308.0</ele><time>2026-04-03T14:55:39Z</time></trkpt><trkpt lat="42.82743101553366" lon="11.763708698650206"><ele>306.5</ele><time>2026-04-03T14:55:40Z</time></trkpt><trkpt lat="42.827266070112316" lon="11.763923342295897"><ele>305.0</ele><time>2026-04-03T14:55:41Z</time></trkpt><trkpt lat="42.82710001428636" lon="11.764135947140888"><ele>305.0</ele><time>2026-04-03T14:55:42Z</time></trkpt><trkpt lat="42.82693513979278" lon="11.76435408892382"><ele>305.0</ele><time>2026-04-03T14:55:43Z</time></trkpt><trkpt lat="42.82676589006763" lon="11.764572942974096"><ele>303.5</ele><time>2026-04-03T14:55:44Z</time></trkpt><trkpt lat="42.82659622336748" lon="11.764791645790451"><ele>302.0</ele><time>2026-04-03T14:55:45Z</time></trkpt><trkpt lat="42.82642744953461" lon="11.765008189459708"><ele>304.0</ele><time>2026-04-03T14:55:46Z</time></trkpt><trkpt lat="42.82626442337551" lon="11.76522459561444"><ele>306.0</ele><time>2026-04-03T14:55:47Z</time></trkpt><trkpt lat="42.82610198842261" lon="11.765445799816872"><ele>305.3333333333333</ele><time>2026-04-03T14:55:48Z</time></trkpt><trkpt lat="42.82593974987722" lon="11.765658302182688"><ele>304.66666666666663</ele><time>2026-04-03T14:55:49Z</time></trkpt><trkpt lat="42.825780543576684" lon="11.765868095511932"><ele>304.0</ele><time>2026-04-03T14:55:50Z</time></trkpt><trkpt lat="42.825621936822934" lon="11.76606771000782"><ele>304.0</ele><time>2026-04-03T14:55:51Z</time></trkpt><trkpt lat="42.82546621251143" lon="11.76626447895377"><ele>304.0</ele><time>2026-04-03T14:55:52Z</time></trkpt><trkpt lat="42.82531636505246" lon="11.766461659359152"><ele>304.0</ele><time>2026-04-03T14:55:53Z</time></trkpt><trkpt lat="42.82516724861399" lon="11.766654587730477"><ele>303.0</ele><time>2026-04-03T14:55:54Z</time></trkpt><trkpt lat="42.82501869394442" lon="11.766850129465874"><ele>302.0</ele><time>2026-04-03T14:55:55Z</time></trkpt><trkpt lat="42.82486723838064" lon="11.767038905065274"><ele>301.0</ele><time>2026-04-03T14:55:56Z</time></trkpt><trkpt lat="42.82472056708619" lon="11.767225218675161"><ele>301.0</ele><time>2026-04-03T14:55:57Z</time></trkpt><trkpt lat="42.82457592545437" lon="11.767396427358824"><ele>301.0</ele><time>2026-04-03T14:55:58Z</time></trkpt><trkpt lat="42.82443421161718" lon="11.767637334232788"><ele>301.0</ele><time>2026-04-03T14:55:59Z</time></trkpt><trkpt lat="42.82431268547785" lon="11.767832524682882"><ele>300.3333333333333</ele><time>2026-04-03T14:56:00Z</time></trkpt><trkpt lat="42.82420783362739" lon="11.768022290709725"><ele>299.6666666666667</ele><time>2026-04-03T14:56:01Z</time></trkpt><trkpt lat="42.82411754929214" lon="11.768212605125726"><ele>299.0</ele><time>2026-04-03T14:56:02Z</time></trkpt><trkpt lat="42.82403756586074" lon="11.768391663713901"><ele>299.0</ele><time>2026-04-03T14:56:03Z</time></trkpt><trkpt lat="42.823971155006724" lon="11.768567291109395"><ele>299.0</ele><time>2026-04-03T14:56:04Z</time></trkpt><trkpt lat="42.82391093981614" lon="11.768747353839146"><ele>299.0</ele><time>2026-04-03T14:56:05Z</time></trkpt><trkpt lat="42.82385474614926" lon="11.76894761722563"><ele>299.0</ele><time>2026-04-03T14:56:06Z</time></trkpt><trkpt lat="42.823809135372464" lon="11.769135493872295"><ele>299.0</ele><time>2026-04-03T14:56:07Z</time></trkpt><trkpt lat="42.823763806298004" lon="11.769306796632979"><ele>299.0</ele><time>2026-04-03T14:56:08Z</time></trkpt><trkpt lat="42.8237235476361" lon="11.769468673656672"><ele>299.0</ele><time>2026-04-03T14:56:09Z</time></trkpt><trkpt lat="42.82368758833067" lon="11.769620023711752"><ele>299.0</ele><time>2026-04-03T14:56:10Z</time></trkpt><trkpt lat="42.82365542487809" lon="11.76975303099905"><ele>299.0</ele><time>2026-04-03T14:56:11Z</time></trkpt><trkpt lat="42.82361544138483" lon="11.769873874872966"><ele>299.0</ele><time>2026-04-03T14:56:12Z</time></trkpt><trkpt lat="42.82355715977265" lon="11.769975136747613"><ele>299.0</ele><time>2026-04-03T14:56:13Z</time></trkpt><trkpt lat="42.823471359917924" lon="11.770025549720975"><ele>299.0</ele><time>2026-04-03T14:56:14Z</time></trkpt><trkpt lat="42.82335324520826" lon="11.769996178541385"><ele>299.0</ele><time>2026-04-03T14:56:15Z</time></trkpt><trkpt lat="42.82325917192906" lon="11.770020346641854"><ele>298.0</ele><time>2026-04-03T14:56:16Z</time></trkpt><trkpt lat="42.82319881257428" lon="11.769795962166679"><ele>297.0</ele><time>2026-04-03T14:56:17Z</time></trkpt><trkpt lat="42.82313914857155" lon="11.769624278193191"><ele>296.0</ele><time>2026-04-03T14:56:18Z</time></trkpt><trkpt lat="42.82308130693108" lon="11.769428057327932"><ele>295.6666666666667</ele><time>2026-04-03T14:56:19Z</time></trkpt><trkpt lat="42.823017991489806" lon="11.769218719068894"><ele>295.3333333333333</ele><time>2026-04-03T14:56:20Z</time></trkpt><trkpt lat="42.82294332505673" lon="11.769005199346564"><ele>295.0</ele><time>2026-04-03T14:56:21.001Z</time></trkpt><trkpt lat="42.82286420378831" lon="11.768745581559271"><ele>294.66666666666663</ele><time>2026-04-03T14:56:22.001Z</time></trkpt><trkpt lat="42.82279226420443" lon="11.7685158916427"><ele>294.3333333333333</ele><time>2026-04-03T14:56:23.001Z</time></trkpt><trkpt lat="42.82272335059007" lon="11.768276199622829"><ele>294.0</ele><time>2026-04-03T14:56:24.001Z</time></trkpt><trkpt lat="42.8226678900278" lon="11.76803204936221"><ele>294.3333333333333</ele><time>2026-04-03T14:56:25.001Z</time></trkpt><trkpt lat="42.82262494962107" lon="11.767785788659396"><ele>294.66666666666663</ele><time>2026-04-03T14:56:26.001Z</time></trkpt><trkpt lat="42.822613736885856" lon="11.767531715763678"><ele>295.0</ele><time>2026-04-03T14:56:27.001Z</time></trkpt><trkpt lat="42.8225801804141" lon="11.767279809724005"><ele>295.0</ele><time>2026-04-03T14:56:28.001Z</time></trkpt><trkpt lat="42.82255583667634" lon="11.767051954756466"><ele>295.0</ele><time>2026-04-03T14:56:29.001Z</time></trkpt><trkpt lat="42.82250889824347" lon="11.7668402474524"><ele>295.0</ele><time>2026-04-03T14:56:30.001Z</time></trkpt><trkpt lat="42.822438216943866" lon="11.766636313661335"><ele>296.0</ele><time>2026-04-03T14:56:31.001Z</time></trkpt><trkpt lat="42.822338285565905" lon="11.76645227898886"><ele>297.0</ele><time>2026-04-03T14:56:32.001Z</time></trkpt><trkpt lat="42.8222089258001" lon="11.766296921463473"><ele>298.0</ele><time>2026-04-03T14:56:33.001Z</time></trkpt><trkpt lat="42.82206903872902" lon="11.766155431907826"><ele>298.0</ele><time>2026-04-03T14:56:34.001Z</time></trkpt><trkpt lat="42.82191814741644" lon="11.76602899098709"><ele>298.0</ele><time>2026-04-03T14:56:35.001Z</time></trkpt><trkpt lat="42.821774223638926" lon="11.765881143295644"><ele>298.0</ele><time>2026-04-03T14:56:36.001Z</time></trkpt><trkpt lat="42.821618497866496" lon="11.765739719140129"><ele>296.66666666666663</ele><time>2026-04-03T14:56:37.001Z</time></trkpt><trkpt lat="42.82145829506431" lon="11.765594229139715"><ele>295.3333333333333</ele><time>2026-04-03T14:56:38.001Z</time></trkpt><trkpt lat="42.82129980399742" lon="11.765450724146238"><ele>294.0</ele><time>2026-04-03T14:56:39.001Z</time></trkpt><trkpt lat="42.821143398614424" lon="11.765309107851103"><ele>294.0</ele><time>2026-04-03T14:56:40.001Z</time></trkpt><trkpt lat="42.82099740079646" lon="11.765176914728125"><ele>294.0</ele><time>2026-04-03T14:56:41.001Z</time></trkpt><trkpt lat="42.8208610777935" lon="11.765052062040914"><ele>294.0</ele><time>2026-04-03T14:56:42.001Z</time></trkpt><trkpt lat="42.82072579467053" lon="11.764923467756134"><ele>295.0</ele><time>2026-04-03T14:56:43.001Z</time></trkpt><trkpt lat="42.82060289384374" lon="11.764777718736841"><ele>296.0</ele><time>2026-04-03T14:56:44.001Z</time></trkpt><trkpt lat="42.82050881043698" lon="11.764616359208658"><ele>297.0</ele><time>2026-04-03T14:56:45.001Z</time></trkpt><trkpt lat="42.82043563741319" lon="11.7644384098968"><ele>296.6666666666667</ele><time>2026-04-03T14:56:46.001Z</time></trkpt><trkpt lat="42.82038626439898" lon="11.764242288543983"><ele>296.33333333333337</ele><time>2026-04-03T14:56:47.001Z</time></trkpt><trkpt lat="42.82036109905995" lon="11.764030750207155"><ele>296.0</ele><time>2026-04-03T14:56:48.001Z</time></trkpt><trkpt lat="42.82035998509637" lon="11.763819962757498"><ele>296.0</ele><time>2026-04-03T14:56:49.001Z</time></trkpt><trkpt lat="42.82037722057256" lon="11.763635721059817"><ele>296.0</ele><time>2026-04-03T14:56:50.001Z</time></trkpt><trkpt lat="42.82038401350936" lon="11.763457267463918"><ele>296.0</ele><time>2026-04-03T14:56:51.001Z</time></trkpt><trkpt lat="42.82039529492799" lon="11.76329869861386"><ele>296.0</ele><time>2026-04-03T14:56:52.001Z</time></trkpt><trkpt lat="42.82042357033758" lon="11.763183235849503"><ele>296.25</ele><time>2026-04-03T14:56:53.001Z</time></trkpt><trkpt lat="42.82028881863261" lon="11.76308202856625"><ele>296.5</ele><time>2026-04-03T14:56:54.001Z</time></trkpt><trkpt lat="42.82020344150671" lon="11.76299152730358"><ele>296.75</ele><time>2026-04-03T14:56:55.001Z</time></trkpt><trkpt lat="42.82011339915516" lon="11.762887777181954"><ele>297.0</ele><time>2026-04-03T14:56:56.001Z</time></trkpt><trkpt lat="42.82002481219782" lon="11.762764014063128"><ele>297.75</ele><time>2026-04-03T14:56:57.001Z</time></trkpt><trkpt lat="42.81992649212465" lon="11.762637478832174"><ele>298.5</ele><time>2026-04-03T14:56:58.001Z</time></trkpt><trkpt lat="42.81982839428371" lon="11.762503581212972"><ele>299.25</ele><time>2026-04-03T14:56:59.001Z</time></trkpt><trkpt lat="42.81971232605505" lon="11.762403970595608"><ele>300.0</ele><time>2026-04-03T14:57:00.001Z</time></trkpt><trkpt lat="42.81957783222044" lon="11.762345825844555"><ele>300.0</ele><time>2026-04-03T14:57:01.001Z</time></trkpt><trkpt lat="42.81942971890358" lon="11.762334623880617"><ele>300.0</ele><time>2026-04-03T14:57:02.001Z</time></trkpt><trkpt lat="42.819280122636194" lon="11.7623664446249"><ele>300.0</ele><time>2026-04-03T14:57:03.001Z</time></trkpt><trkpt lat="42.81912589310918" lon="11.76240638469119"><ele>299.3333333333333</ele><time>2026-04-03T14:57:04.001Z</time></trkpt><trkpt lat="42.81896296661356" lon="11.762409257379684"><ele>298.66666666666663</ele><time>2026-04-03T14:57:05.001Z</time></trkpt><trkpt lat="42.81880007074571" lon="11.762431103469384"><ele>298.0</ele><time>2026-04-03T14:57:06.001Z</time></trkpt><trkpt lat="42.81865024759194" lon="11.762443798798806"><ele>298.0</ele><time>2026-04-03T14:57:07.001Z</time></trkpt><trkpt lat="42.81851030228397" lon="11.762418418006149"><ele>298.0</ele><time>2026-04-03T14:57:08.001Z</time></trkpt><trkpt lat="42.81837642690891" lon="11.762338576862197"><ele>298.0</ele><time>2026-04-03T14:57:09.001Z</time></trkpt><trkpt lat="42.81825528653424" lon="11.762203062232198"><ele>298.0</ele><time>2026-04-03T14:57:10.001Z</time></trkpt><trkpt lat="42.818140366218195" lon="11.76202382544229"><ele>298.66666666666663</ele><time>2026-04-03T14:57:11.001Z</time></trkpt><trkpt lat="42.81801126996101" lon="11.76185274679211"><ele>299.3333333333333</ele><time>2026-04-03T14:57:12.001Z</time></trkpt><trkpt lat="42.81788952888716" lon="11.761659498987612"><ele>300.0</ele><time>2026-04-03T14:57:13.001Z</time></trkpt><trkpt lat="42.81776206345714" lon="11.761463463068882"><ele>299.6666666666667</ele><time>2026-04-03T14:57:14.001Z</time></trkpt><trkpt lat="42.81763504304497" lon="11.76126322907558"><ele>299.33333333333337</ele><time>2026-04-03T14:57:15.001Z</time></trkpt><trkpt lat="42.81750894407653" lon="11.761062005928203"><ele>299.0</ele><time>2026-04-03T14:57:16.001Z</time></trkpt><trkpt lat="42.817376653562626" lon="11.760862553128032"><ele>299.0</ele><time>2026-04-03T14:57:17.001Z</time></trkpt><trkpt lat="42.8172280530483" lon="11.760679076466483"><ele>299.0</ele><time>2026-04-03T14:57:18.002Z</time></trkpt><trkpt lat="42.81705106664148" lon="11.760529049713561"><ele>299.0</ele><time>2026-04-03T14:57:19.002Z</time></trkpt><trkpt lat="42.81685981737542" lon="11.760408730102466"><ele>299.0</ele><time>2026-04-03T14:57:20.002Z</time></trkpt><trkpt lat="42.81666474998168" lon="11.760288414138225"><ele>299.0</ele><time>2026-04-03T14:57:21.002Z</time></trkpt><trkpt lat="42.81648449775686" lon="11.760140414205521"><ele>299.0</ele><time>2026-04-03T14:57:22.002Z</time></trkpt><trkpt lat="42.81629352279379" lon="11.760006284941724"><ele>299.33333333333337</ele><time>2026-04-03T14:57:23.002Z</time></trkpt><trkpt lat="42.816088960381755" lon="11.75988735148204"><ele>299.6666666666667</ele><time>2026-04-03T14:57:24.002Z</time></trkpt><trkpt lat="42.81589622731477" lon="11.759726075984037"><ele>300.0</ele><time>2026-04-03T14:57:25.002Z</time></trkpt><trkpt lat="42.81569508284257" lon="11.759582852744181"><ele>301.5</ele><time>2026-04-03T14:57:26.002Z</time></trkpt><trkpt lat="42.815487450910034" lon="11.759436578042774"><ele>303.0</ele><time>2026-04-03T14:57:27.002Z</time></trkpt><trkpt lat="42.81528120062755" lon="11.759292671750478"><ele>303.5</ele><time>2026-04-03T14:57:28.002Z</time></trkpt><trkpt lat="42.81507244263857" lon="11.759147015784755"><ele>304.0</ele><time>2026-04-03T14:57:29.002Z</time></trkpt><trkpt lat="42.81486206749299" lon="11.759000231462664"><ele>304.0</ele><time>2026-04-03T14:57:30.002Z</time></trkpt><trkpt lat="42.81465030586478" lon="11.758852479751472"><ele>304.0</ele><time>2026-04-03T14:57:31.002Z</time></trkpt><trkpt lat="42.81444073911969" lon="11.758706259487266"><ele>304.0</ele><time>2026-04-03T14:57:32.002Z</time></trkpt><trkpt lat="42.814232559794" lon="11.758559286284322"><ele>304.0</ele><time>2026-04-03T14:57:33.002Z</time></trkpt><trkpt lat="42.81402633023225" lon="11.758413163608894"><ele>304.0</ele><time>2026-04-03T14:57:34.002Z</time></trkpt><trkpt lat="42.8138210710639" lon="11.758269246258742"><ele>304.0</ele><time>2026-04-03T14:57:35.002Z</time></trkpt><trkpt lat="42.81362435872183" lon="11.758132997477388"><ele>305.0</ele><time>2026-04-03T14:57:36.002Z</time></trkpt><trkpt lat="42.81342188406367" lon="11.75801882732445"><ele>306.0</ele><time>2026-04-03T14:57:37.002Z</time></trkpt><trkpt lat="42.81322723135431" lon="11.757885811156005"><ele>307.0</ele><time>2026-04-03T14:57:38.002Z</time></trkpt><trkpt lat="42.813033116511065" lon="11.757753951750654"><ele>306.66666666666663</ele><time>2026-04-03T14:57:39.002Z</time></trkpt><trkpt lat="42.812843203759996" lon="11.757619252758671"><ele>306.3333333333333</ele><time>2026-04-03T14:57:40Z</time></trkpt><trkpt lat="42.81264995547295" lon="11.75748583442446"><ele>306.0</ele><time>2026-04-03T14:57:41Z</time></trkpt><trkpt lat="42.81246032166764" lon="11.757351509191947"><ele>307.3333333333333</ele><time>2026-04-03T14:57:42Z</time></trkpt><trkpt lat="42.81226795762025" lon="11.757220749305619"><ele>308.66666666666663</ele><time>2026-04-03T14:57:43Z</time></trkpt><trkpt lat="42.81208587565889" lon="11.757073025225981"><ele>310.0</ele><time>2026-04-03T14:57:44Z</time></trkpt><trkpt lat="42.81188990344298" lon="11.756956642592536"><ele>310.66666666666663</ele><time>2026-04-03T14:57:45Z</time></trkpt><trkpt lat="42.81168529383367" lon="11.756877584958549"><ele>311.3333333333333</ele><time>2026-04-03T14:57:46Z</time></trkpt><trkpt lat="42.81148197903904" lon="11.756791671610154"><ele>312.0</ele><time>2026-04-03T14:57:47Z</time></trkpt><trkpt lat="42.811284191588" lon="11.75668340211212"><ele>312.3333333333333</ele><time>2026-04-03T14:57:48Z</time></trkpt><trkpt lat="42.81108461935044" lon="11.756589035597166"><ele>312.66666666666663</ele><time>2026-04-03T14:57:49Z</time></trkpt><trkpt lat="42.81089021885296" lon="11.756487964708164"><ele>313.0</ele><time>2026-04-03T14:57:50Z</time></trkpt><trkpt lat="42.81070787266913" lon="11.756356954525218"><ele>313.66666666666663</ele><time>2026-04-03T14:57:51Z</time></trkpt><trkpt lat="42.810529277161734" lon="11.756216288978996"><ele>314.3333333333333</ele><time>2026-04-03T14:57:52Z</time></trkpt><trkpt lat="42.81035256525664" lon="11.756077664517985"><ele>315.0</ele><time>2026-04-03T14:57:53Z</time></trkpt><trkpt lat="42.81016651580536" lon="11.755953926292188"><ele>317.0</ele><time>2026-04-03T14:57:54Z</time></trkpt><trkpt lat="42.81000196597295" lon="11.755803754427115"><ele>319.0</ele><time>2026-04-03T14:57:55Z</time></trkpt><trkpt lat="42.8098340665824" lon="11.755666814955868"><ele>321.0</ele><time>2026-04-03T14:57:56Z</time></trkpt><trkpt lat="42.80968055811142" lon="11.755519507622113"><ele>321.0</ele><time>2026-04-03T14:57:57Z</time></trkpt><trkpt lat="42.80954487850095" lon="11.755346928008485"><ele>321.0</ele><time>2026-04-03T14:57:58Z</time></trkpt><trkpt lat="42.80941613406419" lon="11.755158428288684"><ele>321.0</ele><time>2026-04-03T14:57:59Z</time></trkpt><trkpt lat="42.80927947832513" lon="11.754981169734275"><ele>323.3333333333333</ele><time>2026-04-03T14:58:00Z</time></trkpt><trkpt lat="42.80915061431581" lon="11.754797988542922"><ele>325.66666666666663</ele><time>2026-04-03T14:58:01Z</time></trkpt><trkpt lat="42.80901413412208" lon="11.754636665890734"><ele>328.0</ele><time>2026-04-03T14:58:02Z</time></trkpt><trkpt lat="42.808863497476196" lon="11.754495765495648"><ele>328.0</ele><time>2026-04-03T14:58:03Z</time></trkpt><trkpt lat="42.80870018462004" lon="11.754371448565234"><ele>328.0</ele><time>2026-04-03T14:58:04Z</time></trkpt><trkpt lat="42.80853915535856" lon="11.754224371452711"><ele>328.0</ele><time>2026-04-03T14:58:05Z</time></trkpt><trkpt lat="42.80837422684293" lon="11.754089845652016"><ele>330.3333333333333</ele><time>2026-04-03T14:58:06Z</time></trkpt><trkpt lat="42.80820619259882" lon="11.753955671003265"><ele>332.6666666666667</ele><time>2026-04-03T14:58:07Z</time></trkpt><trkpt lat="42.80803468597236" lon="11.753819275462696"><ele>335.0</ele><time>2026-04-03T14:58:08Z</time></trkpt><trkpt lat="42.80786366508388" lon="11.753683863508984"><ele>335.0</ele><time>2026-04-03T14:58:09Z</time></trkpt><trkpt lat="42.807695151001084" lon="11.753550436454981"><ele>335.0</ele><time>2026-04-03T14:58:10Z</time></trkpt><trkpt lat="42.80752465381302" lon="11.753415439132956"><ele>335.0</ele><time>2026-04-03T14:58:11Z</time></trkpt><trkpt lat="42.8073587500621" lon="11.753280866049757"><ele>336.33333333333337</ele><time>2026-04-03T14:58:12Z</time></trkpt><trkpt lat="42.80719722243672" lon="11.75314186545975"><ele>337.6666666666667</ele><time>2026-04-03T14:58:13Z</time></trkpt><trkpt lat="42.80704601368585" lon="11.75299382928286"><ele>339.0</ele><time>2026-04-03T14:58:14Z</time></trkpt><trkpt lat="42.80690378671216" lon="11.752850853245961"><ele>341.6666666666667</ele><time>2026-04-03T14:58:15Z</time></trkpt><trkpt lat="42.80676362003044" lon="11.752735313012918"><ele>344.33333333333337</ele><time>2026-04-03T14:58:16Z</time></trkpt><trkpt lat="42.80663567851374" lon="11.75262280217639"><ele>347.0</ele><time>2026-04-03T14:58:17Z</time></trkpt><trkpt lat="42.80649613851005" lon="11.75256469646776"><ele>347.0</ele><time>2026-04-03T14:58:18Z</time></trkpt><trkpt lat="42.80634193428896" lon="11.752572495450206"><ele>347.0</ele><time>2026-04-03T14:58:19Z</time></trkpt><trkpt lat="42.80618678212536" lon="11.752645965442772"><ele>347.0</ele><time>2026-04-03T14:58:20Z</time></trkpt><trkpt lat="42.80604020525611" lon="11.752772143057012"><ele>348.33333333333337</ele><time>2026-04-03T14:58:21Z</time></trkpt><trkpt lat="42.80591051477964" lon="11.752929285426026"><ele>349.6666666666667</ele><time>2026-04-03T14:58:22Z</time></trkpt><trkpt lat="42.80577861713992" lon="11.753052848019255"><ele>351.0</ele><time>2026-04-03T14:58:23Z</time></trkpt><trkpt lat="42.80565139498956" lon="11.753136108714967"><ele>351.0</ele><time>2026-04-03T14:58:24Z</time></trkpt><trkpt lat="42.80550992275298" lon="11.753154623841215"><ele>351.0</ele><time>2026-04-03T14:58:25Z</time></trkpt><trkpt lat="42.805368535908606" lon="11.753092645702845"><ele>351.0</ele><time>2026-04-03T14:58:26Z</time></trkpt><trkpt lat="42.80520175541325" lon="11.753025441693342"><ele>350.6666666666667</ele><time>2026-04-03T14:58:27Z</time></trkpt><trkpt lat="42.80502887624775" lon="11.752969917912841"><ele>350.33333333333337</ele><time>2026-04-03T14:58:28Z</time></trkpt><trkpt lat="42.8048508779648" lon="11.752957028419633"><ele>350.0</ele><time>2026-04-03T14:58:29Z</time></trkpt><trkpt lat="42.80467787883517" lon="11.752979976266127"><ele>350.0</ele><time>2026-04-03T14:58:30Z</time></trkpt><trkpt lat="42.80453139705515" lon="11.75305943328351"><ele>350.0</ele><time>2026-04-03T14:58:31Z</time></trkpt><trkpt lat="42.8043873520675" lon="11.75311178838337"><ele>350.0</ele><time>2026-04-03T14:58:32.001Z</time></trkpt><trkpt lat="42.80423875114256" lon="11.753134565547084"><ele>350.0</ele><time>2026-04-03T14:58:33.001Z</time></trkpt><trkpt lat="42.80410450554801" lon="11.753082545880341"><ele>350.0</ele><time>2026-04-03T14:58:34.001Z</time></trkpt><trkpt lat="42.8039886488984" lon="11.752981069541182"><ele>350.0</ele><time>2026-04-03T14:58:35.001Z</time></trkpt><trkpt lat="42.803883448340486" lon="11.752837960575498"><ele>350.0</ele><time>2026-04-03T14:58:36.001Z</time></trkpt><trkpt lat="42.80375643919241" lon="11.752711418129962"><ele>350.33333333333337</ele><time>2026-04-03T14:58:37.001Z</time></trkpt><trkpt lat="42.8036332368011" lon="11.752586426172526"><ele>350.6666666666667</ele><time>2026-04-03T14:58:38.001Z</time></trkpt><trkpt lat="42.80348467675269" lon="11.752507870867149"><ele>351.0</ele><time>2026-04-03T14:58:39.001Z</time></trkpt><trkpt lat="42.803315400784605" lon="11.752471547147874"><ele>351.0</ele><time>2026-04-03T14:58:40.001Z</time></trkpt><trkpt lat="42.803140491313165" lon="11.752470841867634"><ele>351.0</ele><time>2026-04-03T14:58:41.001Z</time></trkpt><trkpt lat="42.802964065622895" lon="11.752477417263995"><ele>351.0</ele><time>2026-04-03T14:58:42.001Z</time></trkpt><trkpt lat="42.802782098494816" lon="11.752511980714642"><ele>351.6666666666667</ele><time>2026-04-03T14:58:43.001Z</time></trkpt><trkpt lat="42.80259823655251" lon="11.752576554880065"><ele>352.33333333333337</ele><time>2026-04-03T14:58:44.001Z</time></trkpt><trkpt lat="42.80241260188925" lon="11.752656054004277"><ele>353.0</ele><time>2026-04-03T14:58:45.001Z</time></trkpt><trkpt lat="42.802217705187196" lon="11.752708708275721"><ele>352.6666666666667</ele><time>2026-04-03T14:58:46.001Z</time></trkpt><trkpt lat="42.8020294680227" lon="11.752783295554034"><ele>352.3333333333333</ele><time>2026-04-03T14:58:47.001Z</time></trkpt><trkpt lat="42.80183320958978" lon="11.752858747230087"><ele>352.0</ele><time>2026-04-03T14:58:48.001Z</time></trkpt><trkpt lat="42.801628592437616" lon="11.752937125524003"><ele>352.0</ele><time>2026-04-03T14:58:49.001Z</time></trkpt><trkpt lat="42.80142099031615" lon="11.753016929847071"><ele>352.0</ele><time>2026-04-03T14:58:50.001Z</time></trkpt><trkpt lat="42.801214557007064" lon="11.753085997755152"><ele>352.0</ele><time>2026-04-03T14:58:51.001Z</time></trkpt><trkpt lat="42.80100629404593" lon="11.753093094548692"><ele>351.3333333333333</ele><time>2026-04-03T14:58:52.001Z</time></trkpt><trkpt lat="42.8008067494474" lon="11.75302406876103"><ele>350.6666666666667</ele><time>2026-04-03T14:58:53.001Z</time></trkpt><trkpt lat="42.80060121270054" lon="11.752931225164595"><ele>350.0</ele><time>2026-04-03T14:58:54.001Z</time></trkpt><trkpt lat="42.80039539981994" lon="11.752832872713856"><ele>350.0</ele><time>2026-04-03T14:58:55.001Z</time></trkpt><trkpt lat="42.80019299036248" lon="11.752734960442112"><ele>350.0</ele><time>2026-04-03T14:58:56.001Z</time></trkpt><trkpt lat="42.799989024274446" lon="11.752636080796215"><ele>350.0</ele><time>2026-04-03T14:58:57.001Z</time></trkpt><trkpt lat="42.799787546495274" lon="11.752537586532409"><ele>351.6666666666667</ele><time>2026-04-03T14:58:58.001Z</time></trkpt><trkpt lat="42.79958293010183" lon="11.752440176171483"><ele>353.3333333333333</ele><time>2026-04-03T14:58:59.001Z</time></trkpt><trkpt lat="42.79937212988886" lon="11.75234637069195"><ele>355.0</ele><time>2026-04-03T14:59:00.001Z</time></trkpt><trkpt lat="42.79916504827473" lon="11.752258257989796"><ele>356.0</ele><time>2026-04-03T14:59:01.001Z</time></trkpt><trkpt lat="42.79895542220168" lon="11.752173310427063"><ele>357.0</ele><time>2026-04-03T14:59:02.001Z</time></trkpt><trkpt lat="42.79874594139769" lon="11.752088421726036"><ele>358.0</ele><time>2026-04-03T14:59:03.001Z</time></trkpt><trkpt lat="42.79853648540445" lon="11.752004822757051"><ele>358.3333333333333</ele><time>2026-04-03T14:59:04.001Z</time></trkpt><trkpt lat="42.79832737449425" lon="11.751921488919272"><ele>358.6666666666667</ele><time>2026-04-03T14:59:05.001Z</time></trkpt><trkpt lat="42.798116687220656" lon="11.75184309785174"><ele>359.0</ele><time>2026-04-03T14:59:06.001Z</time></trkpt><trkpt lat="42.79789912007369" lon="11.75178395151871"><ele>359.0</ele><time>2026-04-03T14:59:07.001Z</time></trkpt><trkpt lat="42.797683976067376" lon="11.75173107837884"><ele>359.0</ele><time>2026-04-03T14:59:08.001Z</time></trkpt><trkpt lat="42.79746744687791" lon="11.751701444928477"><ele>359.0</ele><time>2026-04-03T14:59:09.001Z</time></trkpt><trkpt lat="42.797252760916486" lon="11.751647224742783"><ele>359.0</ele><time>2026-04-03T14:59:10.001Z</time></trkpt><trkpt lat="42.79703690927118" lon="11.751594564311437"><ele>359.0</ele><time>2026-04-03T14:59:11.001Z</time></trkpt><trkpt lat="42.79682227508751" lon="11.751548811673771"><ele>359.0</ele><time>2026-04-03T14:59:12.001Z</time></trkpt><trkpt lat="42.79660744051845" lon="11.751476991753474"><ele>359.0</ele><time>2026-04-03T14:59:13.001Z</time></trkpt><trkpt lat="42.79638606727002" lon="11.7514483557359"><ele>359.0</ele><time>2026-04-03T14:59:14.001Z</time></trkpt><trkpt lat="42.79617034193109" lon="11.751396698426925"><ele>359.0</ele><time>2026-04-03T14:59:15.001Z</time></trkpt><trkpt lat="42.79595757650036" lon="11.75132371251237"><ele>357.0</ele><time>2026-04-03T14:59:16.001Z</time></trkpt><trkpt lat="42.79573537396977" lon="11.751270454284997"><ele>355.0</ele><time>2026-04-03T14:59:17.001Z</time></trkpt><trkpt lat="42.795508516841316" lon="11.75121608044534"><ele>355.0</ele><time>2026-04-03T14:59:18.001Z</time></trkpt><trkpt lat="42.79527956320287" lon="11.751160755801635"><ele>355.0</ele><time>2026-04-03T14:59:19.001Z</time></trkpt><trkpt lat="42.795048669553935" lon="11.751104580173067"><ele>354.0</ele><time>2026-04-03T14:59:20.001Z</time></trkpt><trkpt lat="42.79481649532081" lon="11.751048093004297"><ele>353.0</ele><time>2026-04-03T14:59:21.001Z</time></trkpt><trkpt lat="42.79458464098349" lon="11.75099194612906"><ele>353.0</ele><time>2026-04-03T14:59:22.001Z</time></trkpt><trkpt lat="42.79435299553934" lon="11.750936632944388"><ele>353.0</ele><time>2026-04-03T14:59:23.001Z</time></trkpt><trkpt lat="42.79411974997354" lon="11.75088093767086"><ele>352.0</ele><time>2026-04-03T14:59:24.001Z</time></trkpt><trkpt lat="42.79388804328716" lon="11.750825609862053"><ele>351.0</ele><time>2026-04-03T14:59:25.001Z</time></trkpt><trkpt lat="42.793659800581395" lon="11.750769969483805"><ele>351.5</ele><time>2026-04-03T14:59:26.001Z</time></trkpt><trkpt lat="42.793435327918544" lon="11.750715455922506"><ele>352.0</ele><time>2026-04-03T14:59:27.002Z</time></trkpt><trkpt lat="42.79321454577265" lon="11.75066183860656"><ele>352.0</ele><time>2026-04-03T14:59:28.002Z</time></trkpt><trkpt lat="42.7930024905085" lon="11.750610713341363"><ele>352.0</ele><time>2026-04-03T14:59:29.002Z</time></trkpt><trkpt lat="42.79278867134833" lon="11.7505796442106"><ele>352.0</ele><time>2026-04-03T14:59:30.002Z</time></trkpt><trkpt lat="42.792582989162405" lon="11.750531918368683"><ele>352.66666666666663</ele><time>2026-04-03T14:59:31.002Z</time></trkpt><trkpt lat="42.79238077460697" lon="11.750461291785216"><ele>353.3333333333333</ele><time>2026-04-03T14:59:32.002Z</time></trkpt><trkpt lat="42.79217325634572" lon="11.750411417402276"><ele>354.0</ele><time>2026-04-03T14:59:33.002Z</time></trkpt><trkpt lat="42.79195819548019" lon="11.750359730274063"><ele>353.6666666666667</ele><time>2026-04-03T14:59:34.002Z</time></trkpt><trkpt lat="42.791747849306155" lon="11.750309176212763"><ele>353.33333333333337</ele><time>2026-04-03T14:59:35.002Z</time></trkpt><trkpt lat="42.79153403259038" lon="11.750278100529867"><ele>353.0</ele><time>2026-04-03T14:59:36.002Z</time></trkpt><trkpt lat="42.791325450203054" lon="11.750227933912447"><ele>354.33333333333337</ele><time>2026-04-03T14:59:37.002Z</time></trkpt><trkpt lat="42.791116670337466" lon="11.750157505184577"><ele>355.6666666666667</ele><time>2026-04-03T14:59:38.002Z</time></trkpt><trkpt lat="42.79090538004906" lon="11.750106851084738"><ele>357.0</ele><time>2026-04-03T14:59:39.002Z</time></trkpt><trkpt lat="42.790695986247954" lon="11.750056649934008"><ele>357.0</ele><time>2026-04-03T14:59:40.002Z</time></trkpt><trkpt lat="42.79049067907341" lon="11.75000742861237"><ele>357.0</ele><time>2026-04-03T14:59:41.002Z</time></trkpt><trkpt lat="42.79027954837185" lon="11.749979749178383"><ele>357.0</ele><time>2026-04-03T14:59:42.002Z</time></trkpt><trkpt lat="42.79007457946564" lon="11.749930614806125"><ele>357.6666666666667</ele><time>2026-04-03T14:59:43.002Z</time></trkpt><trkpt lat="42.789869051475954" lon="11.749879601789115"><ele>358.33333333333337</ele><time>2026-04-03T14:59:44.002Z</time></trkpt><trkpt lat="42.789669497573044" lon="11.749828747815574"><ele>359.0</ele><time>2026-04-03T14:59:45.002Z</time></trkpt><trkpt lat="42.78947239568852" lon="11.749783140431699"><ele>359.0</ele><time>2026-04-03T14:59:46Z</time></trkpt><trkpt lat="42.78929895699099" lon="11.749720739452112"><ele>359.0</ele><time>2026-04-03T14:59:47Z</time></trkpt><trkpt lat="42.78914427854868" lon="11.749658033110027"><ele>359.0</ele><time>2026-04-03T14:59:48Z</time></trkpt><trkpt lat="42.78901903854159" lon="11.749554358291956"><ele>359.0</ele><time>2026-04-03T14:59:49Z</time></trkpt><trkpt lat="42.78888432755408" lon="11.749416405872301"><ele>359.0</ele><time>2026-04-03T14:59:50Z</time></trkpt><trkpt lat="42.78873923622958" lon="11.749262392959997"><ele>359.0</ele><time>2026-04-03T14:59:51Z</time></trkpt><trkpt lat="42.78858957220931" lon="11.749103526116253"><ele>359.0</ele><time>2026-04-03T14:59:52Z</time></trkpt><trkpt lat="42.788436988233364" lon="11.748941559651792"><ele>359.0</ele><time>2026-04-03T14:59:53Z</time></trkpt><trkpt lat="42.7882815153593" lon="11.74877652681767"><ele>359.0</ele><time>2026-04-03T14:59:54Z</time></trkpt><trkpt lat="42.78812751215207" lon="11.74860420510202"><ele>360.33333333333337</ele><time>2026-04-03T14:59:55Z</time></trkpt><trkpt lat="42.78799179620194" lon="11.74839363504698"><ele>361.6666666666667</ele><time>2026-04-03T14:59:56Z</time></trkpt><trkpt lat="42.78785760966232" lon="11.748149716183306"><ele>363.0</ele><time>2026-04-03T14:59:57Z</time></trkpt><trkpt lat="42.78771336709273" lon="11.74792796997544"><ele>360.3333333333333</ele><time>2026-04-03T14:59:58Z</time></trkpt><trkpt lat="42.78758614537548" lon="11.747696748371132"><ele>357.66666666666663</ele><time>2026-04-03T14:59:59Z</time></trkpt><trkpt lat="42.78746930531846" lon="11.747457301487517"><ele>355.0</ele><time>2026-04-03T15:00:00Z</time></trkpt><trkpt lat="42.78735598869441" lon="11.747272433618758"><ele>355.0</ele><time>2026-04-03T15:00:01Z</time></trkpt><trkpt lat="42.787297294683505" lon="11.747086951636977"><ele>355.0</ele><time>2026-04-03T15:00:02Z</time></trkpt><trkpt lat="42.78726866262541" lon="11.74688357065361"><ele>355.0</ele><time>2026-04-03T15:00:03Z</time></trkpt><trkpt lat="42.787211593696775" lon="11.746704525043038"><ele>355.0</ele><time>2026-04-03T15:00:04Z</time></trkpt><trkpt lat="42.78715154498087" lon="11.746539473350246"><ele>356.0</ele><time>2026-04-03T15:00:05Z</time></trkpt><trkpt lat="42.787405260320654" lon="11.746147239343149"><ele>357.0</ele><time>2026-04-03T15:00:06Z</time></trkpt><trkpt lat="42.78744634714795" lon="11.745913801347136"><ele>355.6666666666667</ele><time>2026-04-03T15:00:07Z</time></trkpt><trkpt lat="42.787440257268756" lon="11.745710579930142"><ele>354.33333333333337</ele><time>2026-04-03T15:00:08Z</time></trkpt><trkpt lat="42.78737713220691" lon="11.745527372997705"><ele>353.0</ele><time>2026-04-03T15:00:09Z</time></trkpt><trkpt lat="42.787266181772644" lon="11.745357114024971"><ele>353.0</ele><time>2026-04-03T15:00:10Z</time></trkpt><trkpt lat="42.78710946051922" lon="11.74522275785279"><ele>353.0</ele><time>2026-04-03T15:00:11Z</time></trkpt><trkpt lat="42.78694197719876" lon="11.745095459691376"><ele>353.0</ele><time>2026-04-03T15:00:12Z</time></trkpt><trkpt lat="42.78678008317635" lon="11.74494467709196"><ele>350.33333333333337</ele><time>2026-04-03T15:00:13Z</time></trkpt><trkpt lat="42.786620010860176" lon="11.744779808309307"><ele>347.6666666666667</ele><time>2026-04-03T15:00:14Z</time></trkpt><trkpt lat="42.78645511403822" lon="11.744615767200866"><ele>345.0</ele><time>2026-04-03T15:00:15Z</time></trkpt><trkpt lat="42.786291115114395" lon="11.744449805968268"><ele>345.6666666666667</ele><time>2026-04-03T15:00:16Z</time></trkpt><trkpt lat="42.78612879238651" lon="11.74428301176726"><ele>346.33333333333337</ele><time>2026-04-03T15:00:17Z</time></trkpt><trkpt lat="42.785967595370344" lon="11.744120437693864"><ele>347.0</ele><time>2026-04-03T15:00:18Z</time></trkpt><trkpt lat="42.78580930189349" lon="11.74396223394449"><ele>347.0</ele><time>2026-04-03T15:00:19Z</time></trkpt><trkpt lat="42.78565543069974" lon="11.743804376408033"><ele>347.0</ele><time>2026-04-03T15:00:20Z</time></trkpt><trkpt lat="42.78551375521687" lon="11.743655752885271"><ele>347.0</ele><time>2026-04-03T15:00:21Z</time></trkpt><trkpt lat="42.785380533899016" lon="11.743518573919394"><ele>347.6666666666667</ele><time>2026-04-03T15:00:22Z</time></trkpt><trkpt lat="42.78525202591936" lon="11.74339655243016"><ele>348.3333333333333</ele><time>2026-04-03T15:00:23Z</time></trkpt><trkpt lat="42.7851188630179" lon="11.743302271272851"><ele>349.0</ele><time>2026-04-03T15:00:24Z</time></trkpt><trkpt lat="42.784961078124645" lon="11.743282358668786"><ele>348.66666666666663</ele><time>2026-04-03T15:00:25Z</time></trkpt><trkpt lat="42.78479642958634" lon="11.743332891407235"><ele>348.3333333333333</ele><time>2026-04-03T15:00:26Z</time></trkpt><trkpt lat="42.78464569514218" lon="11.74344484689844"><ele>348.0</ele><time>2026-04-03T15:00:27Z</time></trkpt><trkpt lat="42.78449947290576" lon="11.743584399063787"><ele>348.0</ele><time>2026-04-03T15:00:28Z</time></trkpt><trkpt lat="42.784357402920214" lon="11.743723245026736"><ele>348.0</ele><time>2026-04-03T15:00:29.001Z</time></trkpt><trkpt lat="42.78421041866861" lon="11.743860188854956"><ele>348.0</ele><time>2026-04-03T15:00:30.001Z</time></trkpt><trkpt lat="42.784063427886295" lon="11.744003488793442"><ele>347.6666666666667</ele><time>2026-04-03T15:00:31.001Z</time></trkpt><trkpt lat="42.78391712853909" lon="11.744142371341512"><ele>347.33333333333337</ele><time>2026-04-03T15:00:32.001Z</time></trkpt><trkpt lat="42.78378270293508" lon="11.744274814302706"><ele>347.0</ele><time>2026-04-03T15:00:33.001Z</time></trkpt><trkpt lat="42.78366706534213" lon="11.744397770509158"><ele>347.0</ele><time>2026-04-03T15:00:34.001Z</time></trkpt><trkpt lat="42.78356125038815" lon="11.744502653057378"><ele>347.0</ele><time>2026-04-03T15:00:35.001Z</time></trkpt><trkpt lat="42.783451630239156" lon="11.744582061742964"><ele>347.0</ele><time>2026-04-03T15:00:36.001Z</time></trkpt><trkpt lat="42.78332906187105" lon="11.744620050900624"><ele>347.0</ele><time>2026-04-03T15:00:37.001Z</time></trkpt><trkpt lat="42.783188745133145" lon="11.74460484491591"><ele>350.25</ele><time>2026-04-03T15:00:38.001Z</time></trkpt><trkpt lat="42.78304487159981" lon="11.744539662451558"><ele>353.5</ele><time>2026-04-03T15:00:39.001Z</time></trkpt><trkpt lat="42.782910125338596" lon="11.744476985208415"><ele>356.75</ele><time>2026-04-03T15:00:40.001Z</time></trkpt><trkpt lat="42.782795820636196" lon="11.744407018780327"><ele>360.0</ele><time>2026-04-03T15:00:41.001Z</time></trkpt><trkpt lat="42.782683009751366" lon="11.74432554292115"><ele>360.75</ele><time>2026-04-03T15:00:42.001Z</time></trkpt><trkpt lat="42.78256530185655" lon="11.744226190548442"><ele>361.5</ele><time>2026-04-03T15:00:43.001Z</time></trkpt><trkpt lat="42.78245442957724" lon="11.744118655069176"><ele>362.25</ele><time>2026-04-03T15:00:44.001Z</time></trkpt><trkpt lat="42.78236303723422" lon="11.743983678126797"><ele>363.0</ele><time>2026-04-03T15:00:45.001Z</time></trkpt><trkpt lat="42.78227552945302" lon="11.743822617505195"><ele>363.0</ele><time>2026-04-03T15:00:46.001Z</time></trkpt><trkpt lat="42.782157886621235" lon="11.74367487400798"><ele>363.0</ele><time>2026-04-03T15:00:47.001Z</time></trkpt><trkpt lat="42.78199569309375" lon="11.743583609362629"><ele>363.0</ele><time>2026-04-03T15:00:48.001Z</time></trkpt><trkpt lat="42.78181675727638" lon="11.743516000699874"><ele>360.0</ele><time>2026-04-03T15:00:49.001Z</time></trkpt><trkpt lat="42.781649999300335" lon="11.743452528420859"><ele>357.0</ele><time>2026-04-03T15:00:50.001Z</time></trkpt><trkpt lat="42.78150179171839" lon="11.743381869202906"><ele>354.0</ele><time>2026-04-03T15:00:51.001Z</time></trkpt><trkpt lat="42.781364048572726" lon="11.743325213551088"><ele>354.0</ele><time>2026-04-03T15:00:52.001Z</time></trkpt><trkpt lat="42.78123295960854" lon="11.743329878053256"><ele>354.0</ele><time>2026-04-03T15:00:53.001Z</time></trkpt><trkpt lat="42.781111237064536" lon="11.743413909191476"><ele>354.0</ele><time>2026-04-03T15:00:54.001Z</time></trkpt><trkpt lat="42.78101618369034" lon="11.74356468349444"><ele>354.0</ele><time>2026-04-03T15:00:55.001Z</time></trkpt><trkpt lat="42.780956471718596" lon="11.743759098757373"><ele>356.0</ele><time>2026-04-03T15:00:56.001Z</time></trkpt><trkpt lat="42.78091973875805" lon="11.743959536114696"><ele>358.0</ele><time>2026-04-03T15:00:57.001Z</time></trkpt><trkpt lat="42.78087254068026" lon="11.744162252705573"><ele>360.0</ele><time>2026-04-03T15:00:58.001Z</time></trkpt><trkpt lat="42.78081822761569" lon="11.744356389689534"><ele>359.25</ele><time>2026-04-03T15:00:59.001Z</time></trkpt><trkpt lat="42.78074581848953" lon="11.744525747904415"><ele>358.5</ele><time>2026-04-03T15:01:00.001Z</time></trkpt><trkpt lat="42.78064317860365" lon="11.744641703636923"><ele>357.75</ele><time>2026-04-03T15:01:01.001Z</time></trkpt><trkpt lat="42.780529579734164" lon="11.744667996234456"><ele>357.0</ele><time>2026-04-03T15:01:02.001Z</time></trkpt><trkpt lat="42.78041017933887" lon="11.74462427879087"><ele>357.0</ele><time>2026-04-03T15:01:03.001Z</time></trkpt><trkpt lat="42.78029853772957" lon="11.744532778613422"><ele>357.0</ele><time>2026-04-03T15:01:04.001Z</time></trkpt><trkpt lat="42.780166247758785" lon="11.744466700603335"><ele>357.0</ele><time>2026-04-03T15:01:05.001Z</time></trkpt><trkpt lat="42.78002208507675" lon="11.744413701591084"><ele>357.0</ele><time>2026-04-03T15:01:06.001Z</time></trkpt><trkpt lat="42.77987806556391" lon="11.744333904726595"><ele>360.0</ele><time>2026-04-03T15:01:07.001Z</time></trkpt><trkpt lat="42.779723289900545" lon="11.744270621044391"><ele>363.0</ele><time>2026-04-03T15:01:08.001Z</time></trkpt><trkpt lat="42.77956350853223" lon="11.744205290651358"><ele>366.0</ele><time>2026-04-03T15:01:09.001Z</time></trkpt><trkpt lat="42.77939595687559" lon="11.744136783205102"><ele>367.0</ele><time>2026-04-03T15:01:10.001Z</time></trkpt><trkpt lat="42.77922805045634" lon="11.744068402200774"><ele>368.0</ele><time>2026-04-03T15:01:11.001Z</time></trkpt><trkpt lat="42.77905218038997" lon="11.743997409632982"><ele>369.0</ele><time>2026-04-03T15:01:12.001Z</time></trkpt><trkpt lat="42.778873269337566" lon="11.74392518945843"><ele>369.0</ele><time>2026-04-03T15:01:13.001Z</time></trkpt><trkpt lat="42.77868719436223" lon="11.743868938691262"><ele>369.0</ele><time>2026-04-03T15:01:14.001Z</time></trkpt><trkpt lat="42.77850037040933" lon="11.743790308690283"><ele>369.0</ele><time>2026-04-03T15:01:15.001Z</time></trkpt><trkpt lat="42.77830779044848" lon="11.743716153922977"><ele>369.3333333333333</ele><time>2026-04-03T15:01:16.001Z</time></trkpt><trkpt lat="42.778118444963134" lon="11.743642947703908"><ele>369.66666666666663</ele><time>2026-04-03T15:01:17.001Z</time></trkpt><trkpt lat="42.77793201185877" lon="11.7435449980464"><ele>370.0</ele><time>2026-04-03T15:01:18.001Z</time></trkpt><trkpt lat="42.77774809492229" lon="11.74347071176841"><ele>371.3333333333333</ele><time>2026-04-03T15:01:19.001Z</time></trkpt><trkpt lat="42.77755826893442" lon="11.74339470908811"><ele>372.6666666666667</ele><time>2026-04-03T15:01:20.001Z</time></trkpt><trkpt lat="42.777362640136786" lon="11.743316444787544"><ele>374.0</ele><time>2026-04-03T15:01:21.001Z</time></trkpt><trkpt lat="42.77716394761004" lon="11.743236954799977"><ele>374.0</ele><time>2026-04-03T15:01:22.002Z</time></trkpt><trkpt lat="42.776966192837634" lon="11.74315783997829"><ele>374.0</ele><time>2026-04-03T15:01:23.002Z</time></trkpt><trkpt lat="42.776784005949644" lon="11.743084953248358"><ele>374.0</ele><time>2026-04-03T15:01:24.002Z</time></trkpt><trkpt lat="42.77661441144381" lon="11.743015771128176"><ele>374.0</ele><time>2026-04-03T15:01:25.002Z</time></trkpt><trkpt lat="42.77645698374842" lon="11.742945113721735"><ele>374.0</ele><time>2026-04-03T15:01:26.002Z</time></trkpt><trkpt lat="42.77633195922547" lon="11.742852254661658"><ele>374.0</ele><time>2026-04-03T15:01:27.002Z</time></trkpt><trkpt lat="42.77625658530468" lon="11.74272516188219"><ele>374.0</ele><time>2026-04-03T15:01:28.002Z</time></trkpt><trkpt lat="42.77623026161098" lon="11.742575187050699"><ele>374.0</ele><time>2026-04-03T15:01:29.002Z</time></trkpt><trkpt lat="42.77621919241896" lon="11.742388197448042"><ele>374.0</ele><time>2026-04-03T15:01:30.002Z</time></trkpt><trkpt lat="42.776201714550396" lon="11.74216999369842"><ele>374.0</ele><time>2026-04-03T15:01:31.002Z</time></trkpt><trkpt lat="42.77618438102279" lon="11.741944592144128"><ele>374.33333333333337</ele><time>2026-04-03T15:01:32.002Z</time></trkpt><trkpt lat="42.77613588273317" lon="11.74172212186834"><ele>374.6666666666667</ele><time>2026-04-03T15:01:33.002Z</time></trkpt><trkpt lat="42.776047839765795" lon="11.741517482031362"><ele>375.0</ele><time>2026-04-03T15:01:34.002Z</time></trkpt><trkpt lat="42.775918691807334" lon="11.741333189726928"><ele>372.6666666666667</ele><time>2026-04-03T15:01:35.002Z</time></trkpt><trkpt lat="42.775768709707044" lon="11.741164953687742"><ele>370.33333333333337</ele><time>2026-04-03T15:01:36.002Z</time></trkpt><trkpt lat="42.77560497757887" lon="11.741021135073467"><ele>368.0</ele><time>2026-04-03T15:01:37.002Z</time></trkpt><trkpt lat="42.77542595369762" lon="11.740906458219369"><ele>368.0</ele><time>2026-04-03T15:01:38.002Z</time></trkpt><trkpt lat="42.775234729451576" lon="11.74080401535119"><ele>368.0</ele><time>2026-04-03T15:01:39.002Z</time></trkpt><trkpt lat="42.77505109864562" lon="11.740675945657113"><ele>368.0</ele><time>2026-04-03T15:01:40.002Z</time></trkpt><trkpt lat="42.77486462996354" lon="11.740563641704728"><ele>364.0</ele><time>2026-04-03T15:01:41.002Z</time></trkpt><trkpt lat="42.774675406857284" lon="11.74045128074344"><ele>360.0</ele><time>2026-04-03T15:01:42.002Z</time></trkpt><trkpt lat="42.77448847263722" lon="11.740340421535382"><ele>356.0</ele><time>2026-04-03T15:01:43.002Z</time></trkpt><trkpt lat="42.77430814756868" lon="11.740238383064504"><ele>356.6666666666667</ele><time>2026-04-03T15:01:44.002Z</time></trkpt><trkpt lat="42.77411994624106" lon="11.740170453678395"><ele>357.3333333333333</ele><time>2026-04-03T15:01:45.002Z</time></trkpt><trkpt lat="42.77392778272035" lon="11.740100112642036"><ele>358.0</ele><time>2026-04-03T15:01:46.002Z</time></trkpt><trkpt lat="42.77373073710899" lon="11.740036023177598"><ele>358.0</ele><time>2026-04-03T15:01:47.002Z</time></trkpt><trkpt lat="42.77353502338236" lon="11.73995126777557"><ele>358.0</ele><time>2026-04-03T15:01:48.002Z</time></trkpt><trkpt lat="42.773333913796236" lon="11.739885180689164"><ele>358.0</ele><time>2026-04-03T15:01:49.002Z</time></trkpt><trkpt lat="42.773132212839975" lon="11.73982767059821"><ele>356.66666666666663</ele><time>2026-04-03T15:01:50.002Z</time></trkpt><trkpt lat="42.77292744768573" lon="11.739790588925818"><ele>355.3333333333333</ele><time>2026-04-03T15:01:51.002Z</time></trkpt><trkpt lat="42.77272801497438" lon="11.739802221776916"><ele>354.0</ele><time>2026-04-03T15:01:52Z</time></trkpt><trkpt lat="42.7725296023346" lon="11.73978435095646"><ele>354.0</ele><time>2026-04-03T15:01:53Z</time></trkpt><trkpt lat="42.77233665870144" lon="11.739795000427916"><ele>354.0</ele><time>2026-04-03T15:01:54Z</time></trkpt><trkpt lat="42.772146661407454" lon="11.739779336865116"><ele>354.0</ele><time>2026-04-03T15:01:55Z</time></trkpt><trkpt lat="42.77195570222215" lon="11.739751508739799"><ele>354.6666666666667</ele><time>2026-04-03T15:01:56Z</time></trkpt><trkpt lat="42.77176603873832" lon="11.739732554115813"><ele>355.33333333333337</ele><time>2026-04-03T15:01:57Z</time></trkpt><trkpt lat="42.771573044948845" lon="11.739740512368947"><ele>356.0</ele><time>2026-04-03T15:01:58Z</time></trkpt><trkpt lat="42.771379861558785" lon="11.73970996821099"><ele>356.0</ele><time>2026-04-03T15:01:59Z</time></trkpt><trkpt lat="42.77118692575233" lon="11.739696934384748"><ele>356.0</ele><time>2026-04-03T15:02:00Z</time></trkpt><trkpt lat="42.77100127587739" lon="11.739686983656012"><ele>356.0</ele><time>2026-04-03T15:02:01Z</time></trkpt><trkpt lat="42.77083395439361" lon="11.739699419058674"><ele>356.33333333333337</ele><time>2026-04-03T15:02:02Z</time></trkpt><trkpt lat="42.77067409893188" lon="11.739692127636756"><ele>356.6666666666667</ele><time>2026-04-03T15:02:03Z</time></trkpt><trkpt lat="42.770513580991384" lon="11.7397105404622"><ele>357.0</ele><time>2026-04-03T15:02:04Z</time></trkpt><trkpt lat="42.77034876109643" lon="11.73977137269421"><ele>357.0</ele><time>2026-04-03T15:02:05Z</time></trkpt><trkpt lat="42.77019168747373" lon="11.739879887979503"><ele>357.0</ele><time>2026-04-03T15:02:06Z</time></trkpt><trkpt lat="42.77005837569866" lon="11.740044449292752"><ele>357.0</ele><time>2026-04-03T15:02:07Z</time></trkpt><trkpt lat="42.769931371132294" lon="11.740214489713688"><ele>359.0</ele><time>2026-04-03T15:02:08Z</time></trkpt><trkpt lat="42.76980587398978" lon="11.740379917024695"><ele>361.0</ele><time>2026-04-03T15:02:09Z</time></trkpt><trkpt lat="42.7696814068819" lon="11.740547488931027"><ele>363.0</ele><time>2026-04-03T15:02:10Z</time></trkpt><trkpt lat="42.76955703565165" lon="11.740718689463215"><ele>363.0</ele><time>2026-04-03T15:02:11Z</time></trkpt><trkpt lat="42.76942366903127" lon="11.740888963626237"><ele>363.0</ele><time>2026-04-03T15:02:12Z</time></trkpt><trkpt lat="42.76926260457862" lon="11.74099879835422"><ele>363.0</ele><time>2026-04-03T15:02:13Z</time></trkpt><trkpt lat="42.76910059257873" lon="11.741125844525982"><ele>367.3333333333333</ele><time>2026-04-03T15:02:14Z</time></trkpt><trkpt lat="42.768944396254085" lon="11.741267762573147"><ele>371.66666666666663</ele><time>2026-04-03T15:02:15Z</time></trkpt><trkpt lat="42.7687925159938" lon="11.741406394874986"><ele>376.0</ele><time>2026-04-03T15:02:16Z</time></trkpt><trkpt lat="42.768649261068084" lon="11.741540700127768"><ele>377.0</ele><time>2026-04-03T15:02:17Z</time></trkpt><trkpt lat="42.76851951041479" lon="11.741665689702556"><ele>378.0</ele><time>2026-04-03T15:02:18Z</time></trkpt><trkpt lat="42.76840118876685" lon="11.741783129428605"><ele>379.0</ele><time>2026-04-03T15:02:19Z</time></trkpt><trkpt lat="42.76830146415158" lon="11.741901299302313"><ele>380.0</ele><time>2026-04-03T15:02:20Z</time></trkpt><trkpt lat="42.76819792866015" lon="11.74199051930335"><ele>380.0</ele><time>2026-04-03T15:02:21Z</time></trkpt><trkpt lat="42.768118444072144" lon="11.742082207382305"><ele>380.0</ele><time>2026-04-03T15:02:22Z</time></trkpt><trkpt lat="42.768094207213224" lon="11.742187494388242"><ele>380.0</ele><time>2026-04-03T15:02:23Z</time></trkpt><trkpt lat="42.76811260429355" lon="11.742293974763665"><ele>380.0</ele><time>2026-04-03T15:02:24Z</time></trkpt><trkpt lat="42.76821032929104" lon="11.742331559593614"><ele>380.0</ele><time>2026-04-03T15:02:25Z</time></trkpt><trkpt lat="42.7683077430655" lon="11.742313178807992"><ele>380.0</ele><time>2026-04-03T15:02:26Z</time></trkpt><trkpt lat="42.76841196790099" lon="11.74226225003887"><ele>380.0</ele><time>2026-04-03T15:02:27Z</time></trkpt><trkpt lat="42.76852632163473" lon="11.742224472651422"><ele>380.0</ele><time>2026-04-03T15:02:28Z</time></trkpt><trkpt lat="42.768653434231716" lon="11.742196736709259"><ele>380.0</ele><time>2026-04-03T15:02:29.001Z</time></trkpt><trkpt lat="42.768788436852184" lon="11.742169593805745"><ele>384.0</ele><time>2026-04-03T15:02:30.001Z</time></trkpt><trkpt lat="42.76893096073718" lon="11.742141680480648"><ele>388.0</ele><time>2026-04-03T15:02:31.001Z</time></trkpt><trkpt lat="42.769086928536844" lon="11.742110867077395"><ele>392.0</ele><time>2026-04-03T15:02:32.001Z</time></trkpt><trkpt lat="42.76924883742392" lon="11.742076969931192"><ele>393.5</ele><time>2026-04-03T15:02:33.001Z</time></trkpt><trkpt lat="42.76940121671842" lon="11.742038820715951"><ele>395.0</ele><time>2026-04-03T15:02:34.001Z</time></trkpt><trkpt lat="42.76954146082799" lon="11.742007893815842"><ele>396.5</ele><time>2026-04-03T15:02:35.001Z</time></trkpt><trkpt lat="42.769665334090334" lon="11.741996827020746"><ele>398.0</ele><time>2026-04-03T15:02:36.001Z</time></trkpt><trkpt lat="42.76975016691222" lon="11.742034495490278"><ele>398.0</ele><time>2026-04-03T15:02:37.001Z</time></trkpt><trkpt lat="42.76978226091618" lon="11.742114463605704"><ele>398.0</ele><time>2026-04-03T15:02:38.001Z</time></trkpt><trkpt lat="42.76974160302564" lon="11.742181692249964"><ele>398.0</ele><time>2026-04-03T15:02:39.001Z</time></trkpt><trkpt lat="42.76968568721232" lon="11.74223586067022"><ele>398.0</ele><time>2026-04-03T15:02:40.001Z</time></trkpt><trkpt lat="42.7695757564018" lon="11.742269272460685"><ele>398.0</ele><time>2026-04-03T15:02:41.001Z</time></trkpt><trkpt lat="42.769437919549134" lon="11.742268898800527"><ele>396.5</ele><time>2026-04-03T15:02:42.001Z</time></trkpt><trkpt lat="42.76928998836974" lon="11.742280252233932"><ele>395.0</ele><time>2026-04-03T15:02:43.001Z</time></trkpt><trkpt lat="42.76914966572841" lon="11.742344903822401"><ele>393.5</ele><time>2026-04-03T15:02:44.001Z</time></trkpt><trkpt lat="42.76901886624566" lon="11.742427248368685"><ele>392.0</ele><time>2026-04-03T15:02:45.001Z</time></trkpt><trkpt lat="42.76891011721536" lon="11.742529182968216"><ele>392.0</ele><time>2026-04-03T15:02:46.001Z</time></trkpt><trkpt lat="42.76893130219626" lon="11.74262726205328"><ele>392.0</ele><time>2026-04-03T15:02:47.001Z</time></trkpt><trkpt lat="42.76883040204249" lon="11.742772099219676"><ele>392.0</ele><time>2026-04-03T15:02:48.001Z</time></trkpt><trkpt lat="42.768780629985606" lon="11.742959683599835"><ele>392.0</ele><time>2026-04-03T15:02:49.001Z</time></trkpt><trkpt lat="42.76878956964573" lon="11.743167978148573"><ele>393.0</ele><time>2026-04-03T15:02:50.001Z</time></trkpt><trkpt lat="42.768838579544834" lon="11.743366062150853"><ele>394.0</ele><time>2026-04-03T15:02:51.001Z</time></trkpt><trkpt lat="42.76888175991142" lon="11.743553792589413"><ele>395.0</ele><time>2026-04-03T15:02:52.001Z</time></trkpt><trkpt lat="42.768858549588096" lon="11.743734871846172"><ele>396.0</ele><time>2026-04-03T15:02:53.001Z</time></trkpt><trkpt lat="42.76877116073241" lon="11.743851160775446"><ele>396.75</ele><time>2026-04-03T15:02:54.001Z</time></trkpt><trkpt lat="42.76867374577904" lon="11.743984113321872"><ele>397.5</ele><time>2026-04-03T15:02:55.001Z</time></trkpt><trkpt lat="42.768561966727454" lon="11.74412366529931"><ele>398.25</ele><time>2026-04-03T15:02:56.001Z</time></trkpt><trkpt lat="42.7684468253224" lon="11.744267415171532"><ele>399.0</ele><time>2026-04-03T15:02:57.001Z</time></trkpt><trkpt lat="42.76832421131315" lon="11.744420511424819"><ele>400.66666666666663</ele><time>2026-04-03T15:02:58.001Z</time></trkpt><trkpt lat="42.768205767982465" lon="11.744568431908741"><ele>402.3333333333333</ele><time>2026-04-03T15:02:59.001Z</time></trkpt><trkpt lat="42.768088215211" lon="11.744720065274747"><ele>404.0</ele><time>2026-04-03T15:03:00.001Z</time></trkpt><trkpt lat="42.76796714531454" lon="11.744874949279362"><ele>404.0</ele><time>2026-04-03T15:03:01.001Z</time></trkpt><trkpt lat="42.76784926328712" lon="11.745023639619141"><ele>404.0</ele><time>2026-04-03T15:03:02.001Z</time></trkpt><trkpt lat="42.76773710010575" lon="11.745146621698805"><ele>404.0</ele><time>2026-04-03T15:03:03.001Z</time></trkpt><trkpt lat="42.767624029454495" lon="11.745222989088953"><ele>404.0</ele><time>2026-04-03T15:03:04.001Z</time></trkpt><trkpt lat="42.76750183406751" lon="11.745255145267798"><ele>403.0</ele><time>2026-04-03T15:03:05.001Z</time></trkpt><trkpt lat="42.76737315991726" lon="11.745255894234983"><ele>402.0</ele><time>2026-04-03T15:03:06.001Z</time></trkpt><trkpt lat="42.767215993464454" lon="11.745244153324382"><ele>401.0</ele><time>2026-04-03T15:03:07.001Z</time></trkpt><trkpt lat="42.7670487626036" lon="11.745220347794882"><ele>404.66666666666663</ele><time>2026-04-03T15:03:08.001Z</time></trkpt><trkpt lat="42.76687055021568" lon="11.745193112964206"><ele>408.33333333333337</ele><time>2026-04-03T15:03:09.001Z</time></trkpt><trkpt lat="42.76668750290589" lon="11.745168535470416"><ele>412.0</ele><time>2026-04-03T15:03:10.001Z</time></trkpt><trkpt lat="42.76649753674333" lon="11.745145398789084"><ele>415.33333333333337</ele><time>2026-04-03T15:03:11.001Z</time></trkpt><trkpt lat="42.76630164015433" lon="11.745134168765073"><ele>418.66666666666663</ele><time>2026-04-03T15:03:12.001Z</time></trkpt><trkpt lat="42.766109768896605" lon="11.745159275701019"><ele>422.0</ele><time>2026-04-03T15:03:13.001Z</time></trkpt><trkpt lat="42.765914698589405" lon="11.745177204659901"><ele>420.66666666666663</ele><time>2026-04-03T15:03:14.001Z</time></trkpt><trkpt lat="42.765714290045246" lon="11.745216725247403"><ele>419.33333333333337</ele><time>2026-04-03T15:03:15.001Z</time></trkpt><trkpt lat="42.7655070488367" lon="11.74525043622174"><ele>418.0</ele><time>2026-04-03T15:03:16.001Z</time></trkpt><trkpt lat="42.76530021811562" lon="11.745279462231675"><ele>421.0</ele><time>2026-04-03T15:03:17.001Z</time></trkpt><trkpt lat="42.76510711012639" lon="11.74533772028165"><ele>424.0</ele><time>2026-04-03T15:03:18.001Z</time></trkpt><trkpt lat="42.76491869048838" lon="11.745412620885508"><ele>427.0</ele><time>2026-04-03T15:03:19.001Z</time></trkpt><trkpt lat="42.764728778738565" lon="11.745534950401606"><ele>427.0</ele><time>2026-04-03T15:03:20.001Z</time></trkpt><trkpt lat="42.76453828491043" lon="11.74566273251457"><ele>427.0</ele><time>2026-04-03T15:03:21.001Z</time></trkpt><trkpt lat="42.76433826988089" lon="11.74576393209316"><ele>427.0</ele><time>2026-04-03T15:03:22.001Z</time></trkpt><trkpt lat="42.7641430128356" lon="11.745880238642792"><ele>429.0</ele><time>2026-04-03T15:03:23.002Z</time></trkpt><trkpt lat="42.76394867096005" lon="11.74599451837131"><ele>431.0</ele><time>2026-04-03T15:03:24.002Z</time></trkpt><trkpt lat="42.7637521032113" lon="11.746110585323482"><ele>433.0</ele><time>2026-04-03T15:03:25.002Z</time></trkpt><trkpt lat="42.76356085158233" lon="11.746223513393273"><ele>437.0</ele><time>2026-04-03T15:03:26.002Z</time></trkpt><trkpt lat="42.76337778953455" lon="11.746331793990867"><ele>441.0</ele><time>2026-04-03T15:03:27.002Z</time></trkpt><trkpt lat="42.763217190149284" lon="11.746449295774658"><ele>445.0</ele><time>2026-04-03T15:03:28.002Z</time></trkpt><trkpt lat="42.76305996969575" lon="11.746548761427645"><ele>445.0</ele><time>2026-04-03T15:03:29.002Z</time></trkpt><trkpt lat="42.76291330854861" lon="11.746667973373038"><ele>445.0</ele><time>2026-04-03T15:03:30.002Z</time></trkpt><trkpt lat="42.76278004257026" lon="11.746825849897123"><ele>445.0</ele><time>2026-04-03T15:03:31.002Z</time></trkpt><trkpt lat="42.76265488811048" lon="11.747002705851216"><ele>443.0</ele><time>2026-04-03T15:03:32.002Z</time></trkpt><trkpt lat="42.76251036739611" lon="11.74715688805666"><ele>441.0</ele><time>2026-04-03T15:03:33.002Z</time></trkpt><trkpt lat="42.762375442507235" lon="11.747301396925288"><ele>439.0</ele><time>2026-04-03T15:03:34.002Z</time></trkpt><trkpt lat="42.76222255713212" lon="11.747380561796465"><ele>439.0</ele><time>2026-04-03T15:03:35.002Z</time></trkpt><trkpt lat="42.7620462053104" lon="11.747408624134954"><ele>439.0</ele><time>2026-04-03T15:03:36.002Z</time></trkpt><trkpt lat="42.76184961037974" lon="11.747414168753748"><ele>439.0</ele><time>2026-04-03T15:03:37.002Z</time></trkpt><trkpt lat="42.76164202896086" lon="11.747424211305088"><ele>440.0</ele><time>2026-04-03T15:03:38.002Z</time></trkpt><trkpt lat="42.761439936856945" lon="11.747458308426053"><ele>441.0</ele><time>2026-04-03T15:03:39.002Z</time></trkpt><trkpt lat="42.76124706431177" lon="11.747439159450828"><ele>442.0</ele><time>2026-04-03T15:03:40.002Z</time></trkpt><trkpt lat="42.76106141417221" lon="11.747423300956699"><ele>439.33333333333337</ele><time>2026-04-03T15:03:41.002Z</time></trkpt><trkpt lat="42.760881031372264" lon="11.747350471159374"><ele>436.66666666666663</ele><time>2026-04-03T15:03:42.002Z</time></trkpt><trkpt lat="42.76069209864265" lon="11.747241980793564"><ele>434.0</ele><time>2026-04-03T15:03:43.002Z</time></trkpt><trkpt lat="42.76050713163151" lon="11.747117785535895"><ele>434.0</ele><time>2026-04-03T15:03:44.002Z</time></trkpt><trkpt lat="42.760324456242024" lon="11.746992461616749"><ele>434.0</ele><time>2026-04-03T15:03:45.002Z</time></trkpt><trkpt lat="42.76013211639624" lon="11.746890156329084"><ele>434.0</ele><time>2026-04-03T15:03:46.002Z</time></trkpt><trkpt lat="42.75994997396938" lon="11.746775721187257"><ele>438.3333333333333</ele><time>2026-04-03T15:03:47.002Z</time></trkpt><trkpt lat="42.75977473381359" lon="11.746651547062438"><ele>442.66666666666663</ele><time>2026-04-03T15:03:48.002Z</time></trkpt><trkpt lat="42.75959660208124" lon="11.746561465795336"><ele>447.0</ele><time>2026-04-03T15:03:49.002Z</time></trkpt><trkpt lat="42.75942850661987" lon="11.746514204505278"><ele>448.0</ele><time>2026-04-03T15:03:50.002Z</time></trkpt><trkpt lat="42.759279329467205" lon="11.746457703209096"><ele>449.0</ele><time>2026-04-03T15:03:51.002Z</time></trkpt><trkpt lat="42.75912748802388" lon="11.746434358718451"><ele>450.0</ele><time>2026-04-03T15:03:52.002Z</time></trkpt><trkpt lat="42.75896732921733" lon="11.74646263481273"><ele>450.0</ele><time>2026-04-03T15:03:53.002Z</time></trkpt><trkpt lat="42.75880602235815" lon="11.74650575013871"><ele>450.0</ele><time>2026-04-03T15:03:54.002Z</time></trkpt><trkpt lat="42.758650767531364" lon="11.746570085911191"><ele>450.0</ele><time>2026-04-03T15:03:55.002Z</time></trkpt><trkpt lat="42.75850673910367" lon="11.746682910853991"><ele>453.66666666666663</ele><time>2026-04-03T15:03:56.002Z</time></trkpt><trkpt lat="42.75837857321054" lon="11.746854524821838"><ele>457.3333333333333</ele><time>2026-04-03T15:03:57.002Z</time></trkpt><trkpt lat="42.758266773764376" lon="11.747057013185895"><ele>461.0</ele><time>2026-04-03T15:03:58Z</time></trkpt><trkpt lat="42.75818631905398" lon="11.747289524882651"><ele>461.0</ele><time>2026-04-03T15:03:59Z</time></trkpt><trkpt lat="42.75815953158178" lon="11.747535836080687"><ele>461.0</ele><time>2026-04-03T15:04:00Z</time></trkpt><trkpt lat="42.75817916725298" lon="11.747779482903736"><ele>461.0</ele><time>2026-04-03T15:04:01Z</time></trkpt><trkpt lat="42.75815541662647" lon="11.747978326276996"><ele>459.75</ele><time>2026-04-03T15:04:02Z</time></trkpt><trkpt lat="42.7580999340474" lon="11.748147501654355"><ele>458.5</ele><time>2026-04-03T15:04:03Z</time></trkpt><trkpt lat="42.7580258737899" lon="11.748312129900976"><ele>457.25</ele><time>2026-04-03T15:04:04Z</time></trkpt><trkpt lat="42.75790062153834" lon="11.748432449185737"><ele>456.0</ele><time>2026-04-03T15:04:05Z</time></trkpt><trkpt lat="42.757761379821275" lon="11.748445146154396"><ele>464.33333333333337</ele><time>2026-04-03T15:04:06Z</time></trkpt><trkpt lat="42.75762610807836" lon="11.748442950603453"><ele>472.6666666666667</ele><time>2026-04-03T15:04:07Z</time></trkpt><trkpt lat="42.75747017438799" lon="11.748413871304342"><ele>481.0</ele><time>2026-04-03T15:04:08Z</time></trkpt><trkpt lat="42.75730839713383" lon="11.74836992760808"><ele>481.0</ele><time>2026-04-03T15:04:09Z</time></trkpt><trkpt lat="42.75713220700787" lon="11.74833273701684"><ele>481.0</ele><time>2026-04-03T15:04:10Z</time></trkpt><trkpt lat="42.75696750114959" lon="11.748362119430016"><ele>481.0</ele><time>2026-04-03T15:04:11Z</time></trkpt><trkpt lat="42.75680837982715" lon="11.748421855122437"><ele>482.25</ele><time>2026-04-03T15:04:12Z</time></trkpt><trkpt lat="42.75666226088923" lon="11.748442580883983"><ele>483.5</ele><time>2026-04-03T15:04:13Z</time></trkpt><trkpt lat="42.75652665375273" lon="11.748459950446025"><ele>484.75</ele><time>2026-04-03T15:04:14Z</time></trkpt><trkpt lat="42.75639342377658" lon="11.748451867624699"><ele>486.0</ele><time>2026-04-03T15:04:15Z</time></trkpt><trkpt lat="42.756247808312125" lon="11.748426549459234"><ele>486.0</ele><time>2026-04-03T15:04:16Z</time></trkpt><trkpt lat="42.75608128804881" lon="11.748397575645695"><ele>486.0</ele><time>2026-04-03T15:04:17Z</time></trkpt><trkpt lat="42.755908631968396" lon="11.748368434108318"><ele>486.0</ele><time>2026-04-03T15:04:18Z</time></trkpt><trkpt lat="42.75572902044726" lon="11.74833813894186"><ele>485.66666666666663</ele><time>2026-04-03T15:04:19Z</time></trkpt><trkpt lat="42.755549197602" lon="11.748307808222581"><ele>485.3333333333333</ele><time>2026-04-03T15:04:20Z</time></trkpt><trkpt lat="42.755370409147716" lon="11.748276280359555"><ele>485.0</ele><time>2026-04-03T15:04:21Z</time></trkpt><trkpt lat="42.75519836076613" lon="11.748245841024634"><ele>482.66666666666663</ele><time>2026-04-03T15:04:22Z</time></trkpt><trkpt lat="42.755032824989854" lon="11.74821656445323"><ele>480.33333333333337</ele><time>2026-04-03T15:04:23Z</time></trkpt><trkpt lat="42.75487497815655" lon="11.748188085641099"><ele>478.0</ele><time>2026-04-03T15:04:24Z</time></trkpt><trkpt lat="42.75472009534909" lon="11.748158038414598"><ele>478.0</ele><time>2026-04-03T15:04:25Z</time></trkpt><trkpt lat="42.75456696979374" lon="11.748130402722397"><ele>478.0</ele><time>2026-04-03T15:04:26Z</time></trkpt><trkpt lat="42.75441657431533" lon="11.74811251299412"><ele>478.0</ele><time>2026-04-03T15:04:27Z</time></trkpt><trkpt lat="42.754271398208985" lon="11.748139724362076"><ele>477.0</ele><time>2026-04-03T15:04:28Z</time></trkpt><trkpt lat="42.75412750592154" lon="11.748178086283092"><ele>476.0</ele><time>2026-04-03T15:04:29Z</time></trkpt><trkpt lat="42.75397065587625" lon="11.748222842322605"><ele>475.0</ele><time>2026-04-03T15:04:30Z</time></trkpt><trkpt lat="42.753821466902" lon="11.748280586956566"><ele>475.0</ele><time>2026-04-03T15:04:31Z</time></trkpt><trkpt lat="42.75367841802431" lon="11.748335955031141"><ele>475.0</ele><time>2026-04-03T15:04:32Z</time></trkpt><trkpt lat="42.75354658514034" lon="11.748386981836756"><ele>475.0</ele><time>2026-04-03T15:04:33Z</time></trkpt><trkpt lat="42.753416072408804" lon="11.748437497694423"><ele>475.0</ele><time>2026-04-03T15:04:34Z</time></trkpt><trkpt lat="42.75329368457891" lon="11.748487641343637"><ele>473.0</ele><time>2026-04-03T15:04:35Z</time></trkpt><trkpt lat="42.75317820401022" lon="11.748531769560088"><ele>471.0</ele><time>2026-04-03T15:04:36Z</time></trkpt><trkpt lat="42.753088000946235" lon="11.748559549972338"><ele>469.0</ele><time>2026-04-03T15:04:37.001Z</time></trkpt><trkpt lat="42.75301327957611" lon="11.748568087905145"><ele>467.0</ele><time>2026-04-03T15:04:38.001Z</time></trkpt><trkpt lat="42.75293052658486" lon="11.748563794192172"><ele>465.0</ele><time>2026-04-03T15:04:40.001Z</time></trkpt><trkpt lat="42.75284003220481" lon="11.74879448029168"><ele>465.0</ele><time>2026-04-03T15:04:43.001Z</time></trkpt><trkpt lat="42.752811121471495" lon="11.748916678013863"><ele>465.0</ele><time>2026-04-03T15:04:44.001Z</time></trkpt><trkpt lat="42.75278276635544" lon="11.749069208265645"><ele>465.0</ele><time>2026-04-03T15:04:45.001Z</time></trkpt><trkpt lat="42.752738554522054" lon="11.749227022737898"><ele>465.0</ele><time>2026-04-03T15:04:46.001Z</time></trkpt><trkpt lat="42.7527046481948" lon="11.749409079996251"><ele>462.66666666666663</ele><time>2026-04-03T15:04:47.001Z</time></trkpt><trkpt lat="42.75266836209032" lon="11.749606455879348"><ele>460.3333333333333</ele><time>2026-04-03T15:04:48.001Z</time></trkpt><trkpt lat="42.752631569954545" lon="11.749812971463559"><ele>458.0</ele><time>2026-04-03T15:04:49.001Z</time></trkpt><trkpt lat="42.75259166434248" lon="11.750025948862477"><ele>457.3333333333333</ele><time>2026-04-03T15:04:50.001Z</time></trkpt><trkpt lat="42.75254812446407" lon="11.750248163752397"><ele>456.66666666666663</ele><time>2026-04-03T15:04:51.001Z</time></trkpt><trkpt lat="42.75249989356054" lon="11.750465634247922"><ele>456.0</ele><time>2026-04-03T15:04:52.001Z</time></trkpt><trkpt lat="42.75245855285859" lon="11.750674190463336"><ele>456.0</ele><time>2026-04-03T15:04:53.001Z</time></trkpt><trkpt lat="42.752417344585425" lon="11.750868374791132"><ele>456.0</ele><time>2026-04-03T15:04:54.001Z</time></trkpt><trkpt lat="42.75236970443396" lon="11.751048921255643"><ele>456.0</ele><time>2026-04-03T15:04:55.001Z</time></trkpt><trkpt lat="42.75230476900727" lon="11.751225415655563"><ele>456.0</ele><time>2026-04-03T15:04:56.001Z</time></trkpt><trkpt lat="42.752197611745224" lon="11.75138081489469"><ele>456.66666666666663</ele><time>2026-04-03T15:04:57.001Z</time></trkpt><trkpt lat="42.7520649080479" lon="11.751512880354024"><ele>457.3333333333333</ele><time>2026-04-03T15:04:58.001Z</time></trkpt><trkpt lat="42.75190800866327" lon="11.751613354241792"><ele>458.0</ele><time>2026-04-03T15:04:59.001Z</time></trkpt><trkpt lat="42.7517379539636" lon="11.751722083328803"><ele>460.0</ele><time>2026-04-03T15:05:00.001Z</time></trkpt><trkpt lat="42.75156538912831" lon="11.751832830848443"><ele>462.0</ele><time>2026-04-03T15:05:01.001Z</time></trkpt><trkpt lat="42.751387164381185" lon="11.751947180809236"><ele>464.0</ele><time>2026-04-03T15:05:02.001Z</time></trkpt><trkpt lat="42.75120559067002" lon="11.752063382655358"><ele>460.0</ele><time>2026-04-03T15:05:03.001Z</time></trkpt><trkpt lat="42.75101675362759" lon="11.752184516688377"><ele>456.0</ele><time>2026-04-03T15:05:04.001Z</time></trkpt><trkpt lat="42.750830785220295" lon="11.752308557397091"><ele>452.0</ele><time>2026-04-03T15:05:05.001Z</time></trkpt><trkpt lat="42.75067255934832" lon="11.752448476619913"><ele>452.0</ele><time>2026-04-03T15:05:06.001Z</time></trkpt><trkpt lat="42.7505185759337" lon="11.75258125513066"><ele>452.0</ele><time>2026-04-03T15:05:07.001Z</time></trkpt><trkpt lat="42.750377698671755" lon="11.75273816549478"><ele>452.0</ele><time>2026-04-03T15:05:08.001Z</time></trkpt><trkpt lat="42.75023685533105" lon="11.75291921050136"><ele>451.0</ele><time>2026-04-03T15:05:09.001Z</time></trkpt><trkpt lat="42.75010750219937" lon="11.753122538367327"><ele>450.0</ele><time>2026-04-03T15:05:10.001Z</time></trkpt><trkpt lat="42.74999860913798" lon="11.75335104654094"><ele>449.0</ele><time>2026-04-03T15:05:11.001Z</time></trkpt><trkpt lat="42.749903895594166" lon="11.75358957084732"><ele>449.0</ele><time>2026-04-03T15:05:12.001Z</time></trkpt><trkpt lat="42.749807987703136" lon="11.753829727248032"><ele>449.0</ele><time>2026-04-03T15:05:13.001Z</time></trkpt><trkpt lat="42.74970798989854" lon="11.754068615717271"><ele>449.0</ele><time>2026-04-03T15:05:14.001Z</time></trkpt><trkpt lat="42.74960536869623" lon="11.754310221955587"><ele>447.66666666666663</ele><time>2026-04-03T15:05:15.001Z</time></trkpt><trkpt lat="42.74949907347879" lon="11.754557414119379"><ele>446.33333333333337</ele><time>2026-04-03T15:05:16.001Z</time></trkpt><trkpt lat="42.749384673083455" lon="11.75481489414606"><ele>445.0</ele><time>2026-04-03T15:05:17.001Z</time></trkpt><trkpt lat="42.74926820415315" lon="11.75507620093911"><ele>440.5</ele><time>2026-04-03T15:05:18.001Z</time></trkpt><trkpt lat="42.74915765890538" lon="11.755339670263321"><ele>436.0</ele><time>2026-04-03T15:05:19.001Z</time></trkpt><trkpt lat="42.74904082441437" lon="11.75560875230186"><ele>436.0</ele><time>2026-04-03T15:05:20.001Z</time></trkpt><trkpt lat="42.74890894973421" lon="11.755866236649663"><ele>436.0</ele><time>2026-04-03T15:05:21.001Z</time></trkpt><trkpt lat="42.74878981071009" lon="11.756135596769713"><ele>439.5</ele><time>2026-04-03T15:05:22.001Z</time></trkpt><trkpt lat="42.74867453762704" lon="11.756396216516256"><ele>443.0</ele><time>2026-04-03T15:05:23.001Z</time></trkpt><trkpt lat="42.748568409533604" lon="11.756676083075023"><ele>440.3333333333333</ele><time>2026-04-03T15:05:24.001Z</time></trkpt><trkpt lat="42.74845070642246" lon="11.756936939488757"><ele>437.66666666666663</ele><time>2026-04-03T15:05:25.001Z</time></trkpt><trkpt lat="42.74834099853266" lon="11.757189505081906"><ele>435.0</ele><time>2026-04-03T15:05:26.001Z</time></trkpt><trkpt lat="42.74821811400158" lon="11.757427711498185"><ele>435.0</ele><time>2026-04-03T15:05:27.001Z</time></trkpt><trkpt lat="42.74810504185349" lon="11.757682244769086"><ele>435.0</ele><time>2026-04-03T15:05:28.001Z</time></trkpt><trkpt lat="42.74799091233632" lon="11.75793915814207"><ele>435.0</ele><time>2026-04-03T15:05:29.001Z</time></trkpt><trkpt lat="42.74787548999098" lon="11.758198981678573"><ele>436.0</ele><time>2026-04-03T15:05:30.001Z</time></trkpt><trkpt lat="42.74775868724277" lon="11.758461912940955"><ele>437.0</ele><time>2026-04-03T15:05:31.001Z</time></trkpt><trkpt lat="42.74765824500736" lon="11.758734144345286"><ele>438.0</ele><time>2026-04-03T15:05:32.001Z</time></trkpt><trkpt lat="42.747539681054384" lon="11.758998038448427"><ele>436.5</ele><time>2026-04-03T15:05:33.002Z</time></trkpt><trkpt lat="42.74742477215398" lon="11.759263860191796"><ele>435.0</ele><time>2026-04-03T15:05:34.002Z</time></trkpt><trkpt lat="42.74730867308243" lon="11.75952859838695"><ele>435.0</ele><time>2026-04-03T15:05:35.002Z</time></trkpt><trkpt lat="42.747190848066126" lon="11.759794032091468"><ele>435.0</ele><time>2026-04-03T15:05:36.002Z</time></trkpt><trkpt lat="42.747058782618026" lon="11.760046620780887"><ele>432.66666666666663</ele><time>2026-04-03T15:05:37.002Z</time></trkpt><trkpt lat="42.74695686411112" lon="11.760315827502334"><ele>430.3333333333333</ele><time>2026-04-03T15:05:38.002Z</time></trkpt><trkpt lat="42.7468392356756" lon="11.76057390347267"><ele>428.0</ele><time>2026-04-03T15:05:39.002Z</time></trkpt><trkpt lat="42.74672427677329" lon="11.76082919067652"><ele>428.66666666666663</ele><time>2026-04-03T15:05:40.002Z</time></trkpt><trkpt lat="42.746610306815214" lon="11.761088470049406"><ele>429.33333333333337</ele><time>2026-04-03T15:05:41.002Z</time></trkpt><trkpt lat="42.74649569974459" lon="11.761348059593944"><ele>430.0</ele><time>2026-04-03T15:05:42.002Z</time></trkpt><trkpt lat="42.74637735154646" lon="11.761608992170332"><ele>430.33333333333337</ele><time>2026-04-03T15:05:43.002Z</time></trkpt><trkpt lat="42.746263782336904" lon="11.761868284267948"><ele>430.66666666666663</ele><time>2026-04-03T15:05:44.002Z</time></trkpt><trkpt lat="42.74615003163183" lon="11.762133423519995"><ele>431.0</ele><time>2026-04-03T15:05:45.002Z</time></trkpt><trkpt lat="42.74602218959048" lon="11.762383680324406"><ele>428.0</ele><time>2026-04-03T15:05:46.002Z</time></trkpt><trkpt lat="42.74591216675153" lon="11.762633114567835"><ele>425.0</ele><time>2026-04-03T15:05:47.002Z</time></trkpt><trkpt lat="42.745823256514385" lon="11.762876109635563"><ele>422.0</ele><time>2026-04-03T15:05:48.002Z</time></trkpt><trkpt lat="42.74572177144244" lon="11.763101828700602"><ele>422.0</ele><time>2026-04-03T15:05:49.002Z</time></trkpt><trkpt lat="42.74561080168053" lon="11.763316343204604"><ele>422.0</ele><time>2026-04-03T15:05:50.002Z</time></trkpt><trkpt lat="42.74550643026732" lon="11.763552207610907"><ele>422.0</ele><time>2026-04-03T15:05:51.002Z</time></trkpt><trkpt lat="42.74539902786728" lon="11.763795037513221"><ele>420.66666666666663</ele><time>2026-04-03T15:05:52.002Z</time></trkpt><trkpt lat="42.74528767974855" lon="11.764046788733369"><ele>419.33333333333337</ele><time>2026-04-03T15:05:53.002Z</time></trkpt><trkpt lat="42.74517714548819" lon="11.764296699643713"><ele>418.0</ele><time>2026-04-03T15:05:54.002Z</time></trkpt><trkpt lat="42.74506249846276" lon="11.764555909162004"><ele>420.6666666666667</ele><time>2026-04-03T15:05:55.002Z</time></trkpt><trkpt lat="42.74494801936329" lon="11.764814739253124"><ele>423.33333333333337</ele><time>2026-04-03T15:05:56.002Z</time></trkpt><trkpt lat="42.74483138156086" lon="11.765078449919608"><ele>426.0</ele><time>2026-04-03T15:05:57.002Z</time></trkpt><trkpt lat="42.74472460201779" lon="11.765350759036561"><ele>430.0</ele><time>2026-04-03T15:05:58.002Z</time></trkpt><trkpt lat="42.74460411976622" lon="11.765622101121467"><ele>434.0</ele><time>2026-04-03T15:05:59.002Z</time></trkpt><trkpt lat="42.74448554615795" lon="11.765889346979824"><ele>430.66666666666663</ele><time>2026-04-03T15:06:00.002Z</time></trkpt><trkpt lat="42.74436955918774" lon="11.7661483422036"><ele>427.33333333333337</ele><time>2026-04-03T15:06:01.002Z</time></trkpt><trkpt lat="42.74426280193646" lon="11.766390318541033"><ele>424.0</ele><time>2026-04-03T15:06:02.002Z</time></trkpt><trkpt lat="42.744164863103286" lon="11.766609074896481"><ele>424.0</ele><time>2026-04-03T15:06:03.002Z</time></trkpt><trkpt lat="42.74406336288474" lon="11.766815984301632"><ele>424.0</ele><time>2026-04-03T15:06:04Z</time></trkpt><trkpt lat="42.74398510405175" lon="11.767019133538579"><ele>424.0</ele><time>2026-04-03T15:06:05Z</time></trkpt><trkpt lat="42.74393083434319" lon="11.767226683829486"><ele>423.33333333333337</ele><time>2026-04-03T15:06:06Z</time></trkpt><trkpt lat="42.74390585697612" lon="11.76745605727178"><ele>422.66666666666663</ele><time>2026-04-03T15:06:07Z</time></trkpt><trkpt lat="42.7439128415553" lon="11.767692818648706"><ele>422.0</ele><time>2026-04-03T15:06:08Z</time></trkpt><trkpt lat="42.743942957598634" lon="11.767930630763725"><ele>420.3333333333333</ele><time>2026-04-03T15:06:09Z</time></trkpt><trkpt lat="42.7439945241039" lon="11.76817504743981"><ele>418.66666666666663</ele><time>2026-04-03T15:06:10Z</time></trkpt><trkpt lat="42.74405320380093" lon="11.7684142814573"><ele>417.0</ele><time>2026-04-03T15:06:11Z</time></trkpt><trkpt lat="42.74410355156854" lon="11.768672599189134"><ele>417.0</ele><time>2026-04-03T15:06:12Z</time></trkpt><trkpt lat="42.74415287115661" lon="11.768939193166116"><ele>417.0</ele><time>2026-04-03T15:06:13Z</time></trkpt><trkpt lat="42.74419714101926" lon="11.769212711060637"><ele>417.0</ele><time>2026-04-03T15:06:14Z</time></trkpt><trkpt lat="42.74424137039594" lon="11.769496319545269"><ele>416.0</ele><time>2026-04-03T15:06:15Z</time></trkpt><trkpt lat="42.744279341911266" lon="11.769787480352818"><ele>415.0</ele><time>2026-04-03T15:06:16Z</time></trkpt><trkpt lat="42.744300382600876" lon="11.770083456808742"><ele>414.0</ele><time>2026-04-03T15:06:17Z</time></trkpt><trkpt lat="42.74430739189064" lon="11.770380815134097"><ele>413.66666666666663</ele><time>2026-04-03T15:06:18Z</time></trkpt><trkpt lat="42.74431198474287" lon="11.770682172209634"><ele>413.3333333333333</ele><time>2026-04-03T15:06:19Z</time></trkpt><trkpt lat="42.74431549326723" lon="11.770987620109459"><ele>413.0</ele><time>2026-04-03T15:06:20Z</time></trkpt><trkpt lat="42.7443240946236" lon="11.771298226675095"><ele>412.0</ele><time>2026-04-03T15:06:21Z</time></trkpt><trkpt lat="42.74432630666656" lon="11.771609195771441"><ele>411.0</ele><time>2026-04-03T15:06:22Z</time></trkpt><trkpt lat="42.74432685614245" lon="11.771927867935485"><ele>410.0</ele><time>2026-04-03T15:06:23Z</time></trkpt><trkpt lat="42.74433115933982" lon="11.772243472744794"><ele>409.0</ele><time>2026-04-03T15:06:24Z</time></trkpt><trkpt lat="42.74433269465421" lon="11.772560867766527"><ele>408.5</ele><time>2026-04-03T15:06:25Z</time></trkpt><trkpt lat="42.74433454456151" lon="11.772873757376855"><ele>408.0</ele><time>2026-04-03T15:06:26Z</time></trkpt><trkpt lat="42.7443408652246" lon="11.773185872278466"><ele>408.0</ele><time>2026-04-03T15:06:27Z</time></trkpt><trkpt lat="42.744346951364655" lon="11.77349550882539"><ele>408.0</ele><time>2026-04-03T15:06:28Z</time></trkpt><trkpt lat="42.74434992078095" lon="11.773801103732534"><ele>407.33333333333337</ele><time>2026-04-03T15:06:29Z</time></trkpt><trkpt lat="42.74435157804075" lon="11.774092315297954"><ele>406.6666666666667</ele><time>2026-04-03T15:06:30Z</time></trkpt><trkpt lat="42.74435371211847" lon="11.774372535434079"><ele>406.0</ele><time>2026-04-03T15:06:31Z</time></trkpt><trkpt lat="42.74435630252458" lon="11.774640971380828"><ele>406.0</ele><time>2026-04-03T15:06:32Z</time></trkpt><trkpt lat="42.744365841656126" lon="11.774904951360028"><ele>406.0</ele><time>2026-04-03T15:06:33Z</time></trkpt><trkpt lat="42.74437461638588" lon="11.77516673277393"><ele>406.0</ele><time>2026-04-03T15:06:34Z</time></trkpt><trkpt lat="42.7443803457253" lon="11.775424502596238"><ele>406.33333333333337</ele><time>2026-04-03T15:06:35Z</time></trkpt><trkpt lat="42.744381363913305" lon="11.775688238695833"><ele>406.66666666666663</ele><time>2026-04-03T15:06:36Z</time></trkpt><trkpt lat="42.744369437494605" lon="11.775949940870342"><ele>407.0</ele><time>2026-04-03T15:06:37Z</time></trkpt><trkpt lat="42.74433955017381" lon="11.77620358160822"><ele>406.3333333333333</ele><time>2026-04-03T15:06:38Z</time></trkpt><trkpt lat="42.74428583525364" lon="11.77643608251918"><ele>405.66666666666663</ele><time>2026-04-03T15:06:39Z</time></trkpt><trkpt lat="42.7442027872829" lon="11.77663687710877"><ele>405.0</ele><time>2026-04-03T15:06:40Z</time></trkpt><trkpt lat="42.744092033675585" lon="11.77679677274022"><ele>405.66666666666663</ele><time>2026-04-03T15:06:41Z</time></trkpt><trkpt lat="42.74394809363304" lon="11.776910425723454"><ele>406.3333333333333</ele><time>2026-04-03T15:06:42Z</time></trkpt><trkpt lat="42.74376475938812" lon="11.776956294351072"><ele>407.0</ele><time>2026-04-03T15:06:43Z</time></trkpt><trkpt lat="42.743568564569344" lon="11.776933453274196"><ele>406.3333333333333</ele><time>2026-04-03T15:06:44Z</time></trkpt><trkpt lat="42.74337178390042" lon="11.776870914621183"><ele>405.66666666666663</ele><time>2026-04-03T15:06:45Z</time></trkpt><trkpt lat="42.74317219570188" lon="11.776812338671677"><ele>405.0</ele><time>2026-04-03T15:06:46.001Z</time></trkpt><trkpt lat="42.742967510703146" lon="11.776766647125614"><ele>405.0</ele><time>2026-04-03T15:06:47.001Z</time></trkpt><trkpt lat="42.7427520974495" lon="11.776723099236136"><ele>405.0</ele><time>2026-04-03T15:06:48.001Z</time></trkpt><trkpt lat="42.74253702321324" lon="11.776687727106752"><ele>405.0</ele><time>2026-04-03T15:06:49.001Z</time></trkpt><trkpt lat="42.74232451159585" lon="11.776649995454846"><ele>405.33333333333337</ele><time>2026-04-03T15:06:50.001Z</time></trkpt><trkpt lat="42.74212095500048" lon="11.77660911148747"><ele>405.6666666666667</ele><time>2026-04-03T15:06:51.001Z</time></trkpt><trkpt lat="42.74192637023938" lon="11.776581047767776"><ele>406.0</ele><time>2026-04-03T15:06:52.001Z</time></trkpt><trkpt lat="42.74174198418837" lon="11.776550910293546"><ele>407.33333333333337</ele><time>2026-04-03T15:06:53.001Z</time></trkpt><trkpt lat="42.74156908779069" lon="11.776503541552978"><ele>408.66666666666663</ele><time>2026-04-03T15:06:54.001Z</time></trkpt><trkpt lat="42.74142089456988" lon="11.77640405494483"><ele>410.0</ele><time>2026-04-03T15:06:55.001Z</time></trkpt><trkpt lat="42.74130361842027" lon="11.776259960938356"><ele>410.0</ele><time>2026-04-03T15:06:56.001Z</time></trkpt><trkpt lat="42.7412369443269" lon="11.776057212841698"><ele>410.0</ele><time>2026-04-03T15:06:57.001Z</time></trkpt><trkpt lat="42.74116776125132" lon="11.775885885340356"><ele>410.0</ele><time>2026-04-03T15:06:58.001Z</time></trkpt><trkpt lat="42.74109150316137" lon="11.775687049750836"><ele>413.3333333333333</ele><time>2026-04-03T15:06:59.001Z</time></trkpt><trkpt lat="42.740988538783846" lon="11.775493467383939"><ele>416.66666666666663</ele><time>2026-04-03T15:07:00.001Z</time></trkpt><trkpt lat="42.74085967428216" lon="11.775325618500725"><ele>420.0</ele><time>2026-04-03T15:07:01.001Z</time></trkpt><trkpt lat="42.74071302569259" lon="11.775176726798971"><ele>425.33333333333337</ele><time>2026-04-03T15:07:02.001Z</time></trkpt><trkpt lat="42.74055059652488" lon="11.775046476917558"><ele>430.6666666666667</ele><time>2026-04-03T15:07:03.001Z</time></trkpt><trkpt lat="42.74038258893825" lon="11.774943452879507"><ele>436.0</ele><time>2026-04-03T15:07:04.001Z</time></trkpt><trkpt lat="42.7402279264586" lon="11.774868331063491"><ele>433.75</ele><time>2026-04-03T15:07:05.001Z</time></trkpt><trkpt lat="42.740101756981616" lon="11.774793042994515"><ele>431.5</ele><time>2026-04-03T15:07:06.001Z</time></trkpt><trkpt lat="42.7399929327705" lon="11.77468710861225"><ele>429.25</ele><time>2026-04-03T15:07:07.001Z</time></trkpt><trkpt lat="42.73989810872031" lon="11.77453724031398"><ele>427.0</ele><time>2026-04-03T15:07:08.001Z</time></trkpt><trkpt lat="42.73981293058655" lon="11.774366520047684"><ele>431.6666666666667</ele><time>2026-04-03T15:07:09.001Z</time></trkpt><trkpt lat="42.7397449886183" lon="11.77417201346222"><ele>436.33333333333337</ele><time>2026-04-03T15:07:10.001Z</time></trkpt><trkpt lat="42.73969672458845" lon="11.77395937592448"><ele>441.0</ele><time>2026-04-03T15:07:11.001Z</time></trkpt><trkpt lat="42.73965130153122" lon="11.773750811696171"><ele>441.0</ele><time>2026-04-03T15:07:12.001Z</time></trkpt><trkpt lat="42.739624362307765" lon="11.773570323216909"><ele>441.0</ele><time>2026-04-03T15:07:13.001Z</time></trkpt><trkpt lat="42.73963301534317" lon="11.773400448668836"><ele>441.0</ele><time>2026-04-03T15:07:14.001Z</time></trkpt><trkpt lat="42.73965500238812" lon="11.773236924046401"><ele>441.0</ele><time>2026-04-03T15:07:15.001Z</time></trkpt><trkpt lat="42.739694140327586" lon="11.773029061039203"><ele>444.33333333333337</ele><time>2026-04-03T15:07:16.001Z</time></trkpt><trkpt lat="42.739755341280116" lon="11.772793469165896"><ele>447.6666666666667</ele><time>2026-04-03T15:07:17.001Z</time></trkpt><trkpt lat="42.73979256707635" lon="11.77256943309693"><ele>451.0</ele><time>2026-04-03T15:07:18.001Z</time></trkpt><trkpt lat="42.73981258391786" lon="11.772322602241207"><ele>451.33333333333337</ele><time>2026-04-03T15:07:19.001Z</time></trkpt><trkpt lat="42.73975866110434" lon="11.772048460630463"><ele>451.66666666666663</ele><time>2026-04-03T15:07:20.001Z</time></trkpt><trkpt lat="42.73968752236966" lon="11.771789266948302"><ele>452.0</ele><time>2026-04-03T15:07:21.001Z</time></trkpt><trkpt lat="42.7396487682594" lon="11.771573343144919"><ele>453.25</ele><time>2026-04-03T15:07:22.001Z</time></trkpt><trkpt lat="42.739669473829466" lon="11.771429269229374"><ele>454.5</ele><time>2026-04-03T15:07:23.001Z</time></trkpt><trkpt lat="42.73968920771009" lon="11.771219541369897"><ele>455.75</ele><time>2026-04-03T15:07:24.001Z</time></trkpt><trkpt lat="42.73971631141541" lon="11.771017409606893"><ele>457.0</ele><time>2026-04-03T15:07:25.001Z</time></trkpt><trkpt lat="42.739749095372325" lon="11.77081791889669"><ele>458.5</ele><time>2026-04-03T15:07:26.001Z</time></trkpt><trkpt lat="42.73978300476886" lon="11.770620833004843"><ele>460.0</ele><time>2026-04-03T15:07:27.001Z</time></trkpt><trkpt lat="42.739833424917926" lon="11.77016938459263"><ele>461.0</ele><time>2026-04-03T15:07:28.001Z</time></trkpt><trkpt lat="42.739877414659105" lon="11.769895556411711"><ele>462.0</ele><time>2026-04-03T15:07:29.001Z</time></trkpt><trkpt lat="42.73991315340747" lon="11.769631714279818"><ele>463.0</ele><time>2026-04-03T15:07:30.001Z</time></trkpt><trkpt lat="42.739927569828836" lon="11.769364726172562"><ele>465.33333333333337</ele><time>2026-04-03T15:07:31.001Z</time></trkpt><trkpt lat="42.739915709638524" lon="11.769099837975382"><ele>467.66666666666663</ele><time>2026-04-03T15:07:32.001Z</time></trkpt><trkpt lat="42.73988645579111" lon="11.768837087269363"><ele>470.0</ele><time>2026-04-03T15:07:33.001Z</time></trkpt><trkpt lat="42.73984465717582" lon="11.768581045813157"><ele>472.0</ele><time>2026-04-03T15:07:34.001Z</time></trkpt><trkpt lat="42.739782898263485" lon="11.768334214524913"><ele>474.0</ele><time>2026-04-03T15:07:35.001Z</time></trkpt><trkpt lat="42.739706927935565" lon="11.768100249441469"><ele>476.0</ele><time>2026-04-03T15:07:36.001Z</time></trkpt><trkpt lat="42.739604379559644" lon="11.767886959275973"><ele>476.0</ele><time>2026-04-03T15:07:37.001Z</time></trkpt><trkpt lat="42.739478454551495" lon="11.767696301534324"><ele>476.0</ele><time>2026-04-03T15:07:38.001Z</time></trkpt><trkpt lat="42.739345429276014" lon="11.767521976266982"><ele>476.0</ele><time>2026-04-03T15:07:39.001Z</time></trkpt><trkpt lat="42.73920552350456" lon="11.767356975667262"><ele>476.66666666666663</ele><time>2026-04-03T15:07:40.001Z</time></trkpt><trkpt lat="42.739064147342184" lon="11.767194801669339"><ele>477.33333333333337</ele><time>2026-04-03T15:07:41.002Z</time></trkpt><trkpt lat="42.738928254198704" lon="11.767032324313323"><ele>478.0</ele><time>2026-04-03T15:07:42.002Z</time></trkpt><trkpt lat="42.73880980312259" lon="11.766882204327677"><ele>478.33333333333337</ele><time>2026-04-03T15:07:43.002Z</time></trkpt><trkpt lat="42.738694642621674" lon="11.766722929991937"><ele>478.66666666666663</ele><time>2026-04-03T15:07:44.002Z</time></trkpt><trkpt lat="42.73858682283946" lon="11.766579364841695"><ele>479.0</ele><time>2026-04-03T15:07:45.002Z</time></trkpt><trkpt lat="42.73849018200554" lon="11.76641347382705"><ele>480.0</ele><time>2026-04-03T15:07:46.002Z</time></trkpt><trkpt lat="42.73841344088604" lon="11.766224914598363"><ele>481.0</ele><time>2026-04-03T15:07:47.002Z</time></trkpt><trkpt lat="42.73834900472152" lon="11.766017452514616"><ele>482.0</ele><time>2026-04-03T15:07:48.002Z</time></trkpt><trkpt lat="42.73827336052727" lon="11.765821144240219"><ele>482.66666666666663</ele><time>2026-04-03T15:07:49.002Z</time></trkpt><trkpt lat="42.73818690751425" lon="11.765628496849233"><ele>483.33333333333337</ele><time>2026-04-03T15:07:50.002Z</time></trkpt><trkpt lat="42.73807496470154" lon="11.765453159331544"><ele>484.0</ele><time>2026-04-03T15:07:51.002Z</time></trkpt><trkpt lat="42.73795322931852" lon="11.765284597150732"><ele>484.33333333333337</ele><time>2026-04-03T15:07:52.002Z</time></trkpt><trkpt lat="42.73783318593968" lon="11.76510288582024"><ele>484.66666666666663</ele><time>2026-04-03T15:07:53.002Z</time></trkpt><trkpt lat="42.737717740522484" lon="11.764912129275132"><ele>485.0</ele><time>2026-04-03T15:07:54.002Z</time></trkpt><trkpt lat="42.73759472899364" lon="11.764713138801815"><ele>485.3333333333333</ele><time>2026-04-03T15:07:55.002Z</time></trkpt><trkpt lat="42.73746742633059" lon="11.764510320327364"><ele>485.66666666666663</ele><time>2026-04-03T15:07:56.002Z</time></trkpt><trkpt lat="42.73733539604369" lon="11.764306960148485"><ele>486.0</ele><time>2026-04-03T15:07:57.002Z</time></trkpt><trkpt lat="42.73719630895826" lon="11.764074861694713"><ele>486.0</ele><time>2026-04-03T15:07:58.002Z</time></trkpt><trkpt lat="42.737064333314336" lon="11.763873798361796"><ele>486.0</ele><time>2026-04-03T15:07:59.002Z</time></trkpt><trkpt lat="42.73692303814975" lon="11.763658075842782"><ele>486.0</ele><time>2026-04-03T15:08:00.002Z</time></trkpt><trkpt lat="42.73677657730371" lon="11.763431812861175"><ele>484.0</ele><time>2026-04-03T15:08:01.002Z</time></trkpt><trkpt lat="42.73662494651633" lon="11.763201392206131"><ele>482.0</ele><time>2026-04-03T15:08:02.002Z</time></trkpt><trkpt lat="42.73647295448968" lon="11.762961884290393"><ele>482.0</ele><time>2026-04-03T15:08:03.002Z</time></trkpt><trkpt lat="42.73632034565263" lon="11.762716851333414"><ele>482.0</ele><time>2026-04-03T15:08:04.002Z</time></trkpt><trkpt lat="42.73616806715582" lon="11.762473011535898"><ele>482.0</ele><time>2026-04-03T15:08:05.002Z</time></trkpt><trkpt lat="42.73602238924572" lon="11.762239714718296"><ele>482.0</ele><time>2026-04-03T15:08:06.002Z</time></trkpt><trkpt lat="42.73588640050995" lon="11.762022079462342"><ele>482.0</ele><time>2026-04-03T15:08:07.002Z</time></trkpt><trkpt lat="42.73576783913388" lon="11.761816888730854"><ele>482.0</ele><time>2026-04-03T15:08:08.002Z</time></trkpt><trkpt lat="42.73564384982872" lon="11.761626923421034"><ele>482.0</ele><time>2026-04-03T15:08:09.002Z</time></trkpt><trkpt lat="42.73552917746299" lon="11.761459759046259"><ele>482.0</ele><time>2026-04-03T15:08:10Z</time></trkpt><trkpt lat="42.735400686077455" lon="11.761328772904754"><ele>482.0</ele><time>2026-04-03T15:08:11Z</time></trkpt><trkpt lat="42.73524364338676" lon="11.761268994531438"><ele>482.0</ele><time>2026-04-03T15:08:12Z</time></trkpt><trkpt lat="42.735070405872044" lon="11.761281069281635"><ele>482.0</ele><time>2026-04-03T15:08:13Z</time></trkpt><trkpt lat="42.73489559940526" lon="11.76135932017577"><ele>480.66666666666663</ele><time>2026-04-03T15:08:14Z</time></trkpt><trkpt lat="42.73472450174702" lon="11.761481538029187"><ele>479.33333333333337</ele><time>2026-04-03T15:08:15Z</time></trkpt><trkpt lat="42.73456233847505" lon="11.761609379649615"><ele>478.0</ele><time>2026-04-03T15:08:16Z</time></trkpt><trkpt lat="42.7344174058762" lon="11.761742705181874"><ele>478.6666666666667</ele><time>2026-04-03T15:08:17Z</time></trkpt><trkpt lat="42.73430699126388" lon="11.761918031064297"><ele>479.33333333333337</ele><time>2026-04-03T15:08:18Z</time></trkpt><trkpt lat="42.73422470522322" lon="11.762136309897073"><ele>480.0</ele><time>2026-04-03T15:08:19Z</time></trkpt><trkpt lat="42.73413531149317" lon="11.76235429736082"><ele>480.0</ele><time>2026-04-03T15:08:20Z</time></trkpt><trkpt lat="42.734016751785575" lon="11.762527904853336"><ele>480.0</ele><time>2026-04-03T15:08:21Z</time></trkpt><trkpt lat="42.733896802391456" lon="11.762675000156875"><ele>480.0</ele><time>2026-04-03T15:08:22Z</time></trkpt><trkpt lat="42.733757853470465" lon="11.762813910082258"><ele>478.66666666666663</ele><time>2026-04-03T15:08:23Z</time></trkpt><trkpt lat="42.733605092324034" lon="11.762960772408471"><ele>477.3333333333333</ele><time>2026-04-03T15:08:24Z</time></trkpt><trkpt lat="42.733446822133835" lon="11.76310804953425"><ele>476.0</ele><time>2026-04-03T15:08:25Z</time></trkpt><trkpt lat="42.733294648329775" lon="11.763238225856423"><ele>475.66666666666663</ele><time>2026-04-03T15:08:26Z</time></trkpt><trkpt lat="42.733147628871905" lon="11.763339682785613"><ele>475.33333333333337</ele><time>2026-04-03T15:08:27Z</time></trkpt><trkpt lat="42.73299604543858" lon="11.763406008194995"><ele>475.0</ele><time>2026-04-03T15:08:28Z</time></trkpt><trkpt lat="42.732832333928684" lon="11.76343380353542"><ele>474.33333333333337</ele><time>2026-04-03T15:08:29Z</time></trkpt><trkpt lat="42.732658365947124" lon="11.763430273715116"><ele>473.66666666666663</ele><time>2026-04-03T15:08:30Z</time></trkpt><trkpt lat="42.73247377098144" lon="11.763399017073029"><ele>473.0</ele><time>2026-04-03T15:08:31Z</time></trkpt><trkpt lat="42.73228540912937" lon="11.763354420421892"><ele>473.0</ele><time>2026-04-03T15:08:32Z</time></trkpt><trkpt lat="42.73209479377225" lon="11.763306349012627"><ele>473.0</ele><time>2026-04-03T15:08:33Z</time></trkpt><trkpt lat="42.7318980788687" lon="11.763256565790652"><ele>473.0</ele><time>2026-04-03T15:08:34Z</time></trkpt><trkpt lat="42.731702032105645" lon="11.763205891832932"><ele>473.3333333333333</ele><time>2026-04-03T15:08:35Z</time></trkpt><trkpt lat="42.73151502166295" lon="11.7631575535737"><ele>473.66666666666663</ele><time>2026-04-03T15:08:36Z</time></trkpt><trkpt lat="42.73132177164427" lon="11.76311023412159"><ele>474.0</ele><time>2026-04-03T15:08:37Z</time></trkpt><trkpt lat="42.731127736136465" lon="11.763062458642102"><ele>474.66666666666663</ele><time>2026-04-03T15:08:38Z</time></trkpt><trkpt lat="42.730932792780116" lon="11.763010163792782"><ele>475.3333333333333</ele><time>2026-04-03T15:08:39Z</time></trkpt><trkpt lat="42.73073224104907" lon="11.762958139382334"><ele>476.0</ele><time>2026-04-03T15:08:40Z</time></trkpt><trkpt lat="42.73052772106966" lon="11.762905484876027"><ele>476.0</ele><time>2026-04-03T15:08:41Z</time></trkpt><trkpt lat="42.73031900003423" lon="11.762851748280376"><ele>476.0</ele><time>2026-04-03T15:08:42Z</time></trkpt><trkpt lat="42.730107435701356" lon="11.762797279651638"><ele>476.0</ele><time>2026-04-03T15:08:43Z</time></trkpt><trkpt lat="42.72989118227062" lon="11.762741603787681"><ele>476.0</ele><time>2026-04-03T15:08:44Z</time></trkpt><trkpt lat="42.729675731824976" lon="11.762686134657361"><ele>476.0</ele><time>2026-04-03T15:08:45Z</time></trkpt><trkpt lat="42.72946375352669" lon="11.762631408277848"><ele>476.0</ele><time>2026-04-03T15:08:46Z</time></trkpt><trkpt lat="42.72925712771135" lon="11.762577883542493"><ele>475.66666666666663</ele><time>2026-04-03T15:08:47Z</time></trkpt><trkpt lat="42.72905157348246" lon="11.762524636393005"><ele>475.33333333333337</ele><time>2026-04-03T15:08:48Z</time></trkpt><trkpt lat="42.72884273623639" lon="11.76247799964116"><ele>475.0</ele><time>2026-04-03T15:08:49Z</time></trkpt><trkpt lat="42.72862971395074" lon="11.76246678934895"><ele>473.6666666666667</ele><time>2026-04-03T15:08:50Z</time></trkpt><trkpt lat="42.728417944202775" lon="11.762451855486727"><ele>472.33333333333337</ele><time>2026-04-03T15:08:51Z</time></trkpt><trkpt lat="42.72820801030279" lon="11.76241564398432"><ele>471.0</ele><time>2026-04-03T15:08:52Z</time></trkpt><trkpt lat="42.72801358407952" lon="11.762396627507917"><ele>471.0</ele><time>2026-04-03T15:08:53Z</time></trkpt><trkpt lat="42.727813396394346" lon="11.762365485386232"><ele>471.0</ele><time>2026-04-03T15:08:54Z</time></trkpt><trkpt lat="42.72761487660878" lon="11.762311865601125"><ele>471.0</ele><time>2026-04-03T15:08:55Z</time></trkpt><trkpt lat="42.72741455609039" lon="11.762247525116019"><ele>470.66666666666663</ele><time>2026-04-03T15:08:56Z</time></trkpt><trkpt lat="42.7272134618541" lon="11.762170164462997"><ele>470.3333333333333</ele><time>2026-04-03T15:08:57Z</time></trkpt><trkpt lat="42.72701857460729" lon="11.762086597346372"><ele>470.0</ele><time>2026-04-03T15:08:58Z</time></trkpt><trkpt lat="42.72682294523129" lon="11.761998887245722"><ele>471.3333333333333</ele><time>2026-04-03T15:08:59Z</time></trkpt><trkpt lat="42.72663112641628" lon="11.761909131026936"><ele>472.66666666666663</ele><time>2026-04-03T15:09:00.001Z</time></trkpt><trkpt lat="42.72643975289512" lon="11.761818327121048"><ele>474.0</ele><time>2026-04-03T15:09:01.001Z</time></trkpt><trkpt lat="42.726248604534455" lon="11.76172721990222"><ele>474.33333333333337</ele><time>2026-04-03T15:09:02.001Z</time></trkpt><trkpt lat="42.726056601685485" lon="11.761636554764554"><ele>474.6666666666667</ele><time>2026-04-03T15:09:03.001Z</time></trkpt><trkpt lat="42.725866147550526" lon="11.761547168534948"><ele>475.0</ele><time>2026-04-03T15:09:04.001Z</time></trkpt><trkpt lat="42.72567119219131" lon="11.761453975380086"><ele>475.0</ele><time>2026-04-03T15:09:05.001Z</time></trkpt><trkpt lat="42.72547398185152" lon="11.761359852283478"><ele>475.0</ele><time>2026-04-03T15:09:06.001Z</time></trkpt><trkpt lat="42.7252768084625" lon="11.761265746620502"><ele>475.0</ele><time>2026-04-03T15:09:07.001Z</time></trkpt><trkpt lat="42.725079401197284" lon="11.76117247863409"><ele>475.33333333333337</ele><time>2026-04-03T15:09:08.001Z</time></trkpt><trkpt lat="42.72488217715771" lon="11.761076534917924"><ele>475.66666666666663</ele><time>2026-04-03T15:09:09.001Z</time></trkpt><trkpt lat="42.72469133479979" lon="11.760983002545515"><ele>476.0</ele><time>2026-04-03T15:09:10.001Z</time></trkpt><trkpt lat="42.7245028542783" lon="11.760912844822897"><ele>475.66666666666663</ele><time>2026-04-03T15:09:11.001Z</time></trkpt><trkpt lat="42.72431930127187" lon="11.760835995346907"><ele>475.33333333333337</ele><time>2026-04-03T15:09:12.001Z</time></trkpt><trkpt lat="42.72413001057574" lon="11.760798344094479"><ele>475.0</ele><time>2026-04-03T15:09:13.001Z</time></trkpt><trkpt lat="42.7239236163259" lon="11.76080315959601"><ele>475.0</ele><time>2026-04-03T15:09:14.001Z</time></trkpt><trkpt lat="42.7237155762575" lon="11.760829628673996"><ele>475.0</ele><time>2026-04-03T15:09:15.001Z</time></trkpt><trkpt lat="42.72350359437868" lon="11.760829516957635"><ele>475.0</ele><time>2026-04-03T15:09:16.001Z</time></trkpt><trkpt lat="42.723286754561975" lon="11.760844761829988"><ele>474.6666666666667</ele><time>2026-04-03T15:09:17.001Z</time></trkpt><trkpt lat="42.72306680962149" lon="11.760861335433635"><ele>474.33333333333337</ele><time>2026-04-03T15:09:18.001Z</time></trkpt><trkpt lat="42.72284192414702" lon="11.760878302618751"><ele>474.0</ele><time>2026-04-03T15:09:19.001Z</time></trkpt><trkpt lat="42.72261780007587" lon="11.760895212484652"><ele>474.0</ele><time>2026-04-03T15:09:20.001Z</time></trkpt><trkpt lat="42.72238934517657" lon="11.760912449134713"><ele>474.0</ele><time>2026-04-03T15:09:21.001Z</time></trkpt><trkpt lat="42.7221659655856" lon="11.760931011149765"><ele>474.0</ele><time>2026-04-03T15:09:22.001Z</time></trkpt><trkpt lat="42.721938216263055" lon="11.760949993130128"><ele>474.0</ele><time>2026-04-03T15:09:23.001Z</time></trkpt><trkpt lat="42.721711469309376" lon="11.760995518092026"><ele>473.33333333333337</ele><time>2026-04-03T15:09:24.001Z</time></trkpt><trkpt lat="42.72149080848788" lon="11.761008439268384"><ele>472.6666666666667</ele><time>2026-04-03T15:09:25.001Z</time></trkpt><trkpt lat="42.721284865868135" lon="11.76102399402586"><ele>472.0</ele><time>2026-04-03T15:09:26.001Z</time></trkpt><trkpt lat="42.72109074702249" lon="11.761038708578267"><ele>471.6666666666667</ele><time>2026-04-03T15:09:27.001Z</time></trkpt><trkpt lat="42.72090728689242" lon="11.761055623525918"><ele>471.33333333333337</ele><time>2026-04-03T15:09:28.001Z</time></trkpt><trkpt lat="42.720729246330286" lon="11.761057700709037"><ele>471.0</ele><time>2026-04-03T15:09:29.001Z</time></trkpt><trkpt lat="42.72054366797017" lon="11.761045537711981"><ele>471.33333333333337</ele><time>2026-04-03T15:09:30.001Z</time></trkpt><trkpt lat="42.720355740846" lon="11.761001440636807"><ele>471.6666666666667</ele><time>2026-04-03T15:09:31.001Z</time></trkpt><trkpt lat="42.72016049546188" lon="11.760935990009777"><ele>472.0</ele><time>2026-04-03T15:09:32.001Z</time></trkpt><trkpt lat="42.71996169311126" lon="11.760863188233879"><ele>472.0</ele><time>2026-04-03T15:09:33.001Z</time></trkpt><trkpt lat="42.7197586969028" lon="11.760797793639982"><ele>472.0</ele><time>2026-04-03T15:09:34.001Z</time></trkpt><trkpt lat="42.71955404059004" lon="11.760728195961718"><ele>472.0</ele><time>2026-04-03T15:09:35.001Z</time></trkpt><trkpt lat="42.719358745989595" lon="11.760661043683216"><ele>472.0</ele><time>2026-04-03T15:09:36.001Z</time></trkpt><trkpt lat="42.719147795005505" lon="11.76058948618407"><ele>472.0</ele><time>2026-04-03T15:09:37.001Z</time></trkpt><trkpt lat="42.71894806283868" lon="11.76053808012217"><ele>472.0</ele><time>2026-04-03T15:09:38.001Z</time></trkpt><trkpt lat="42.718763320508096" lon="11.760503739303081"><ele>472.0</ele><time>2026-04-03T15:09:39.001Z</time></trkpt><trkpt lat="42.71858400978004" lon="11.760497416700577"><ele>472.0</ele><time>2026-04-03T15:09:40.001Z</time></trkpt><trkpt lat="42.71840747913695" lon="11.760521145745392"><ele>472.0</ele><time>2026-04-03T15:09:41.001Z</time></trkpt><trkpt lat="42.71822529402709" lon="11.76056658279096"><ele>472.0</ele><time>2026-04-03T15:09:42.001Z</time></trkpt><trkpt lat="42.7180382617505" lon="11.760625867861467"><ele>472.0</ele><time>2026-04-03T15:09:43.001Z</time></trkpt><trkpt lat="42.717845996957905" lon="11.760695329036283"><ele>472.0</ele><time>2026-04-03T15:09:44.001Z</time></trkpt><trkpt lat="42.71765514464553" lon="11.760762390168237"><ele>472.0</ele><time>2026-04-03T15:09:45.001Z</time></trkpt><trkpt lat="42.71746954206421" lon="11.760819830363177"><ele>472.0</ele><time>2026-04-03T15:09:46.001Z</time></trkpt><trkpt lat="42.71729659770569" lon="11.760869423647378"><ele>472.0</ele><time>2026-04-03T15:09:47.001Z</time></trkpt><trkpt lat="42.717135069928034" lon="11.76092046985878"><ele>472.0</ele><time>2026-04-03T15:09:48.001Z</time></trkpt><trkpt lat="42.71698121989421" lon="11.760965725052845"><ele>472.0</ele><time>2026-04-03T15:09:49.001Z</time></trkpt><trkpt lat="42.716834300826555" lon="11.76101271434031"><ele>472.0</ele><time>2026-04-03T15:09:50.001Z</time></trkpt><trkpt lat="42.716696515477096" lon="11.761063862118508"><ele>471.6</ele><time>2026-04-03T15:09:51.001Z</time></trkpt><trkpt lat="42.71657133195262" lon="11.761100511173325"><ele>471.20000000000005</ele><time>2026-04-03T15:09:52.002Z</time></trkpt><trkpt lat="42.716459551319396" lon="11.761150506742158"><ele>470.8</ele><time>2026-04-03T15:09:53.002Z</time></trkpt><trkpt lat="42.71635951271259" lon="11.76119308584516"><ele>470.4</ele><time>2026-04-03T15:09:54.002Z</time></trkpt><trkpt lat="42.716272965532795" lon="11.761228133217438"><ele>470.0</ele><time>2026-04-03T15:09:55.002Z</time></trkpt><trkpt lat="42.716201908642695" lon="11.76127495767884"><ele>470.0</ele><time>2026-04-03T15:09:56.002Z</time></trkpt><trkpt lat="42.716130469622634" lon="11.761325884104213"><ele>470.0</ele><time>2026-04-03T15:09:57.002Z</time></trkpt><trkpt lat="42.71605481509221" lon="11.761389411245684"><ele>470.0</ele><time>2026-04-03T15:09:58.002Z</time></trkpt><trkpt lat="42.71597158482248" lon="11.761465073438943"><ele>470.0</ele><time>2026-04-03T15:09:59.002Z</time></trkpt><trkpt lat="42.7158804951968" lon="11.76154906852333"><ele>470.0</ele><time>2026-04-03T15:10:00.002Z</time></trkpt><trkpt lat="42.71578260456896" lon="11.761639772183342"><ele>470.25</ele><time>2026-04-03T15:10:01.002Z</time></trkpt><trkpt lat="42.71568301801806" lon="11.761743171739388"><ele>470.5</ele><time>2026-04-03T15:10:02.002Z</time></trkpt><trkpt lat="42.71557387098141" lon="11.761858108597929"><ele>470.75</ele><time>2026-04-03T15:10:03.002Z</time></trkpt><trkpt lat="42.71545718914255" lon="11.761977503702894"><ele>471.0</ele><time>2026-04-03T15:10:04.002Z</time></trkpt><trkpt lat="42.715327963470386" lon="11.762103231760722"><ele>471.0</ele><time>2026-04-03T15:10:05.002Z</time></trkpt><trkpt lat="42.715195435085484" lon="11.76223902479283"><ele>471.0</ele><time>2026-04-03T15:10:06.002Z</time></trkpt><trkpt lat="42.71505610993021" lon="11.762383575341495"><ele>471.0</ele><time>2026-04-03T15:10:07.002Z</time></trkpt><trkpt lat="42.71490803783105" lon="11.76253546990666"><ele>471.0</ele><time>2026-04-03T15:10:08.002Z</time></trkpt><trkpt lat="42.71475269062772" lon="11.762690592427091"><ele>471.0</ele><time>2026-04-03T15:10:09.002Z</time></trkpt><trkpt lat="42.714594525870666" lon="11.762851579116402"><ele>471.0</ele><time>2026-04-03T15:10:10.002Z</time></trkpt><trkpt lat="42.714444137617164" lon="11.763010465486138"><ele>470.0</ele><time>2026-04-03T15:10:11.002Z</time></trkpt><trkpt lat="42.71428376911185" lon="11.763170320617842"><ele>469.0</ele><time>2026-04-03T15:10:12.002Z</time></trkpt><trkpt lat="42.71411845767765" lon="11.763334181064671"><ele>468.0</ele><time>2026-04-03T15:10:13.002Z</time></trkpt><trkpt lat="42.71395610208677" lon="11.763493890940685"><ele>467.66666666666663</ele><time>2026-04-03T15:10:14.002Z</time></trkpt><trkpt lat="42.71380527924763" lon="11.763647144164358"><ele>467.3333333333333</ele><time>2026-04-03T15:10:15.002Z</time></trkpt><trkpt lat="42.7136610280454" lon="11.763785482268348"><ele>467.0</ele><time>2026-04-03T15:10:16Z</time></trkpt><trkpt lat="42.71352378834411" lon="11.76392534061603"><ele>467.66666666666663</ele><time>2026-04-03T15:10:17Z</time></trkpt><trkpt lat="42.71338522274042" lon="11.764063952226527"><ele>468.33333333333337</ele><time>2026-04-03T15:10:18Z</time></trkpt><trkpt lat="42.713240127620054" lon="11.76418642603333"><ele>469.0</ele><time>2026-04-03T15:10:19Z</time></trkpt><trkpt lat="42.71308833219189" lon="11.764249808951213"><ele>469.0</ele><time>2026-04-03T15:10:20Z</time></trkpt><trkpt lat="42.71292630843416" lon="11.764287957329401"><ele>469.0</ele><time>2026-04-03T15:10:21Z</time></trkpt><trkpt lat="42.712750390066766" lon="11.764286182127801"><ele>469.0</ele><time>2026-04-03T15:10:22Z</time></trkpt><trkpt lat="42.71256211032938" lon="11.76425754225258"><ele>468.33333333333337</ele><time>2026-04-03T15:10:23Z</time></trkpt><trkpt lat="42.71237023757911" lon="11.76422256135901"><ele>467.66666666666663</ele><time>2026-04-03T15:10:24Z</time></trkpt><trkpt lat="42.71216707283566" lon="11.764191930524735"><ele>467.0</ele><time>2026-04-03T15:10:25Z</time></trkpt><trkpt lat="42.711956264855175" lon="11.764156211399921"><ele>467.0</ele><time>2026-04-03T15:10:26Z</time></trkpt><trkpt lat="42.71173733111595" lon="11.764121046293829"><ele>467.0</ele><time>2026-04-03T15:10:27Z</time></trkpt><trkpt lat="42.71151790298974" lon="11.764089337955458"><ele>467.0</ele><time>2026-04-03T15:10:28Z</time></trkpt><trkpt lat="42.711290463262664" lon="11.764057460634135"><ele>469.0</ele><time>2026-04-03T15:10:29Z</time></trkpt><trkpt lat="42.71106073125075" lon="11.76401937055962"><ele>471.0</ele><time>2026-04-03T15:10:30Z</time></trkpt><trkpt lat="42.71082645384286" lon="11.763976918452428"><ele>471.0</ele><time>2026-04-03T15:10:31Z</time></trkpt><trkpt lat="42.71058859884625" lon="11.763933957173183"><ele>471.0</ele><time>2026-04-03T15:10:32Z</time></trkpt><trkpt lat="42.71034498012115" lon="11.76389811746203"><ele>470.0</ele><time>2026-04-03T15:10:33Z</time></trkpt><trkpt lat="42.710103448276854" lon="11.763863195614455"><ele>469.0</ele><time>2026-04-03T15:10:34Z</time></trkpt><trkpt lat="42.70986031001319" lon="11.763826366607866"><ele>469.0</ele><time>2026-04-03T15:10:35Z</time></trkpt><trkpt lat="42.70961634159632" lon="11.763794186686656"><ele>469.0</ele><time>2026-04-03T15:10:36Z</time></trkpt><trkpt lat="42.70937499562371" lon="11.76375977959982"><ele>467.0</ele><time>2026-04-03T15:10:37Z</time></trkpt><trkpt lat="42.709134235999535" lon="11.76372004021893"><ele>465.0</ele><time>2026-04-03T15:10:38Z</time></trkpt><trkpt lat="42.708896720116236" lon="11.76368246494026"><ele>465.0</ele><time>2026-04-03T15:10:39Z</time></trkpt><trkpt lat="42.708663192356354" lon="11.763648310065042"><ele>465.0</ele><time>2026-04-03T15:10:40Z</time></trkpt><trkpt lat="42.70842607351612" lon="11.763618000834853"><ele>466.5</ele><time>2026-04-03T15:10:41Z</time></trkpt><trkpt lat="42.708191851580324" lon="11.763564867145744"><ele>468.0</ele><time>2026-04-03T15:10:42Z</time></trkpt><trkpt lat="42.70795948467781" lon="11.763529330018555"><ele>467.0</ele><time>2026-04-03T15:10:43Z</time></trkpt><trkpt lat="42.707723806368264" lon="11.763492071301725"><ele>466.0</ele><time>2026-04-03T15:10:44Z</time></trkpt><trkpt lat="42.70749157823501" lon="11.763457023443209"><ele>466.0</ele><time>2026-04-03T15:10:45Z</time></trkpt><trkpt lat="42.707258526556515" lon="11.763443699698092"><ele>466.0</ele><time>2026-04-03T15:10:46Z</time></trkpt><trkpt lat="42.707027467988624" lon="11.763406429691326"><ele>464.5</ele><time>2026-04-03T15:10:47Z</time></trkpt><trkpt lat="42.70679657937299" lon="11.76337162666882"><ele>463.0</ele><time>2026-04-03T15:10:48Z</time></trkpt><trkpt lat="42.7065642937137" lon="11.763331296712174"><ele>463.0</ele><time>2026-04-03T15:10:49Z</time></trkpt><trkpt lat="42.70633632443705" lon="11.763289336113456"><ele>463.0</ele><time>2026-04-03T15:10:50Z</time></trkpt><trkpt lat="42.70611129461197" lon="11.763251859783699"><ele>463.33333333333337</ele><time>2026-04-03T15:10:51Z</time></trkpt><trkpt lat="42.70588873901574" lon="11.763217419678982"><ele>463.66666666666663</ele><time>2026-04-03T15:10:52Z</time></trkpt><trkpt lat="42.70567010091038" lon="11.7631842545861"><ele>464.0</ele><time>2026-04-03T15:10:53Z</time></trkpt><trkpt lat="42.705449121017246" lon="11.763158291950289"><ele>464.66666666666663</ele><time>2026-04-03T15:10:54.001Z</time></trkpt><trkpt lat="42.7052311982827" lon="11.763130261292993"><ele>465.33333333333337</ele><time>2026-04-03T15:10:55.001Z</time></trkpt><trkpt lat="42.70501338028319" lon="11.763101441699636"><ele>466.0</ele><time>2026-04-03T15:10:56.001Z</time></trkpt><trkpt lat="42.70479882093195" lon="11.763070383620851"><ele>466.0</ele><time>2026-04-03T15:10:57.001Z</time></trkpt><trkpt lat="42.7045852776536" lon="11.763038279826956"><ele>466.0</ele><time>2026-04-03T15:10:58.001Z</time></trkpt><trkpt lat="42.70437219596663" lon="11.76300899238952"><ele>466.0</ele><time>2026-04-03T15:10:59.001Z</time></trkpt><trkpt lat="42.7041627039489" lon="11.762955132090525"><ele>466.6666666666667</ele><time>2026-04-03T15:11:00.001Z</time></trkpt><trkpt lat="42.70394947074703" lon="11.762942733964806"><ele>467.33333333333337</ele><time>2026-04-03T15:11:01.001Z</time></trkpt><trkpt lat="42.70373990156355" lon="11.762907031252526"><ele>468.0</ele><time>2026-04-03T15:11:02.001Z</time></trkpt><trkpt lat="42.70353090812553" lon="11.762874183657631"><ele>468.0</ele><time>2026-04-03T15:11:03.001Z</time></trkpt><trkpt lat="42.703322241998585" lon="11.762839690699943"><ele>468.0</ele><time>2026-04-03T15:11:04.001Z</time></trkpt><trkpt lat="42.70311113735738" lon="11.762809921749376"><ele>468.0</ele><time>2026-04-03T15:11:05.001Z</time></trkpt><trkpt lat="42.70290024963048" lon="11.762780735283572"><ele>468.0</ele><time>2026-04-03T15:11:06.001Z</time></trkpt><trkpt lat="42.70268607973556" lon="11.762751571852851"><ele>468.0</ele><time>2026-04-03T15:11:07.001Z</time></trkpt><trkpt lat="42.702471324080385" lon="11.762720660145654"><ele>468.0</ele><time>2026-04-03T15:11:08.001Z</time></trkpt><trkpt lat="42.702254540401576" lon="11.762686277642313"><ele>467.33333333333337</ele><time>2026-04-03T15:11:09.001Z</time></trkpt><trkpt lat="42.70203675172065" lon="11.762650832681468"><ele>466.6666666666667</ele><time>2026-04-03T15:11:10.001Z</time></trkpt><trkpt lat="42.70181966025304" lon="11.762617030154543"><ele>466.0</ele><time>2026-04-03T15:11:11.001Z</time></trkpt><trkpt lat="42.701605239075306" lon="11.762585667768937"><ele>465.6666666666667</ele><time>2026-04-03T15:11:12.001Z</time></trkpt><trkpt lat="42.701394148384495" lon="11.762558672325895"><ele>465.33333333333337</ele><time>2026-04-03T15:11:13.001Z</time></trkpt><trkpt lat="42.70118612691385" lon="11.76252827628655"><ele>465.0</ele><time>2026-04-03T15:11:14.001Z</time></trkpt><trkpt lat="42.70098142016819" lon="11.762484451254027"><ele>465.0</ele><time>2026-04-03T15:11:15.001Z</time></trkpt><trkpt lat="42.70078238005303" lon="11.762380249076811"><ele>465.0</ele><time>2026-04-03T15:11:16.001Z</time></trkpt><trkpt lat="42.70060380711763" lon="11.76222268426417"><ele>465.0</ele><time>2026-04-03T15:11:17.001Z</time></trkpt><trkpt lat="42.70042296990381" lon="11.762066017671296"><ele>465.0</ele><time>2026-04-03T15:11:18.001Z</time></trkpt><trkpt lat="42.70025253219537" lon="11.761892626298657"><ele>465.0</ele><time>2026-04-03T15:11:19.001Z</time></trkpt><trkpt lat="42.70007245535047" lon="11.761725118735026"><ele>465.0</ele><time>2026-04-03T15:11:20.001Z</time></trkpt><trkpt lat="42.69988844873979" lon="11.761558721948418"><ele>464.66666666666663</ele><time>2026-04-03T15:11:21.001Z</time></trkpt><trkpt lat="42.69970413698282" lon="11.761387213945236"><ele>464.3333333333333</ele><time>2026-04-03T15:11:22.001Z</time></trkpt><trkpt lat="42.69952256308649" lon="11.761215849027897"><ele>464.0</ele><time>2026-04-03T15:11:23.001Z</time></trkpt><trkpt lat="42.69934108885623" lon="11.761047015610748"><ele>467.66666666666663</ele><time>2026-04-03T15:11:24.001Z</time></trkpt><trkpt lat="42.699159565778494" lon="11.760878934442387"><ele>471.33333333333337</ele><time>2026-04-03T15:11:25.001Z</time></trkpt><trkpt lat="42.69897664283368" lon="11.760707972735451"><ele>475.0</ele><time>2026-04-03T15:11:26.001Z</time></trkpt><trkpt lat="42.698793241839745" lon="11.760532879683076"><ele>475.0</ele><time>2026-04-03T15:11:27.001Z</time></trkpt><trkpt lat="42.69861149646675" lon="11.760355773255185"><ele>475.0</ele><time>2026-04-03T15:11:28.001Z</time></trkpt><trkpt lat="42.698432211681464" lon="11.760172998332914"><ele>475.0</ele><time>2026-04-03T15:11:29.001Z</time></trkpt><trkpt lat="42.69824830293482" lon="11.759994799291563"><ele>475.0</ele><time>2026-04-03T15:11:30.001Z</time></trkpt><trkpt lat="42.69807035475083" lon="11.759820792214226"><ele>475.0</ele><time>2026-04-03T15:11:31.001Z</time></trkpt><trkpt lat="42.697897348086045" lon="11.759652517630798"><ele>475.0</ele><time>2026-04-03T15:11:32.001Z</time></trkpt><trkpt lat="42.69772540339719" lon="11.75949070160315"><ele>474.6666666666667</ele><time>2026-04-03T15:11:33.001Z</time></trkpt><trkpt lat="42.697553942505785" lon="11.759334088128128"><ele>474.33333333333337</ele><time>2026-04-03T15:11:34.001Z</time></trkpt><trkpt lat="42.697382307165654" lon="11.759181913870693"><ele>474.0</ele><time>2026-04-03T15:11:35.001Z</time></trkpt><trkpt lat="42.697211053015906" lon="11.759039536068183"><ele>474.0</ele><time>2026-04-03T15:11:36.001Z</time></trkpt><trkpt lat="42.69703444323038" lon="11.758921116348397"><ele>474.0</ele><time>2026-04-03T15:11:37.001Z</time></trkpt><trkpt lat="42.69685003441494" lon="11.758851294253502"><ele>474.0</ele><time>2026-04-03T15:11:38.001Z</time></trkpt><trkpt lat="42.69666550025031" lon="11.758810088173828"><ele>474.0</ele><time>2026-04-03T15:11:39.001Z</time></trkpt><trkpt lat="42.696482084022506" lon="11.758762514825781"><ele>474.0</ele><time>2026-04-03T15:11:40.001Z</time></trkpt><trkpt lat="42.69629351481609" lon="11.758701171298348"><ele>474.0</ele><time>2026-04-03T15:11:41.001Z</time></trkpt><trkpt lat="42.69609712206622" lon="11.758635528521118"><ele>475.0</ele><time>2026-04-03T15:11:42.001Z</time></trkpt><trkpt lat="42.69578902977801" lon="11.758383434505037"><ele>476.0</ele><time>2026-04-03T15:11:43.001Z</time></trkpt><trkpt lat="42.69557109118954" lon="11.758297250141192"><ele>476.0</ele><time>2026-04-03T15:11:44.001Z</time></trkpt><trkpt lat="42.69535063152557" lon="11.75821179066834"><ele>476.0</ele><time>2026-04-03T15:11:45.001Z</time></trkpt><trkpt lat="42.69513822985713" lon="11.758126358979915"><ele>476.3333333333333</ele><time>2026-04-03T15:11:46.001Z</time></trkpt><trkpt lat="42.69493387445538" lon="11.758045773099562"><ele>476.66666666666663</ele><time>2026-04-03T15:11:47.001Z</time></trkpt><trkpt lat="42.69474170970178" lon="11.757965847920964"><ele>477.0</ele><time>2026-04-03T15:11:48.002Z</time></trkpt><trkpt lat="42.69454478957882" lon="11.75788269679092"><ele>477.0</ele><time>2026-04-03T15:11:49.002Z</time></trkpt><trkpt lat="42.694347988032916" lon="11.757806737030082"><ele>477.0</ele><time>2026-04-03T15:11:50.002Z</time></trkpt><trkpt lat="42.694144964617784" lon="11.757721086628043"><ele>477.0</ele><time>2026-04-03T15:11:51.002Z</time></trkpt><trkpt lat="42.693948965100724" lon="11.75764041215606"><ele>475.66666666666663</ele><time>2026-04-03T15:11:52.002Z</time></trkpt><trkpt lat="42.69375917288714" lon="11.757564631073064"><ele>474.3333333333333</ele><time>2026-04-03T15:11:53.002Z</time></trkpt><trkpt lat="42.69357986172614" lon="11.757469015757575"><ele>473.0</ele><time>2026-04-03T15:11:54.002Z</time></trkpt><trkpt lat="42.693420827164985" lon="11.757348369122413"><ele>473.0</ele><time>2026-04-03T15:11:55.002Z</time></trkpt><trkpt lat="42.693272692054066" lon="11.757192463974928"><ele>473.0</ele><time>2026-04-03T15:11:56.002Z</time></trkpt><trkpt lat="42.693120073941174" lon="11.757016551275578"><ele>473.0</ele><time>2026-04-03T15:11:57.002Z</time></trkpt><trkpt lat="42.69296109680653" lon="11.756835743399614"><ele>471.66666666666663</ele><time>2026-04-03T15:11:58.002Z</time></trkpt><trkpt lat="42.69278796397757" lon="11.756663226933142"><ele>470.33333333333337</ele><time>2026-04-03T15:11:59.002Z</time></trkpt><trkpt lat="42.69260758293707" lon="11.756483436084176"><ele>469.0</ele><time>2026-04-03T15:12:00.002Z</time></trkpt><trkpt lat="42.692429411497244" lon="11.756300810969053"><ele>468.5</ele><time>2026-04-03T15:12:01.002Z</time></trkpt><trkpt lat="42.692251275733305" lon="11.756115604553242"><ele>468.0</ele><time>2026-04-03T15:12:02.002Z</time></trkpt><trkpt lat="42.69206766621292" lon="11.755931300114083"><ele>468.66666666666663</ele><time>2026-04-03T15:12:03.002Z</time></trkpt><trkpt lat="42.691889777374925" lon="11.755751054519257"><ele>469.3333333333333</ele><time>2026-04-03T15:12:04.002Z</time></trkpt><trkpt lat="42.69171400218622" lon="11.7555666241995"><ele>470.0</ele><time>2026-04-03T15:12:05.002Z</time></trkpt><trkpt lat="42.691553744959876" lon="11.75536475539317"><ele>470.3333333333333</ele><time>2026-04-03T15:12:06.002Z</time></trkpt><trkpt lat="42.6913770222156" lon="11.755193117161447"><ele>470.66666666666663</ele><time>2026-04-03T15:12:07.002Z</time></trkpt><trkpt lat="42.69121394683395" lon="11.755022877187207"><ele>471.0</ele><time>2026-04-03T15:12:08.002Z</time></trkpt><trkpt lat="42.69104922711769" lon="11.75485593537686"><ele>471.0</ele><time>2026-04-03T15:12:09.002Z</time></trkpt><trkpt lat="42.69088645841832" lon="11.754688386086771"><ele>471.0</ele><time>2026-04-03T15:12:10.002Z</time></trkpt><trkpt lat="42.69073126133458" lon="11.754530115287766"><ele>471.0</ele><time>2026-04-03T15:12:11.002Z</time></trkpt><trkpt lat="42.69058574202199" lon="11.754379970837412"><ele>470.66666666666663</ele><time>2026-04-03T15:12:12.002Z</time></trkpt><trkpt lat="42.690442130992636" lon="11.754232837402615"><ele>470.3333333333333</ele><time>2026-04-03T15:12:13.002Z</time></trkpt><trkpt lat="42.69029273781341" lon="11.754079212927843"><ele>470.0</ele><time>2026-04-03T15:12:14.002Z</time></trkpt><trkpt lat="42.69014472251768" lon="11.753927052668717"><ele>470.0</ele><time>2026-04-03T15:12:15.002Z</time></trkpt><trkpt lat="42.690010528310665" lon="11.753790454597288"><ele>470.0</ele><time>2026-04-03T15:12:16.002Z</time></trkpt><trkpt lat="42.689880344517924" lon="11.753663424013439"><ele>470.0</ele><time>2026-04-03T15:12:17.002Z</time></trkpt><trkpt lat="42.689757852606924" lon="11.7535453020009"><ele>469.6</ele><time>2026-04-03T15:12:18.002Z</time></trkpt><trkpt lat="42.689659263227135" lon="11.75343950118799"><ele>469.2</ele><time>2026-04-03T15:12:19.002Z</time></trkpt><trkpt lat="42.68956845226413" lon="11.753348289397525"><ele>468.79999999999995</ele><time>2026-04-03T15:12:20.002Z</time></trkpt><trkpt lat="42.68949506048869" lon="11.753272195883026"><ele>468.4</ele><time>2026-04-03T15:12:21.002Z</time></trkpt><trkpt lat="42.68943418211588" lon="11.753204930594684"><ele>468.0</ele><time>2026-04-03T15:12:22Z</time></trkpt><trkpt lat="42.68933168903546" lon="11.753217689012608"><ele>468.0</ele><time>2026-04-03T15:12:24Z</time></trkpt><trkpt lat="42.68929553685859" lon="11.75330268936018"><ele>468.0</ele><time>2026-04-03T15:12:25Z</time></trkpt><trkpt lat="42.689305578835764" lon="11.753406218338109"><ele>468.0</ele><time>2026-04-03T15:12:26Z</time></trkpt><trkpt lat="42.689347284710216" lon="11.753518649245771"><ele>468.0</ele><time>2026-04-03T15:12:27Z</time></trkpt><trkpt lat="42.68937804750208" lon="11.753635129071322"><ele>468.0</ele><time>2026-04-03T15:12:28Z</time></trkpt><trkpt lat="42.689404614281045" lon="11.753765658834343"><ele>468.0</ele><time>2026-04-03T15:12:29Z</time></trkpt><trkpt lat="42.68942971282735" lon="11.75391155392192"><ele>468.5</ele><time>2026-04-03T15:12:30Z</time></trkpt><trkpt lat="42.68945992929587" lon="11.754075874054534"><ele>469.0</ele><time>2026-04-03T15:12:31Z</time></trkpt><trkpt lat="42.68949426126959" lon="11.754252494068087"><ele>469.5</ele><time>2026-04-03T15:12:32Z</time></trkpt><trkpt lat="42.68953085146128" lon="11.754440187423187"><ele>470.0</ele><time>2026-04-03T15:12:33Z</time></trkpt><trkpt lat="42.689569370051785" lon="11.754639169611998"><ele>470.3333333333333</ele><time>2026-04-03T15:12:34Z</time></trkpt><trkpt lat="42.68960914762295" lon="11.75485102893008"><ele>470.66666666666663</ele><time>2026-04-03T15:12:35Z</time></trkpt><trkpt lat="42.68965077595018" lon="11.75506812582097"><ele>471.0</ele><time>2026-04-03T15:12:36Z</time></trkpt><trkpt lat="42.68969540900689" lon="11.755294800626084"><ele>472.33333333333337</ele><time>2026-04-03T15:12:37Z</time></trkpt><trkpt lat="42.689744853980265" lon="11.755529086431084"><ele>473.6666666666667</ele><time>2026-04-03T15:12:38Z</time></trkpt><trkpt lat="42.68979274376116" lon="11.75577352236256"><ele>475.0</ele><time>2026-04-03T15:12:39Z</time></trkpt><trkpt lat="42.68983842955259" lon="11.756024360463668"><ele>475.33333333333337</ele><time>2026-04-03T15:12:40Z</time></trkpt><trkpt lat="42.68988492658608" lon="11.75628122879603"><ele>475.66666666666663</ele><time>2026-04-03T15:12:41Z</time></trkpt><trkpt lat="42.68993156331865" lon="11.756532845501972"><ele>476.0</ele><time>2026-04-03T15:12:42Z</time></trkpt><trkpt lat="42.68998089515626" lon="11.756793029523504"><ele>476.0</ele><time>2026-04-03T15:12:43Z</time></trkpt><trkpt lat="42.690034657548786" lon="11.757058174248433"><ele>476.0</ele><time>2026-04-03T15:12:44Z</time></trkpt><trkpt lat="42.69009132495469" lon="11.757330135187015"><ele>476.0</ele><time>2026-04-03T15:12:45Z</time></trkpt><trkpt lat="42.69014789638082" lon="11.757608702427325"><ele>476.0</ele><time>2026-04-03T15:12:46Z</time></trkpt><trkpt lat="42.6902054766633" lon="11.75789311740399"><ele>476.0</ele><time>2026-04-03T15:12:47Z</time></trkpt><trkpt lat="42.69026177356734" lon="11.75818071976819"><ele>476.0</ele><time>2026-04-03T15:12:48Z</time></trkpt><trkpt lat="42.690321681507626" lon="11.758468841950043"><ele>476.66666666666663</ele><time>2026-04-03T15:12:49Z</time></trkpt><trkpt lat="42.690380158414584" lon="11.758745772309286"><ele>477.33333333333337</ele><time>2026-04-03T15:12:50Z</time></trkpt><trkpt lat="42.690437843598055" lon="11.759022542965784"><ele>478.0</ele><time>2026-04-03T15:12:51Z</time></trkpt><trkpt lat="42.69049691132846" lon="11.759304584467461"><ele>478.6666666666667</ele><time>2026-04-03T15:12:52Z</time></trkpt><trkpt lat="42.69055890980588" lon="11.759568896016939"><ele>479.33333333333337</ele><time>2026-04-03T15:12:53Z</time></trkpt><trkpt lat="42.690626951297986" lon="11.759807012802769"><ele>480.0</ele><time>2026-04-03T15:12:54Z</time></trkpt><trkpt lat="42.69071302092893" lon="11.760035795062873"><ele>480.0</ele><time>2026-04-03T15:12:55Z</time></trkpt><trkpt lat="42.690848891174916" lon="11.760238599218379"><ele>480.0</ele><time>2026-04-03T15:12:56.001Z</time></trkpt><trkpt lat="42.69099694947203" lon="11.760439812949667"><ele>480.0</ele><time>2026-04-03T15:12:57.001Z</time></trkpt><trkpt lat="42.69113932916165" lon="11.760652676191523"><ele>480.0</ele><time>2026-04-03T15:12:58.001Z</time></trkpt><trkpt lat="42.69126830058315" lon="11.760871014490565"><ele>480.0</ele><time>2026-04-03T15:12:59.001Z</time></trkpt><trkpt lat="42.691372743657446" lon="11.761118258605176"><ele>480.0</ele><time>2026-04-03T15:13:00.001Z</time></trkpt><trkpt lat="42.69147098047623" lon="11.761361061192455"><ele>479.66666666666663</ele><time>2026-04-03T15:13:01.001Z</time></trkpt><trkpt lat="42.69153419337969" lon="11.761589858984024"><ele>479.3333333333333</ele><time>2026-04-03T15:13:02.001Z</time></trkpt><trkpt lat="42.69154853143459" lon="11.761790059325026"><ele>479.0</ele><time>2026-04-03T15:13:03.001Z</time></trkpt><trkpt lat="42.691502337297855" lon="11.761959857021756"><ele>479.0</ele><time>2026-04-03T15:13:04.001Z</time></trkpt><trkpt lat="42.69140467836857" lon="11.762088045735483"><ele>479.0</ele><time>2026-04-03T15:13:05.001Z</time></trkpt><trkpt lat="42.69128164444995" lon="11.762167255702693"><ele>479.0</ele><time>2026-04-03T15:13:06.001Z</time></trkpt><trkpt lat="42.69114136696237" lon="11.76223343689632"><ele>479.0</ele><time>2026-04-03T15:13:07.001Z</time></trkpt><trkpt lat="42.69098411426079" lon="11.762322135931996"><ele>479.0</ele><time>2026-04-03T15:13:08.001Z</time></trkpt><trkpt lat="42.690815446880144" lon="11.762398836415118"><ele>479.0</ele><time>2026-04-03T15:13:09.001Z</time></trkpt><trkpt lat="42.690644624681454" lon="11.762493436798852"><ele>479.0</ele><time>2026-04-03T15:13:10.001Z</time></trkpt><trkpt lat="42.69047338774454" lon="11.762596768324919"><ele>478.66666666666663</ele><time>2026-04-03T15:13:11.001Z</time></trkpt><trkpt lat="42.69030721985875" lon="11.762725132957433"><ele>478.33333333333337</ele><time>2026-04-03T15:13:12.001Z</time></trkpt><trkpt lat="42.690153578760444" lon="11.76288881684197"><ele>478.0</ele><time>2026-04-03T15:13:13.001Z</time></trkpt><trkpt lat="42.6900165379181" lon="11.763069625176971"><ele>478.33333333333337</ele><time>2026-04-03T15:13:14.001Z</time></trkpt><trkpt lat="42.6899009328714" lon="11.763279244727524"><ele>478.66666666666663</ele><time>2026-04-03T15:13:15.001Z</time></trkpt><trkpt lat="42.68980104346561" lon="11.763519663898443"><ele>479.0</ele><time>2026-04-03T15:13:16.001Z</time></trkpt><trkpt lat="42.68971724212699" lon="11.763774229671565"><ele>479.0</ele><time>2026-04-03T15:13:17.001Z</time></trkpt><trkpt lat="42.689656264326004" lon="11.764049589406437"><ele>479.0</ele><time>2026-04-03T15:13:18.001Z</time></trkpt><trkpt lat="42.689592325547025" lon="11.764324556087555"><ele>479.0</ele><time>2026-04-03T15:13:19.001Z</time></trkpt><trkpt lat="42.6895293295191" lon="11.764600727969903"><ele>479.0</ele><time>2026-04-03T15:13:20.001Z</time></trkpt><trkpt lat="42.6894601494959" lon="11.764874960928472"><ele>479.0</ele><time>2026-04-03T15:13:21.001Z</time></trkpt><trkpt lat="42.689392195963116" lon="11.765153840910335"><ele>479.0</ele><time>2026-04-03T15:13:22.001Z</time></trkpt><trkpt lat="42.68932764826546" lon="11.765421343267548"><ele>479.0</ele><time>2026-04-03T15:13:23.001Z</time></trkpt><trkpt lat="42.689267009469404" lon="11.765674833714185"><ele>479.0</ele><time>2026-04-03T15:13:24.001Z</time></trkpt><trkpt lat="42.68919694658888" lon="11.765900204881905"><ele>479.0</ele><time>2026-04-03T15:13:25.001Z</time></trkpt><trkpt lat="42.68914351288335" lon="11.76612060287036"><ele>479.0</ele><time>2026-04-03T15:13:26.001Z</time></trkpt><trkpt lat="42.689104474806385" lon="11.766344986930486"><ele>479.0</ele><time>2026-04-03T15:13:27.001Z</time></trkpt><trkpt lat="42.68904855570484" lon="11.766566311070703"><ele>479.0</ele><time>2026-04-03T15:13:28.001Z</time></trkpt><trkpt lat="42.68898490961485" lon="11.766776180132686"><ele>479.0</ele><time>2026-04-03T15:13:29.001Z</time></trkpt><trkpt lat="42.68893705402043" lon="11.766971923331596"><ele>479.0</ele><time>2026-04-03T15:13:30.001Z</time></trkpt><trkpt lat="42.688889006927546" lon="11.76716844999195"><ele>479.0</ele><time>2026-04-03T15:13:31.001Z</time></trkpt><trkpt lat="42.68883514531236" lon="11.767374997976743"><ele>479.0</ele><time>2026-04-03T15:13:32.001Z</time></trkpt><trkpt lat="42.68879985372543" lon="11.767603692668947"><ele>479.0</ele><time>2026-04-03T15:13:33.001Z</time></trkpt><trkpt lat="42.68874794161888" lon="11.76782957968603"><ele>479.0</ele><time>2026-04-03T15:13:34.001Z</time></trkpt><trkpt lat="42.688707563232704" lon="11.768066989668819"><ele>479.66666666666663</ele><time>2026-04-03T15:13:35.001Z</time></trkpt><trkpt lat="42.68867904814054" lon="11.76831036942823"><ele>480.33333333333337</ele><time>2026-04-03T15:13:36.001Z</time></trkpt><trkpt lat="42.6886556590328" lon="11.768561103992155"><ele>481.0</ele><time>2026-04-03T15:13:37.001Z</time></trkpt><trkpt lat="42.68863975862861" lon="11.768812272617712"><ele>481.33333333333337</ele><time>2026-04-03T15:13:38.001Z</time></trkpt><trkpt lat="42.68863612604679" lon="11.769066141104421"><ele>481.66666666666663</ele><time>2026-04-03T15:13:39.001Z</time></trkpt><trkpt lat="42.68864116798731" lon="11.76932952684024"><ele>482.0</ele><time>2026-04-03T15:13:40.001Z</time></trkpt><trkpt lat="42.68865394980072" lon="11.769594450416037"><ele>482.0</ele><time>2026-04-03T15:13:41.001Z</time></trkpt><trkpt lat="42.68868090237646" lon="11.769861619509475"><ele>482.0</ele><time>2026-04-03T15:13:42.001Z</time></trkpt><trkpt lat="42.688726929594395" lon="11.77013269204675"><ele>482.0</ele><time>2026-04-03T15:13:43.001Z</time></trkpt><trkpt lat="42.688784554691786" lon="11.770405331996672"><ele>482.0</ele><time>2026-04-03T15:13:44.001Z</time></trkpt><trkpt lat="42.68885172458924" lon="11.770676136032533"><ele>482.0</ele><time>2026-04-03T15:13:45.001Z</time></trkpt><trkpt lat="42.688920445992146" lon="11.77095034205964"><ele>482.0</ele><time>2026-04-03T15:13:46.001Z</time></trkpt><trkpt lat="42.688990518331885" lon="11.77122599684748"><ele>482.0</ele><time>2026-04-03T15:13:47.001Z</time></trkpt><trkpt lat="42.68906488249473" lon="11.771508980670996"><ele>482.0</ele><time>2026-04-03T15:13:48.001Z</time></trkpt><trkpt lat="42.689141846453424" lon="11.771793084716585"><ele>482.0</ele><time>2026-04-03T15:13:49.001Z</time></trkpt><trkpt lat="42.68921739536969" lon="11.772078571993246"><ele>481.5</ele><time>2026-04-03T15:13:50.001Z</time></trkpt><trkpt lat="42.68929200697351" lon="11.772362471605138"><ele>481.0</ele><time>2026-04-03T15:13:51.001Z</time></trkpt><trkpt lat="42.689368100470574" lon="11.772661551793533"><ele>479.5</ele><time>2026-04-03T15:13:52.001Z</time></trkpt><trkpt lat="42.68944598361503" lon="11.772965315525706"><ele>478.0</ele><time>2026-04-03T15:13:53.002Z</time></trkpt><trkpt lat="42.68952502387079" lon="11.773272037503014"><ele>479.0</ele><time>2026-04-03T15:13:54.002Z</time></trkpt><trkpt lat="42.68960649303286" lon="11.773583449838693"><ele>480.0</ele><time>2026-04-03T15:13:55.002Z</time></trkpt><trkpt lat="42.689688244203126" lon="11.773893931367544"><ele>480.0</ele><time>2026-04-03T15:13:56.002Z</time></trkpt><trkpt lat="42.68976755713417" lon="11.77419272055564"><ele>480.0</ele><time>2026-04-03T15:13:57.002Z</time></trkpt><trkpt lat="42.689838405998394" lon="11.77446865328918"><ele>480.0</ele><time>2026-04-03T15:13:58.002Z</time></trkpt><trkpt lat="42.689904737489364" lon="11.774724898721653"><ele>479.66666666666663</ele><time>2026-04-03T15:13:59.002Z</time></trkpt><trkpt lat="42.689964327454916" lon="11.774967686351538"><ele>479.3333333333333</ele><time>2026-04-03T15:14:00.002Z</time></trkpt><trkpt lat="42.69002035009611" lon="11.775208352258005"><ele>479.0</ele><time>2026-04-03T15:14:01.002Z</time></trkpt><trkpt lat="42.690078654318974" lon="11.775429686344928"><ele>477.66666666666663</ele><time>2026-04-03T15:14:02.002Z</time></trkpt><trkpt lat="42.690161140545534" lon="11.775620909465465"><ele>476.33333333333337</ele><time>2026-04-03T15:14:03.002Z</time></trkpt><trkpt lat="42.690295900142296" lon="11.775778615811987"><ele>475.0</ele><time>2026-04-03T15:14:04.002Z</time></trkpt><trkpt lat="42.690468210230854" lon="11.775901609459556"><ele>474.6666666666667</ele><time>2026-04-03T15:14:05.002Z</time></trkpt><trkpt lat="42.69065144842163" lon="11.775953463160423"><ele>474.33333333333337</ele><time>2026-04-03T15:14:06.002Z</time></trkpt><trkpt lat="42.69082912072038" lon="11.775939059328463"><ele>474.0</ele><time>2026-04-03T15:14:07.002Z</time></trkpt><trkpt lat="42.69100541148115" lon="11.775939671759286"><ele>474.0</ele><time>2026-04-03T15:14:08.002Z</time></trkpt><trkpt lat="42.69115968034853" lon="11.775959765772065"><ele>474.0</ele><time>2026-04-03T15:14:09.002Z</time></trkpt><trkpt lat="42.691308614101835" lon="11.776020379210818"><ele>474.0</ele><time>2026-04-03T15:14:10.002Z</time></trkpt><trkpt lat="42.691451336215685" lon="11.776119554369739"><ele>472.33333333333337</ele><time>2026-04-03T15:14:11.002Z</time></trkpt><trkpt lat="42.6915923635662" lon="11.776267643191531"><ele>470.6666666666667</ele><time>2026-04-03T15:14:12.002Z</time></trkpt><trkpt lat="42.691716225033154" lon="11.776461656520555"><ele>469.0</ele><time>2026-04-03T15:14:13.002Z</time></trkpt><trkpt lat="42.69183153118914" lon="11.776687070878756"><ele>468.6666666666667</ele><time>2026-04-03T15:14:14.002Z</time></trkpt><trkpt lat="42.69193895967885" lon="11.77691156554996"><ele>468.33333333333337</ele><time>2026-04-03T15:14:15.002Z</time></trkpt><trkpt lat="42.692038565010684" lon="11.777110530484688"><ele>468.0</ele><time>2026-04-03T15:14:16.002Z</time></trkpt><trkpt lat="42.692144656493156" lon="11.777287943773048"><ele>468.0</ele><time>2026-04-03T15:14:17.002Z</time></trkpt><trkpt lat="42.69220895431095" lon="11.777477303432201"><ele>468.0</ele><time>2026-04-03T15:14:18.002Z</time></trkpt><trkpt lat="42.692217512597104" lon="11.77766338110787"><ele>468.0</ele><time>2026-04-03T15:14:19.002Z</time></trkpt><trkpt lat="42.69215204755971" lon="11.777840943802126"><ele>468.0</ele><time>2026-04-03T15:14:20.002Z</time></trkpt><trkpt lat="42.69205937389976" lon="11.778000640988942"><ele>469.0</ele><time>2026-04-03T15:14:21.002Z</time></trkpt><trkpt lat="42.69194620550255" lon="11.778165134750463"><ele>470.0</ele><time>2026-04-03T15:14:22.002Z</time></trkpt><trkpt lat="42.69183277335376" lon="11.778347767623947"><ele>471.0</ele><time>2026-04-03T15:14:23.002Z</time></trkpt><trkpt lat="42.69170547245417" lon="11.778521989578802"><ele>472.75</ele><time>2026-04-03T15:14:24.002Z</time></trkpt><trkpt lat="42.69158013502578" lon="11.778670365258662"><ele>474.5</ele><time>2026-04-03T15:14:25.002Z</time></trkpt><trkpt lat="42.6914517865106" lon="11.77875571479605"><ele>476.25</ele><time>2026-04-03T15:14:26.002Z</time></trkpt><trkpt lat="42.691348557140365" lon="11.778855248958662"><ele>478.0</ele><time>2026-04-03T15:14:27.002Z</time></trkpt><trkpt lat="42.691270637846344" lon="11.778977277857754"><ele>478.0</ele><time>2026-04-03T15:14:28.001Z</time></trkpt><trkpt lat="42.69122384202217" lon="11.779125582156738"><ele>478.0</ele><time>2026-04-03T15:14:29.001Z</time></trkpt><trkpt lat="42.69124767636604" lon="11.779298508282842"><ele>478.0</ele><time>2026-04-03T15:14:30.001Z</time></trkpt><trkpt lat="42.69126990635874" lon="11.779485483489538"><ele>478.0</ele><time>2026-04-03T15:14:31.001Z</time></trkpt><trkpt lat="42.69131142539557" lon="11.779680122291998"><ele>479.0</ele><time>2026-04-03T15:14:32.001Z</time></trkpt><trkpt lat="42.69135773279477" lon="11.779885785348599"><ele>480.0</ele><time>2026-04-03T15:14:33.001Z</time></trkpt><trkpt lat="42.6913944432402" lon="11.78008449079086"><ele>481.0</ele><time>2026-04-03T15:14:34.001Z</time></trkpt><trkpt lat="42.69136582051503" lon="11.780278815476915"><ele>481.5</ele><time>2026-04-03T15:14:35.001Z</time></trkpt><trkpt lat="42.69129459858555" lon="11.780448368173436"><ele>482.0</ele><time>2026-04-03T15:14:36.001Z</time></trkpt><trkpt lat="42.691190091074375" lon="11.780579758186171"><ele>482.5</ele><time>2026-04-03T15:14:37.001Z</time></trkpt><trkpt lat="42.69106190930946" lon="11.780706133837747"><ele>483.0</ele><time>2026-04-03T15:14:38.001Z</time></trkpt><trkpt lat="42.69091671822225" lon="11.780836633127125"><ele>483.33333333333337</ele><time>2026-04-03T15:14:39.001Z</time></trkpt><trkpt lat="42.69076688957146" lon="11.780976879706975"><ele>483.6666666666667</ele><time>2026-04-03T15:14:40.001Z</time></trkpt><trkpt lat="42.69061046245745" lon="11.781123302861475"><ele>484.0</ele><time>2026-04-03T15:14:41Z</time></trkpt><trkpt lat="42.69044983917927" lon="11.781276554901048"><ele>483.33333333333337</ele><time>2026-04-03T15:14:42.001Z</time></trkpt><trkpt lat="42.690304677557805" lon="11.781437573577822"><ele>482.66666666666663</ele><time>2026-04-03T15:14:43.001Z</time></trkpt><trkpt lat="42.690159532689606" lon="11.78157687274049"><ele>482.0</ele><time>2026-04-03T15:14:44.001Z</time></trkpt><trkpt lat="42.690012855254096" lon="11.781689880425382"><ele>481.0</ele><time>2026-04-03T15:14:45.001Z</time></trkpt><trkpt lat="42.68987517136206" lon="11.781818995578353"><ele>480.0</ele><time>2026-04-03T15:14:46.001Z</time></trkpt><trkpt lat="42.68974571082586" lon="11.781963687537218"><ele>479.0</ele><time>2026-04-03T15:14:47.001Z</time></trkpt><trkpt lat="42.689616669833796" lon="11.782081878260986"><ele>477.66666666666663</ele><time>2026-04-03T15:14:48.001Z</time></trkpt><trkpt lat="42.689512167976815" lon="11.782228847147804"><ele>476.33333333333337</ele><time>2026-04-03T15:14:49.001Z</time></trkpt><trkpt lat="42.689462928894685" lon="11.782432566226937"><ele>475.0</ele><time>2026-04-03T15:14:50.001Z</time></trkpt><trkpt lat="42.689450779793994" lon="11.782637241369555"><ele>473.0</ele><time>2026-04-03T15:14:51.001Z</time></trkpt><trkpt lat="42.6894907697789" lon="11.782828320106994"><ele>471.0</ele><time>2026-04-03T15:14:52.001Z</time></trkpt><trkpt lat="42.68957446633511" lon="11.782994919132237"><ele>469.0</ele><time>2026-04-03T15:14:53.001Z</time></trkpt><trkpt lat="42.68969506363999" lon="11.783127149341809"><ele>467.0</ele><time>2026-04-03T15:14:54.001Z</time></trkpt><trkpt lat="42.689846347680955" lon="11.783210726690536"><ele>467.0</ele><time>2026-04-03T15:14:55.001Z</time></trkpt><trkpt lat="42.69000682489059" lon="11.783244560785027"><ele>467.0</ele><time>2026-04-03T15:14:56.001Z</time></trkpt><trkpt lat="42.69014811748936" lon="11.783291112624093"><ele>467.0</ele><time>2026-04-03T15:14:57.001Z</time></trkpt><trkpt lat="42.69027569710476" lon="11.783335158881485"><ele>467.0</ele><time>2026-04-03T15:14:58.001Z</time></trkpt><trkpt lat="42.69040063387123" lon="11.783380112130313"><ele>467.0</ele><time>2026-04-03T15:14:59.001Z</time></trkpt><trkpt lat="42.690527596551306" lon="11.783433239238198"><ele>467.0</ele><time>2026-04-03T15:15:00.001Z</time></trkpt><trkpt lat="42.690656051290865" lon="11.783511268123297"><ele>467.0</ele><time>2026-04-03T15:15:01.001Z</time></trkpt><trkpt lat="42.69077744622258" lon="11.783619506220838"><ele>467.0</ele><time>2026-04-03T15:15:02.001Z</time></trkpt><trkpt lat="42.69088711245175" lon="11.783749549577793"><ele>466.25</ele><time>2026-04-03T15:15:03.001Z</time></trkpt><trkpt lat="42.690978753754244" lon="11.783888871206633"><ele>465.5</ele><time>2026-04-03T15:15:04.001Z</time></trkpt><trkpt lat="42.69105767117576" lon="11.78403624338473"><ele>464.75</ele><time>2026-04-03T15:15:05.001Z</time></trkpt><trkpt lat="42.69112453540302" lon="11.78420202883284"><ele>464.0</ele><time>2026-04-03T15:15:06.001Z</time></trkpt><trkpt lat="42.691177539655996" lon="11.784396996726615"><ele>462.0</ele><time>2026-04-03T15:15:07.001Z</time></trkpt><trkpt lat="42.691225835102934" lon="11.784621549458045"><ele>460.0</ele><time>2026-04-03T15:15:08.001Z</time></trkpt><trkpt lat="42.69127592853776" lon="11.78486698748767"><ele>458.0</ele><time>2026-04-03T15:15:09.001Z</time></trkpt><trkpt lat="42.691330728088644" lon="11.785111625757274"><ele>458.66666666666663</ele><time>2026-04-03T15:15:10.001Z</time></trkpt><trkpt lat="42.69138101377214" lon="11.785340403798708"><ele>459.33333333333337</ele><time>2026-04-03T15:15:11.001Z</time></trkpt><trkpt lat="42.69143625031581" lon="11.785539515108514"><ele>460.0</ele><time>2026-04-03T15:15:12.001Z</time></trkpt><trkpt lat="42.69146599698043" lon="11.785725913845926"><ele>460.0</ele><time>2026-04-03T15:15:13.001Z</time></trkpt><trkpt lat="42.69150831113472" lon="11.785890720656283"><ele>460.0</ele><time>2026-04-03T15:15:14.001Z</time></trkpt><trkpt lat="42.69157944086737" lon="11.786031848017862"><ele>460.0</ele><time>2026-04-03T15:15:15.001Z</time></trkpt><trkpt lat="42.69169186876439" lon="11.786138025485446"><ele>460.0</ele><time>2026-04-03T15:15:16.001Z</time></trkpt><trkpt lat="42.69183864410168" lon="11.786190296033906"><ele>463.33333333333337</ele><time>2026-04-03T15:15:17.001Z</time></trkpt><trkpt lat="42.69199916819916" lon="11.786186879874817"><ele>466.66666666666663</ele><time>2026-04-03T15:15:18.001Z</time></trkpt><trkpt lat="42.69217012921879" lon="11.786128653538164"><ele>470.0</ele><time>2026-04-03T15:15:19.001Z</time></trkpt><trkpt lat="42.69234693671382" lon="11.786057171963199"><ele>471.3333333333333</ele><time>2026-04-03T15:15:20.001Z</time></trkpt><trkpt lat="42.69252512114007" lon="11.786003276131376"><ele>472.66666666666663</ele><time>2026-04-03T15:15:21.001Z</time></trkpt><trkpt lat="42.692699082376734" lon="11.785979321825506"><ele>474.0</ele><time>2026-04-03T15:15:22.001Z</time></trkpt><trkpt lat="42.69284363388846" lon="11.785970782094791"><ele>474.0</ele><time>2026-04-03T15:15:23.001Z</time></trkpt><trkpt lat="42.69297970123104" lon="11.786008582058749"><ele>474.0</ele><time>2026-04-03T15:15:24.001Z</time></trkpt><trkpt lat="42.69308093666717" lon="11.786133101533151"><ele>474.0</ele><time>2026-04-03T15:15:25.001Z</time></trkpt><trkpt lat="42.69317466998456" lon="11.786286656025775"><ele>474.0</ele><time>2026-04-03T15:15:26.001Z</time></trkpt><trkpt lat="42.69327401801907" lon="11.786454117214417"><ele>473.66666666666663</ele><time>2026-04-03T15:15:27.001Z</time></trkpt><trkpt lat="42.693362088344955" lon="11.786658232904813"><ele>473.3333333333333</ele><time>2026-04-03T15:15:28.001Z</time></trkpt><trkpt lat="42.693450949605726" lon="11.786868618103869"><ele>473.0</ele><time>2026-04-03T15:15:29.001Z</time></trkpt><trkpt lat="42.69350020360372" lon="11.787103207003039"><ele>473.0</ele><time>2026-04-03T15:15:30.001Z</time></trkpt><trkpt lat="42.69354217482562" lon="11.787345311328284"><ele>473.0</ele><time>2026-04-03T15:15:31.001Z</time></trkpt><trkpt lat="42.69356804108519" lon="11.78759690983267"><ele>473.0</ele><time>2026-04-03T15:15:32.001Z</time></trkpt><trkpt lat="42.693601378071456" lon="11.78785106670815"><ele>476.66666666666663</ele><time>2026-04-03T15:15:33.001Z</time></trkpt><trkpt lat="42.693614104140124" lon="11.788110872543582"><ele>480.33333333333337</ele><time>2026-04-03T15:15:34.001Z</time></trkpt><trkpt lat="42.693630376889224" lon="11.788370752361264"><ele>484.0</ele><time>2026-04-03T15:15:35.001Z</time></trkpt><trkpt lat="42.69364764502794" lon="11.788605139561877"><ele>484.0</ele><time>2026-04-03T15:15:36.001Z</time></trkpt><trkpt lat="42.69366381539886" lon="11.78881153213217"><ele>484.0</ele><time>2026-04-03T15:15:37.001Z</time></trkpt><trkpt lat="42.693693008833144" lon="11.78901047654035"><ele>484.0</ele><time>2026-04-03T15:15:38.001Z</time></trkpt><trkpt lat="42.6937335581099" lon="11.789212813314258"><ele>482.6666666666667</ele><time>2026-04-03T15:15:39.001Z</time></trkpt><trkpt lat="42.693786387178854" lon="11.789424126904473"><ele>481.33333333333337</ele><time>2026-04-03T15:15:40.001Z</time></trkpt><trkpt lat="42.69384218569429" lon="11.789639049845649"><ele>480.0</ele><time>2026-04-03T15:15:41.001Z</time></trkpt><trkpt lat="42.69391682390563" lon="11.789853421380602"><ele>480.0</ele><time>2026-04-03T15:15:42.001Z</time></trkpt><trkpt lat="42.69402425013846" lon="11.790047153318183"><ele>480.0</ele><time>2026-04-03T15:15:43.001Z</time></trkpt><trkpt lat="42.694168445226666" lon="11.790213480892154"><ele>480.0</ele><time>2026-04-03T15:15:44.001Z</time></trkpt><trkpt lat="42.69433287453247" lon="11.790363535486437"><ele>480.0</ele><time>2026-04-03T15:15:45.001Z</time></trkpt><trkpt lat="42.69449882855089" lon="11.790509923345878"><ele>480.0</ele><time>2026-04-03T15:15:46.001Z</time></trkpt><trkpt lat="42.69466807996448" lon="11.790663007624506"><ele>480.0</ele><time>2026-04-03T15:15:47.001Z</time></trkpt><trkpt lat="42.69483872706927" lon="11.790831782861527"><ele>480.0</ele><time>2026-04-03T15:15:48.001Z</time></trkpt><trkpt lat="42.69501652327134" lon="11.791006870452561"><ele>480.0</ele><time>2026-04-03T15:15:49.001Z</time></trkpt><trkpt lat="42.6951991305416" lon="11.791182061974109"><ele>480.0</ele><time>2026-04-03T15:15:50.001Z</time></trkpt><trkpt lat="42.69538697186183" lon="11.791358974411457"><ele>478.5</ele><time>2026-04-03T15:15:51.001Z</time></trkpt><trkpt lat="42.69557170742138" lon="11.79153813736657"><ele>477.0</ele><time>2026-04-03T15:15:52.001Z</time></trkpt><trkpt lat="42.69575632813941" lon="11.791718279954168"><ele>476.66666666666663</ele><time>2026-04-03T15:15:53.001Z</time></trkpt><trkpt lat="42.695929239237806" lon="11.791880134229038"><ele>476.3333333333333</ele><time>2026-04-03T15:15:54.002Z</time></trkpt><trkpt lat="42.69609070008753" lon="11.792024759439826"><ele>476.0</ele><time>2026-04-03T15:15:55.002Z</time></trkpt><trkpt lat="42.69623402974666" lon="11.792164731083263"><ele>476.0</ele><time>2026-04-03T15:15:56.002Z</time></trkpt><trkpt lat="42.6963398293344" lon="11.792292883152237"><ele>476.0</ele><time>2026-04-03T15:15:57.002Z</time></trkpt><trkpt lat="42.69641393424801" lon="11.792434421693903"><ele>476.0</ele><time>2026-04-03T15:15:58.002Z</time></trkpt><trkpt lat="42.696446064453156" lon="11.792626485007354"><ele>476.0</ele><time>2026-04-03T15:15:59.002Z</time></trkpt><trkpt lat="42.69643648433455" lon="11.792851849385883"><ele>475.0</ele><time>2026-04-03T15:16:00.002Z</time></trkpt><trkpt lat="42.696398649030435" lon="11.79306785920445"><ele>474.0</ele><time>2026-04-03T15:16:01.002Z</time></trkpt><trkpt lat="42.69638368914906" lon="11.79324691261156"><ele>473.0</ele><time>2026-04-03T15:16:02.002Z</time></trkpt><trkpt lat="42.69641811621987" lon="11.79340948694607"><ele>472.0</ele><time>2026-04-03T15:16:03.002Z</time></trkpt><trkpt lat="42.69651058419834" lon="11.793556599458615"><ele>470.6666666666667</ele><time>2026-04-03T15:16:04.002Z</time></trkpt><trkpt lat="42.69665003252728" lon="11.793695111690132"><ele>469.33333333333337</ele><time>2026-04-03T15:16:05.002Z</time></trkpt><trkpt lat="42.69680541538369" lon="11.793838877775512"><ele>468.0</ele><time>2026-04-03T15:16:06.002Z</time></trkpt><trkpt lat="42.696966503044244" lon="11.793978164258112"><ele>468.0</ele><time>2026-04-03T15:16:07.002Z</time></trkpt><trkpt lat="42.697138023327554" lon="11.794136282940155"><ele>468.0</ele><time>2026-04-03T15:16:08.002Z</time></trkpt><trkpt lat="42.69731262425923" lon="11.79430028364755"><ele>468.0</ele><time>2026-04-03T15:16:09.002Z</time></trkpt><trkpt lat="42.69749138949438" lon="11.794472590882783"><ele>467.33333333333337</ele><time>2026-04-03T15:16:10.002Z</time></trkpt><trkpt lat="42.69766339498329" lon="11.79464195115229"><ele>466.6666666666667</ele><time>2026-04-03T15:16:11.002Z</time></trkpt><trkpt lat="42.69782720645703" lon="11.794797220018024"><ele>466.0</ele><time>2026-04-03T15:16:12.002Z</time></trkpt><trkpt lat="42.69798345277004" lon="11.794937448626987"><ele>466.0</ele><time>2026-04-03T15:16:13.002Z</time></trkpt><trkpt lat="42.69813157386396" lon="11.795075231318298"><ele>466.0</ele><time>2026-04-03T15:16:14.002Z</time></trkpt><trkpt lat="42.69827303290352" lon="11.795212377973774"><ele>466.0</ele><time>2026-04-03T15:16:15.002Z</time></trkpt><trkpt lat="42.69841567817094" lon="11.795334465557422"><ele>465.6666666666667</ele><time>2026-04-03T15:16:16.002Z</time></trkpt><trkpt lat="42.69853978422003" lon="11.795479767236131"><ele>465.33333333333337</ele><time>2026-04-03T15:16:17.002Z</time></trkpt><trkpt lat="42.69864980977449" lon="11.795616922980113"><ele>465.0</ele><time>2026-04-03T15:16:18.002Z</time></trkpt><trkpt lat="42.69873651021277" lon="11.795788804132584"><ele>461.0</ele><time>2026-04-03T15:16:19.002Z</time></trkpt><trkpt lat="42.698780750016795" lon="11.7960083738835"><ele>457.0</ele><time>2026-04-03T15:16:20.002Z</time></trkpt><trkpt lat="42.69884086852429" lon="11.796231831358822"><ele>453.0</ele><time>2026-04-03T15:16:21.002Z</time></trkpt><trkpt lat="42.69888040447863" lon="11.796441736989243"><ele>453.0</ele><time>2026-04-03T15:16:22.002Z</time></trkpt><trkpt lat="42.6989461647416" lon="11.796618801173837"><ele>453.0</ele><time>2026-04-03T15:16:23.002Z</time></trkpt><trkpt lat="42.69904976581048" lon="11.796759479988971"><ele>453.0</ele><time>2026-04-03T15:16:24.002Z</time></trkpt><trkpt lat="42.699191438231054" lon="11.796847404429661"><ele>453.0</ele><time>2026-04-03T15:16:25.002Z</time></trkpt><trkpt lat="42.699355203740055" lon="11.796898564535597"><ele>450.25</ele><time>2026-04-03T15:16:26.002Z</time></trkpt><trkpt lat="42.69948607135247" lon="11.796983514832824"><ele>447.5</ele><time>2026-04-03T15:16:27.002Z</time></trkpt><trkpt lat="42.699581945305304" lon="11.797091736341951"><ele>444.75</ele><time>2026-04-03T15:16:28.002Z</time></trkpt><trkpt lat="42.69964630097224" lon="11.797225459356998"><ele>442.0</ele><time>2026-04-03T15:16:29.002Z</time></trkpt><trkpt lat="42.69960424754221" lon="11.797424982276643"><ele>442.0</ele><time>2026-04-03T15:16:30.002Z</time></trkpt><trkpt lat="42.699585753442136" lon="11.797634842133062"><ele>442.0</ele><time>2026-04-03T15:16:31.002Z</time></trkpt><trkpt lat="42.699574637848464" lon="11.797859515687561"><ele>442.0</ele><time>2026-04-03T15:16:32.002Z</time></trkpt><trkpt lat="42.699556220246244" lon="11.798090814897163"><ele>443.0</ele><time>2026-04-03T15:16:33.002Z</time></trkpt><trkpt lat="42.699537246632545" lon="11.79833684175112"><ele>444.0</ele><time>2026-04-03T15:16:34.001Z</time></trkpt><trkpt lat="42.69951348718603" lon="11.798594254162047"><ele>445.0</ele><time>2026-04-03T15:16:35.001Z</time></trkpt><trkpt lat="42.69949081619432" lon="11.798860386308867"><ele>448.0</ele><time>2026-04-03T15:16:36.001Z</time></trkpt><trkpt lat="42.6994677042958" lon="11.799133334822224"><ele>451.0</ele><time>2026-04-03T15:16:37.001Z</time></trkpt><trkpt lat="42.69944306477786" lon="11.79940898624733"><ele>454.0</ele><time>2026-04-03T15:16:38.001Z</time></trkpt><trkpt lat="42.699417733495665" lon="11.799670707820287"><ele>452.0</ele><time>2026-04-03T15:16:39.001Z</time></trkpt><trkpt lat="42.69939236067398" lon="11.799906706829168"><ele>450.0</ele><time>2026-04-03T15:16:40Z</time></trkpt><trkpt lat="42.69937601124715" lon="11.800124381723414"><ele>448.0</ele><time>2026-04-03T15:16:41Z</time></trkpt><trkpt lat="42.69937047376217" lon="11.800335841224499"><ele>448.0</ele><time>2026-04-03T15:16:42Z</time></trkpt><trkpt lat="42.699388573310436" lon="11.80056436368575"><ele>448.0</ele><time>2026-04-03T15:16:43Z</time></trkpt><trkpt lat="42.699423559172914" lon="11.80080031065323"><ele>448.0</ele><time>2026-04-03T15:16:44Z</time></trkpt><trkpt lat="42.699472104659414" lon="11.801045463093951"><ele>451.33333333333337</ele><time>2026-04-03T15:16:45Z</time></trkpt><trkpt lat="42.69952100170725" lon="11.801288244777375"><ele>454.66666666666663</ele><time>2026-04-03T15:16:46Z</time></trkpt><trkpt lat="42.6995482345747" lon="11.801534730023407"><ele>458.0</ele><time>2026-04-03T15:16:47Z</time></trkpt><trkpt lat="42.69958674772894" lon="11.801767791107872"><ele>457.75</ele><time>2026-04-03T15:16:48Z</time></trkpt><trkpt lat="42.69961998526091" lon="11.801970125272318"><ele>457.5</ele><time>2026-04-03T15:16:49Z</time></trkpt><trkpt lat="42.69964971195328" lon="11.802166829737043"><ele>457.25</ele><time>2026-04-03T15:16:50Z</time></trkpt><trkpt lat="42.699664766879735" lon="11.802366276044808"><ele>457.0</ele><time>2026-04-03T15:16:51Z</time></trkpt><trkpt lat="42.69964808451879" lon="11.802569532577625"><ele>457.33333333333337</ele><time>2026-04-03T15:16:52Z</time></trkpt><trkpt lat="42.69958256633493" lon="11.802763599084132"><ele>457.66666666666663</ele><time>2026-04-03T15:16:53Z</time></trkpt><trkpt lat="42.699452652820035" lon="11.802891117936314"><ele>458.0</ele><time>2026-04-03T15:16:54Z</time></trkpt><trkpt lat="42.69931519104434" lon="11.803038678070825"><ele>458.0</ele><time>2026-04-03T15:16:55Z</time></trkpt><trkpt lat="42.69917537592721" lon="11.803196368324357"><ele>458.0</ele><time>2026-04-03T15:16:56Z</time></trkpt><trkpt lat="42.69904714906073" lon="11.803367095784255"><ele>458.0</ele><time>2026-04-03T15:16:57Z</time></trkpt><trkpt lat="42.698903807153705" lon="11.803525611140943"><ele>458.5</ele><time>2026-04-03T15:16:58Z</time></trkpt><trkpt lat="42.698770217858524" lon="11.803672856212671"><ele>459.0</ele><time>2026-04-03T15:16:59Z</time></trkpt><trkpt lat="42.69866186962909" lon="11.803794179547834"><ele>459.5</ele><time>2026-04-03T15:17:00Z</time></trkpt><trkpt lat="42.698562286494926" lon="11.803909222134447"><ele>460.0</ele><time>2026-04-03T15:17:01.001Z</time></trkpt><trkpt lat="42.698478441095276" lon="11.804032654401334"><ele>460.0</ele><time>2026-04-03T15:17:02.001Z</time></trkpt><trkpt lat="42.69841678630189" lon="11.804184974099643"><ele>460.0</ele><time>2026-04-03T15:17:03.001Z</time></trkpt><trkpt lat="42.69838998678957" lon="11.804369184578352"><ele>460.0</ele><time>2026-04-03T15:17:04.001Z</time></trkpt><trkpt lat="42.698403716821005" lon="11.804559982079052"><ele>460.0</ele><time>2026-04-03T15:17:05.001Z</time></trkpt><trkpt lat="42.69845734733811" lon="11.804719248827983"><ele>460.5</ele><time>2026-04-03T15:17:06.001Z</time></trkpt><trkpt lat="42.6985459981045" lon="11.804825013984566"><ele>461.0</ele><time>2026-04-03T15:17:07.001Z</time></trkpt><trkpt lat="42.69866485611132" lon="11.804892532402924"><ele>461.5</ele><time>2026-04-03T15:17:08.001Z</time></trkpt><trkpt lat="42.69880025300878" lon="11.80493293646979"><ele>462.0</ele><time>2026-04-03T15:17:09.001Z</time></trkpt><trkpt lat="42.698942087384346" lon="11.804976858502616"><ele>464.0</ele><time>2026-04-03T15:17:10.001Z</time></trkpt><trkpt lat="42.699089247134424" lon="11.80503137058909"><ele>466.0</ele><time>2026-04-03T15:17:11.001Z</time></trkpt><trkpt lat="42.69923144347331" lon="11.80511175724918"><ele>468.0</ele><time>2026-04-03T15:17:12.001Z</time></trkpt><trkpt lat="42.69935404942903" lon="11.805174952586029"><ele>470.0</ele><time>2026-04-03T15:17:13.001Z</time></trkpt><trkpt lat="42.69945092117184" lon="11.80525959823074"><ele>470.66666666666663</ele><time>2026-04-03T15:17:14.001Z</time></trkpt><trkpt lat="42.699489746819374" lon="11.805398664456934"><ele>471.33333333333337</ele><time>2026-04-03T15:17:15.001Z</time></trkpt><trkpt lat="42.69946893049715" lon="11.805542496406686"><ele>472.0</ele><time>2026-04-03T15:17:16.001Z</time></trkpt><trkpt lat="42.69928496538983" lon="11.80578471205648"><ele>472.0</ele><time>2026-04-03T15:17:18.001Z</time></trkpt><trkpt lat="42.699175916044446" lon="11.80592655567892"><ele>472.0</ele><time>2026-04-03T15:17:19.001Z</time></trkpt><trkpt lat="42.69904791055448" lon="11.806053966902333"><ele>472.0</ele><time>2026-04-03T15:17:20.001Z</time></trkpt><trkpt lat="42.698918100510916" lon="11.806187543580043"><ele>472.33333333333337</ele><time>2026-04-03T15:17:21.001Z</time></trkpt><trkpt lat="42.69877871533505" lon="11.806334125460797"><ele>472.66666666666663</ele><time>2026-04-03T15:17:22.001Z</time></trkpt><trkpt lat="42.69863308249102" lon="11.80648189699653"><ele>473.0</ele><time>2026-04-03T15:17:23.001Z</time></trkpt><trkpt lat="42.69849123214168" lon="11.806630126342405"><ele>473.5</ele><time>2026-04-03T15:17:24.001Z</time></trkpt><trkpt lat="42.69836770608614" lon="11.80677229013947"><ele>474.0</ele><time>2026-04-03T15:17:25.001Z</time></trkpt><trkpt lat="42.698278018327606" lon="11.806917108161711"><ele>474.5</ele><time>2026-04-03T15:17:26.001Z</time></trkpt><trkpt lat="42.69824287407988" lon="11.807067738759399"><ele>475.0</ele><time>2026-04-03T15:17:27.001Z</time></trkpt><trkpt lat="42.69826612108113" lon="11.807192140184481"><ele>475.25</ele><time>2026-04-03T15:17:28.001Z</time></trkpt><trkpt lat="42.69833447278154" lon="11.807281542436204"><ele>475.5</ele><time>2026-04-03T15:17:29.001Z</time></trkpt><trkpt lat="42.698446484273795" lon="11.807350080562799"><ele>475.75</ele><time>2026-04-03T15:17:30.001Z</time></trkpt><trkpt lat="42.69858455466255" lon="11.807411757516363"><ele>476.0</ele><time>2026-04-03T15:17:31.001Z</time></trkpt><trkpt lat="42.69873520743638" lon="11.807493025087902"><ele>475.0</ele><time>2026-04-03T15:17:32.001Z</time></trkpt><trkpt lat="42.69889368193236" lon="11.80758932008537"><ele>474.0</ele><time>2026-04-03T15:17:33.001Z</time></trkpt><trkpt lat="42.699041262202485" lon="11.80767515810647"><ele>473.0</ele><time>2026-04-03T15:17:34.001Z</time></trkpt><trkpt lat="42.69919474080616" lon="11.807737044099609"><ele>473.0</ele><time>2026-04-03T15:17:35.001Z</time></trkpt><trkpt lat="42.699364640248056" lon="11.807753635728393"><ele>473.0</ele><time>2026-04-03T15:17:36.001Z</time></trkpt><trkpt lat="42.69953619940965" lon="11.807741550663339"><ele>473.0</ele><time>2026-04-03T15:17:37.001Z</time></trkpt><trkpt lat="42.699701987581335" lon="11.807743509045505"><ele>469.66666666666663</ele><time>2026-04-03T15:17:38.001Z</time></trkpt><trkpt lat="42.699871563796584" lon="11.80779443110524"><ele>466.33333333333337</ele><time>2026-04-03T15:17:39.001Z</time></trkpt><trkpt lat="42.700044889988966" lon="11.807875175506185"><ele>463.0</ele><time>2026-04-03T15:17:40.001Z</time></trkpt><trkpt lat="42.7002204623278" lon="11.807979631027166"><ele>459.0</ele><time>2026-04-03T15:17:41.001Z</time></trkpt><trkpt lat="42.700381389667974" lon="11.808094029375942"><ele>455.0</ele><time>2026-04-03T15:17:42.001Z</time></trkpt><trkpt lat="42.70053383021932" lon="11.808218650130767"><ele>451.0</ele><time>2026-04-03T15:17:43.001Z</time></trkpt><trkpt lat="42.70067544392665" lon="11.80835745169693"><ele>449.6666666666667</ele><time>2026-04-03T15:17:44.001Z</time></trkpt><trkpt lat="42.70080135512501" lon="11.808503594946933"><ele>448.33333333333337</ele><time>2026-04-03T15:17:45.001Z</time></trkpt><trkpt lat="42.700901667562945" lon="11.808651911338329"><ele>447.0</ele><time>2026-04-03T15:17:46.001Z</time></trkpt><trkpt lat="42.70096707706013" lon="11.808817951329075"><ele>447.0</ele><time>2026-04-03T15:17:47.001Z</time></trkpt><trkpt lat="42.70098117878768" lon="11.80894716873671"><ele>447.00000000000006</ele><time>2026-04-03T15:17:48.001Z</time></trkpt><trkpt lat="42.70095373958867" lon="11.809055339501885"><ele>447.00000000000006</ele><time>2026-04-03T15:17:49.001Z</time></trkpt><trkpt lat="42.7008598188781" lon="11.809088069932772"><ele>447.0</ele><time>2026-04-03T15:17:50.001Z</time></trkpt><trkpt lat="42.70075647390861" lon="11.809120088493565"><ele>447.0</ele><time>2026-04-03T15:17:51.001Z</time></trkpt><trkpt lat="42.70061866068152" lon="11.809139017003556"><ele>447.0</ele><time>2026-04-03T15:17:52.001Z</time></trkpt><trkpt lat="42.70046833733441" lon="11.80913155687455"><ele>447.0</ele><time>2026-04-03T15:17:53.001Z</time></trkpt><trkpt lat="42.70030546912971" lon="11.809115124163407"><ele>447.0</ele><time>2026-04-03T15:17:54.001Z</time></trkpt><trkpt lat="42.70011996958675" lon="11.80911895724319"><ele>447.33333333333337</ele><time>2026-04-03T15:17:55.001Z</time></trkpt><trkpt lat="42.69992113045726" lon="11.809107216206744"><ele>447.6666666666667</ele><time>2026-04-03T15:17:56.001Z</time></trkpt><trkpt lat="42.699718848259835" lon="11.809100870902986"><ele>448.0</ele><time>2026-04-03T15:17:57.001Z</time></trkpt><trkpt lat="42.699509029615434" lon="11.809111334497278"><ele>447.33333333333337</ele><time>2026-04-03T15:17:58.001Z</time></trkpt><trkpt lat="42.69929527721166" lon="11.809171268130761"><ele>446.66666666666663</ele><time>2026-04-03T15:17:59.001Z</time></trkpt><trkpt lat="42.699089137166936" lon="11.809263946601622"><ele>446.0</ele><time>2026-04-03T15:18:00.001Z</time></trkpt><trkpt lat="42.69889509454654" lon="11.809362061329525"><ele>446.0</ele><time>2026-04-03T15:18:01.001Z</time></trkpt><trkpt lat="42.69871686193916" lon="11.809444762338659"><ele>446.0</ele><time>2026-04-03T15:18:02.001Z</time></trkpt><trkpt lat="42.69854082389406" lon="11.80950097812759"><ele>446.0</ele><time>2026-04-03T15:18:03.001Z</time></trkpt><trkpt lat="42.69836727831428" lon="11.809571864988364"><ele>445.66666666666663</ele><time>2026-04-03T15:18:04.001Z</time></trkpt><trkpt lat="42.69819067300838" lon="11.809623321268141"><ele>445.33333333333337</ele><time>2026-04-03T15:18:05.001Z</time></trkpt><trkpt lat="42.69800245500933" lon="11.809642796513273"><ele>445.0</ele><time>2026-04-03T15:18:06.001Z</time></trkpt><trkpt lat="42.697814070528096" lon="11.809652254602767"><ele>444.6666666666667</ele><time>2026-04-03T15:18:07.001Z</time></trkpt><trkpt lat="42.69762295574738" lon="11.809675628302903"><ele>444.33333333333337</ele><time>2026-04-03T15:18:08.001Z</time></trkpt><trkpt lat="42.697439629576216" lon="11.809670751227662"><ele>444.0</ele><time>2026-04-03T15:18:09.001Z</time></trkpt><trkpt lat="42.69726445980649" lon="11.80971090173371"><ele>444.0</ele><time>2026-04-03T15:18:10.001Z</time></trkpt><trkpt lat="42.697100301607094" lon="11.80977588324387"><ele>444.0</ele><time>2026-04-03T15:18:11.001Z</time></trkpt><trkpt lat="42.696944288366055" lon="11.809839936476648"><ele>444.0</ele><time>2026-04-03T15:18:12.002Z</time></trkpt><trkpt lat="42.69679133137165" lon="11.809902472769187"><ele>445.66666666666663</ele><time>2026-04-03T15:18:13.002Z</time></trkpt><trkpt lat="42.69666727328198" lon="11.810023200744428"><ele>447.3333333333333</ele><time>2026-04-03T15:18:14.002Z</time></trkpt><trkpt lat="42.696597479707556" lon="11.81020788652379"><ele>449.0</ele><time>2026-04-03T15:18:15.002Z</time></trkpt><trkpt lat="42.69654977548877" lon="11.810406751641844"><ele>449.0</ele><time>2026-04-03T15:18:16.002Z</time></trkpt><trkpt lat="42.69648623327001" lon="11.810600198045668"><ele>449.0</ele><time>2026-04-03T15:18:17.002Z</time></trkpt><trkpt lat="42.696417067697844" lon="11.810788032555221"><ele>449.0</ele><time>2026-04-03T15:18:18.002Z</time></trkpt><trkpt lat="42.696304582870056" lon="11.810954420821751"><ele>454.66666666666663</ele><time>2026-04-03T15:18:19.002Z</time></trkpt><trkpt lat="42.696148895299665" lon="11.81105928504923"><ele>460.33333333333337</ele><time>2026-04-03T15:18:20.002Z</time></trkpt><trkpt lat="42.695971857285436" lon="11.811124741433762"><ele>466.0</ele><time>2026-04-03T15:18:21.002Z</time></trkpt><trkpt lat="42.695791311655604" lon="11.811190386129258"><ele>467.0</ele><time>2026-04-03T15:18:22.002Z</time></trkpt><trkpt lat="42.69561304709685" lon="11.811237425424403"><ele>468.0</ele><time>2026-04-03T15:18:23.002Z</time></trkpt><trkpt lat="42.69544273774927" lon="11.811302038556029"><ele>469.0</ele><time>2026-04-03T15:18:24.002Z</time></trkpt><trkpt lat="42.69523465045993" lon="11.811399687433315"><ele>467.0</ele><time>2026-04-03T15:18:25.002Z</time></trkpt><trkpt lat="42.695039770600765" lon="11.811455656678909"><ele>465.0</ele><time>2026-04-03T15:18:26.002Z</time></trkpt><trkpt lat="42.69485308046089" lon="11.811505506990384"><ele>463.0</ele><time>2026-04-03T15:18:27.002Z</time></trkpt><trkpt lat="42.694668777024816" lon="11.811554855304221"><ele>463.0</ele><time>2026-04-03T15:18:28.002Z</time></trkpt><trkpt lat="42.694513276001594" lon="11.811640680753206"><ele>463.0</ele><time>2026-04-03T15:18:29.002Z</time></trkpt><trkpt lat="42.69437963759147" lon="11.811719467849905"><ele>463.0</ele><time>2026-04-03T15:18:30.002Z</time></trkpt><trkpt lat="42.694244247891646" lon="11.811812557074322"><ele>465.33333333333337</ele><time>2026-04-03T15:18:31.002Z</time></trkpt><trkpt lat="42.694118453321835" lon="11.811934285412276"><ele>467.66666666666663</ele><time>2026-04-03T15:18:32.002Z</time></trkpt><trkpt lat="42.69401405319518" lon="11.81209865799035"><ele>470.0</ele><time>2026-04-03T15:18:33.002Z</time></trkpt><trkpt lat="42.69397552397779" lon="11.81228900785725"><ele>470.0</ele><time>2026-04-03T15:18:34.002Z</time></trkpt><trkpt lat="42.69395937172697" lon="11.812459194497297"><ele>470.0</ele><time>2026-04-03T15:18:35.002Z</time></trkpt><trkpt lat="42.69395789516161" lon="11.812613924486154"><ele>470.0</ele><time>2026-04-03T15:18:36.002Z</time></trkpt><trkpt lat="42.69394715232235" lon="11.81275493411597"><ele>470.0</ele><time>2026-04-03T15:18:37.002Z</time></trkpt><trkpt lat="42.693974115795804" lon="11.812892649574573"><ele>470.0</ele><time>2026-04-03T15:18:38.002Z</time></trkpt><trkpt lat="42.694004748266174" lon="11.81301304937268"><ele>471.6</ele><time>2026-04-03T15:18:39.002Z</time></trkpt><trkpt lat="42.694037893218336" lon="11.813140770124017"><ele>473.2</ele><time>2026-04-03T15:18:40Z</time></trkpt><trkpt lat="42.6940637628141" lon="11.813274803905985"><ele>474.79999999999995</ele><time>2026-04-03T15:18:41Z</time></trkpt><trkpt lat="42.6940785330913" lon="11.813414634461346"><ele>476.4</ele><time>2026-04-03T15:18:42Z</time></trkpt><trkpt lat="42.69404005025956" lon="11.813542852486794"><ele>478.0</ele><time>2026-04-03T15:18:43Z</time></trkpt><trkpt lat="42.694003311771965" lon="11.813669100159183"><ele>479.2</ele><time>2026-04-03T15:18:44Z</time></trkpt><trkpt lat="42.693992566423205" lon="11.81381248026104"><ele>480.4</ele><time>2026-04-03T15:18:45Z</time></trkpt><trkpt lat="42.69393934267134" lon="11.81394120925629"><ele>481.59999999999997</ele><time>2026-04-03T15:18:46Z</time></trkpt><trkpt lat="42.693905581695844" lon="11.81407064966234"><ele>482.79999999999995</ele><time>2026-04-03T15:18:47Z</time></trkpt><trkpt lat="42.6939239093397" lon="11.814181766876052"><ele>484.0</ele><time>2026-04-03T15:18:48Z</time></trkpt><trkpt lat="42.693993261194706" lon="11.814249014316436"><ele>484.0</ele><time>2026-04-03T15:18:49Z</time></trkpt><trkpt lat="42.6940805816185" lon="11.814234257117539"><ele>484.0</ele><time>2026-04-03T15:18:50Z</time></trkpt><trkpt lat="42.694154367183025" lon="11.814155014497079"><ele>484.0</ele><time>2026-04-03T15:18:51Z</time></trkpt><trkpt lat="42.69420460590228" lon="11.814040325842084"><ele>484.0</ele><time>2026-04-03T15:18:52Z</time></trkpt><trkpt lat="42.69424646745389" lon="11.813919321893657"><ele>484.0</ele><time>2026-04-03T15:18:53Z</time></trkpt><trkpt lat="42.69428958266249" lon="11.813806480031204"><ele>484.00000000000006</ele><time>2026-04-03T15:18:54Z</time></trkpt><trkpt lat="42.69432153335323" lon="11.813712230307225"><ele>484.0</ele><time>2026-04-03T15:18:55Z</time></trkpt><trkpt lat="42.69436474567655" lon="11.81364030588437"><ele>484.0</ele><time>2026-04-03T15:18:56Z</time></trkpt><trkpt lat="42.6944308214363" lon="11.813587172364947"><ele>484.0</ele><time>2026-04-03T15:18:57Z</time></trkpt><trkpt lat="42.69451400245714" lon="11.813590777613758"><ele>484.00000000000006</ele><time>2026-04-03T15:18:58Z</time></trkpt><trkpt lat="42.69458541246259" lon="11.813678398612403"><ele>484.0</ele><time>2026-04-03T15:18:59Z</time></trkpt><trkpt lat="42.69459312574809" lon="11.813819100812943"><ele>484.00000000000006</ele><time>2026-04-03T15:19:00Z</time></trkpt><trkpt lat="42.69458472513333" lon="11.81391898304692"><ele>484.0</ele><time>2026-04-03T15:19:01Z</time></trkpt><trkpt lat="42.69452751289713" lon="11.813968808476808"><ele>484.0</ele><time>2026-04-03T15:19:02Z</time></trkpt><trkpt lat="42.69448675901347" lon="11.814047794636707"><ele>484.0</ele><time>2026-04-03T15:19:03Z</time></trkpt><trkpt lat="42.69442528440306" lon="11.814129261621922"><ele>484.00000000000006</ele><time>2026-04-03T15:19:04Z</time></trkpt><trkpt lat="42.69435292541462" lon="11.814215896887859"><ele>484.0</ele><time>2026-04-03T15:19:05Z</time></trkpt><trkpt lat="42.69428486882918" lon="11.814320441821646"><ele>484.6</ele><time>2026-04-03T15:19:06Z</time></trkpt><trkpt lat="42.694213257312754" lon="11.814421602999566"><ele>485.2</ele><time>2026-04-03T15:19:07Z</time></trkpt><trkpt lat="42.69414353927852" lon="11.814517434324886"><ele>485.80000000000007</ele><time>2026-04-03T15:19:08Z</time></trkpt><trkpt lat="42.69408049409388" lon="11.814610657430247"><ele>486.40000000000003</ele><time>2026-04-03T15:19:09Z</time></trkpt><trkpt lat="42.694017092523474" lon="11.8146970601497"><ele>487.0</ele><time>2026-04-03T15:19:10Z</time></trkpt><trkpt lat="42.69396026636388" lon="11.814790308631144"><ele>487.00000000000006</ele><time>2026-04-03T15:19:11Z</time></trkpt><trkpt lat="42.693905406261564" lon="11.814877944239742"><ele>487.0</ele><time>2026-04-03T15:19:12Z</time></trkpt><trkpt lat="42.693854800121194" lon="11.814962107944998"><ele>487.0</ele><time>2026-04-03T15:19:13Z</time></trkpt><trkpt lat="42.6938061305956" lon="11.815050720774602"><ele>487.0</ele><time>2026-04-03T15:19:14Z</time></trkpt><trkpt lat="42.69375486396155" lon="11.815146007930831"><ele>487.00000000000006</ele><time>2026-04-03T15:19:15Z</time></trkpt><trkpt lat="42.693688504725536" lon="11.815231042700685"><ele>487.0</ele><time>2026-04-03T15:19:16Z</time></trkpt><trkpt lat="42.693612670796725" lon="11.815315757038135"><ele>487.20000000000005</ele><time>2026-04-03T15:19:17Z</time></trkpt><trkpt lat="42.693540976383986" lon="11.815405324848452"><ele>487.40000000000003</ele><time>2026-04-03T15:19:18Z</time></trkpt><trkpt lat="42.69347237263195" lon="11.815495111292346"><ele>487.59999999999997</ele><time>2026-04-03T15:19:19Z</time></trkpt><trkpt lat="42.69341102775805" lon="11.815578273681362"><ele>487.79999999999995</ele><time>2026-04-03T15:19:20Z</time></trkpt><trkpt lat="42.69333685746898" lon="11.815662710273536"><ele>488.0</ele><time>2026-04-03T15:19:21Z</time></trkpt><trkpt lat="42.69326907316515" lon="11.815750974049209"><ele>487.99999999999994</ele><time>2026-04-03T15:19:22Z</time></trkpt><trkpt lat="42.69319808092477" lon="11.815830413139476"><ele>488.0</ele><time>2026-04-03T15:19:23Z</time></trkpt><trkpt lat="42.69313207118064" lon="11.815914236420282"><ele>488.0</ele><time>2026-04-03T15:19:24Z</time></trkpt><trkpt lat="42.693075398087906" lon="11.81598032898664"><ele>488.0</ele><time>2026-04-03T15:19:25Z</time></trkpt><trkpt lat="42.6930313078447" lon="11.81604713935517"><ele>487.99999999999994</ele><time>2026-04-03T15:19:26Z</time></trkpt><trkpt lat="42.692990266240706" lon="11.816175875943483"><ele>488.0</ele><time>2026-04-03T15:19:28Z</time></trkpt><trkpt lat="42.69291563034829" lon="11.816269807774997"><ele>487.4</ele><time>2026-04-03T15:19:30Z</time></trkpt><trkpt lat="42.69286788803419" lon="11.816351608529107"><ele>486.79999999999995</ele><time>2026-04-03T15:19:31Z</time></trkpt><trkpt lat="42.69279060245855" lon="11.816406585820577"><ele>486.2</ele><time>2026-04-03T15:19:32Z</time></trkpt><trkpt lat="42.69270057882216" lon="11.816492486947276"><ele>485.6</ele><time>2026-04-03T15:19:33.001Z</time></trkpt><trkpt lat="42.692608755567576" lon="11.816552008125804"><ele>485.0</ele><time>2026-04-03T15:19:34.001Z</time></trkpt><trkpt lat="42.692527955028716" lon="11.816626061304946"><ele>485.0</ele><time>2026-04-03T15:19:35.001Z</time></trkpt><trkpt lat="42.69244385198522" lon="11.816672649051114"><ele>485.0</ele><time>2026-04-03T15:19:36.001Z</time></trkpt><trkpt lat="42.692361730863965" lon="11.816715582237041"><ele>485.0</ele><time>2026-04-03T15:19:37.001Z</time></trkpt><trkpt lat="42.69227802227626" lon="11.81676386863036"><ele>485.0</ele><time>2026-04-03T15:19:38.001Z</time></trkpt><trkpt lat="42.69218900706287" lon="11.816798197607488"><ele>485.0</ele><time>2026-04-03T15:19:39.001Z</time></trkpt><trkpt lat="42.69209682879278" lon="11.816789325280906"><ele>484.99999999999994</ele><time>2026-04-03T15:19:40.001Z</time></trkpt><trkpt lat="42.69201125579292" lon="11.816779400691681"><ele>485.0</ele><time>2026-04-03T15:19:41.001Z</time></trkpt><trkpt lat="42.69192632696853" lon="11.816780097163768"><ele>485.0</ele><time>2026-04-03T15:19:42.001Z</time></trkpt><trkpt lat="42.6918538008451" lon="11.816747209341845"><ele>485.0</ele><time>2026-04-03T15:19:43.001Z</time></trkpt><trkpt lat="42.69177385291642" lon="11.816720965619597"><ele>484.99999999999994</ele><time>2026-04-03T15:19:44.001Z</time></trkpt><trkpt lat="42.691697247015576" lon="11.816707903714658"><ele>485.0</ele><time>2026-04-03T15:19:45.001Z</time></trkpt><trkpt lat="42.69163310950927" lon="11.816700787220581"><ele>485.16666666666663</ele><time>2026-04-03T15:19:46.001Z</time></trkpt><trkpt lat="42.69156982188373" lon="11.816694474492216"><ele>485.3333333333333</ele><time>2026-04-03T15:19:47.001Z</time></trkpt><trkpt lat="42.69149330143221" lon="11.816683937880804"><ele>485.5</ele><time>2026-04-03T15:19:48.001Z</time></trkpt><trkpt lat="42.691416369028914" lon="11.816658845322646"><ele>485.66666666666663</ele><time>2026-04-03T15:19:49.001Z</time></trkpt><trkpt lat="42.69131630913876" lon="11.81669107364904"><ele>485.8333333333333</ele><time>2026-04-03T15:19:51.001Z</time></trkpt><trkpt lat="42.69122566906102" lon="11.816771761837597"><ele>486.0</ele><time>2026-04-03T15:19:53.001Z</time></trkpt><trkpt lat="42.69116047343975" lon="11.816786948402287"><ele>485.8</ele><time>2026-04-03T15:19:54.001Z</time></trkpt><trkpt lat="42.69107740274712" lon="11.816790220937825"><ele>485.6</ele><time>2026-04-03T15:19:55.001Z</time></trkpt><trkpt lat="42.690983926479305" lon="11.816804379069866"><ele>485.4</ele><time>2026-04-03T15:19:56.001Z</time></trkpt><trkpt lat="42.690880343648004" lon="11.816817437140871"><ele>485.2</ele><time>2026-04-03T15:19:57.001Z</time></trkpt><trkpt lat="42.69077349379684" lon="11.816834509681447"><ele>485.0</ele><time>2026-04-03T15:19:58.001Z</time></trkpt><trkpt lat="42.69066528445119" lon="11.816846611796983"><ele>485.0</ele><time>2026-04-03T15:19:59.001Z</time></trkpt><trkpt lat="42.69056428690229" lon="11.81690434552915"><ele>485.0</ele><time>2026-04-03T15:20:00.001Z</time></trkpt><trkpt lat="42.69044745619529" lon="11.81694313445719"><ele>485.0</ele><time>2026-04-03T15:20:01.001Z</time></trkpt><trkpt lat="42.6903357444612" lon="11.816978487955724"><ele>485.0</ele><time>2026-04-03T15:20:02.001Z</time></trkpt><trkpt lat="42.69022710304251" lon="11.81702449949277"><ele>485.5</ele><time>2026-04-03T15:20:03.001Z</time></trkpt><trkpt lat="42.69011869523499" lon="11.817063535015995"><ele>486.0</ele><time>2026-04-03T15:20:04.001Z</time></trkpt><trkpt lat="42.690012705083454" lon="11.817113497663662"><ele>486.5</ele><time>2026-04-03T15:20:05.001Z</time></trkpt><trkpt lat="42.68990347794041" lon="11.817149522281191"><ele>487.0</ele><time>2026-04-03T15:20:06.001Z</time></trkpt><trkpt lat="42.689793329821" lon="11.817193170117067"><ele>487.0</ele><time>2026-04-03T15:20:07.001Z</time></trkpt><trkpt lat="42.689681551510446" lon="11.817238995411467"><ele>487.0</ele><time>2026-04-03T15:20:08.001Z</time></trkpt><trkpt lat="42.689568901646915" lon="11.817278599267349"><ele>487.0</ele><time>2026-04-03T15:20:09.001Z</time></trkpt><trkpt lat="42.68945160663061" lon="11.817312077322294"><ele>487.0</ele><time>2026-04-03T15:20:10.001Z</time></trkpt><trkpt lat="42.689332453782065" lon="11.817350183911985"><ele>487.75</ele><time>2026-04-03T15:20:11.001Z</time></trkpt><trkpt lat="42.68920535557855" lon="11.817325827014969"><ele>488.5</ele><time>2026-04-03T15:20:12.001Z</time></trkpt><trkpt lat="42.689078287519756" lon="11.81730780106885"><ele>489.25</ele><time>2026-04-03T15:20:13.001Z</time></trkpt><trkpt lat="42.68894814881981" lon="11.817257084756227"><ele>490.0</ele><time>2026-04-03T15:20:14.001Z</time></trkpt><trkpt lat="42.68880625485561" lon="11.817187488922668"><ele>490.0</ele><time>2026-04-03T15:20:15.001Z</time></trkpt><trkpt lat="42.688656325663665" lon="11.817108644624295"><ele>490.0</ele><time>2026-04-03T15:20:16.001Z</time></trkpt><trkpt lat="42.68850107550866" lon="11.81702486691074"><ele>490.0</ele><time>2026-04-03T15:20:17.001Z</time></trkpt><trkpt lat="42.68832997190453" lon="11.816931956243803"><ele>491.0</ele><time>2026-04-03T15:20:18.001Z</time></trkpt><trkpt lat="42.68815865181458" lon="11.816838928036733"><ele>492.0</ele><time>2026-04-03T15:20:19.001Z</time></trkpt><trkpt lat="42.68797467730428" lon="11.816754464327413"><ele>493.0</ele><time>2026-04-03T15:20:20.001Z</time></trkpt><trkpt lat="42.687795303147" lon="11.816659638148836"><ele>493.0</ele><time>2026-04-03T15:20:21.001Z</time></trkpt><trkpt lat="42.68760699289277" lon="11.81658638507568"><ele>493.0</ele><time>2026-04-03T15:20:22.001Z</time></trkpt><trkpt lat="42.68741079341399" lon="11.816551290102055"><ele>493.0</ele><time>2026-04-03T15:20:23.001Z</time></trkpt><trkpt lat="42.687210237315675" lon="11.816561304399475"><ele>493.0</ele><time>2026-04-03T15:20:24.001Z</time></trkpt><trkpt lat="42.687006809521904" lon="11.816591547006556"><ele>493.0</ele><time>2026-04-03T15:20:25.001Z</time></trkpt><trkpt lat="42.68681824562896" lon="11.816628763916743"><ele>493.0</ele><time>2026-04-03T15:20:26.001Z</time></trkpt><trkpt lat="42.686638524194166" lon="11.816663255892731"><ele>492.6666666666667</ele><time>2026-04-03T15:20:27.001Z</time></trkpt><trkpt lat="42.686474167609745" lon="11.816667098280739"><ele>492.33333333333337</ele><time>2026-04-03T15:20:28.001Z</time></trkpt><trkpt lat="42.68630771182455" lon="11.816685558533313"><ele>492.0</ele><time>2026-04-03T15:20:29.001Z</time></trkpt><trkpt lat="42.68616007914794" lon="11.81668558870167"><ele>493.33333333333337</ele><time>2026-04-03T15:20:30.001Z</time></trkpt><trkpt lat="42.68602038749088" lon="11.816654006924189"><ele>494.6666666666667</ele><time>2026-04-03T15:20:31.001Z</time></trkpt><trkpt lat="42.68587122852635" lon="11.816583130265597"><ele>496.0</ele><time>2026-04-03T15:20:32.001Z</time></trkpt><trkpt lat="42.68571887884987" lon="11.816486609841363"><ele>496.0</ele><time>2026-04-03T15:20:33.001Z</time></trkpt><trkpt lat="42.685554196914715" lon="11.816403981492748"><ele>496.0</ele><time>2026-04-03T15:20:34.001Z</time></trkpt><trkpt lat="42.68539420584293" lon="11.816312307211025"><ele>496.0</ele><time>2026-04-03T15:20:35.002Z</time></trkpt><trkpt lat="42.685221705981874" lon="11.816276875988075"><ele>495.33333333333337</ele><time>2026-04-03T15:20:36.002Z</time></trkpt><trkpt lat="42.68503848089536" lon="11.816287656568601"><ele>494.66666666666663</ele><time>2026-04-03T15:20:37.002Z</time></trkpt><trkpt lat="42.68485105029031" lon="11.816326203137075"><ele>494.0</ele><time>2026-04-03T15:20:38.002Z</time></trkpt><trkpt lat="42.68465611712276" lon="11.81637241081849"><ele>494.0</ele><time>2026-04-03T15:20:39.002Z</time></trkpt><trkpt lat="42.684456101113014" lon="11.816381852433043"><ele>494.0</ele><time>2026-04-03T15:20:40.002Z</time></trkpt><trkpt lat="42.68425443380743" lon="11.816412686895205"><ele>494.0</ele><time>2026-04-03T15:20:41.002Z</time></trkpt><trkpt lat="42.68405248992171" lon="11.81644251017967"><ele>496.3333333333333</ele><time>2026-04-03T15:20:42.002Z</time></trkpt><trkpt lat="42.68385976631793" lon="11.816470827570798"><ele>498.66666666666663</ele><time>2026-04-03T15:20:43.002Z</time></trkpt><trkpt lat="42.683676108078764" lon="11.81649724117539"><ele>501.0</ele><time>2026-04-03T15:20:44.002Z</time></trkpt><trkpt lat="42.68350288260841" lon="11.816521988743014"><ele>501.66666666666663</ele><time>2026-04-03T15:20:45.002Z</time></trkpt><trkpt lat="42.68333171251597" lon="11.816540678321196"><ele>502.3333333333333</ele><time>2026-04-03T15:20:45.999Z</time></trkpt><trkpt lat="42.68316106587503" lon="11.816540460257544"><ele>503.0</ele><time>2026-04-03T15:20:46.999Z</time></trkpt><trkpt lat="42.68298431187046" lon="11.816520512026106"><ele>503.0</ele><time>2026-04-03T15:20:47.999Z</time></trkpt><trkpt lat="42.68280462453993" lon="11.816484738704421"><ele>503.0</ele><time>2026-04-03T15:20:48.999Z</time></trkpt><trkpt lat="42.68261644595502" lon="11.816466680371951"><ele>503.0</ele><time>2026-04-03T15:20:49.999Z</time></trkpt><trkpt lat="42.68242749031284" lon="11.816426574678099"><ele>504.0</ele><time>2026-04-03T15:20:50.999Z</time></trkpt><trkpt lat="42.68223326365466" lon="11.816399388164516"><ele>505.0</ele><time>2026-04-03T15:20:51.999Z</time></trkpt><trkpt lat="42.68203264203512" lon="11.81639187201601"><ele>506.0</ele><time>2026-04-03T15:20:52.999Z</time></trkpt><trkpt lat="42.681828327529885" lon="11.816410402014228"><ele>506.0</ele><time>2026-04-03T15:20:53.999Z</time></trkpt><trkpt lat="42.6816219603635" lon="11.81645049397067"><ele>506.0</ele><time>2026-04-03T15:20:54.999Z</time></trkpt><trkpt lat="42.681409905474744" lon="11.816466392589101"><ele>506.0</ele><time>2026-04-03T15:20:55.999Z</time></trkpt><trkpt lat="42.68119536346102" lon="11.816496440345169"><ele>506.66666666666663</ele><time>2026-04-03T15:20:56.999Z</time></trkpt><trkpt lat="42.68097517993932" lon="11.816527415684764"><ele>507.33333333333337</ele><time>2026-04-03T15:20:57.999Z</time></trkpt><trkpt lat="42.68076917375688" lon="11.816556396558186"><ele>508.0</ele><time>2026-04-03T15:20:58.999Z</time></trkpt><trkpt lat="42.680543164606" lon="11.816588191445437"><ele>508.0</ele><time>2026-04-03T15:21:00Z</time></trkpt><trkpt lat="42.68031811496401" lon="11.816619851335608"><ele>508.0</ele><time>2026-04-03T15:21:01Z</time></trkpt><trkpt lat="42.68008886614528" lon="11.816672798757835"><ele>509.5</ele><time>2026-04-03T15:21:02Z</time></trkpt><trkpt lat="42.67985590040962" lon="11.816684230733047"><ele>511.0</ele><time>2026-04-03T15:21:03Z</time></trkpt><trkpt lat="42.679622508136056" lon="11.816716275147208"><ele>511.5</ele><time>2026-04-03T15:21:04Z</time></trkpt><trkpt lat="42.679391490935984" lon="11.816770205888284"><ele>512.0</ele><time>2026-04-03T15:21:05Z</time></trkpt><trkpt lat="42.67915413288203" lon="11.816780582399563"><ele>511.5</ele><time>2026-04-03T15:21:06Z</time></trkpt><trkpt lat="42.678922606679954" lon="11.81683452230727"><ele>511.0</ele><time>2026-04-03T15:21:07Z</time></trkpt><trkpt lat="42.67869072217882" lon="11.816862522018729"><ele>512.0</ele><time>2026-04-03T15:21:08Z</time></trkpt><trkpt lat="42.67845589655955" lon="11.81689407930084"><ele>513.0</ele><time>2026-04-03T15:21:09Z</time></trkpt><trkpt lat="42.67822675525024" lon="11.816921288131706"><ele>513.0</ele><time>2026-04-03T15:21:10Z</time></trkpt><trkpt lat="42.67800212060993" lon="11.816952701589388"><ele>513.0</ele><time>2026-04-03T15:21:11Z</time></trkpt><trkpt lat="42.67777937964842" lon="11.81698036028356"><ele>513.0</ele><time>2026-04-03T15:21:12Z</time></trkpt><trkpt lat="42.67755667080346" lon="11.817006722278512"><ele>513.0</ele><time>2026-04-03T15:21:13Z</time></trkpt><trkpt lat="42.6773360241851" lon="11.817035369371695"><ele>513.0</ele><time>2026-04-03T15:21:14Z</time></trkpt><trkpt lat="42.67711721676944" lon="11.817067988900169"><ele>513.0</ele><time>2026-04-03T15:21:15Z</time></trkpt><trkpt lat="42.67689897994667" lon="11.817102482375855"><ele>513.0</ele><time>2026-04-03T15:21:16Z</time></trkpt><trkpt lat="42.67667853149833" lon="11.817135325706724"><ele>513.0</ele><time>2026-04-03T15:21:17Z</time></trkpt><trkpt lat="42.67646219627232" lon="11.817162472561602"><ele>513.0</ele><time>2026-04-03T15:21:18Z</time></trkpt><trkpt lat="42.676251704857734" lon="11.817195914287401"><ele>512.3333333333334</ele><time>2026-04-03T15:21:19Z</time></trkpt><trkpt lat="42.67604375673748" lon="11.817234599902973"><ele>511.6666666666667</ele><time>2026-04-03T15:21:20Z</time></trkpt><trkpt lat="42.675836573827496" lon="11.817248200023567"><ele>511.0</ele><time>2026-04-03T15:21:21Z</time></trkpt><trkpt lat="42.675636817289806" lon="11.817279419649296"><ele>511.0</ele><time>2026-04-03T15:21:22Z</time></trkpt><trkpt lat="42.67545315416649" lon="11.817325110496375"><ele>511.0</ele><time>2026-04-03T15:21:23Z</time></trkpt><trkpt lat="42.675277831852284" lon="11.817340837504117"><ele>511.0</ele><time>2026-04-03T15:21:24Z</time></trkpt><trkpt lat="42.675112894276374" lon="11.817302198604251"><ele>511.6666666666667</ele><time>2026-04-03T15:21:25Z</time></trkpt><trkpt lat="42.67495053124504" lon="11.81724683569132"><ele>512.3333333333334</ele><time>2026-04-03T15:21:26Z</time></trkpt><trkpt lat="42.67478211481936" lon="11.817185819643884"><ele>513.0</ele><time>2026-04-03T15:21:27Z</time></trkpt><trkpt lat="42.67462239527419" lon="11.817083572922947"><ele>513.0</ele><time>2026-04-03T15:21:28Z</time></trkpt><trkpt lat="42.67444703813392" lon="11.816995680537008"><ele>513.0</ele><time>2026-04-03T15:21:29Z</time></trkpt><trkpt lat="42.674263267219644" lon="11.816903759429342"><ele>513.0</ele><time>2026-04-03T15:21:30Z</time></trkpt><trkpt lat="42.67407611924578" lon="11.816810150103203"><ele>513.6666666666666</ele><time>2026-04-03T15:21:31Z</time></trkpt><trkpt lat="42.67388487402157" lon="11.81671449138045"><ele>514.3333333333333</ele><time>2026-04-03T15:21:32Z</time></trkpt><trkpt lat="42.673690818379896" lon="11.816619509981178"><ele>515.0</ele><time>2026-04-03T15:21:33Z</time></trkpt><trkpt lat="42.673480122582056" lon="11.816575964290172"><ele>515.0</ele><time>2026-04-03T15:21:34Z</time></trkpt><trkpt lat="42.67327308325764" lon="11.816522093471017"><ele>515.0</ele><time>2026-04-03T15:21:35Z</time></trkpt><trkpt lat="42.67305976059365" lon="11.816497142394878"><ele>515.0</ele><time>2026-04-03T15:21:36Z</time></trkpt><trkpt lat="42.67284229941155" lon="11.816502464670634"><ele>515.0</ele><time>2026-04-03T15:21:37Z</time></trkpt><trkpt lat="42.67262180534073" lon="11.81654941235069"><ele>515.0</ele><time>2026-04-03T15:21:38Z</time></trkpt><trkpt lat="42.67239654319349" lon="11.816601906283408"><ele>515.0</ele><time>2026-04-03T15:21:39Z</time></trkpt><trkpt lat="42.67216894218483" lon="11.816645655729321"><ele>515.0</ele><time>2026-04-03T15:21:40Z</time></trkpt><trkpt lat="42.6719422317654" lon="11.816686134818877"><ele>516.0</ele><time>2026-04-03T15:21:41.001Z</time></trkpt><trkpt lat="42.671714776095605" lon="11.816714209018881"><ele>517.0</ele><time>2026-04-03T15:21:42.001Z</time></trkpt><trkpt lat="42.671486918493" lon="11.816747343188434"><ele>517.0</ele><time>2026-04-03T15:21:43.001Z</time></trkpt><trkpt lat="42.6712633308931" lon="11.816785514365183"><ele>517.0</ele><time>2026-04-03T15:21:44.001Z</time></trkpt><trkpt lat="42.67104079382277" lon="11.816823460534543"><ele>518.0</ele><time>2026-04-03T15:21:45.001Z</time></trkpt><trkpt lat="42.67081627559146" lon="11.816855784526107"><ele>519.0</ele><time>2026-04-03T15:21:46.001Z</time></trkpt><trkpt lat="42.670595729924464" lon="11.816883127888374"><ele>520.0</ele><time>2026-04-03T15:21:47.001Z</time></trkpt><trkpt lat="42.67037622604523" lon="11.816914487053795"><ele>519.3333333333334</ele><time>2026-04-03T15:21:48.001Z</time></trkpt><trkpt lat="42.67015878763714" lon="11.81694825485809"><ele>518.6666666666666</ele><time>2026-04-03T15:21:49.001Z</time></trkpt><trkpt lat="42.66994415234658" lon="11.816986462034"><ele>518.0</ele><time>2026-04-03T15:21:50.001Z</time></trkpt><trkpt lat="42.66974394166377" lon="11.817025630563379"><ele>518.0</ele><time>2026-04-03T15:21:51.001Z</time></trkpt><trkpt lat="42.669541661355446" lon="11.817057188136946"><ele>518.0</ele><time>2026-04-03T15:21:52.001Z</time></trkpt><trkpt lat="42.66934219116033" lon="11.817087967256226"><ele>518.0</ele><time>2026-04-03T15:21:53.001Z</time></trkpt><trkpt lat="42.6691366595549" lon="11.817117659208186"><ele>517.3333333333333</ele><time>2026-04-03T15:21:54.001Z</time></trkpt><trkpt lat="42.66893495364168" lon="11.817143361939738"><ele>516.6666666666666</ele><time>2026-04-03T15:21:55.001Z</time></trkpt><trkpt lat="42.668733474020264" lon="11.817151679686976"><ele>516.0</ele><time>2026-04-03T15:21:56.001Z</time></trkpt><trkpt lat="42.66853113642637" lon="11.817123566031647"><ele>516.0</ele><time>2026-04-03T15:21:57.001Z</time></trkpt><trkpt lat="42.66833465128055" lon="11.817067527304959"><ele>516.0</ele><time>2026-04-03T15:21:58.001Z</time></trkpt><trkpt lat="42.66814309774596" lon="11.817001987939548"><ele>516.0</ele><time>2026-04-03T15:21:59.001Z</time></trkpt><trkpt lat="42.667943821436" lon="11.816951107818026"><ele>516.3333333333334</ele><time>2026-04-03T15:22:00.001Z</time></trkpt><trkpt lat="42.6677481415195" lon="11.816924861587447"><ele>516.6666666666667</ele><time>2026-04-03T15:22:01.001Z</time></trkpt><trkpt lat="42.66755218737019" lon="11.816920241639764"><ele>517.0</ele><time>2026-04-03T15:22:02.001Z</time></trkpt><trkpt lat="42.66735647536083" lon="11.816955638096484"><ele>517.0</ele><time>2026-04-03T15:22:03.001Z</time></trkpt><trkpt lat="42.66717288715113" lon="11.81705144116538"><ele>517.0</ele><time>2026-04-03T15:22:04.001Z</time></trkpt><trkpt lat="42.666994025163085" lon="11.817180197567865"><ele>517.0</ele><time>2026-04-03T15:22:05.001Z</time></trkpt><trkpt lat="42.66682611574205" lon="11.817360014571992"><ele>518.3333333333334</ele><time>2026-04-03T15:22:06.001Z</time></trkpt><trkpt lat="42.666649735599414" lon="11.81752069522644"><ele>519.6666666666666</ele><time>2026-04-03T15:22:07.001Z</time></trkpt><trkpt lat="42.66645530521294" lon="11.817530549002527"><ele>521.0</ele><time>2026-04-03T15:22:08.001Z</time></trkpt><trkpt lat="42.66626420289576" lon="11.817635956498522"><ele>522.6666666666666</ele><time>2026-04-03T15:22:09.001Z</time></trkpt><trkpt lat="42.666079009240896" lon="11.817741464961683"><ele>524.3333333333334</ele><time>2026-04-03T15:22:10.001Z</time></trkpt><trkpt lat="42.6658888346096" lon="11.817858212716958"><ele>526.0</ele><time>2026-04-03T15:22:11.001Z</time></trkpt><trkpt lat="42.66570072968647" lon="11.817976626207836"><ele>526.0</ele><time>2026-04-03T15:22:12.001Z</time></trkpt><trkpt lat="42.66551523250356" lon="11.818095356215585"><ele>526.0</ele><time>2026-04-03T15:22:13.001Z</time></trkpt><trkpt lat="42.6653264215237" lon="11.818210474762733"><ele>526.0</ele><time>2026-04-03T15:22:14.001Z</time></trkpt><trkpt lat="42.66513624616248" lon="11.818320412119835"><ele>526.3333333333334</ele><time>2026-04-03T15:22:15.001Z</time></trkpt><trkpt lat="42.664945062033574" lon="11.818432271019747"><ele>526.6666666666666</ele><time>2026-04-03T15:22:16.001Z</time></trkpt><trkpt lat="42.66477737619554" lon="11.81853281326386"><ele>527.0</ele><time>2026-04-03T15:22:17.001Z</time></trkpt><trkpt lat="42.664623451796146" lon="11.818625786262384"><ele>526.3333333333333</ele><time>2026-04-03T15:22:18.001Z</time></trkpt><trkpt lat="42.66448410920438" lon="11.818722749948542"><ele>525.6666666666666</ele><time>2026-04-03T15:22:19.001Z</time></trkpt><trkpt lat="42.66433771810852" lon="11.818812831328323"><ele>525.0</ele><time>2026-04-03T15:22:20.001Z</time></trkpt><trkpt lat="42.66416804412726" lon="11.81889895002797"><ele>523.6666666666666</ele><time>2026-04-03T15:22:21.001Z</time></trkpt><trkpt lat="42.66398674387977" lon="11.818967375698877"><ele>522.3333333333333</ele><time>2026-04-03T15:22:22.001Z</time></trkpt><trkpt lat="42.663798883884745" lon="11.819001597935996"><ele>521.0</ele><time>2026-04-03T15:22:23.001Z</time></trkpt><trkpt lat="42.66360478964467" lon="11.819014373562469"><ele>520.3333333333333</ele><time>2026-04-03T15:22:24.001Z</time></trkpt><trkpt lat="42.663412866328045" lon="11.819029949417189"><ele>519.6666666666666</ele><time>2026-04-03T15:22:25.001Z</time></trkpt><trkpt lat="42.66321931151453" lon="11.819059062018745"><ele>519.0</ele><time>2026-04-03T15:22:26.001Z</time></trkpt><trkpt lat="42.66302103367076" lon="11.819092004465835"><ele>519.0</ele><time>2026-04-03T15:22:27.001Z</time></trkpt><trkpt lat="42.662825636233976" lon="11.819126443996394"><ele>519.0</ele><time>2026-04-03T15:22:28.001Z</time></trkpt><trkpt lat="42.66264533773858" lon="11.819163492568263"><ele>519.0</ele><time>2026-04-03T15:22:29.001Z</time></trkpt><trkpt lat="42.66248113669669" lon="11.819228291326596"><ele>521.3333333333334</ele><time>2026-04-03T15:22:30.001Z</time></trkpt><trkpt lat="42.66232386550989" lon="11.819346268686742"><ele>523.6666666666667</ele><time>2026-04-03T15:22:31.001Z</time></trkpt><trkpt lat="42.66216313519711" lon="11.819491834223554"><ele>526.0</ele><time>2026-04-03T15:22:32.001Z</time></trkpt><trkpt lat="42.66199981827283" lon="11.819649181525898"><ele>527.0</ele><time>2026-04-03T15:22:33.001Z</time></trkpt><trkpt lat="42.66183889842148" lon="11.819812174660914"><ele>528.0</ele><time>2026-04-03T15:22:34.001Z</time></trkpt><trkpt lat="42.66168272383018" lon="11.819975407756822"><ele>529.0</ele><time>2026-04-03T15:22:35.001Z</time></trkpt><trkpt lat="42.66153788616594" lon="11.82012798024058"><ele>529.6666666666667</ele><time>2026-04-03T15:22:36.002Z</time></trkpt><trkpt lat="42.66140781601266" lon="11.820264805613139"><ele>530.3333333333334</ele><time>2026-04-03T15:22:37.002Z</time></trkpt><trkpt lat="42.66126535764772" lon="11.820387015964192"><ele>531.0</ele><time>2026-04-03T15:22:38.002Z</time></trkpt><trkpt lat="42.6611016570345" lon="11.820443104726197"><ele>531.3333333333334</ele><time>2026-04-03T15:22:39.002Z</time></trkpt><trkpt lat="42.66093116807543" lon="11.820461737400855"><ele>531.6666666666667</ele><time>2026-04-03T15:22:40.002Z</time></trkpt><trkpt lat="42.660756480466766" lon="11.820430790929036"><ele>532.0</ele><time>2026-04-03T15:22:41.002Z</time></trkpt><trkpt lat="42.6605802476578" lon="11.82039233111339"><ele>532.0</ele><time>2026-04-03T15:22:42.002Z</time></trkpt><trkpt lat="42.66042235663251" lon="11.820383195908619"><ele>532.0</ele><time>2026-04-03T15:22:43.002Z</time></trkpt><trkpt lat="42.66027553847189" lon="11.820396093112738"><ele>532.0</ele><time>2026-04-03T15:22:44.002Z</time></trkpt><trkpt lat="42.660126515151646" lon="11.82046224361958"><ele>531.6666666666667</ele><time>2026-04-03T15:22:45.002Z</time></trkpt><trkpt lat="42.65998493316696" lon="11.820590657296153"><ele>531.3333333333334</ele><time>2026-04-03T15:22:46.002Z</time></trkpt><trkpt lat="42.65983594682203" lon="11.820708459903498"><ele>531.0</ele><time>2026-04-03T15:22:47.002Z</time></trkpt><trkpt lat="42.65969506586001" lon="11.820806066357443"><ele>531.0</ele><time>2026-04-03T15:22:48.002Z</time></trkpt><trkpt lat="42.65955118488256" lon="11.820869052377503"><ele>531.0</ele><time>2026-04-03T15:22:49.002Z</time></trkpt><trkpt lat="42.659395272035624" lon="11.82091688467278"><ele>531.0</ele><time>2026-04-03T15:22:50.002Z</time></trkpt><trkpt lat="42.65923170881193" lon="11.820956318662638"><ele>530.6666666666666</ele><time>2026-04-03T15:22:51.002Z</time></trkpt><trkpt lat="42.65906889218566" lon="11.820991031787424"><ele>530.3333333333333</ele><time>2026-04-03T15:22:52Z</time></trkpt><trkpt lat="42.65890096500473" lon="11.821032662701649"><ele>530.0</ele><time>2026-04-03T15:22:53Z</time></trkpt><trkpt lat="42.658740387097225" lon="11.821083028767818"><ele>532.3333333333333</ele><time>2026-04-03T15:22:54Z</time></trkpt><trkpt lat="42.658578033343" lon="11.8211633340563"><ele>534.6666666666666</ele><time>2026-04-03T15:22:55Z</time></trkpt><trkpt lat="42.65840470185672" lon="11.821206529259488"><ele>537.0</ele><time>2026-04-03T15:22:56Z</time></trkpt><trkpt lat="42.658237407378316" lon="11.821274908088588"><ele>537.0</ele><time>2026-04-03T15:22:57Z</time></trkpt><trkpt lat="42.65806403997605" lon="11.821345911013374"><ele>537.0</ele><time>2026-04-03T15:22:58Z</time></trkpt><trkpt lat="42.65789796817362" lon="11.821413753583494"><ele>537.0</ele><time>2026-04-03T15:22:59Z</time></trkpt><trkpt lat="42.657737152762934" lon="11.82148181939615"><ele>536.3333333333334</ele><time>2026-04-03T15:23:00Z</time></trkpt><trkpt lat="42.657578180093964" lon="11.821544208432137"><ele>535.6666666666667</ele><time>2026-04-03T15:23:01Z</time></trkpt><trkpt lat="42.657419396671365" lon="11.821604734926291"><ele>535.0</ele><time>2026-04-03T15:23:02Z</time></trkpt><trkpt lat="42.657267129968645" lon="11.82166216035835"><ele>535.0</ele><time>2026-04-03T15:23:03Z</time></trkpt><trkpt lat="42.65711339011895" lon="11.821741810823795"><ele>535.0</ele><time>2026-04-03T15:23:04Z</time></trkpt><trkpt lat="42.65695365681965" lon="11.82180018894071"><ele>535.0</ele><time>2026-04-03T15:23:05Z</time></trkpt><trkpt lat="42.656800359978234" lon="11.821879535328916"><ele>536.6666666666667</ele><time>2026-04-03T15:23:06Z</time></trkpt><trkpt lat="42.65664497050153" lon="11.821973003738641"><ele>538.3333333333334</ele><time>2026-04-03T15:23:07Z</time></trkpt><trkpt lat="42.65649599725219" lon="11.822076087922401"><ele>540.0</ele><time>2026-04-03T15:23:08Z</time></trkpt><trkpt lat="42.65635677341729" lon="11.822169058085246"><ele>540.0</ele><time>2026-04-03T15:23:09Z</time></trkpt><trkpt lat="42.65621763051971" lon="11.822231308225385"><ele>540.0</ele><time>2026-04-03T15:23:10Z</time></trkpt><trkpt lat="42.656078694560954" lon="11.822274453820583"><ele>540.0</ele><time>2026-04-03T15:23:11Z</time></trkpt><trkpt lat="42.655931647753796" lon="11.822256847439457"><ele>540.0</ele><time>2026-04-03T15:23:12Z</time></trkpt><trkpt lat="42.65579241627858" lon="11.822169508449466"><ele>539.3333333333334</ele><time>2026-04-03T15:23:13Z</time></trkpt><trkpt lat="42.65567608128615" lon="11.82202820385497"><ele>538.6666666666667</ele><time>2026-04-03T15:23:14Z</time></trkpt><trkpt lat="42.6555397100554" lon="11.821907419769664"><ele>538.0</ele><time>2026-04-03T15:23:15Z</time></trkpt><trkpt lat="42.655425707715196" lon="11.821784093812512"><ele>539.0</ele><time>2026-04-03T15:23:16Z</time></trkpt><trkpt lat="42.65530788428563" lon="11.82170825113806"><ele>540.0</ele><time>2026-04-03T15:23:17Z</time></trkpt><trkpt lat="42.65517410298499" lon="11.821642794974208"><ele>541.0</ele><time>2026-04-03T15:23:18Z</time></trkpt><trkpt lat="42.65503839441051" lon="11.821586150624391"><ele>542.0</ele><time>2026-04-03T15:23:19Z</time></trkpt><trkpt lat="42.65488919555043" lon="11.821521642230008"><ele>542.0</ele><time>2026-04-03T15:23:20Z</time></trkpt><trkpt lat="42.65473799660976" lon="11.821469326651707"><ele>542.0</ele><time>2026-04-03T15:23:21Z</time></trkpt><trkpt lat="42.65457987031943" lon="11.821443972893661"><ele>542.0</ele><time>2026-04-03T15:23:22Z</time></trkpt><trkpt lat="42.65441428314872" lon="11.821451870505781"><ele>543.6666666666666</ele><time>2026-04-03T15:23:23Z</time></trkpt><trkpt lat="42.65424329788023" lon="11.821470028672728"><ele>545.3333333333334</ele><time>2026-04-03T15:23:24Z</time></trkpt><trkpt lat="42.65406968270518" lon="11.821477205076707"><ele>547.0</ele><time>2026-04-03T15:23:25Z</time></trkpt><trkpt lat="42.653891022019046" lon="11.821519647338611"><ele>547.0</ele><time>2026-04-03T15:23:26Z</time></trkpt><trkpt lat="42.653708425364336" lon="11.821558772589983"><ele>547.0</ele><time>2026-04-03T15:23:27Z</time></trkpt><trkpt lat="42.653529846567345" lon="11.821565735623711"><ele>547.0</ele><time>2026-04-03T15:23:28Z</time></trkpt><trkpt lat="42.65335885171268" lon="11.821534294240045"><ele>548.3333333333334</ele><time>2026-04-03T15:23:29Z</time></trkpt><trkpt lat="42.6532056525856" lon="11.821545352117681"><ele>549.6666666666666</ele><time>2026-04-03T15:23:30Z</time></trkpt><trkpt lat="42.65305263308954" lon="11.821551283184322"><ele>551.0</ele><time>2026-04-03T15:23:31.001Z</time></trkpt><trkpt lat="42.65290417277081" lon="11.82162138627058"><ele>549.3333333333333</ele><time>2026-04-03T15:23:32.001Z</time></trkpt><trkpt lat="42.65274962621438" lon="11.821721287696386"><ele>547.6666666666666</ele><time>2026-04-03T15:23:33.001Z</time></trkpt><trkpt lat="42.65260966091976" lon="11.821842122882478"><ele>546.0</ele><time>2026-04-03T15:23:34.001Z</time></trkpt><trkpt lat="42.652469263717755" lon="11.821979414164037"><ele>550.0</ele><time>2026-04-03T15:23:35.001Z</time></trkpt><trkpt lat="42.6523354841333" lon="11.822119506266748"><ele>554.0</ele><time>2026-04-03T15:23:36.001Z</time></trkpt><trkpt lat="42.65219947828824" lon="11.822253649198236"><ele>558.0</ele><time>2026-04-03T15:23:37.001Z</time></trkpt><trkpt lat="42.65204340936872" lon="11.822331075133391"><ele>555.6666666666666</ele><time>2026-04-03T15:23:38.001Z</time></trkpt><trkpt lat="42.65188525605035" lon="11.8224012601305"><ele>553.3333333333333</ele><time>2026-04-03T15:23:39.001Z</time></trkpt><trkpt lat="42.651717399041665" lon="11.822463145990806"><ele>551.0</ele><time>2026-04-03T15:23:40.001Z</time></trkpt><trkpt lat="42.651559932366325" lon="11.822521393479274"><ele>551.0</ele><time>2026-04-03T15:23:41.001Z</time></trkpt><trkpt lat="42.651415152176135" lon="11.822595407177397"><ele>551.0</ele><time>2026-04-03T15:23:42.001Z</time></trkpt><trkpt lat="42.65126487406927" lon="11.822664951781075"><ele>551.0</ele><time>2026-04-03T15:23:43.001Z</time></trkpt><trkpt lat="42.65112035421277" lon="11.822763682524219"><ele>553.3333333333333</ele><time>2026-04-03T15:23:44.001Z</time></trkpt><trkpt lat="42.650982936528436" lon="11.822882511738047"><ele>555.6666666666666</ele><time>2026-04-03T15:23:45.001Z</time></trkpt><trkpt lat="42.65083478242369" lon="11.822998925312369"><ele>558.0</ele><time>2026-04-03T15:23:46.001Z</time></trkpt><trkpt lat="42.65069323673352" lon="11.82312067288741"><ele>558.0</ele><time>2026-04-03T15:23:47.001Z</time></trkpt><trkpt lat="42.650544009155844" lon="11.823201887783588"><ele>558.0</ele><time>2026-04-03T15:23:48.001Z</time></trkpt><trkpt lat="42.65037645165093" lon="11.823238225707128"><ele>558.0</ele><time>2026-04-03T15:23:49.001Z</time></trkpt><trkpt lat="42.65020341764663" lon="11.823296096004121"><ele>557.0</ele><time>2026-04-03T15:23:50.001Z</time></trkpt><trkpt lat="42.65004361165467" lon="11.823396062584642"><ele>556.0</ele><time>2026-04-03T15:23:51.001Z</time></trkpt><trkpt lat="42.649878927302765" lon="11.82349770404772"><ele>555.0</ele><time>2026-04-03T15:23:52.001Z</time></trkpt><trkpt lat="42.64971557653975" lon="11.82361018369484"><ele>559.0</ele><time>2026-04-03T15:23:53.001Z</time></trkpt><trkpt lat="42.649551616138694" lon="11.82368968515806"><ele>563.0</ele><time>2026-04-03T15:23:54.001Z</time></trkpt><trkpt lat="42.64939199128159" lon="11.823747182926004"><ele>567.0</ele><time>2026-04-03T15:23:55.001Z</time></trkpt><trkpt lat="42.649235351031535" lon="11.823771326550178"><ele>567.0</ele><time>2026-04-03T15:23:56.001Z</time></trkpt><trkpt lat="42.6490723613472" lon="11.823781456902381"><ele>567.0</ele><time>2026-04-03T15:23:57.001Z</time></trkpt><trkpt lat="42.648908581227964" lon="11.82380900071203"><ele>567.0</ele><time>2026-04-03T15:23:58.001Z</time></trkpt><trkpt lat="42.648744079334946" lon="11.823808896636178"><ele>566.25</ele><time>2026-04-03T15:23:59.001Z</time></trkpt><trkpt lat="42.64858673421316" lon="11.823819433548149"><ele>565.5</ele><time>2026-04-03T15:24:00.001Z</time></trkpt><trkpt lat="42.64844116858918" lon="11.823830124584783"><ele>564.75</ele><time>2026-04-03T15:24:01.001Z</time></trkpt><trkpt lat="42.648311942435626" lon="11.823853874208869"><ele>564.0</ele><time>2026-04-03T15:24:02.001Z</time></trkpt><trkpt lat="42.64818312832755" lon="11.82388940326871"><ele>564.0</ele><time>2026-04-03T15:24:03.001Z</time></trkpt><trkpt lat="42.6480622053305" lon="11.823958103245921"><ele>564.0</ele><time>2026-04-03T15:24:04.001Z</time></trkpt><trkpt lat="42.64794703827538" lon="11.824075688920734"><ele>564.0</ele><time>2026-04-03T15:24:05.001Z</time></trkpt><trkpt lat="42.64783939714414" lon="11.824221121676173"><ele>564.0</ele><time>2026-04-03T15:24:06.001Z</time></trkpt><trkpt lat="42.64773571803037" lon="11.824379074674223"><ele>560.0</ele><time>2026-04-03T15:24:07.001Z</time></trkpt><trkpt lat="42.64761936472332" lon="11.824544118058009"><ele>556.0</ele><time>2026-04-03T15:24:08.001Z</time></trkpt><trkpt lat="42.64750914772353" lon="11.824714468900543"><ele>552.0</ele><time>2026-04-03T15:24:09.001Z</time></trkpt><trkpt lat="42.64739386074987" lon="11.824885035217115"><ele>552.0</ele><time>2026-04-03T15:24:10.001Z</time></trkpt><trkpt lat="42.64727776568407" lon="11.82504770744119"><ele>552.0</ele><time>2026-04-03T15:24:11.001Z</time></trkpt><trkpt lat="42.64716991101718" lon="11.825173454723895"><ele>552.0</ele><time>2026-04-03T15:24:12.001Z</time></trkpt><trkpt lat="42.64705719574232" lon="11.825282466468819"><ele>552.0</ele><time>2026-04-03T15:24:13.001Z</time></trkpt><trkpt lat="42.6469365976954" lon="11.82538137192226"><ele>553.0</ele><time>2026-04-03T15:24:14.001Z</time></trkpt><trkpt lat="42.646797379162074" lon="11.825449956009532"><ele>554.0</ele><time>2026-04-03T15:24:15.001Z</time></trkpt><trkpt lat="42.64664552798545" lon="11.825463503386818"><ele>555.0</ele><time>2026-04-03T15:24:16.001Z</time></trkpt><trkpt lat="42.64649053716764" lon="11.825482354132653"><ele>555.0</ele><time>2026-04-03T15:24:17.001Z</time></trkpt><trkpt lat="42.646327950647034" lon="11.825512406421613"><ele>555.0</ele><time>2026-04-03T15:24:18.001Z</time></trkpt><trkpt lat="42.64615491716078" lon="11.82551996783079"><ele>555.0</ele><time>2026-04-03T15:24:19.001Z</time></trkpt><trkpt lat="42.64597328296265" lon="11.825529756282556"><ele>556.6666666666666</ele><time>2026-04-03T15:24:20.001Z</time></trkpt><trkpt lat="42.645789249117634" lon="11.825539749574201"><ele>558.3333333333333</ele><time>2026-04-03T15:24:21.001Z</time></trkpt><trkpt lat="42.64560152617505" lon="11.825550644546208"><ele>560.0</ele><time>2026-04-03T15:24:22.001Z</time></trkpt><trkpt lat="42.64541219262283" lon="11.825566838650243"><ele>561.0</ele><time>2026-04-03T15:24:23.001Z</time></trkpt><trkpt lat="42.6452263354148" lon="11.82558881646987"><ele>562.0</ele><time>2026-04-03T15:24:24.001Z</time></trkpt><trkpt lat="42.64504044898084" lon="11.825608740829464"><ele>563.0</ele><time>2026-04-03T15:24:25.001Z</time></trkpt><trkpt lat="42.64485906927061" lon="11.825625702342386"><ele>563.0</ele><time>2026-04-03T15:24:26.002Z</time></trkpt><trkpt lat="42.644678972209164" lon="11.825630777322662"><ele>563.0</ele><time>2026-04-03T15:24:27.002Z</time></trkpt><trkpt lat="42.644498535490406" lon="11.825592451054165"><ele>563.0</ele><time>2026-04-03T15:24:28.002Z</time></trkpt><trkpt lat="42.644324708379045" lon="11.825562692042402"><ele>564.25</ele><time>2026-04-03T15:24:29.002Z</time></trkpt><trkpt lat="42.64416049460869" lon="11.825548721496153"><ele>565.5</ele><time>2026-04-03T15:24:30.002Z</time></trkpt><trkpt lat="42.64401518437296" lon="11.825520178149828"><ele>566.75</ele><time>2026-04-03T15:24:31.002Z</time></trkpt><trkpt lat="42.64388067634751" lon="11.825527497212194"><ele>568.0</ele><time>2026-04-03T15:24:32.002Z</time></trkpt><trkpt lat="42.64374959753253" lon="11.825545041407905"><ele>568.0</ele><time>2026-04-03T15:24:33.002Z</time></trkpt><trkpt lat="42.64364238096328" lon="11.825646230162517"><ele>568.0</ele><time>2026-04-03T15:24:34.002Z</time></trkpt><trkpt lat="42.64358885523806" lon="11.825790160038713"><ele>568.0</ele><time>2026-04-03T15:24:35.002Z</time></trkpt><trkpt lat="42.64360767788352" lon="11.825945743184016"><ele>568.0</ele><time>2026-04-03T15:24:36.002Z</time></trkpt><trkpt lat="42.64369908585789" lon="11.826058535389905"><ele>572.0</ele><time>2026-04-03T15:24:37.002Z</time></trkpt><trkpt lat="42.6438037652059" lon="11.826135209496234"><ele>576.0</ele><time>2026-04-03T15:24:38.002Z</time></trkpt><trkpt lat="42.64392687204293" lon="11.826163762603668"><ele>580.0</ele><time>2026-04-03T15:24:39.002Z</time></trkpt><trkpt lat="42.64404940236882" lon="11.826171701689137"><ele>584.0</ele><time>2026-04-03T15:24:40.002Z</time></trkpt><trkpt lat="42.64417413730819" lon="11.826192799760248"><ele>584.0</ele><time>2026-04-03T15:24:41.002Z</time></trkpt><trkpt lat="42.644291368943406" lon="11.826247998182593"><ele>584.0</ele><time>2026-04-03T15:24:42.002Z</time></trkpt><trkpt lat="42.644395167457986" lon="11.826330815618366"><ele>584.0</ele><time>2026-04-03T15:24:43.002Z</time></trkpt><trkpt lat="42.644490164539796" lon="11.826437149310596"><ele>584.0</ele><time>2026-04-03T15:24:44.002Z</time></trkpt><trkpt lat="42.64456802405777" lon="11.826562638700352"><ele>582.0</ele><time>2026-04-03T15:24:45.002Z</time></trkpt><trkpt lat="42.64464729780775" lon="11.82670508633399"><ele>580.0</ele><time>2026-04-03T15:24:46.002Z</time></trkpt><trkpt lat="42.64473172840394" lon="11.826852075449347"><ele>578.0</ele><time>2026-04-03T15:24:47.002Z</time></trkpt><trkpt lat="42.644808895890606" lon="11.82699508315635"><ele>576.0</ele><time>2026-04-03T15:24:48.002Z</time></trkpt><trkpt lat="42.64487188101679" lon="11.827127192831727"><ele>576.0</ele><time>2026-04-03T15:24:49.002Z</time></trkpt><trkpt lat="42.64491554540128" lon="11.827265889559268"><ele>576.0</ele><time>2026-04-03T15:24:50.002Z</time></trkpt><trkpt lat="42.644970178969714" lon="11.827409525196648"><ele>576.0</ele><time>2026-04-03T15:24:51.002Z</time></trkpt><trkpt lat="42.64498846968262" lon="11.82756490112537"><ele>576.0</ele><time>2026-04-03T15:24:52.002Z</time></trkpt><trkpt lat="42.64498100465517" lon="11.827717668117481"><ele>576.2</ele><time>2026-04-03T15:24:53.002Z</time></trkpt><trkpt lat="42.644945483254396" lon="11.827864211971724"><ele>576.4000000000001</ele><time>2026-04-03T15:24:54.002Z</time></trkpt><trkpt lat="42.64488161130071" lon="11.827984496318246"><ele>576.6</ele><time>2026-04-03T15:24:55.002Z</time></trkpt><trkpt lat="42.64480835422181" lon="11.828059116712973"><ele>576.8000000000001</ele><time>2026-04-03T15:24:56.002Z</time></trkpt><trkpt lat="42.644731141916886" lon="11.828090172584245"><ele>577.0</ele><time>2026-04-03T15:24:57.002Z</time></trkpt><trkpt lat="42.6446417037313" lon="11.82809837503605"><ele>577.0</ele><time>2026-04-03T15:24:58Z</time></trkpt><trkpt lat="42.64454249853245" lon="11.828080472391548"><ele>577.0</ele><time>2026-04-03T15:24:59Z</time></trkpt><trkpt lat="42.644441760407204" lon="11.828029575386246"><ele>577.0</ele><time>2026-04-03T15:25:00Z</time></trkpt><trkpt lat="42.64434098180358" lon="11.827955196879744"><ele>577.0</ele><time>2026-04-03T15:25:01Z</time></trkpt><trkpt lat="42.644226163653684" lon="11.827870635752575"><ele>578.0</ele><time>2026-04-03T15:25:02Z</time></trkpt><trkpt lat="42.64410299530855" lon="11.827780248120767"><ele>579.0</ele><time>2026-04-03T15:25:03Z</time></trkpt><trkpt lat="42.64397391476094" lon="11.827685419819595"><ele>580.0</ele><time>2026-04-03T15:25:04Z</time></trkpt><trkpt lat="42.64383946313534" lon="11.827586351516748"><ele>581.0</ele><time>2026-04-03T15:25:05Z</time></trkpt><trkpt lat="42.64370530692709" lon="11.827487434169266"><ele>581.3333333333333</ele><time>2026-04-03T15:25:06Z</time></trkpt><trkpt lat="42.64356246261657" lon="11.827383232178713"><ele>581.6666666666666</ele><time>2026-04-03T15:25:07Z</time></trkpt><trkpt lat="42.643414319454905" lon="11.827275966911051"><ele>582.0</ele><time>2026-04-03T15:25:08Z</time></trkpt><trkpt lat="42.643260318667714" lon="11.827164435564548"><ele>582.0</ele><time>2026-04-03T15:25:09Z</time></trkpt><trkpt lat="42.64309831987871" lon="11.827046553632846"><ele>582.0</ele><time>2026-04-03T15:25:10Z</time></trkpt><trkpt lat="42.64292634791703" lon="11.826922295799838"><ele>582.0</ele><time>2026-04-03T15:25:11Z</time></trkpt><trkpt lat="42.642739692678376" lon="11.826787467205806"><ele>584.0</ele><time>2026-04-03T15:25:12Z</time></trkpt><trkpt lat="42.64254776297368" lon="11.826648198243886"><ele>586.0</ele><time>2026-04-03T15:25:13Z</time></trkpt><trkpt lat="42.64234898138935" lon="11.826503231550495"><ele>588.0</ele><time>2026-04-03T15:25:14Z</time></trkpt><trkpt lat="42.642167024629124" lon="11.82636790346638"><ele>588.0</ele><time>2026-04-03T15:25:15Z</time></trkpt><trkpt lat="42.6419976291764" lon="11.82624591263508"><ele>588.0</ele><time>2026-04-03T15:25:16Z</time></trkpt><trkpt lat="42.64182845929189" lon="11.826123578248627"><ele>588.0</ele><time>2026-04-03T15:25:17Z</time></trkpt><trkpt lat="42.64165275895224" lon="11.826023460007189"><ele>589.3333333333334</ele><time>2026-04-03T15:25:18Z</time></trkpt><trkpt lat="42.6415040909578" lon="11.825906201108491"><ele>590.6666666666667</ele><time>2026-04-03T15:25:19Z</time></trkpt><trkpt lat="42.64136828824094" lon="11.82578958430654"><ele>592.0</ele><time>2026-04-03T15:25:20Z</time></trkpt><trkpt lat="42.64124211118871" lon="11.825696744060647"><ele>593.5</ele><time>2026-04-03T15:25:21Z</time></trkpt><trkpt lat="42.64110819185119" lon="11.825633218687313"><ele>595.0</ele><time>2026-04-03T15:25:22Z</time></trkpt><trkpt lat="42.640977054539476" lon="11.8255661219755"><ele>596.5</ele><time>2026-04-03T15:25:23Z</time></trkpt><trkpt lat="42.64083819737418" lon="11.82553018277715"><ele>598.0</ele><time>2026-04-03T15:25:24Z</time></trkpt><trkpt lat="42.64069610735984" lon="11.82553313235482"><ele>598.0</ele><time>2026-04-03T15:25:25Z</time></trkpt><trkpt lat="42.64056810331531" lon="11.825555433968832"><ele>598.0</ele><time>2026-04-03T15:25:26Z</time></trkpt><trkpt lat="42.640449605277944" lon="11.82558349056389"><ele>598.0</ele><time>2026-04-03T15:25:27Z</time></trkpt><trkpt lat="42.640347027435666" lon="11.825623341941185"><ele>598.0</ele><time>2026-04-03T15:25:28Z</time></trkpt><trkpt lat="42.64027867211848" lon="11.825694618704542"><ele>598.0</ele><time>2026-04-03T15:25:29Z</time></trkpt><trkpt lat="42.64024219875381" lon="11.825805330762535"><ele>599.0</ele><time>2026-04-03T15:25:30.001Z</time></trkpt><trkpt lat="42.640244490123955" lon="11.825939238534831"><ele>600.0</ele><time>2026-04-03T15:25:31.001Z</time></trkpt><trkpt lat="42.64028278856197" lon="11.826070108123837"><ele>601.0</ele><time>2026-04-03T15:25:32.001Z</time></trkpt><trkpt lat="42.64036817133008" lon="11.826190885849876"><ele>602.0</ele><time>2026-04-03T15:25:33.001Z</time></trkpt><trkpt lat="42.640490353153034" lon="11.826309963783965"><ele>602.0</ele><time>2026-04-03T15:25:34.001Z</time></trkpt><trkpt lat="42.64062004332343" lon="11.82646143720889"><ele>602.0</ele><time>2026-04-03T15:25:35.001Z</time></trkpt><trkpt lat="42.640750752132234" lon="11.82660838511406"><ele>602.0</ele><time>2026-04-03T15:25:36.001Z</time></trkpt><trkpt lat="42.64085966121648" lon="11.82674611819703"><ele>601.6</ele><time>2026-04-03T15:25:37.001Z</time></trkpt><trkpt lat="42.64093130607645" lon="11.826883290034"><ele>601.2</ele><time>2026-04-03T15:25:38.001Z</time></trkpt><trkpt lat="42.64095131779715" lon="11.827022731909286"><ele>600.8</ele><time>2026-04-03T15:25:39.001Z</time></trkpt><trkpt lat="42.64093285302187" lon="11.827144456119846"><ele>600.4</ele><time>2026-04-03T15:25:40.001Z</time></trkpt><trkpt lat="42.64084485921618" lon="11.827230669295833"><ele>600.0</ele><time>2026-04-03T15:25:41.001Z</time></trkpt><trkpt lat="42.640716905845345" lon="11.827227939643995"><ele>600.0</ele><time>2026-04-03T15:25:42.001Z</time></trkpt><trkpt lat="42.64057638025214" lon="11.827224366605401"><ele>600.0</ele><time>2026-04-03T15:25:43.001Z</time></trkpt><trkpt lat="42.64042735761636" lon="11.827198385860651"><ele>600.0</ele><time>2026-04-03T15:25:44.001Z</time></trkpt><trkpt lat="42.64026899007204" lon="11.827151982091925"><ele>599.0</ele><time>2026-04-03T15:25:45.001Z</time></trkpt><trkpt lat="42.640103198349465" lon="11.82709851833225"><ele>598.0</ele><time>2026-04-03T15:25:46.001Z</time></trkpt><trkpt lat="42.639933377940004" lon="11.827044890827315"><ele>597.0</ele><time>2026-04-03T15:25:47.001Z</time></trkpt><trkpt lat="42.639758635639375" lon="11.827002672915894"><ele>597.0</ele><time>2026-04-03T15:25:48.001Z</time></trkpt><trkpt lat="42.639577165520365" lon="11.827007855227702"><ele>597.0</ele><time>2026-04-03T15:25:49.001Z</time></trkpt><trkpt lat="42.63940649732626" lon="11.827036178850673"><ele>597.0</ele><time>2026-04-03T15:25:50.001Z</time></trkpt><trkpt lat="42.63924737100719" lon="11.827055537299644"><ele>595.6666666666666</ele><time>2026-04-03T15:25:51.001Z</time></trkpt><trkpt lat="42.63908975981618" lon="11.827048526950884"><ele>594.3333333333333</ele><time>2026-04-03T15:25:52.001Z</time></trkpt><trkpt lat="42.63892186265246" lon="11.827010322863748"><ele>593.0</ele><time>2026-04-03T15:25:53.001Z</time></trkpt><trkpt lat="42.638744048383174" lon="11.826955085313921"><ele>592.6666666666666</ele><time>2026-04-03T15:25:54.001Z</time></trkpt><trkpt lat="42.63855761464561" lon="11.826888944171358"><ele>592.3333333333334</ele><time>2026-04-03T15:25:55.001Z</time></trkpt><trkpt lat="42.63837039047613" lon="11.826828755307481"><ele>592.0</ele><time>2026-04-03T15:25:56.001Z</time></trkpt><trkpt lat="42.638169459259366" lon="11.8268008680324"><ele>596.3333333333334</ele><time>2026-04-03T15:25:57.001Z</time></trkpt><trkpt lat="42.63798611390698" lon="11.826769611988414"><ele>600.6666666666666</ele><time>2026-04-03T15:25:58.001Z</time></trkpt><trkpt lat="42.63781122679568" lon="11.826740895467577"><ele>605.0</ele><time>2026-04-03T15:25:59.001Z</time></trkpt><trkpt lat="42.63764576562147" lon="11.826740747534005"><ele>605.0</ele><time>2026-04-03T15:26:00.001Z</time></trkpt><trkpt lat="42.63749410848854" lon="11.826780227900445"><ele>605.0</ele><time>2026-04-03T15:26:01.001Z</time></trkpt><trkpt lat="42.63734787545155" lon="11.82683589322668"><ele>605.0</ele><time>2026-04-03T15:26:02.001Z</time></trkpt><trkpt lat="42.63722588356224" lon="11.826931385952"><ele>605.0</ele><time>2026-04-03T15:26:03.001Z</time></trkpt><trkpt lat="42.63713044511513" lon="11.827053210586175"><ele>602.8</ele><time>2026-04-03T15:26:04.001Z</time></trkpt><trkpt lat="42.63706235047134" lon="11.827172735778921"><ele>600.6</ele><time>2026-04-03T15:26:05.001Z</time></trkpt><trkpt lat="42.636997284969034" lon="11.827249799804758"><ele>598.4</ele><time>2026-04-03T15:26:06.001Z</time></trkpt><trkpt lat="42.63692721164858" lon="11.827311321528363"><ele>596.2</ele><time>2026-04-03T15:26:07.001Z</time></trkpt><trkpt lat="42.636883375934325" lon="11.827490390328052"><ele>594.0</ele><time>2026-04-03T15:26:08.001Z</time></trkpt><trkpt lat="42.6368241740865" lon="11.827652044420615"><ele>594.0</ele><time>2026-04-03T15:26:09.001Z</time></trkpt><trkpt lat="42.63673858028501" lon="11.827817433701798"><ele>594.0</ele><time>2026-04-03T15:26:10.001Z</time></trkpt><trkpt lat="42.63664745096935" lon="11.827998302280973"><ele>594.0</ele><time>2026-04-03T15:26:11.001Z</time></trkpt><trkpt lat="42.63654815256351" lon="11.828191640546871"><ele>594.0</ele><time>2026-04-03T15:26:12.001Z</time></trkpt><trkpt lat="42.63644598727823" lon="11.828398655086746"><ele>594.0</ele><time>2026-04-03T15:26:13.001Z</time></trkpt><trkpt lat="42.63633631306965" lon="11.828618025797569"><ele>594.0</ele><time>2026-04-03T15:26:14.001Z</time></trkpt><trkpt lat="42.63620553952804" lon="11.828832797064091"><ele>592.3333333333334</ele><time>2026-04-03T15:26:15.001Z</time></trkpt><trkpt lat="42.63608545715478" lon="11.829065638886545"><ele>590.6666666666667</ele><time>2026-04-03T15:26:16.001Z</time></trkpt><trkpt lat="42.63597299152829" lon="11.829321031181959"><ele>589.0</ele><time>2026-04-03T15:26:17.001Z</time></trkpt><trkpt lat="42.63584197212179" lon="11.829561623250198"><ele>589.0</ele><time>2026-04-03T15:26:18.001Z</time></trkpt><trkpt lat="42.63571562153963" lon="11.829805563688597"><ele>589.0</ele><time>2026-04-03T15:26:19.001Z</time></trkpt><trkpt lat="42.63558554273048" lon="11.830058954843873"><ele>589.0</ele><time>2026-04-03T15:26:20.001Z</time></trkpt><trkpt lat="42.635451918826426" lon="11.830312540854006"><ele>587.5</ele><time>2026-04-03T15:26:21.001Z</time></trkpt><trkpt lat="42.6353142381503" lon="11.830569753880564"><ele>586.0</ele><time>2026-04-03T15:26:22.001Z</time></trkpt><trkpt lat="42.635185078176555" lon="11.830807725018152"><ele>588.0</ele><time>2026-04-03T15:26:23.001Z</time></trkpt><trkpt lat="42.63506927044581" lon="11.831027594639751"><ele>590.0</ele><time>2026-04-03T15:26:24.001Z</time></trkpt><trkpt lat="42.63496012504228" lon="11.831236963794916"><ele>592.0</ele><time>2026-04-03T15:26:25.001Z</time></trkpt><trkpt lat="42.63485445278947" lon="11.831449300353492"><ele>592.0</ele><time>2026-04-03T15:26:26.001Z</time></trkpt><trkpt lat="42.63476004571874" lon="11.83165620569211"><ele>592.0</ele><time>2026-04-03T15:26:27.001Z</time></trkpt><trkpt lat="42.634684277628615" lon="11.831854445341557"><ele>592.0</ele><time>2026-04-03T15:26:28.002Z</time></trkpt><trkpt lat="42.634617908869515" lon="11.832052258316894"><ele>591.75</ele><time>2026-04-03T15:26:29.002Z</time></trkpt><trkpt lat="42.63455417969281" lon="11.832237597776519"><ele>591.5</ele><time>2026-04-03T15:26:30.002Z</time></trkpt><trkpt lat="42.634470200477146" lon="11.832389126380564"><ele>591.25</ele><time>2026-04-03T15:26:31.002Z</time></trkpt><trkpt lat="42.63434078740977" lon="11.832467423633933"><ele>591.0</ele><time>2026-04-03T15:26:32.002Z</time></trkpt><trkpt lat="42.63421567686075" lon="11.832565841554148"><ele>592.6666666666666</ele><time>2026-04-03T15:26:33.002Z</time></trkpt><trkpt lat="42.63408396599993" lon="11.832675323604539"><ele>594.3333333333333</ele><time>2026-04-03T15:26:34.002Z</time></trkpt><trkpt lat="42.633935863319486" lon="11.83276552988594"><ele>596.0</ele><time>2026-04-03T15:26:35.002Z</time></trkpt><trkpt lat="42.633787147353566" lon="11.832863008329062"><ele>596.0</ele><time>2026-04-03T15:26:36.002Z</time></trkpt><trkpt lat="42.633638839712276" lon="11.832970878848942"><ele>596.0</ele><time>2026-04-03T15:26:37.002Z</time></trkpt><trkpt lat="42.63349535664619" lon="11.833093069896366"><ele>596.0</ele><time>2026-04-03T15:26:38.002Z</time></trkpt><trkpt lat="42.63335892107127" lon="11.833227599874203"><ele>596.5</ele><time>2026-04-03T15:26:39.002Z</time></trkpt><trkpt lat="42.63323745191924" lon="11.833355434805759"><ele>597.0</ele><time>2026-04-03T15:26:40.002Z</time></trkpt><trkpt lat="42.63313072217234" lon="11.83347707119149"><ele>597.5</ele><time>2026-04-03T15:26:41.002Z</time></trkpt><trkpt lat="42.633031020744525" lon="11.833595854076533"><ele>598.0</ele><time>2026-04-03T15:26:42.002Z</time></trkpt><trkpt lat="42.63294047166731" lon="11.83371111106978"><ele>598.6</ele><time>2026-04-03T15:26:43.002Z</time></trkpt><trkpt lat="42.63286321767949" lon="11.833828500354914"><ele>599.1999999999999</ele><time>2026-04-03T15:26:44.002Z</time></trkpt><trkpt lat="42.63279147598785" lon="11.833947700258456"><ele>599.8</ele><time>2026-04-03T15:26:45.002Z</time></trkpt><trkpt lat="42.63272854656384" lon="11.834060886442293"><ele>600.4</ele><time>2026-04-03T15:26:46.002Z</time></trkpt><trkpt lat="42.632668160941925" lon="11.834164230136098"><ele>601.0</ele><time>2026-04-03T15:26:47.002Z</time></trkpt><trkpt lat="42.6326107586247" lon="11.834254034838581"><ele>599.6666666666667</ele><time>2026-04-03T15:26:48.002Z</time></trkpt><trkpt lat="42.632554142528576" lon="11.834342349746594"><ele>598.3333333333334</ele><time>2026-04-03T15:26:49.002Z</time></trkpt><trkpt lat="42.632499564339064" lon="11.834423612933339"><ele>597.0</ele><time>2026-04-03T15:26:50.002Z</time></trkpt><trkpt lat="42.63243687455273" lon="11.834504704695123"><ele>595.6666666666666</ele><time>2026-04-03T15:26:51.002Z</time></trkpt><trkpt lat="42.632362868550764" lon="11.83458421117133"><ele>594.3333333333333</ele><time>2026-04-03T15:26:52.002Z</time></trkpt><trkpt lat="42.63228445557706" lon="11.834644588905693"><ele>593.0</ele><time>2026-04-03T15:26:53.002Z</time></trkpt><trkpt lat="42.632209320302415" lon="11.834666109219569"><ele>593.0</ele><time>2026-04-03T15:26:54.002Z</time></trkpt><trkpt lat="42.63214301070818" lon="11.834633967326287"><ele>593.0</ele><time>2026-04-03T15:26:55.002Z</time></trkpt><trkpt lat="42.632076275110975" lon="11.83443691322616"><ele>593.0</ele><time>2026-04-03T15:26:57.002Z</time></trkpt><trkpt lat="42.63205277298472" lon="11.834316511060859"><ele>593.0</ele><time>2026-04-03T15:26:58.002Z</time></trkpt><trkpt lat="42.63202775617337" lon="11.834183858184694"><ele>593.0</ele><time>2026-04-03T15:26:59.002Z</time></trkpt><trkpt lat="42.63202716498568" lon="11.834033130233655"><ele>593.5</ele><time>2026-04-03T15:27:00.002Z</time></trkpt><trkpt lat="42.63206023136351" lon="11.833863531294902"><ele>594.0</ele><time>2026-04-03T15:27:01.002Z</time></trkpt><trkpt lat="42.63211006953021" lon="11.833689904904057"><ele>594.5</ele><time>2026-04-03T15:27:02.002Z</time></trkpt><trkpt lat="42.63216149679802" lon="11.83352762153214"><ele>595.0</ele><time>2026-04-03T15:27:03.002Z</time></trkpt><trkpt lat="42.63221318753683" lon="11.833378540854076"><ele>593.5</ele><time>2026-04-03T15:27:03.999Z</time></trkpt><trkpt lat="42.63226804413165" lon="11.833239969673322"><ele>592.0</ele><time>2026-04-03T15:27:04.999Z</time></trkpt><trkpt lat="42.63234900326193" lon="11.833114044612214"><ele>590.5</ele><time>2026-04-03T15:27:05.999Z</time></trkpt><trkpt lat="42.6324532438375" lon="11.832990667691414"><ele>589.0</ele><time>2026-04-03T15:27:06.999Z</time></trkpt><trkpt lat="42.6325723597194" lon="11.832888464983078"><ele>589.0</ele><time>2026-04-03T15:27:07.999Z</time></trkpt><trkpt lat="42.632717197087686" lon="11.832803196337586"><ele>589.0</ele><time>2026-04-03T15:27:08.999Z</time></trkpt><trkpt lat="42.63284498900703" lon="11.832722596361112"><ele>589.0</ele><time>2026-04-03T15:27:09.999Z</time></trkpt><trkpt lat="42.63297724347457" lon="11.8326440796302"><ele>589.0</ele><time>2026-04-03T15:27:10.999Z</time></trkpt><trkpt lat="42.6331031912092" lon="11.832527903405275"><ele>586.6666666666667</ele><time>2026-04-03T15:27:11.999Z</time></trkpt><trkpt lat="42.63321268024339" lon="11.83237272514052"><ele>584.3333333333334</ele><time>2026-04-03T15:27:12.999Z</time></trkpt><trkpt lat="42.633313865778064" lon="11.832214094341074"><ele>582.0</ele><time>2026-04-03T15:27:13.999Z</time></trkpt><trkpt lat="42.63342268398827" lon="11.832085933344151"><ele>582.0</ele><time>2026-04-03T15:27:14.999Z</time></trkpt><trkpt lat="42.63354919048253" lon="11.832003379759064"><ele>582.0</ele><time>2026-04-03T15:27:15.999Z</time></trkpt><trkpt lat="42.63367203802098" lon="11.831936807817467"><ele>582.0</ele><time>2026-04-03T15:27:16.999Z</time></trkpt><trkpt lat="42.63377224506641" lon="11.831839378715106"><ele>582.0</ele><time>2026-04-03T15:27:17.999Z</time></trkpt><trkpt lat="42.633828554357734" lon="11.831684120654906"><ele>582.0</ele><time>2026-04-03T15:27:18.999Z</time></trkpt><trkpt lat="42.633835407115676" lon="11.831497934702858"><ele>582.0</ele><time>2026-04-03T15:27:19.999Z</time></trkpt><trkpt lat="42.63380322923339" lon="11.8313160196929"><ele>582.0</ele><time>2026-04-03T15:27:20.999Z</time></trkpt><trkpt lat="42.63377754395276" lon="11.831134064294066"><ele>582.0</ele><time>2026-04-03T15:27:21.999Z</time></trkpt><trkpt lat="42.63378231139996" lon="11.830954003000521"><ele>578.3333333333334</ele><time>2026-04-03T15:27:22.999Z</time></trkpt><trkpt lat="42.633840869004125" lon="11.830779332272929"><ele>574.6666666666667</ele><time>2026-04-03T15:27:23.999Z</time></trkpt><trkpt lat="42.633920410680894" lon="11.830598653033556"><ele>571.0</ele><time>2026-04-03T15:27:25Z</time></trkpt><trkpt lat="42.6340075113518" lon="11.830424018377526"><ele>571.0</ele><time>2026-04-03T15:27:26Z</time></trkpt><trkpt lat="42.63408021220479" lon="11.830242787507558"><ele>571.0</ele><time>2026-04-03T15:27:27Z</time></trkpt><trkpt lat="42.63411803805949" lon="11.83005531990769"><ele>571.0</ele><time>2026-04-03T15:27:28Z</time></trkpt><trkpt lat="42.634131067844685" lon="11.829869793542958"><ele>571.0</ele><time>2026-04-03T15:27:29Z</time></trkpt><trkpt lat="42.63411816415142" lon="11.829685634210978"><ele>568.0</ele><time>2026-04-03T15:27:30Z</time></trkpt><trkpt lat="42.63407257894651" lon="11.829502047428653"><ele>565.0</ele><time>2026-04-03T15:27:31Z</time></trkpt><trkpt lat="42.634017020807455" lon="11.829318050306913"><ele>562.0</ele><time>2026-04-03T15:27:32Z</time></trkpt><trkpt lat="42.63398315554534" lon="11.829120219564807"><ele>559.0</ele><time>2026-04-03T15:27:33Z</time></trkpt><trkpt lat="42.63396906287153" lon="11.828905168608914"><ele>557.5</ele><time>2026-04-03T15:27:34Z</time></trkpt><trkpt lat="42.633974258564635" lon="11.828690077338424"><ele>556.0</ele><time>2026-04-03T15:27:35Z</time></trkpt><trkpt lat="42.6339890605917" lon="11.828485407899697"><ele>554.5</ele><time>2026-04-03T15:27:36Z</time></trkpt><trkpt lat="42.63399854422686" lon="11.828295879431757"><ele>553.0</ele><time>2026-04-03T15:27:37Z</time></trkpt><trkpt lat="42.63398753502176" lon="11.828111123730725"><ele>551.75</ele><time>2026-04-03T15:27:38Z</time></trkpt><trkpt lat="42.63392978645185" lon="11.827947733199121"><ele>550.5</ele><time>2026-04-03T15:27:39Z</time></trkpt><trkpt lat="42.63383730203209" lon="11.827806760191594"><ele>549.25</ele><time>2026-04-03T15:27:40Z</time></trkpt><trkpt lat="42.633711342734266" lon="11.827701851633979"><ele>548.0</ele><time>2026-04-03T15:27:41Z</time></trkpt><trkpt lat="42.63358389008686" lon="11.827609068828325"><ele>545.5</ele><time>2026-04-03T15:27:42Z</time></trkpt><trkpt lat="42.633473492106646" lon="11.82749209640675"><ele>543.0</ele><time>2026-04-03T15:27:43Z</time></trkpt><trkpt lat="42.633356918826635" lon="11.827394076658658"><ele>540.5</ele><time>2026-04-03T15:27:44Z</time></trkpt><trkpt lat="42.63323373322442" lon="11.827320953292974"><ele>538.0</ele><time>2026-04-03T15:27:45Z</time></trkpt><trkpt lat="42.63311760017024" lon="11.82724394621793"><ele>538.0</ele><time>2026-04-03T15:27:46Z</time></trkpt><trkpt lat="42.63300543872104" lon="11.827176067763816"><ele>538.0</ele><time>2026-04-03T15:27:47Z</time></trkpt><trkpt lat="42.63287146096909" lon="11.827240643547977"><ele>538.0</ele><time>2026-04-03T15:27:48Z</time></trkpt><trkpt lat="42.63274901774796" lon="11.827305478460513"><ele>538.0</ele><time>2026-04-03T15:27:49Z</time></trkpt><trkpt lat="42.63260617496075" lon="11.827357467551321"><ele>537.3333333333334</ele><time>2026-04-03T15:27:50Z</time></trkpt><trkpt lat="42.63246965565608" lon="11.82742799196752"><ele>536.6666666666666</ele><time>2026-04-03T15:27:51Z</time></trkpt><trkpt lat="42.63232507255206" lon="11.827499141104125"><ele>536.0</ele><time>2026-04-03T15:27:52Z</time></trkpt><trkpt lat="42.632175653103175" lon="11.827553178694266"><ele>536.0</ele><time>2026-04-03T15:27:53Z</time></trkpt><trkpt lat="42.632037151469625" lon="11.827594226634835"><ele>536.0</ele><time>2026-04-03T15:27:54Z</time></trkpt><trkpt lat="42.63189812643295" lon="11.827651936998343"><ele>536.0</ele><time>2026-04-03T15:27:55Z</time></trkpt><trkpt lat="42.631766609269526" lon="11.827678395827283"><ele>536.0</ele><time>2026-04-03T15:27:56Z</time></trkpt><trkpt lat="42.63163702008834" lon="11.827703959050705"><ele>532.5</ele><time>2026-04-03T15:27:57Z</time></trkpt><trkpt lat="42.63150949145257" lon="11.827725430360214"><ele>529.0</ele><time>2026-04-03T15:27:58Z</time></trkpt><trkpt lat="42.631386501050834" lon="11.827718104623516"><ele>525.5</ele><time>2026-04-03T15:27:59Z</time></trkpt><trkpt lat="42.63126083406181" lon="11.827742268151187"><ele>522.0</ele><time>2026-04-03T15:28:00Z</time></trkpt><trkpt lat="42.63115095690705" lon="11.827707417677347"><ele>521.1666666666666</ele><time>2026-04-03T15:28:01.001Z</time></trkpt><trkpt lat="42.63105356407574" lon="11.827695379299001"><ele>520.3333333333334</ele><time>2026-04-03T15:28:02.001Z</time></trkpt><trkpt lat="42.630968902334516" lon="11.827686546558356"><ele>519.5</ele><time>2026-04-03T15:28:03.001Z</time></trkpt><trkpt lat="42.630893403377186" lon="11.827679190501303"><ele>518.6666666666667</ele><time>2026-04-03T15:28:04.001Z</time></trkpt><trkpt lat="42.63081392020493" lon="11.827674518159862"><ele>517.8333333333334</ele><time>2026-04-03T15:28:05.001Z</time></trkpt><trkpt lat="42.63072041106561" lon="11.827679726498092"><ele>517.0</ele><time>2026-04-03T15:28:06.001Z</time></trkpt><trkpt lat="42.63062657192207" lon="11.827702195837574"><ele>517.0</ele><time>2026-04-03T15:28:07.001Z</time></trkpt><trkpt lat="42.630528279898606" lon="11.827750957440415"><ele>517.0</ele><time>2026-04-03T15:28:08.001Z</time></trkpt><trkpt lat="42.63044229742736" lon="11.827814248172226"><ele>517.0</ele><time>2026-04-03T15:28:09.001Z</time></trkpt><trkpt lat="42.63037843201446" lon="11.827902402331315"><ele>517.0</ele><time>2026-04-03T15:28:10.001Z</time></trkpt><trkpt lat="42.63031993388757" lon="11.827959502556554"><ele>517.0</ele><time>2026-04-03T15:28:11.001Z</time></trkpt><trkpt lat="42.630247449094945" lon="11.828049236220133"><ele>517.0</ele><time>2026-04-03T15:28:13.001Z</time></trkpt><trkpt lat="42.630195506637826" lon="11.828103937927505"><ele>517.0</ele><time>2026-04-03T15:28:15.001Z</time></trkpt><trkpt lat="42.63030938781524" lon="11.828247219549706"><ele>517.0</ele><time>2026-04-03T15:28:16.001Z</time></trkpt><trkpt lat="42.63033637422361" lon="11.828332454739746"><ele>517.0</ele><time>2026-04-03T15:28:17.001Z</time></trkpt><trkpt lat="42.630386226813854" lon="11.828429071779674"><ele>517.0</ele><time>2026-04-03T15:28:18.001Z</time></trkpt><trkpt lat="42.63042859083214" lon="11.828546934763501"><ele>518.4</ele><time>2026-04-03T15:28:19.001Z</time></trkpt><trkpt lat="42.63047078446592" lon="11.828672751691736"><ele>519.8000000000001</ele><time>2026-04-03T15:28:20.001Z</time></trkpt><trkpt lat="42.630512145107744" lon="11.828804654720512"><ele>521.2</ele><time>2026-04-03T15:28:21.001Z</time></trkpt><trkpt lat="42.63055870863853" lon="11.828945771301624"><ele>522.6</ele><time>2026-04-03T15:28:22.001Z</time></trkpt><trkpt lat="42.630603534599295" lon="11.829092483098957"><ele>524.0</ele><time>2026-04-03T15:28:23.001Z</time></trkpt><trkpt lat="42.63065002697916" lon="11.829248108246093"><ele>525.0</ele><time>2026-04-03T15:28:24.001Z</time></trkpt><trkpt lat="42.63068879810863" lon="11.829415553060057"><ele>526.0</ele><time>2026-04-03T15:28:25.001Z</time></trkpt><trkpt lat="42.630684281480434" lon="11.829592732012175"><ele>527.0</ele><time>2026-04-03T15:28:26.001Z</time></trkpt><trkpt lat="42.6306783089728" lon="11.829759878773226"><ele>528.0</ele><time>2026-04-03T15:28:27.001Z</time></trkpt><trkpt lat="42.63067732026096" lon="11.829929062877689"><ele>528.0</ele><time>2026-04-03T15:28:28.001Z</time></trkpt><trkpt lat="42.63068224116287" lon="11.830053622065961"><ele>528.0</ele><time>2026-04-03T15:28:29.001Z</time></trkpt><trkpt lat="42.63074968631753" lon="11.830164728718161"><ele>528.0</ele><time>2026-04-03T15:28:31.001Z</time></trkpt><trkpt lat="42.630901395740004" lon="11.830090654845149"><ele>528.0</ele><time>2026-04-03T15:28:33.001Z</time></trkpt><trkpt lat="42.63098287998832" lon="11.83004775169271"><ele>528.0</ele><time>2026-04-03T15:28:34.001Z</time></trkpt><trkpt lat="42.631059686552284" lon="11.830016837315418"><ele>529.0</ele><time>2026-04-03T15:28:35.001Z</time></trkpt><trkpt lat="42.631149308848904" lon="11.829982060748273"><ele>530.0</ele><time>2026-04-03T15:28:36.001Z</time></trkpt><trkpt lat="42.63125086602717" lon="11.829942228951492"><ele>531.0</ele><time>2026-04-03T15:28:37.001Z</time></trkpt><trkpt lat="42.63135589628356" lon="11.829896635831547"><ele>532.0</ele><time>2026-04-03T15:28:38.001Z</time></trkpt><trkpt lat="42.6314677206043" lon="11.829874567721232"><ele>533.0</ele><time>2026-04-03T15:28:39.001Z</time></trkpt><trkpt lat="42.63158293870783" lon="11.829837956023841"><ele>533.0</ele><time>2026-04-03T15:28:40.001Z</time></trkpt><trkpt lat="42.63170312211525" lon="11.82980648922085"><ele>533.0</ele><time>2026-04-03T15:28:41.001Z</time></trkpt><trkpt lat="42.63182458274862" lon="11.829772383437815"><ele>533.0</ele><time>2026-04-03T15:28:42.001Z</time></trkpt><trkpt lat="42.63193791975375" lon="11.829756267956434"><ele>533.0</ele><time>2026-04-03T15:28:43.001Z</time></trkpt><trkpt lat="42.63203343464746" lon="11.829770872865478"><ele>534.3333333333333</ele><time>2026-04-03T15:28:44.001Z</time></trkpt><trkpt lat="42.63211017535983" lon="11.829758019944574"><ele>535.6666666666666</ele><time>2026-04-03T15:28:45.001Z</time></trkpt><trkpt lat="42.63217728723943" lon="11.829772694773034"><ele>537.0</ele><time>2026-04-03T15:28:46.001Z</time></trkpt><trkpt lat="42.632301676082655" lon="11.829808096795173"><ele>538.3333333333334</ele><time>2026-04-03T15:28:48.001Z</time></trkpt><trkpt lat="42.63237900912949" lon="11.829852097337353"><ele>539.6666666666667</ele><time>2026-04-03T15:28:49.002Z</time></trkpt><trkpt lat="42.632457289684595" lon="11.829904786835495"><ele>541.0</ele><time>2026-04-03T15:28:50.002Z</time></trkpt><trkpt lat="42.632551889867486" lon="11.829962815271378"><ele>541.0</ele><time>2026-04-03T15:28:51.002Z</time></trkpt><trkpt lat="42.63264631389297" lon="11.830028511288393"><ele>541.0</ele><time>2026-04-03T15:28:52.002Z</time></trkpt><trkpt lat="42.63273974318098" lon="11.830087171324683"><ele>541.0</ele><time>2026-04-03T15:28:53.002Z</time></trkpt><trkpt lat="42.632826632293636" lon="11.830138796187796"><ele>541.0</ele><time>2026-04-03T15:28:54.002Z</time></trkpt><trkpt lat="42.63291039015828" lon="11.830215525221446"><ele>541.0</ele><time>2026-04-03T15:28:55.002Z</time></trkpt><trkpt lat="42.6329930959615" lon="11.830349235958938"><ele>543.3333333333334</ele><time>2026-04-03T15:28:56.002Z</time></trkpt><trkpt lat="42.63309097832401" lon="11.830382525829897"><ele>545.6666666666666</ele><time>2026-04-03T15:28:57.002Z</time></trkpt><trkpt lat="42.63323796330239" lon="11.830157868317148"><ele>548.0</ele><time>2026-04-03T15:28:58.002Z</time></trkpt><trkpt lat="42.63336097964857" lon="11.83010963176319"><ele>548.0</ele><time>2026-04-03T15:28:59.002Z</time></trkpt><trkpt lat="42.63348526632986" lon="11.830060734189209"><ele>548.0</ele><time>2026-04-03T15:29:00.002Z</time></trkpt><trkpt lat="42.63360619830584" lon="11.830012042234188"><ele>548.0</ele><time>2026-04-03T15:29:01.002Z</time></trkpt><trkpt lat="42.63371554708625" lon="11.829969176225884"><ele>548.0</ele><time>2026-04-03T15:29:02.002Z</time></trkpt><trkpt lat="42.63381771316711" lon="11.829933169109312"><ele>550.1999999999999</ele><time>2026-04-03T15:29:03.002Z</time></trkpt><trkpt lat="42.63391353697686" lon="11.829892183122713"><ele>552.4</ele><time>2026-04-03T15:29:04.002Z</time></trkpt><trkpt lat="42.63399111788422" lon="11.82985924150165"><ele>554.5999999999999</ele><time>2026-04-03T15:29:05.002Z</time></trkpt><trkpt lat="42.63408565777182" lon="11.829875336143251"><ele>556.8</ele><time>2026-04-03T15:29:07.002Z</time></trkpt><trkpt lat="42.63407532217046" lon="11.830039744926387"><ele>559.0</ele><time>2026-04-03T15:29:09.002Z</time></trkpt><trkpt lat="42.634050170923366" lon="11.830150949120148"><ele>571.0</ele><time>2026-04-03T15:29:10Z</time></trkpt><trkpt lat="42.63401333666556" lon="11.83028592881586"><ele>571.0</ele><time>2026-04-03T15:29:10.999Z</time></trkpt><trkpt lat="42.633962525584685" lon="11.830427100562448"><ele>571.0</ele><time>2026-04-03T15:29:12Z</time></trkpt></trkseg></trk></gpx>